<?xml version="1.0" encoding="UTF-8" standalone="no" ?>
<gpx xmlns="http://www.topografix.com/GPX/1/1" xmlns:xsi="http://www.w3.org/2001/XMLSchema-instance" xsi:schemaLocation="http://www.topografix.com/GPX/1/1 http://www.topografix.com/GPX/1/1/gpx.xsd" version="1.1" creator="VisuGPX - https://www.visugpx.com">
  <metadata>
    <name>Septeuil - Le bourg médiéval de Montchauvet</name>
  </metadata>
  <trk>
    <name><![CDATA[Septeuil - Le bourg médiéval de Montchauvet_1]]></name>
    <trkseg>
      <trkpt lat="48.89101" lon="1.67957">
        <ele>59.4</ele>
        <time>2022-03-17T08:20:06Z</time>
      </trkpt>
      <trkpt lat="48.89106" lon="1.67959">
        <ele>54.1</ele>
        <time>2022-03-17T08:20:15Z</time>
      </trkpt>
      <trkpt lat="48.89111" lon="1.67958">
        <ele>55.1</ele>
        <time>2022-03-17T08:20:19Z</time>
      </trkpt>
      <trkpt lat="48.89117" lon="1.67955">
        <ele>56.4</ele>
        <time>2022-03-17T08:20:25Z</time>
      </trkpt>
      <trkpt lat="48.89123" lon="1.67953">
        <ele>56.4</ele>
        <time>2022-03-17T08:20:54Z</time>
      </trkpt>
      <trkpt lat="48.89128" lon="1.67955">
        <ele>56.9</ele>
        <time>2022-03-17T08:20:56Z</time>
      </trkpt>
      <trkpt lat="48.89133" lon="1.67956">
        <ele>58</ele>
        <time>2022-03-17T08:20:59Z</time>
      </trkpt>
      <trkpt lat="48.89138" lon="1.67956">
        <ele>59.5</ele>
        <time>2022-03-17T08:21:03Z</time>
      </trkpt>
      <trkpt lat="48.89143" lon="1.67954">
        <ele>60.1</ele>
        <time>2022-03-17T08:21:07Z</time>
      </trkpt>
      <trkpt lat="48.89148" lon="1.67951">
        <ele>59.5</ele>
        <time>2022-03-17T08:21:11Z</time>
      </trkpt>
      <trkpt lat="48.89152" lon="1.67948">
        <ele>59.1</ele>
        <time>2022-03-17T08:21:15Z</time>
      </trkpt>
      <trkpt lat="48.89158" lon="1.67946">
        <ele>59.3</ele>
        <time>2022-03-17T08:21:19Z</time>
      </trkpt>
      <trkpt lat="48.89164" lon="1.67946">
        <ele>59.4</ele>
        <time>2022-03-17T08:21:24Z</time>
      </trkpt>
      <trkpt lat="48.89169" lon="1.67948">
        <ele>59.4</ele>
        <time>2022-03-17T08:21:30Z</time>
      </trkpt>
      <trkpt lat="48.89175" lon="1.67938">
        <ele>60.8</ele>
        <time>2022-03-17T08:21:39Z</time>
      </trkpt>
      <trkpt lat="48.89175" lon="1.67929">
        <ele>61.4</ele>
        <time>2022-03-17T08:21:43Z</time>
      </trkpt>
      <trkpt lat="48.89178" lon="1.67923">
        <ele>61.6</ele>
        <time>2022-03-17T08:21:46Z</time>
      </trkpt>
      <trkpt lat="48.89182" lon="1.67918">
        <ele>62</ele>
        <time>2022-03-17T08:21:52Z</time>
      </trkpt>
      <trkpt lat="48.89187" lon="1.67916">
        <ele>62</ele>
        <time>2022-03-17T08:21:56Z</time>
      </trkpt>
      <trkpt lat="48.89192" lon="1.67913">
        <ele>61.7</ele>
        <time>2022-03-17T08:22:00Z</time>
      </trkpt>
      <trkpt lat="48.89197" lon="1.6791">
        <ele>61.6</ele>
        <time>2022-03-17T08:22:04Z</time>
      </trkpt>
      <trkpt lat="48.89202" lon="1.67908">
        <ele>61.3</ele>
        <time>2022-03-17T08:22:08Z</time>
      </trkpt>
      <trkpt lat="48.89207" lon="1.67903">
        <ele>61.2</ele>
        <time>2022-03-17T08:22:12Z</time>
      </trkpt>
      <trkpt lat="48.89212" lon="1.67902">
        <ele>61.2</ele>
        <time>2022-03-17T08:22:15Z</time>
      </trkpt>
      <trkpt lat="48.89218" lon="1.67899">
        <ele>61.5</ele>
        <time>2022-03-17T08:22:19Z</time>
      </trkpt>
      <trkpt lat="48.89223" lon="1.67894">
        <ele>62</ele>
        <time>2022-03-17T08:22:24Z</time>
      </trkpt>
      <trkpt lat="48.89228" lon="1.67887">
        <ele>62.5</ele>
        <time>2022-03-17T08:22:29Z</time>
      </trkpt>
      <trkpt lat="48.89231" lon="1.67877">
        <ele>62.5</ele>
        <time>2022-03-17T08:22:35Z</time>
      </trkpt>
      <trkpt lat="48.89229" lon="1.67871">
        <ele>62</ele>
        <time>2022-03-17T08:22:38Z</time>
      </trkpt>
      <trkpt lat="48.89225" lon="1.67866">
        <ele>61.7</ele>
        <time>2022-03-17T08:22:40Z</time>
      </trkpt>
      <trkpt lat="48.89223" lon="1.67858">
        <ele>61.1</ele>
        <time>2022-03-17T08:22:44Z</time>
      </trkpt>
      <trkpt lat="48.89221" lon="1.67851">
        <ele>60.9</ele>
        <time>2022-03-17T08:22:48Z</time>
      </trkpt>
      <trkpt lat="48.89218" lon="1.67843">
        <ele>60.7</ele>
        <time>2022-03-17T08:22:52Z</time>
      </trkpt>
      <trkpt lat="48.8922" lon="1.67836">
        <ele>60.5</ele>
        <time>2022-03-17T08:22:57Z</time>
      </trkpt>
      <trkpt lat="48.89223" lon="1.67831">
        <ele>60.3</ele>
        <time>2022-03-17T08:23:00Z</time>
      </trkpt>
      <trkpt lat="48.89228" lon="1.67828">
        <ele>59.9</ele>
        <time>2022-03-17T08:23:04Z</time>
      </trkpt>
      <trkpt lat="48.89233" lon="1.67829">
        <ele>59.6</ele>
        <time>2022-03-17T08:23:07Z</time>
      </trkpt>
      <trkpt lat="48.89238" lon="1.67828">
        <ele>59.6</ele>
        <time>2022-03-17T08:23:11Z</time>
      </trkpt>
      <trkpt lat="48.89245" lon="1.67826">
        <ele>59.7</ele>
        <time>2022-03-17T08:23:16Z</time>
      </trkpt>
      <trkpt lat="48.89251" lon="1.67825">
        <ele>60.3</ele>
        <time>2022-03-17T08:23:21Z</time>
      </trkpt>
      <trkpt lat="48.89257" lon="1.67824">
        <ele>60.4</ele>
        <time>2022-03-17T08:23:25Z</time>
      </trkpt>
      <trkpt lat="48.89262" lon="1.67823">
        <ele>60.3</ele>
        <time>2022-03-17T08:23:29Z</time>
      </trkpt>
      <trkpt lat="48.89266" lon="1.67821">
        <ele>60.3</ele>
        <time>2022-03-17T08:23:32Z</time>
      </trkpt>
      <trkpt lat="48.89271" lon="1.67818">
        <ele>60.7</ele>
        <time>2022-03-17T08:23:36Z</time>
      </trkpt>
      <trkpt lat="48.89275" lon="1.67815">
        <ele>60.9</ele>
        <time>2022-03-17T08:23:40Z</time>
      </trkpt>
      <trkpt lat="48.89279" lon="1.67811">
        <ele>60.6</ele>
        <time>2022-03-17T08:23:44Z</time>
      </trkpt>
      <trkpt lat="48.89283" lon="1.67809">
        <ele>60.4</ele>
        <time>2022-03-17T08:23:47Z</time>
      </trkpt>
      <trkpt lat="48.89288" lon="1.67809">
        <ele>60.5</ele>
        <time>2022-03-17T08:23:51Z</time>
      </trkpt>
      <trkpt lat="48.89294" lon="1.67809">
        <ele>60.5</ele>
        <time>2022-03-17T08:23:55Z</time>
      </trkpt>
      <trkpt lat="48.89299" lon="1.6781">
        <ele>60</ele>
        <time>2022-03-17T08:23:58Z</time>
      </trkpt>
      <trkpt lat="48.89302" lon="1.67804">
        <ele>59.1</ele>
        <time>2022-03-17T08:24:03Z</time>
      </trkpt>
      <trkpt lat="48.89303" lon="1.67796">
        <ele>58.4</ele>
        <time>2022-03-17T08:24:06Z</time>
      </trkpt>
      <trkpt lat="48.89303" lon="1.67788">
        <ele>58.4</ele>
        <time>2022-03-17T08:24:10Z</time>
      </trkpt>
      <trkpt lat="48.89302" lon="1.6778">
        <ele>58.2</ele>
        <time>2022-03-17T08:24:13Z</time>
      </trkpt>
      <trkpt lat="48.89299" lon="1.67773">
        <ele>57.7</ele>
        <time>2022-03-17T08:24:17Z</time>
      </trkpt>
      <trkpt lat="48.89295" lon="1.67768">
        <ele>57.3</ele>
        <time>2022-03-17T08:24:20Z</time>
      </trkpt>
      <trkpt lat="48.89291" lon="1.67764">
        <ele>57</ele>
        <time>2022-03-17T08:24:23Z</time>
      </trkpt>
      <trkpt lat="48.89287" lon="1.67759">
        <ele>56.9</ele>
        <time>2022-03-17T08:24:28Z</time>
      </trkpt>
      <trkpt lat="48.89283" lon="1.67751">
        <ele>57.7</ele>
        <time>2022-03-17T08:24:33Z</time>
      </trkpt>
      <trkpt lat="48.89281" lon="1.67745">
        <ele>58.3</ele>
        <time>2022-03-17T08:24:38Z</time>
      </trkpt>
      <trkpt lat="48.89281" lon="1.67738">
        <ele>58.4</ele>
        <time>2022-03-17T08:24:42Z</time>
      </trkpt>
      <trkpt lat="48.89281" lon="1.6773">
        <ele>59</ele>
        <time>2022-03-17T08:24:47Z</time>
      </trkpt>
      <trkpt lat="48.8928" lon="1.67723">
        <ele>60.1</ele>
        <time>2022-03-17T08:24:51Z</time>
      </trkpt>
      <trkpt lat="48.89275" lon="1.6772">
        <ele>61.3</ele>
        <time>2022-03-17T08:24:56Z</time>
      </trkpt>
      <trkpt lat="48.8927" lon="1.67719">
        <ele>62.8</ele>
        <time>2022-03-17T08:25:00Z</time>
      </trkpt>
      <trkpt lat="48.89264" lon="1.67717">
        <ele>64.4</ele>
        <time>2022-03-17T08:25:05Z</time>
      </trkpt>
      <trkpt lat="48.8926" lon="1.67715">
        <ele>65.6</ele>
        <time>2022-03-17T08:25:09Z</time>
      </trkpt>
      <trkpt lat="48.89256" lon="1.6771">
        <ele>66.3</ele>
        <time>2022-03-17T08:25:13Z</time>
      </trkpt>
      <trkpt lat="48.89251" lon="1.67705">
        <ele>66.3</ele>
        <time>2022-03-17T08:25:18Z</time>
      </trkpt>
      <trkpt lat="48.89248" lon="1.67699">
        <ele>66.7</ele>
        <time>2022-03-17T08:25:24Z</time>
      </trkpt>
      <trkpt lat="48.89243" lon="1.67694">
        <ele>66.9</ele>
        <time>2022-03-17T08:25:28Z</time>
      </trkpt>
      <trkpt lat="48.89239" lon="1.67693">
        <ele>66.2</ele>
        <time>2022-03-17T08:25:33Z</time>
      </trkpt>
      <trkpt lat="48.89233" lon="1.67693">
        <ele>66</ele>
        <time>2022-03-17T08:25:38Z</time>
      </trkpt>
      <trkpt lat="48.89227" lon="1.67694">
        <ele>66.7</ele>
        <time>2022-03-17T08:25:43Z</time>
      </trkpt>
      <trkpt lat="48.89221" lon="1.67695">
        <ele>66.9</ele>
        <time>2022-03-17T08:25:48Z</time>
      </trkpt>
      <trkpt lat="48.89214" lon="1.67698">
        <ele>67.1</ele>
        <time>2022-03-17T08:25:53Z</time>
      </trkpt>
      <trkpt lat="48.89208" lon="1.67699">
        <ele>68.6</ele>
        <time>2022-03-17T08:25:58Z</time>
      </trkpt>
      <trkpt lat="48.89202" lon="1.67701">
        <ele>69.7</ele>
        <time>2022-03-17T08:26:03Z</time>
      </trkpt>
      <trkpt lat="48.89196" lon="1.67703">
        <ele>71.9</ele>
        <time>2022-03-17T08:26:08Z</time>
      </trkpt>
      <trkpt lat="48.89191" lon="1.67704">
        <ele>73.9</ele>
        <time>2022-03-17T08:26:13Z</time>
      </trkpt>
      <trkpt lat="48.89187" lon="1.67704">
        <ele>74.7</ele>
        <time>2022-03-17T08:26:16Z</time>
      </trkpt>
      <trkpt lat="48.89181" lon="1.67706">
        <ele>75.5</ele>
        <time>2022-03-17T08:26:19Z</time>
      </trkpt>
      <trkpt lat="48.89176" lon="1.67709">
        <ele>75.8</ele>
        <time>2022-03-17T08:26:23Z</time>
      </trkpt>
      <trkpt lat="48.8917" lon="1.6771">
        <ele>75.1</ele>
        <time>2022-03-17T08:26:28Z</time>
      </trkpt>
      <trkpt lat="48.89164" lon="1.67713">
        <ele>73.3</ele>
        <time>2022-03-17T08:26:33Z</time>
      </trkpt>
      <trkpt lat="48.89159" lon="1.67713">
        <ele>72.7</ele>
        <time>2022-03-17T08:26:37Z</time>
      </trkpt>
      <trkpt lat="48.89153" lon="1.67713">
        <ele>72.5</ele>
        <time>2022-03-17T08:26:41Z</time>
      </trkpt>
      <trkpt lat="48.89148" lon="1.67713">
        <ele>73.3</ele>
        <time>2022-03-17T08:26:44Z</time>
      </trkpt>
      <trkpt lat="48.89143" lon="1.67715">
        <ele>73.4</ele>
        <time>2022-03-17T08:26:50Z</time>
      </trkpt>
      <trkpt lat="48.89137" lon="1.67714">
        <ele>73.4</ele>
        <time>2022-03-17T08:26:54Z</time>
      </trkpt>
      <trkpt lat="48.89131" lon="1.67713">
        <ele>73.5</ele>
        <time>2022-03-17T08:26:58Z</time>
      </trkpt>
      <trkpt lat="48.89126" lon="1.67715">
        <ele>73.7</ele>
        <time>2022-03-17T08:27:03Z</time>
      </trkpt>
      <trkpt lat="48.89122" lon="1.67718">
        <ele>73.5</ele>
        <time>2022-03-17T08:27:07Z</time>
      </trkpt>
      <trkpt lat="48.89117" lon="1.67721">
        <ele>72.9</ele>
        <time>2022-03-17T08:27:12Z</time>
      </trkpt>
      <trkpt lat="48.89111" lon="1.67719">
        <ele>73.2</ele>
        <time>2022-03-17T08:27:18Z</time>
      </trkpt>
      <trkpt lat="48.89106" lon="1.67718">
        <ele>74.4</ele>
        <time>2022-03-17T08:27:22Z</time>
      </trkpt>
      <trkpt lat="48.89102" lon="1.67714">
        <ele>76.3</ele>
        <time>2022-03-17T08:27:27Z</time>
      </trkpt>
      <trkpt lat="48.89096" lon="1.67717">
        <ele>75.9</ele>
        <time>2022-03-17T08:27:32Z</time>
      </trkpt>
      <trkpt lat="48.89091" lon="1.67714">
        <ele>74.9</ele>
        <time>2022-03-17T08:27:38Z</time>
      </trkpt>
      <trkpt lat="48.89086" lon="1.6771">
        <ele>74.6</ele>
        <time>2022-03-17T08:27:44Z</time>
      </trkpt>
      <trkpt lat="48.8908" lon="1.67708">
        <ele>74.8</ele>
        <time>2022-03-17T08:27:48Z</time>
      </trkpt>
      <trkpt lat="48.89076" lon="1.67704">
        <ele>74.9</ele>
        <time>2022-03-17T08:27:52Z</time>
      </trkpt>
      <trkpt lat="48.89071" lon="1.67702">
        <ele>75.5</ele>
        <time>2022-03-17T08:27:57Z</time>
      </trkpt>
      <trkpt lat="48.89065" lon="1.677">
        <ele>76.1</ele>
        <time>2022-03-17T08:28:02Z</time>
      </trkpt>
      <trkpt lat="48.89061" lon="1.67699">
        <ele>76.4</ele>
        <time>2022-03-17T08:28:05Z</time>
      </trkpt>
      <trkpt lat="48.89056" lon="1.67698">
        <ele>76.4</ele>
        <time>2022-03-17T08:28:10Z</time>
      </trkpt>
      <trkpt lat="48.89051" lon="1.67698">
        <ele>76.6</ele>
        <time>2022-03-17T08:28:14Z</time>
      </trkpt>
      <trkpt lat="48.89046" lon="1.67698">
        <ele>76.2</ele>
        <time>2022-03-17T08:28:18Z</time>
      </trkpt>
      <trkpt lat="48.89041" lon="1.67698">
        <ele>76</ele>
        <time>2022-03-17T08:28:22Z</time>
      </trkpt>
      <trkpt lat="48.89036" lon="1.67698">
        <ele>75.5</ele>
        <time>2022-03-17T08:28:26Z</time>
      </trkpt>
      <trkpt lat="48.89031" lon="1.67699">
        <ele>76.2</ele>
        <time>2022-03-17T08:28:30Z</time>
      </trkpt>
      <trkpt lat="48.89026" lon="1.67702">
        <ele>76.9</ele>
        <time>2022-03-17T08:28:33Z</time>
      </trkpt>
      <trkpt lat="48.8902" lon="1.67703">
        <ele>77.8</ele>
        <time>2022-03-17T08:28:38Z</time>
      </trkpt>
      <trkpt lat="48.89015" lon="1.67705">
        <ele>78.7</ele>
        <time>2022-03-17T08:28:42Z</time>
      </trkpt>
      <trkpt lat="48.89011" lon="1.67707">
        <ele>79</ele>
        <time>2022-03-17T08:28:45Z</time>
      </trkpt>
      <trkpt lat="48.89006" lon="1.67709">
        <ele>78.5</ele>
        <time>2022-03-17T08:28:48Z</time>
      </trkpt>
      <trkpt lat="48.89001" lon="1.6771">
        <ele>77.1</ele>
        <time>2022-03-17T08:28:54Z</time>
      </trkpt>
      <trkpt lat="48.88996" lon="1.67712">
        <ele>77.2</ele>
        <time>2022-03-17T08:28:57Z</time>
      </trkpt>
      <trkpt lat="48.88991" lon="1.67712">
        <ele>78.5</ele>
        <time>2022-03-17T08:29:01Z</time>
      </trkpt>
      <trkpt lat="48.88985" lon="1.67713">
        <ele>79.6</ele>
        <time>2022-03-17T08:29:06Z</time>
      </trkpt>
      <trkpt lat="48.8898" lon="1.67713">
        <ele>80.7</ele>
        <time>2022-03-17T08:29:09Z</time>
      </trkpt>
      <trkpt lat="48.88976" lon="1.67713">
        <ele>81.8</ele>
        <time>2022-03-17T08:29:12Z</time>
      </trkpt>
      <trkpt lat="48.88971" lon="1.67713">
        <ele>82.5</ele>
        <time>2022-03-17T08:29:16Z</time>
      </trkpt>
      <trkpt lat="48.88965" lon="1.67714">
        <ele>82.7</ele>
        <time>2022-03-17T08:29:21Z</time>
      </trkpt>
      <trkpt lat="48.8896" lon="1.67714">
        <ele>82.5</ele>
        <time>2022-03-17T08:29:25Z</time>
      </trkpt>
      <trkpt lat="48.88955" lon="1.67715">
        <ele>82.1</ele>
        <time>2022-03-17T08:29:28Z</time>
      </trkpt>
      <trkpt lat="48.88949" lon="1.67714">
        <ele>80.3</ele>
        <time>2022-03-17T08:29:33Z</time>
      </trkpt>
      <trkpt lat="48.88942" lon="1.67713">
        <ele>80.5</ele>
        <time>2022-03-17T08:29:38Z</time>
      </trkpt>
      <trkpt lat="48.88936" lon="1.67712">
        <ele>81.2</ele>
        <time>2022-03-17T08:29:43Z</time>
      </trkpt>
      <trkpt lat="48.88931" lon="1.67712">
        <ele>80.9</ele>
        <time>2022-03-17T08:29:47Z</time>
      </trkpt>
      <trkpt lat="48.88926" lon="1.67711">
        <ele>80.6</ele>
        <time>2022-03-17T08:29:51Z</time>
      </trkpt>
      <trkpt lat="48.88921" lon="1.67711">
        <ele>80.7</ele>
        <time>2022-03-17T08:29:55Z</time>
      </trkpt>
      <trkpt lat="48.88916" lon="1.67711">
        <ele>80.1</ele>
        <time>2022-03-17T08:29:58Z</time>
      </trkpt>
      <trkpt lat="48.88912" lon="1.67708">
        <ele>78.8</ele>
        <time>2022-03-17T08:30:02Z</time>
      </trkpt>
      <trkpt lat="48.88907" lon="1.67706">
        <ele>78.2</ele>
        <time>2022-03-17T08:30:06Z</time>
      </trkpt>
      <trkpt lat="48.88902" lon="1.6771">
        <ele>78.3</ele>
        <time>2022-03-17T08:30:10Z</time>
      </trkpt>
      <trkpt lat="48.88898" lon="1.67714">
        <ele>78.2</ele>
        <time>2022-03-17T08:30:14Z</time>
      </trkpt>
      <trkpt lat="48.88892" lon="1.67711">
        <ele>77.5</ele>
        <time>2022-03-17T08:30:18Z</time>
      </trkpt>
      <trkpt lat="48.88889" lon="1.67705">
        <ele>75.6</ele>
        <time>2022-03-17T08:30:22Z</time>
      </trkpt>
      <trkpt lat="48.88885" lon="1.677">
        <ele>74.7</ele>
        <time>2022-03-17T08:30:26Z</time>
      </trkpt>
      <trkpt lat="48.88881" lon="1.67696">
        <ele>74.7</ele>
        <time>2022-03-17T08:30:30Z</time>
      </trkpt>
      <trkpt lat="48.88878" lon="1.67691">
        <ele>74.8</ele>
        <time>2022-03-17T08:30:34Z</time>
      </trkpt>
      <trkpt lat="48.88873" lon="1.67688">
        <ele>74.5</ele>
        <time>2022-03-17T08:30:38Z</time>
      </trkpt>
      <trkpt lat="48.88867" lon="1.67691">
        <ele>74.2</ele>
        <time>2022-03-17T08:30:43Z</time>
      </trkpt>
      <trkpt lat="48.88861" lon="1.67691">
        <ele>73.2</ele>
        <time>2022-03-17T08:30:48Z</time>
      </trkpt>
      <trkpt lat="48.88855" lon="1.6769">
        <ele>72.7</ele>
        <time>2022-03-17T08:30:52Z</time>
      </trkpt>
      <trkpt lat="48.8885" lon="1.67691">
        <ele>72.9</ele>
        <time>2022-03-17T08:30:55Z</time>
      </trkpt>
      <trkpt lat="48.88845" lon="1.67691">
        <ele>73</ele>
        <time>2022-03-17T08:31:00Z</time>
      </trkpt>
      <trkpt lat="48.8884" lon="1.67692">
        <ele>73.3</ele>
        <time>2022-03-17T08:31:03Z</time>
      </trkpt>
      <trkpt lat="48.88835" lon="1.67692">
        <ele>74.1</ele>
        <time>2022-03-17T08:31:07Z</time>
      </trkpt>
      <trkpt lat="48.8883" lon="1.67693">
        <ele>75.1</ele>
        <time>2022-03-17T08:31:11Z</time>
      </trkpt>
      <trkpt lat="48.88824" lon="1.67694">
        <ele>75.8</ele>
        <time>2022-03-17T08:31:15Z</time>
      </trkpt>
      <trkpt lat="48.88819" lon="1.67695">
        <ele>76.2</ele>
        <time>2022-03-17T08:31:19Z</time>
      </trkpt>
      <trkpt lat="48.88814" lon="1.67697">
        <ele>76.6</ele>
        <time>2022-03-17T08:31:23Z</time>
      </trkpt>
      <trkpt lat="48.88809" lon="1.67698">
        <ele>76.3</ele>
        <time>2022-03-17T08:31:26Z</time>
      </trkpt>
      <trkpt lat="48.88804" lon="1.677">
        <ele>75.7</ele>
        <time>2022-03-17T08:31:30Z</time>
      </trkpt>
      <trkpt lat="48.88799" lon="1.67701">
        <ele>75.3</ele>
        <time>2022-03-17T08:31:35Z</time>
      </trkpt>
      <trkpt lat="48.88794" lon="1.67701">
        <ele>75.2</ele>
        <time>2022-03-17T08:31:38Z</time>
      </trkpt>
      <trkpt lat="48.88788" lon="1.67703">
        <ele>75</ele>
        <time>2022-03-17T08:31:42Z</time>
      </trkpt>
      <trkpt lat="48.88783" lon="1.67704">
        <ele>75.2</ele>
        <time>2022-03-17T08:31:46Z</time>
      </trkpt>
      <trkpt lat="48.88778" lon="1.67704">
        <ele>76.2</ele>
        <time>2022-03-17T08:31:50Z</time>
      </trkpt>
      <trkpt lat="48.88772" lon="1.67706">
        <ele>76.7</ele>
        <time>2022-03-17T08:31:54Z</time>
      </trkpt>
      <trkpt lat="48.88767" lon="1.67707">
        <ele>76.8</ele>
        <time>2022-03-17T08:31:57Z</time>
      </trkpt>
      <trkpt lat="48.88762" lon="1.67709">
        <ele>76.8</ele>
        <time>2022-03-17T08:32:02Z</time>
      </trkpt>
      <trkpt lat="48.88756" lon="1.6771">
        <ele>77.1</ele>
        <time>2022-03-17T08:32:06Z</time>
      </trkpt>
      <trkpt lat="48.88748" lon="1.6771">
        <ele>77.7</ele>
        <time>2022-03-17T08:32:11Z</time>
      </trkpt>
      <trkpt lat="48.88743" lon="1.67711">
        <ele>78</ele>
        <time>2022-03-17T08:32:15Z</time>
      </trkpt>
      <trkpt lat="48.88738" lon="1.67713">
        <ele>78.2</ele>
        <time>2022-03-17T08:32:19Z</time>
      </trkpt>
      <trkpt lat="48.88733" lon="1.67714">
        <ele>78</ele>
        <time>2022-03-17T08:32:23Z</time>
      </trkpt>
      <trkpt lat="48.88727" lon="1.67715">
        <ele>78</ele>
        <time>2022-03-17T08:32:28Z</time>
      </trkpt>
      <trkpt lat="48.88722" lon="1.67715">
        <ele>78</ele>
        <time>2022-03-17T08:32:32Z</time>
      </trkpt>
      <trkpt lat="48.88717" lon="1.67714">
        <ele>77.8</ele>
        <time>2022-03-17T08:32:36Z</time>
      </trkpt>
      <trkpt lat="48.88712" lon="1.67713">
        <ele>77.6</ele>
        <time>2022-03-17T08:32:40Z</time>
      </trkpt>
      <trkpt lat="48.88707" lon="1.67711">
        <ele>77.7</ele>
        <time>2022-03-17T08:32:43Z</time>
      </trkpt>
      <trkpt lat="48.88701" lon="1.67707">
        <ele>77.9</ele>
        <time>2022-03-17T08:32:47Z</time>
      </trkpt>
      <trkpt lat="48.88697" lon="1.67704">
        <ele>78.4</ele>
        <time>2022-03-17T08:32:52Z</time>
      </trkpt>
      <trkpt lat="48.88692" lon="1.67701">
        <ele>78.8</ele>
        <time>2022-03-17T08:32:55Z</time>
      </trkpt>
      <trkpt lat="48.88688" lon="1.67697">
        <ele>79.5</ele>
        <time>2022-03-17T08:32:59Z</time>
      </trkpt>
      <trkpt lat="48.88683" lon="1.67693">
        <ele>80.3</ele>
        <time>2022-03-17T08:33:03Z</time>
      </trkpt>
      <trkpt lat="48.88679" lon="1.67689">
        <ele>80.6</ele>
        <time>2022-03-17T08:33:06Z</time>
      </trkpt>
      <trkpt lat="48.88675" lon="1.67686">
        <ele>81.1</ele>
        <time>2022-03-17T08:33:10Z</time>
      </trkpt>
      <trkpt lat="48.8867" lon="1.67682">
        <ele>81.3</ele>
        <time>2022-03-17T08:33:14Z</time>
      </trkpt>
      <trkpt lat="48.88665" lon="1.67678">
        <ele>81</ele>
        <time>2022-03-17T08:33:18Z</time>
      </trkpt>
      <trkpt lat="48.88661" lon="1.67674">
        <ele>80.8</ele>
        <time>2022-03-17T08:33:22Z</time>
      </trkpt>
      <trkpt lat="48.88657" lon="1.6767">
        <ele>80.8</ele>
        <time>2022-03-17T08:33:26Z</time>
      </trkpt>
      <trkpt lat="48.8865" lon="1.67665">
        <ele>80.9</ele>
        <time>2022-03-17T08:33:31Z</time>
      </trkpt>
      <trkpt lat="48.88645" lon="1.6766">
        <ele>81.1</ele>
        <time>2022-03-17T08:33:36Z</time>
      </trkpt>
      <trkpt lat="48.8864" lon="1.67654">
        <ele>81.4</ele>
        <time>2022-03-17T08:33:40Z</time>
      </trkpt>
      <trkpt lat="48.88635" lon="1.67649">
        <ele>81.3</ele>
        <time>2022-03-17T08:33:46Z</time>
      </trkpt>
      <trkpt lat="48.88631" lon="1.67645">
        <ele>81.4</ele>
        <time>2022-03-17T08:33:49Z</time>
      </trkpt>
      <trkpt lat="48.88627" lon="1.67642">
        <ele>81.7</ele>
        <time>2022-03-17T08:33:53Z</time>
      </trkpt>
      <trkpt lat="48.88623" lon="1.67638">
        <ele>82.4</ele>
        <time>2022-03-17T08:33:57Z</time>
      </trkpt>
      <trkpt lat="48.88619" lon="1.67633">
        <ele>83.1</ele>
        <time>2022-03-17T08:34:01Z</time>
      </trkpt>
      <trkpt lat="48.88613" lon="1.67628">
        <ele>84.4</ele>
        <time>2022-03-17T08:34:05Z</time>
      </trkpt>
      <trkpt lat="48.88609" lon="1.67624">
        <ele>85.7</ele>
        <time>2022-03-17T08:34:09Z</time>
      </trkpt>
      <trkpt lat="48.88605" lon="1.6762">
        <ele>86.5</ele>
        <time>2022-03-17T08:34:13Z</time>
      </trkpt>
      <trkpt lat="48.88601" lon="1.67615">
        <ele>86.6</ele>
        <time>2022-03-17T08:34:17Z</time>
      </trkpt>
      <trkpt lat="48.88596" lon="1.67611">
        <ele>86.3</ele>
        <time>2022-03-17T08:34:21Z</time>
      </trkpt>
      <trkpt lat="48.88592" lon="1.67608">
        <ele>86</ele>
        <time>2022-03-17T08:34:25Z</time>
      </trkpt>
      <trkpt lat="48.88586" lon="1.67605">
        <ele>86.1</ele>
        <time>2022-03-17T08:34:30Z</time>
      </trkpt>
      <trkpt lat="48.88579" lon="1.67602">
        <ele>86.4</ele>
        <time>2022-03-17T08:34:35Z</time>
      </trkpt>
      <trkpt lat="48.88574" lon="1.676">
        <ele>87.1</ele>
        <time>2022-03-17T08:34:40Z</time>
      </trkpt>
      <trkpt lat="48.88567" lon="1.67597">
        <ele>87.9</ele>
        <time>2022-03-17T08:34:45Z</time>
      </trkpt>
      <trkpt lat="48.88561" lon="1.67595">
        <ele>88.5</ele>
        <time>2022-03-17T08:34:50Z</time>
      </trkpt>
      <trkpt lat="48.88555" lon="1.67593">
        <ele>88.9</ele>
        <time>2022-03-17T08:34:55Z</time>
      </trkpt>
      <trkpt lat="48.88549" lon="1.67591">
        <ele>89</ele>
        <time>2022-03-17T08:35:00Z</time>
      </trkpt>
      <trkpt lat="48.88544" lon="1.6759">
        <ele>89.2</ele>
        <time>2022-03-17T08:35:04Z</time>
      </trkpt>
      <trkpt lat="48.88538" lon="1.67589">
        <ele>89.7</ele>
        <time>2022-03-17T08:35:09Z</time>
      </trkpt>
      <trkpt lat="48.88532" lon="1.67587">
        <ele>90.2</ele>
        <time>2022-03-17T08:35:13Z</time>
      </trkpt>
      <trkpt lat="48.88528" lon="1.67586">
        <ele>90.6</ele>
        <time>2022-03-17T08:35:17Z</time>
      </trkpt>
      <trkpt lat="48.88522" lon="1.67585">
        <ele>90.7</ele>
        <time>2022-03-17T08:35:20Z</time>
      </trkpt>
      <trkpt lat="48.88517" lon="1.67585">
        <ele>90.6</ele>
        <time>2022-03-17T08:35:25Z</time>
      </trkpt>
      <trkpt lat="48.88512" lon="1.67585">
        <ele>90.2</ele>
        <time>2022-03-17T08:35:29Z</time>
      </trkpt>
      <trkpt lat="48.88507" lon="1.67585">
        <ele>89.9</ele>
        <time>2022-03-17T08:35:33Z</time>
      </trkpt>
      <trkpt lat="48.88502" lon="1.67584">
        <ele>89.8</ele>
        <time>2022-03-17T08:35:37Z</time>
      </trkpt>
      <trkpt lat="48.88496" lon="1.67583">
        <ele>89.5</ele>
        <time>2022-03-17T08:35:41Z</time>
      </trkpt>
      <trkpt lat="48.88491" lon="1.67582">
        <ele>89.6</ele>
        <time>2022-03-17T08:35:45Z</time>
      </trkpt>
      <trkpt lat="48.88485" lon="1.67581">
        <ele>90.1</ele>
        <time>2022-03-17T08:35:49Z</time>
      </trkpt>
      <trkpt lat="48.88479" lon="1.6758">
        <ele>90.5</ele>
        <time>2022-03-17T08:35:54Z</time>
      </trkpt>
      <trkpt lat="48.88474" lon="1.67578">
        <ele>90.6</ele>
        <time>2022-03-17T08:35:58Z</time>
      </trkpt>
      <trkpt lat="48.88469" lon="1.67578">
        <ele>90.6</ele>
        <time>2022-03-17T08:36:01Z</time>
      </trkpt>
      <trkpt lat="48.88465" lon="1.67577">
        <ele>90.7</ele>
        <time>2022-03-17T08:36:04Z</time>
      </trkpt>
      <trkpt lat="48.8846" lon="1.67577">
        <ele>90.8</ele>
        <time>2022-03-17T08:36:08Z</time>
      </trkpt>
      <trkpt lat="48.88455" lon="1.67576">
        <ele>91.1</ele>
        <time>2022-03-17T08:36:12Z</time>
      </trkpt>
      <trkpt lat="48.8845" lon="1.67575">
        <ele>91.4</ele>
        <time>2022-03-17T08:36:16Z</time>
      </trkpt>
      <trkpt lat="48.88446" lon="1.67574">
        <ele>91.6</ele>
        <time>2022-03-17T08:36:19Z</time>
      </trkpt>
      <trkpt lat="48.88441" lon="1.67572">
        <ele>91.8</ele>
        <time>2022-03-17T08:36:23Z</time>
      </trkpt>
      <trkpt lat="48.88436" lon="1.67571">
        <ele>92</ele>
        <time>2022-03-17T08:36:27Z</time>
      </trkpt>
      <trkpt lat="48.88431" lon="1.6757">
        <ele>92.2</ele>
        <time>2022-03-17T08:36:31Z</time>
      </trkpt>
      <trkpt lat="48.88426" lon="1.67569">
        <ele>92.2</ele>
        <time>2022-03-17T08:36:34Z</time>
      </trkpt>
      <trkpt lat="48.8842" lon="1.67568">
        <ele>92.1</ele>
        <time>2022-03-17T08:36:38Z</time>
      </trkpt>
      <trkpt lat="48.88415" lon="1.67566">
        <ele>92.2</ele>
        <time>2022-03-17T08:36:42Z</time>
      </trkpt>
      <trkpt lat="48.8841" lon="1.67564">
        <ele>92.8</ele>
        <time>2022-03-17T08:36:46Z</time>
      </trkpt>
      <trkpt lat="48.88405" lon="1.67563">
        <ele>93.4</ele>
        <time>2022-03-17T08:36:50Z</time>
      </trkpt>
      <trkpt lat="48.884" lon="1.6756">
        <ele>93.9</ele>
        <time>2022-03-17T08:36:54Z</time>
      </trkpt>
      <trkpt lat="48.88395" lon="1.67559">
        <ele>93.7</ele>
        <time>2022-03-17T08:36:58Z</time>
      </trkpt>
      <trkpt lat="48.8839" lon="1.67554">
        <ele>93.7</ele>
        <time>2022-03-17T08:37:03Z</time>
      </trkpt>
      <trkpt lat="48.88384" lon="1.6755">
        <ele>94.1</ele>
        <time>2022-03-17T08:37:07Z</time>
      </trkpt>
      <trkpt lat="48.88379" lon="1.67546">
        <ele>94.7</ele>
        <time>2022-03-17T08:37:11Z</time>
      </trkpt>
      <trkpt lat="48.88374" lon="1.67541">
        <ele>94.9</ele>
        <time>2022-03-17T08:37:16Z</time>
      </trkpt>
      <trkpt lat="48.8837" lon="1.67539">
        <ele>94.8</ele>
        <time>2022-03-17T08:37:20Z</time>
      </trkpt>
      <trkpt lat="48.88365" lon="1.67535">
        <ele>94.8</ele>
        <time>2022-03-17T08:37:25Z</time>
      </trkpt>
      <trkpt lat="48.88361" lon="1.67527">
        <ele>95.7</ele>
        <time>2022-03-17T08:37:33Z</time>
      </trkpt>
      <trkpt lat="48.88354" lon="1.67528">
        <ele>96</ele>
        <time>2022-03-17T08:37:36Z</time>
      </trkpt>
      <trkpt lat="48.88349" lon="1.67525">
        <ele>96.2</ele>
        <time>2022-03-17T08:37:38Z</time>
      </trkpt>
      <trkpt lat="48.88345" lon="1.67519">
        <ele>96.5</ele>
        <time>2022-03-17T08:37:41Z</time>
      </trkpt>
      <trkpt lat="48.88341" lon="1.67514">
        <ele>96.8</ele>
        <time>2022-03-17T08:37:44Z</time>
      </trkpt>
      <trkpt lat="48.88336" lon="1.67512">
        <ele>97</ele>
        <time>2022-03-17T08:37:48Z</time>
      </trkpt>
      <trkpt lat="48.88331" lon="1.67509">
        <ele>96.8</ele>
        <time>2022-03-17T08:37:52Z</time>
      </trkpt>
      <trkpt lat="48.88326" lon="1.67505">
        <ele>96.7</ele>
        <time>2022-03-17T08:37:56Z</time>
      </trkpt>
      <trkpt lat="48.88321" lon="1.67501">
        <ele>96.7</ele>
        <time>2022-03-17T08:38:00Z</time>
      </trkpt>
      <trkpt lat="48.88315" lon="1.675">
        <ele>96.7</ele>
        <time>2022-03-17T08:38:04Z</time>
      </trkpt>
      <trkpt lat="48.88311" lon="1.67501">
        <ele>96.2</ele>
        <time>2022-03-17T08:38:08Z</time>
      </trkpt>
      <trkpt lat="48.88306" lon="1.67503">
        <ele>96</ele>
        <time>2022-03-17T08:38:11Z</time>
      </trkpt>
      <trkpt lat="48.88302" lon="1.67507">
        <ele>95.8</ele>
        <time>2022-03-17T08:38:14Z</time>
      </trkpt>
      <trkpt lat="48.883" lon="1.67516">
        <ele>95.7</ele>
        <time>2022-03-17T08:38:19Z</time>
      </trkpt>
      <trkpt lat="48.88297" lon="1.67523">
        <ele>95.4</ele>
        <time>2022-03-17T08:38:24Z</time>
      </trkpt>
      <trkpt lat="48.88299" lon="1.67529">
        <ele>98.1</ele>
        <time>2022-03-17T08:38:33Z</time>
      </trkpt>
      <trkpt lat="48.88295" lon="1.67534">
        <ele>99.6</ele>
        <time>2022-03-17T08:38:37Z</time>
      </trkpt>
      <trkpt lat="48.88291" lon="1.67539">
        <ele>100.5</ele>
        <time>2022-03-17T08:38:41Z</time>
      </trkpt>
      <trkpt lat="48.88287" lon="1.67544">
        <ele>100.1</ele>
        <time>2022-03-17T08:38:46Z</time>
      </trkpt>
      <trkpt lat="48.88283" lon="1.6755">
        <ele>98.9</ele>
        <time>2022-03-17T08:38:51Z</time>
      </trkpt>
      <trkpt lat="48.8828" lon="1.67556">
        <ele>96.5</ele>
        <time>2022-03-17T08:38:55Z</time>
      </trkpt>
      <trkpt lat="48.88276" lon="1.67564">
        <ele>93.8</ele>
        <time>2022-03-17T08:38:59Z</time>
      </trkpt>
      <trkpt lat="48.88272" lon="1.67572">
        <ele>92.6</ele>
        <time>2022-03-17T08:39:04Z</time>
      </trkpt>
      <trkpt lat="48.88268" lon="1.6758">
        <ele>91.4</ele>
        <time>2022-03-17T08:39:09Z</time>
      </trkpt>
      <trkpt lat="48.88265" lon="1.67588">
        <ele>90.7</ele>
        <time>2022-03-17T08:39:14Z</time>
      </trkpt>
      <trkpt lat="48.88263" lon="1.67594">
        <ele>91.4</ele>
        <time>2022-03-17T08:39:19Z</time>
      </trkpt>
      <trkpt lat="48.88261" lon="1.67603">
        <ele>92.2</ele>
        <time>2022-03-17T08:39:24Z</time>
      </trkpt>
      <trkpt lat="48.88258" lon="1.6761">
        <ele>92</ele>
        <time>2022-03-17T08:39:29Z</time>
      </trkpt>
      <trkpt lat="48.88256" lon="1.67619">
        <ele>90.7</ele>
        <time>2022-03-17T08:39:34Z</time>
      </trkpt>
      <trkpt lat="48.88254" lon="1.67628">
        <ele>90.7</ele>
        <time>2022-03-17T08:39:39Z</time>
      </trkpt>
      <trkpt lat="48.88252" lon="1.67638">
        <ele>92.4</ele>
        <time>2022-03-17T08:39:44Z</time>
      </trkpt>
      <trkpt lat="48.8825" lon="1.67647">
        <ele>93.5</ele>
        <time>2022-03-17T08:39:49Z</time>
      </trkpt>
      <trkpt lat="48.88248" lon="1.67653">
        <ele>94.1</ele>
        <time>2022-03-17T08:39:53Z</time>
      </trkpt>
      <trkpt lat="48.88246" lon="1.67659">
        <ele>94.5</ele>
        <time>2022-03-17T08:39:56Z</time>
      </trkpt>
      <trkpt lat="48.88245" lon="1.67667">
        <ele>94.2</ele>
        <time>2022-03-17T08:39:59Z</time>
      </trkpt>
      <trkpt lat="48.88241" lon="1.67675">
        <ele>93.5</ele>
        <time>2022-03-17T08:40:04Z</time>
      </trkpt>
      <trkpt lat="48.88239" lon="1.67684">
        <ele>92.9</ele>
        <time>2022-03-17T08:40:09Z</time>
      </trkpt>
      <trkpt lat="48.88238" lon="1.67691">
        <ele>93</ele>
        <time>2022-03-17T08:40:14Z</time>
      </trkpt>
      <trkpt lat="48.88236" lon="1.67698">
        <ele>93.5</ele>
        <time>2022-03-17T08:40:18Z</time>
      </trkpt>
      <trkpt lat="48.88234" lon="1.67705">
        <ele>94.3</ele>
        <time>2022-03-17T08:40:21Z</time>
      </trkpt>
      <trkpt lat="48.88234" lon="1.67713">
        <ele>95.1</ele>
        <time>2022-03-17T08:40:25Z</time>
      </trkpt>
      <trkpt lat="48.88232" lon="1.67721">
        <ele>95.6</ele>
        <time>2022-03-17T08:40:29Z</time>
      </trkpt>
      <trkpt lat="48.8823" lon="1.6773">
        <ele>96</ele>
        <time>2022-03-17T08:40:34Z</time>
      </trkpt>
      <trkpt lat="48.88228" lon="1.67739">
        <ele>96.1</ele>
        <time>2022-03-17T08:40:39Z</time>
      </trkpt>
      <trkpt lat="48.88228" lon="1.67749">
        <ele>96.1</ele>
        <time>2022-03-17T08:40:44Z</time>
      </trkpt>
      <trkpt lat="48.88227" lon="1.67758">
        <ele>96</ele>
        <time>2022-03-17T08:40:50Z</time>
      </trkpt>
      <trkpt lat="48.88227" lon="1.67767">
        <ele>95.6</ele>
        <time>2022-03-17T08:40:55Z</time>
      </trkpt>
      <trkpt lat="48.88227" lon="1.67777">
        <ele>95.3</ele>
        <time>2022-03-17T08:41:00Z</time>
      </trkpt>
      <trkpt lat="48.88228" lon="1.67786">
        <ele>95</ele>
        <time>2022-03-17T08:41:04Z</time>
      </trkpt>
      <trkpt lat="48.88229" lon="1.67793">
        <ele>95</ele>
        <time>2022-03-17T08:41:09Z</time>
      </trkpt>
      <trkpt lat="48.88231" lon="1.67801">
        <ele>95.4</ele>
        <time>2022-03-17T08:41:13Z</time>
      </trkpt>
      <trkpt lat="48.88233" lon="1.67809">
        <ele>96</ele>
        <time>2022-03-17T08:41:17Z</time>
      </trkpt>
      <trkpt lat="48.88235" lon="1.67815">
        <ele>96.2</ele>
        <time>2022-03-17T08:41:21Z</time>
      </trkpt>
      <trkpt lat="48.88236" lon="1.67824">
        <ele>96.1</ele>
        <time>2022-03-17T08:41:24Z</time>
      </trkpt>
      <trkpt lat="48.88238" lon="1.6783">
        <ele>95.6</ele>
        <time>2022-03-17T08:41:28Z</time>
      </trkpt>
      <trkpt lat="48.8824" lon="1.67837">
        <ele>94.5</ele>
        <time>2022-03-17T08:41:32Z</time>
      </trkpt>
      <trkpt lat="48.88241" lon="1.67845">
        <ele>93.3</ele>
        <time>2022-03-17T08:41:36Z</time>
      </trkpt>
      <trkpt lat="48.88243" lon="1.67852">
        <ele>92.5</ele>
        <time>2022-03-17T08:41:40Z</time>
      </trkpt>
      <trkpt lat="48.88244" lon="1.67862">
        <ele>91.7</ele>
        <time>2022-03-17T08:41:45Z</time>
      </trkpt>
      <trkpt lat="48.88244" lon="1.67869">
        <ele>91.1</ele>
        <time>2022-03-17T08:41:48Z</time>
      </trkpt>
      <trkpt lat="48.88243" lon="1.67878">
        <ele>90.4</ele>
        <time>2022-03-17T08:41:53Z</time>
      </trkpt>
      <trkpt lat="48.88242" lon="1.67886">
        <ele>90.1</ele>
        <time>2022-03-17T08:41:57Z</time>
      </trkpt>
      <trkpt lat="48.8824" lon="1.67892">
        <ele>89.9</ele>
        <time>2022-03-17T08:42:01Z</time>
      </trkpt>
      <trkpt lat="48.88238" lon="1.67899">
        <ele>89.6</ele>
        <time>2022-03-17T08:42:05Z</time>
      </trkpt>
      <trkpt lat="48.88239" lon="1.67907">
        <ele>89.1</ele>
        <time>2022-03-17T08:42:10Z</time>
      </trkpt>
      <trkpt lat="48.8824" lon="1.67916">
        <ele>89.2</ele>
        <time>2022-03-17T08:42:14Z</time>
      </trkpt>
      <trkpt lat="48.88237" lon="1.67922">
        <ele>89.2</ele>
        <time>2022-03-17T08:42:17Z</time>
      </trkpt>
      <trkpt lat="48.88234" lon="1.67929">
        <ele>88.9</ele>
        <time>2022-03-17T08:42:22Z</time>
      </trkpt>
      <trkpt lat="48.88232" lon="1.67935">
        <ele>88.1</ele>
        <time>2022-03-17T08:42:26Z</time>
      </trkpt>
      <trkpt lat="48.88228" lon="1.6794">
        <ele>87.6</ele>
        <time>2022-03-17T08:42:31Z</time>
      </trkpt>
      <trkpt lat="48.88225" lon="1.67948">
        <ele>87.4</ele>
        <time>2022-03-17T08:42:35Z</time>
      </trkpt>
      <trkpt lat="48.88223" lon="1.67956">
        <ele>86.9</ele>
        <time>2022-03-17T08:42:40Z</time>
      </trkpt>
      <trkpt lat="48.88221" lon="1.67963">
        <ele>86.5</ele>
        <time>2022-03-17T08:42:45Z</time>
      </trkpt>
      <trkpt lat="48.88218" lon="1.67971">
        <ele>85.7</ele>
        <time>2022-03-17T08:42:50Z</time>
      </trkpt>
      <trkpt lat="48.88214" lon="1.67978">
        <ele>84.7</ele>
        <time>2022-03-17T08:42:55Z</time>
      </trkpt>
      <trkpt lat="48.88209" lon="1.67984">
        <ele>84.2</ele>
        <time>2022-03-17T08:43:00Z</time>
      </trkpt>
      <trkpt lat="48.88204" lon="1.6799">
        <ele>84.3</ele>
        <time>2022-03-17T08:43:05Z</time>
      </trkpt>
      <trkpt lat="48.882" lon="1.67996">
        <ele>83.2</ele>
        <time>2022-03-17T08:43:10Z</time>
      </trkpt>
      <trkpt lat="48.88195" lon="1.68002">
        <ele>81.2</ele>
        <time>2022-03-17T08:43:15Z</time>
      </trkpt>
      <trkpt lat="48.8819" lon="1.68005">
        <ele>80.9</ele>
        <time>2022-03-17T08:43:20Z</time>
      </trkpt>
      <trkpt lat="48.88186" lon="1.68007">
        <ele>80.5</ele>
        <time>2022-03-17T08:43:24Z</time>
      </trkpt>
      <trkpt lat="48.88182" lon="1.6801">
        <ele>79.4</ele>
        <time>2022-03-17T08:43:28Z</time>
      </trkpt>
      <trkpt lat="48.88177" lon="1.68013">
        <ele>78.4</ele>
        <time>2022-03-17T08:43:32Z</time>
      </trkpt>
      <trkpt lat="48.88173" lon="1.68016">
        <ele>78.3</ele>
        <time>2022-03-17T08:43:36Z</time>
      </trkpt>
      <trkpt lat="48.88167" lon="1.68018">
        <ele>78.2</ele>
        <time>2022-03-17T08:43:40Z</time>
      </trkpt>
      <trkpt lat="48.88161" lon="1.6802">
        <ele>76.6</ele>
        <time>2022-03-17T08:43:45Z</time>
      </trkpt>
      <trkpt lat="48.88156" lon="1.68021">
        <ele>73.6</ele>
        <time>2022-03-17T08:43:50Z</time>
      </trkpt>
      <trkpt lat="48.8815" lon="1.68025">
        <ele>72.8</ele>
        <time>2022-03-17T08:43:55Z</time>
      </trkpt>
      <trkpt lat="48.88144" lon="1.68027">
        <ele>72.6</ele>
        <time>2022-03-17T08:44:00Z</time>
      </trkpt>
      <trkpt lat="48.88139" lon="1.68031">
        <ele>72.7</ele>
        <time>2022-03-17T08:44:05Z</time>
      </trkpt>
      <trkpt lat="48.88134" lon="1.68037">
        <ele>72.8</ele>
        <time>2022-03-17T08:44:10Z</time>
      </trkpt>
      <trkpt lat="48.88129" lon="1.68041">
        <ele>72.9</ele>
        <time>2022-03-17T08:44:15Z</time>
      </trkpt>
      <trkpt lat="48.88123" lon="1.68044">
        <ele>73.7</ele>
        <time>2022-03-17T08:44:20Z</time>
      </trkpt>
      <trkpt lat="48.88118" lon="1.68047">
        <ele>73.9</ele>
        <time>2022-03-17T08:44:26Z</time>
      </trkpt>
      <trkpt lat="48.88113" lon="1.68051">
        <ele>74.3</ele>
        <time>2022-03-17T08:44:30Z</time>
      </trkpt>
      <trkpt lat="48.88109" lon="1.68054">
        <ele>74.4</ele>
        <time>2022-03-17T08:44:36Z</time>
      </trkpt>
      <trkpt lat="48.88105" lon="1.68059">
        <ele>74.2</ele>
        <time>2022-03-17T08:44:41Z</time>
      </trkpt>
      <trkpt lat="48.88101" lon="1.68064">
        <ele>74.5</ele>
        <time>2022-03-17T08:44:46Z</time>
      </trkpt>
      <trkpt lat="48.88096" lon="1.68068">
        <ele>74.7</ele>
        <time>2022-03-17T08:44:50Z</time>
      </trkpt>
      <trkpt lat="48.88092" lon="1.68074">
        <ele>74.6</ele>
        <time>2022-03-17T08:44:55Z</time>
      </trkpt>
      <trkpt lat="48.88086" lon="1.68076">
        <ele>75.3</ele>
        <time>2022-03-17T08:45:00Z</time>
      </trkpt>
      <trkpt lat="48.88081" lon="1.68081">
        <ele>75.6</ele>
        <time>2022-03-17T08:45:05Z</time>
      </trkpt>
      <trkpt lat="48.88079" lon="1.68089">
        <ele>72.9</ele>
        <time>2022-03-17T08:45:10Z</time>
      </trkpt>
      <trkpt lat="48.88077" lon="1.68098">
        <ele>69.7</ele>
        <time>2022-03-17T08:45:15Z</time>
      </trkpt>
      <trkpt lat="48.88076" lon="1.68108">
        <ele>68.2</ele>
        <time>2022-03-17T08:45:21Z</time>
      </trkpt>
      <trkpt lat="48.88079" lon="1.68116">
        <ele>67.9</ele>
        <time>2022-03-17T08:45:25Z</time>
      </trkpt>
      <trkpt lat="48.88083" lon="1.68119">
        <ele>70.2</ele>
        <time>2022-03-17T08:45:42Z</time>
      </trkpt>
      <trkpt lat="48.88083" lon="1.68126">
        <ele>70.6</ele>
        <time>2022-03-17T08:45:59Z</time>
      </trkpt>
      <trkpt lat="48.88086" lon="1.68133">
        <ele>69.9</ele>
        <time>2022-03-17T08:46:05Z</time>
      </trkpt>
      <trkpt lat="48.88089" lon="1.68141">
        <ele>68.1</ele>
        <time>2022-03-17T08:46:11Z</time>
      </trkpt>
      <trkpt lat="48.88091" lon="1.68147">
        <ele>63.4</ele>
        <time>2022-03-17T08:46:32Z</time>
      </trkpt>
      <trkpt lat="48.88094" lon="1.68153">
        <ele>65.9</ele>
        <time>2022-03-17T08:47:11Z</time>
      </trkpt>
      <trkpt lat="48.88095" lon="1.68161">
        <ele>68.3</ele>
        <time>2022-03-17T08:47:15Z</time>
      </trkpt>
      <trkpt lat="48.88097" lon="1.68169">
        <ele>68.4</ele>
        <time>2022-03-17T08:47:20Z</time>
      </trkpt>
      <trkpt lat="48.88098" lon="1.68176">
        <ele>67.5</ele>
        <time>2022-03-17T08:47:23Z</time>
      </trkpt>
      <trkpt lat="48.881" lon="1.68183">
        <ele>66.4</ele>
        <time>2022-03-17T08:47:26Z</time>
      </trkpt>
      <trkpt lat="48.88101" lon="1.68192">
        <ele>65.7</ele>
        <time>2022-03-17T08:47:31Z</time>
      </trkpt>
      <trkpt lat="48.88102" lon="1.682">
        <ele>64.6</ele>
        <time>2022-03-17T08:47:39Z</time>
      </trkpt>
      <trkpt lat="48.88103" lon="1.68208">
        <ele>64.1</ele>
        <time>2022-03-17T08:47:42Z</time>
      </trkpt>
      <trkpt lat="48.88103" lon="1.68216">
        <ele>64.2</ele>
        <time>2022-03-17T08:47:47Z</time>
      </trkpt>
      <trkpt lat="48.88104" lon="1.68226">
        <ele>64</ele>
        <time>2022-03-17T08:47:51Z</time>
      </trkpt>
      <trkpt lat="48.88103" lon="1.68235">
        <ele>63</ele>
        <time>2022-03-17T08:47:57Z</time>
      </trkpt>
      <trkpt lat="48.88104" lon="1.68242">
        <ele>63.1</ele>
        <time>2022-03-17T08:48:02Z</time>
      </trkpt>
      <trkpt lat="48.88105" lon="1.6825">
        <ele>63.8</ele>
        <time>2022-03-17T08:48:06Z</time>
      </trkpt>
      <trkpt lat="48.88105" lon="1.68257">
        <ele>63.9</ele>
        <time>2022-03-17T08:48:09Z</time>
      </trkpt>
      <trkpt lat="48.88105" lon="1.68268">
        <ele>63.9</ele>
        <time>2022-03-17T08:48:14Z</time>
      </trkpt>
      <trkpt lat="48.88107" lon="1.68275">
        <ele>64.4</ele>
        <time>2022-03-17T08:48:18Z</time>
      </trkpt>
      <trkpt lat="48.88108" lon="1.68284">
        <ele>65.1</ele>
        <time>2022-03-17T08:48:24Z</time>
      </trkpt>
      <trkpt lat="48.88108" lon="1.68294">
        <ele>65.1</ele>
        <time>2022-03-17T08:48:29Z</time>
      </trkpt>
      <trkpt lat="48.88108" lon="1.68305">
        <ele>64.9</ele>
        <time>2022-03-17T08:48:33Z</time>
      </trkpt>
      <trkpt lat="48.8811" lon="1.68315">
        <ele>64.5</ele>
        <time>2022-03-17T08:48:38Z</time>
      </trkpt>
      <trkpt lat="48.88112" lon="1.68324">
        <ele>64.2</ele>
        <time>2022-03-17T08:48:43Z</time>
      </trkpt>
      <trkpt lat="48.88112" lon="1.68333">
        <ele>64.3</ele>
        <time>2022-03-17T08:48:49Z</time>
      </trkpt>
      <trkpt lat="48.88113" lon="1.6834">
        <ele>64.1</ele>
        <time>2022-03-17T08:48:52Z</time>
      </trkpt>
      <trkpt lat="48.88113" lon="1.68349">
        <ele>64</ele>
        <time>2022-03-17T08:48:56Z</time>
      </trkpt>
      <trkpt lat="48.88112" lon="1.68355">
        <ele>64</ele>
        <time>2022-03-17T08:49:00Z</time>
      </trkpt>
      <trkpt lat="48.88112" lon="1.68363">
        <ele>64.7</ele>
        <time>2022-03-17T08:49:04Z</time>
      </trkpt>
      <trkpt lat="48.88112" lon="1.68372">
        <ele>65</ele>
        <time>2022-03-17T08:49:09Z</time>
      </trkpt>
      <trkpt lat="48.8811" lon="1.68382">
        <ele>65.6</ele>
        <time>2022-03-17T08:49:14Z</time>
      </trkpt>
      <trkpt lat="48.88107" lon="1.68387">
        <ele>66</ele>
        <time>2022-03-17T08:49:19Z</time>
      </trkpt>
      <trkpt lat="48.88103" lon="1.68389">
        <ele>66.2</ele>
        <time>2022-03-17T08:49:23Z</time>
      </trkpt>
      <trkpt lat="48.88101" lon="1.68397">
        <ele>65.9</ele>
        <time>2022-03-17T08:49:28Z</time>
      </trkpt>
      <trkpt lat="48.881" lon="1.68407">
        <ele>65.7</ele>
        <time>2022-03-17T08:49:34Z</time>
      </trkpt>
      <trkpt lat="48.881" lon="1.68414">
        <ele>66.2</ele>
        <time>2022-03-17T08:49:38Z</time>
      </trkpt>
      <trkpt lat="48.88099" lon="1.68422">
        <ele>67.7</ele>
        <time>2022-03-17T08:49:43Z</time>
      </trkpt>
      <trkpt lat="48.88098" lon="1.68429">
        <ele>68</ele>
        <time>2022-03-17T08:49:47Z</time>
      </trkpt>
      <trkpt lat="48.88097" lon="1.68437">
        <ele>69.1</ele>
        <time>2022-03-17T08:49:52Z</time>
      </trkpt>
      <trkpt lat="48.88096" lon="1.68444">
        <ele>69.8</ele>
        <time>2022-03-17T08:49:55Z</time>
      </trkpt>
      <trkpt lat="48.88097" lon="1.68451">
        <ele>69.7</ele>
        <time>2022-03-17T08:49:59Z</time>
      </trkpt>
      <trkpt lat="48.88096" lon="1.6846">
        <ele>69.4</ele>
        <time>2022-03-17T08:50:04Z</time>
      </trkpt>
      <trkpt lat="48.88095" lon="1.68469">
        <ele>70.2</ele>
        <time>2022-03-17T08:50:09Z</time>
      </trkpt>
      <trkpt lat="48.88094" lon="1.68477">
        <ele>71.7</ele>
        <time>2022-03-17T08:50:14Z</time>
      </trkpt>
      <trkpt lat="48.88093" lon="1.68485">
        <ele>72.3</ele>
        <time>2022-03-17T08:50:19Z</time>
      </trkpt>
      <trkpt lat="48.88092" lon="1.68494">
        <ele>71.8</ele>
        <time>2022-03-17T08:50:24Z</time>
      </trkpt>
      <trkpt lat="48.88091" lon="1.68503">
        <ele>72.8</ele>
        <time>2022-03-17T08:50:30Z</time>
      </trkpt>
      <trkpt lat="48.8809" lon="1.68512">
        <ele>73.8</ele>
        <time>2022-03-17T08:50:34Z</time>
      </trkpt>
      <trkpt lat="48.88087" lon="1.68519">
        <ele>75</ele>
        <time>2022-03-17T08:50:39Z</time>
      </trkpt>
      <trkpt lat="48.88082" lon="1.68524">
        <ele>76.2</ele>
        <time>2022-03-17T08:50:45Z</time>
      </trkpt>
      <trkpt lat="48.88078" lon="1.68524">
        <ele>76.7</ele>
        <time>2022-03-17T08:50:50Z</time>
      </trkpt>
      <trkpt lat="48.88072" lon="1.68524">
        <ele>77.5</ele>
        <time>2022-03-17T08:50:55Z</time>
      </trkpt>
      <trkpt lat="48.88067" lon="1.68525">
        <ele>79.3</ele>
        <time>2022-03-17T08:50:59Z</time>
      </trkpt>
      <trkpt lat="48.88063" lon="1.68523">
        <ele>79.6</ele>
        <time>2022-03-17T08:51:05Z</time>
      </trkpt>
      <trkpt lat="48.88057" lon="1.68523">
        <ele>78.2</ele>
        <time>2022-03-17T08:51:11Z</time>
      </trkpt>
      <trkpt lat="48.88052" lon="1.68524">
        <ele>77.7</ele>
        <time>2022-03-17T08:51:15Z</time>
      </trkpt>
      <trkpt lat="48.88047" lon="1.68525">
        <ele>77.7</ele>
        <time>2022-03-17T08:51:19Z</time>
      </trkpt>
      <trkpt lat="48.88042" lon="1.68525">
        <ele>77.6</ele>
        <time>2022-03-17T08:51:26Z</time>
      </trkpt>
      <trkpt lat="48.88037" lon="1.68525">
        <ele>78.2</ele>
        <time>2022-03-17T08:51:29Z</time>
      </trkpt>
      <trkpt lat="48.88032" lon="1.68527">
        <ele>79</ele>
        <time>2022-03-17T08:51:35Z</time>
      </trkpt>
      <trkpt lat="48.88027" lon="1.6853">
        <ele>79.1</ele>
        <time>2022-03-17T08:51:40Z</time>
      </trkpt>
      <trkpt lat="48.88022" lon="1.68533">
        <ele>79.6</ele>
        <time>2022-03-17T08:51:44Z</time>
      </trkpt>
      <trkpt lat="48.88017" lon="1.68535">
        <ele>80.9</ele>
        <time>2022-03-17T08:51:50Z</time>
      </trkpt>
      <trkpt lat="48.88012" lon="1.68537">
        <ele>81.8</ele>
        <time>2022-03-17T08:51:54Z</time>
      </trkpt>
      <trkpt lat="48.88006" lon="1.68541">
        <ele>83.7</ele>
        <time>2022-03-17T08:51:59Z</time>
      </trkpt>
      <trkpt lat="48.88001" lon="1.68544">
        <ele>87.2</ele>
        <time>2022-03-17T08:52:05Z</time>
      </trkpt>
      <trkpt lat="48.87998" lon="1.68549">
        <ele>88.4</ele>
        <time>2022-03-17T08:52:10Z</time>
      </trkpt>
      <trkpt lat="48.87995" lon="1.68557">
        <ele>88.6</ele>
        <time>2022-03-17T08:52:15Z</time>
      </trkpt>
      <trkpt lat="48.87992" lon="1.68562">
        <ele>89.4</ele>
        <time>2022-03-17T08:52:19Z</time>
      </trkpt>
      <trkpt lat="48.87988" lon="1.68568">
        <ele>91.2</ele>
        <time>2022-03-17T08:52:24Z</time>
      </trkpt>
      <trkpt lat="48.87983" lon="1.68575">
        <ele>93</ele>
        <time>2022-03-17T08:52:29Z</time>
      </trkpt>
      <trkpt lat="48.87979" lon="1.68581">
        <ele>93.7</ele>
        <time>2022-03-17T08:52:34Z</time>
      </trkpt>
      <trkpt lat="48.87977" lon="1.68589">
        <ele>94</ele>
        <time>2022-03-17T08:52:40Z</time>
      </trkpt>
      <trkpt lat="48.87976" lon="1.68598">
        <ele>94.6</ele>
        <time>2022-03-17T08:52:44Z</time>
      </trkpt>
      <trkpt lat="48.87977" lon="1.68605">
        <ele>96.1</ele>
        <time>2022-03-17T08:52:49Z</time>
      </trkpt>
      <trkpt lat="48.87975" lon="1.68612">
        <ele>97</ele>
        <time>2022-03-17T08:52:53Z</time>
      </trkpt>
      <trkpt lat="48.87974" lon="1.68619">
        <ele>97.5</ele>
        <time>2022-03-17T08:52:58Z</time>
      </trkpt>
      <trkpt lat="48.87975" lon="1.68626">
        <ele>97.5</ele>
        <time>2022-03-17T08:53:02Z</time>
      </trkpt>
      <trkpt lat="48.87975" lon="1.68635">
        <ele>97</ele>
        <time>2022-03-17T08:53:07Z</time>
      </trkpt>
      <trkpt lat="48.87975" lon="1.68642">
        <ele>96.3</ele>
        <time>2022-03-17T08:53:10Z</time>
      </trkpt>
      <trkpt lat="48.87976" lon="1.6865">
        <ele>95.7</ele>
        <time>2022-03-17T08:53:14Z</time>
      </trkpt>
      <trkpt lat="48.87976" lon="1.68658">
        <ele>95.4</ele>
        <time>2022-03-17T08:53:19Z</time>
      </trkpt>
      <trkpt lat="48.87975" lon="1.68666">
        <ele>95.5</ele>
        <time>2022-03-17T08:53:23Z</time>
      </trkpt>
      <trkpt lat="48.87976" lon="1.68675">
        <ele>96.9</ele>
        <time>2022-03-17T08:53:27Z</time>
      </trkpt>
      <trkpt lat="48.87977" lon="1.68682">
        <ele>98.1</ele>
        <time>2022-03-17T08:53:30Z</time>
      </trkpt>
      <trkpt lat="48.87977" lon="1.68689">
        <ele>100.1</ele>
        <time>2022-03-17T08:53:34Z</time>
      </trkpt>
      <trkpt lat="48.87978" lon="1.68698">
        <ele>101.6</ele>
        <time>2022-03-17T08:53:38Z</time>
      </trkpt>
      <trkpt lat="48.87978" lon="1.68705">
        <ele>101.5</ele>
        <time>2022-03-17T08:53:42Z</time>
      </trkpt>
      <trkpt lat="48.87978" lon="1.68712">
        <ele>101.3</ele>
        <time>2022-03-17T08:53:45Z</time>
      </trkpt>
      <trkpt lat="48.87978" lon="1.68722">
        <ele>101.6</ele>
        <time>2022-03-17T08:53:50Z</time>
      </trkpt>
      <trkpt lat="48.87979" lon="1.68728">
        <ele>102.9</ele>
        <time>2022-03-17T08:53:54Z</time>
      </trkpt>
      <trkpt lat="48.87979" lon="1.68737">
        <ele>103.3</ele>
        <time>2022-03-17T08:53:59Z</time>
      </trkpt>
      <trkpt lat="48.87979" lon="1.68745">
        <ele>103.5</ele>
        <time>2022-03-17T08:54:02Z</time>
      </trkpt>
      <trkpt lat="48.87979" lon="1.68752">
        <ele>103.1</ele>
        <time>2022-03-17T08:54:06Z</time>
      </trkpt>
      <trkpt lat="48.87979" lon="1.6876">
        <ele>102.3</ele>
        <time>2022-03-17T08:54:10Z</time>
      </trkpt>
      <trkpt lat="48.87979" lon="1.68769">
        <ele>100.3</ele>
        <time>2022-03-17T08:54:15Z</time>
      </trkpt>
      <trkpt lat="48.87981" lon="1.68778">
        <ele>100</ele>
        <time>2022-03-17T08:54:20Z</time>
      </trkpt>
      <trkpt lat="48.87982" lon="1.68787">
        <ele>101.1</ele>
        <time>2022-03-17T08:54:25Z</time>
      </trkpt>
      <trkpt lat="48.87983" lon="1.68797">
        <ele>101.8</ele>
        <time>2022-03-17T08:54:30Z</time>
      </trkpt>
      <trkpt lat="48.87984" lon="1.68807">
        <ele>101.6</ele>
        <time>2022-03-17T08:54:35Z</time>
      </trkpt>
      <trkpt lat="48.87985" lon="1.68817">
        <ele>101.2</ele>
        <time>2022-03-17T08:54:40Z</time>
      </trkpt>
      <trkpt lat="48.87984" lon="1.68826">
        <ele>100.8</ele>
        <time>2022-03-17T08:54:45Z</time>
      </trkpt>
      <trkpt lat="48.8798" lon="1.6883">
        <ele>100.7</ele>
        <time>2022-03-17T08:54:50Z</time>
      </trkpt>
      <trkpt lat="48.87973" lon="1.68828">
        <ele>99.8</ele>
        <time>2022-03-17T08:54:55Z</time>
      </trkpt>
      <trkpt lat="48.87969" lon="1.68828">
        <ele>99.3</ele>
        <time>2022-03-17T08:54:59Z</time>
      </trkpt>
      <trkpt lat="48.87963" lon="1.68829">
        <ele>99.1</ele>
        <time>2022-03-17T08:55:03Z</time>
      </trkpt>
      <trkpt lat="48.87958" lon="1.68831">
        <ele>99.3</ele>
        <time>2022-03-17T08:55:06Z</time>
      </trkpt>
      <trkpt lat="48.87953" lon="1.68832">
        <ele>99.5</ele>
        <time>2022-03-17T08:55:10Z</time>
      </trkpt>
      <trkpt lat="48.87947" lon="1.68835">
        <ele>100.8</ele>
        <time>2022-03-17T08:55:15Z</time>
      </trkpt>
      <trkpt lat="48.87942" lon="1.68837">
        <ele>102.1</ele>
        <time>2022-03-17T08:55:19Z</time>
      </trkpt>
      <trkpt lat="48.87936" lon="1.68839">
        <ele>102.7</ele>
        <time>2022-03-17T08:55:24Z</time>
      </trkpt>
      <trkpt lat="48.87931" lon="1.68839">
        <ele>102.1</ele>
        <time>2022-03-17T08:55:28Z</time>
      </trkpt>
      <trkpt lat="48.87926" lon="1.68839">
        <ele>100.4</ele>
        <time>2022-03-17T08:55:32Z</time>
      </trkpt>
      <trkpt lat="48.87921" lon="1.68841">
        <ele>98.5</ele>
        <time>2022-03-17T08:55:35Z</time>
      </trkpt>
      <trkpt lat="48.87915" lon="1.68843">
        <ele>97.9</ele>
        <time>2022-03-17T08:55:40Z</time>
      </trkpt>
      <trkpt lat="48.87909" lon="1.68846">
        <ele>98</ele>
        <time>2022-03-17T08:55:45Z</time>
      </trkpt>
      <trkpt lat="48.87903" lon="1.68849">
        <ele>98.2</ele>
        <time>2022-03-17T08:55:50Z</time>
      </trkpt>
      <trkpt lat="48.87898" lon="1.68851">
        <ele>97.8</ele>
        <time>2022-03-17T08:55:56Z</time>
      </trkpt>
      <trkpt lat="48.87892" lon="1.68853">
        <ele>96.3</ele>
        <time>2022-03-17T08:56:00Z</time>
      </trkpt>
      <trkpt lat="48.87886" lon="1.68854">
        <ele>94.8</ele>
        <time>2022-03-17T08:56:05Z</time>
      </trkpt>
      <trkpt lat="48.8788" lon="1.68856">
        <ele>94.5</ele>
        <time>2022-03-17T08:56:10Z</time>
      </trkpt>
      <trkpt lat="48.87873" lon="1.68857">
        <ele>94.9</ele>
        <time>2022-03-17T08:56:15Z</time>
      </trkpt>
      <trkpt lat="48.87867" lon="1.68859">
        <ele>95.3</ele>
        <time>2022-03-17T08:56:20Z</time>
      </trkpt>
      <trkpt lat="48.87861" lon="1.68862">
        <ele>96.6</ele>
        <time>2022-03-17T08:56:25Z</time>
      </trkpt>
      <trkpt lat="48.87855" lon="1.68865">
        <ele>96.3</ele>
        <time>2022-03-17T08:56:30Z</time>
      </trkpt>
      <trkpt lat="48.87848" lon="1.68867">
        <ele>95.2</ele>
        <time>2022-03-17T08:56:35Z</time>
      </trkpt>
      <trkpt lat="48.87842" lon="1.68867">
        <ele>94.9</ele>
        <time>2022-03-17T08:56:40Z</time>
      </trkpt>
      <trkpt lat="48.87838" lon="1.68869">
        <ele>94.5</ele>
        <time>2022-03-17T08:56:44Z</time>
      </trkpt>
      <trkpt lat="48.87832" lon="1.6887">
        <ele>94.3</ele>
        <time>2022-03-17T08:56:48Z</time>
      </trkpt>
      <trkpt lat="48.87827" lon="1.68871">
        <ele>94.2</ele>
        <time>2022-03-17T08:56:52Z</time>
      </trkpt>
      <trkpt lat="48.87822" lon="1.68873">
        <ele>93.9</ele>
        <time>2022-03-17T08:56:55Z</time>
      </trkpt>
      <trkpt lat="48.87818" lon="1.68875">
        <ele>93.2</ele>
        <time>2022-03-17T08:56:59Z</time>
      </trkpt>
      <trkpt lat="48.87812" lon="1.68876">
        <ele>93</ele>
        <time>2022-03-17T08:57:03Z</time>
      </trkpt>
      <trkpt lat="48.87806" lon="1.68878">
        <ele>93.1</ele>
        <time>2022-03-17T08:57:08Z</time>
      </trkpt>
      <trkpt lat="48.87801" lon="1.6888">
        <ele>93</ele>
        <time>2022-03-17T08:57:12Z</time>
      </trkpt>
      <trkpt lat="48.87796" lon="1.68882">
        <ele>92.6</ele>
        <time>2022-03-17T08:57:15Z</time>
      </trkpt>
      <trkpt lat="48.8779" lon="1.68883">
        <ele>91.8</ele>
        <time>2022-03-17T08:57:21Z</time>
      </trkpt>
      <trkpt lat="48.87783" lon="1.68885">
        <ele>91.6</ele>
        <time>2022-03-17T08:57:26Z</time>
      </trkpt>
      <trkpt lat="48.87777" lon="1.68886">
        <ele>91.9</ele>
        <time>2022-03-17T08:57:30Z</time>
      </trkpt>
      <trkpt lat="48.87771" lon="1.68887">
        <ele>92.7</ele>
        <time>2022-03-17T08:57:35Z</time>
      </trkpt>
      <trkpt lat="48.87764" lon="1.68889">
        <ele>93.8</ele>
        <time>2022-03-17T08:57:41Z</time>
      </trkpt>
      <trkpt lat="48.87758" lon="1.68892">
        <ele>94.1</ele>
        <time>2022-03-17T08:57:46Z</time>
      </trkpt>
      <trkpt lat="48.87751" lon="1.68894">
        <ele>94.2</ele>
        <time>2022-03-17T08:57:51Z</time>
      </trkpt>
      <trkpt lat="48.87745" lon="1.68896">
        <ele>94.6</ele>
        <time>2022-03-17T08:57:56Z</time>
      </trkpt>
      <trkpt lat="48.87739" lon="1.68898">
        <ele>95.2</ele>
        <time>2022-03-17T08:58:01Z</time>
      </trkpt>
      <trkpt lat="48.87734" lon="1.689">
        <ele>96.2</ele>
        <time>2022-03-17T08:58:05Z</time>
      </trkpt>
      <trkpt lat="48.87727" lon="1.68902">
        <ele>97.4</ele>
        <time>2022-03-17T08:58:10Z</time>
      </trkpt>
      <trkpt lat="48.87722" lon="1.68903">
        <ele>97.9</ele>
        <time>2022-03-17T08:58:14Z</time>
      </trkpt>
      <trkpt lat="48.87717" lon="1.68904">
        <ele>98.6</ele>
        <time>2022-03-17T08:58:18Z</time>
      </trkpt>
      <trkpt lat="48.87712" lon="1.68907">
        <ele>99</ele>
        <time>2022-03-17T08:58:21Z</time>
      </trkpt>
      <trkpt lat="48.87706" lon="1.6891">
        <ele>100.2</ele>
        <time>2022-03-17T08:58:26Z</time>
      </trkpt>
      <trkpt lat="48.87699" lon="1.68913">
        <ele>101.3</ele>
        <time>2022-03-17T08:58:31Z</time>
      </trkpt>
      <trkpt lat="48.87695" lon="1.68915">
        <ele>101.7</ele>
        <time>2022-03-17T08:58:35Z</time>
      </trkpt>
      <trkpt lat="48.8769" lon="1.68918">
        <ele>101.5</ele>
        <time>2022-03-17T08:58:39Z</time>
      </trkpt>
      <trkpt lat="48.87685" lon="1.6892">
        <ele>100.7</ele>
        <time>2022-03-17T08:58:43Z</time>
      </trkpt>
      <trkpt lat="48.87679" lon="1.68921">
        <ele>100.1</ele>
        <time>2022-03-17T08:58:46Z</time>
      </trkpt>
      <trkpt lat="48.87673" lon="1.68924">
        <ele>99.1</ele>
        <time>2022-03-17T08:58:51Z</time>
      </trkpt>
      <trkpt lat="48.87667" lon="1.68928">
        <ele>99.3</ele>
        <time>2022-03-17T08:58:56Z</time>
      </trkpt>
      <trkpt lat="48.87662" lon="1.6893">
        <ele>99.3</ele>
        <time>2022-03-17T08:59:00Z</time>
      </trkpt>
      <trkpt lat="48.87657" lon="1.68932">
        <ele>98.6</ele>
        <time>2022-03-17T08:59:04Z</time>
      </trkpt>
      <trkpt lat="48.87652" lon="1.68934">
        <ele>97.5</ele>
        <time>2022-03-17T08:59:08Z</time>
      </trkpt>
      <trkpt lat="48.87647" lon="1.68936">
        <ele>97.2</ele>
        <time>2022-03-17T08:59:11Z</time>
      </trkpt>
      <trkpt lat="48.8764" lon="1.68938">
        <ele>97.8</ele>
        <time>2022-03-17T08:59:16Z</time>
      </trkpt>
      <trkpt lat="48.87634" lon="1.6894">
        <ele>97.7</ele>
        <time>2022-03-17T08:59:21Z</time>
      </trkpt>
      <trkpt lat="48.87628" lon="1.68941">
        <ele>96.7</ele>
        <time>2022-03-17T08:59:26Z</time>
      </trkpt>
      <trkpt lat="48.87622" lon="1.68945">
        <ele>96.5</ele>
        <time>2022-03-17T08:59:31Z</time>
      </trkpt>
      <trkpt lat="48.87616" lon="1.6895">
        <ele>96.4</ele>
        <time>2022-03-17T08:59:36Z</time>
      </trkpt>
      <trkpt lat="48.87612" lon="1.68957">
        <ele>96.1</ele>
        <time>2022-03-17T08:59:41Z</time>
      </trkpt>
      <trkpt lat="48.87615" lon="1.68966">
        <ele>96.3</ele>
        <time>2022-03-17T08:59:45Z</time>
      </trkpt>
      <trkpt lat="48.87618" lon="1.68973">
        <ele>96.1</ele>
        <time>2022-03-17T08:59:48Z</time>
      </trkpt>
      <trkpt lat="48.87621" lon="1.6898">
        <ele>95.5</ele>
        <time>2022-03-17T08:59:51Z</time>
      </trkpt>
      <trkpt lat="48.87624" lon="1.6899">
        <ele>94.9</ele>
        <time>2022-03-17T08:59:56Z</time>
      </trkpt>
      <trkpt lat="48.87625" lon="1.69">
        <ele>94.7</ele>
        <time>2022-03-17T09:00:01Z</time>
      </trkpt>
      <trkpt lat="48.87628" lon="1.6901">
        <ele>94.9</ele>
        <time>2022-03-17T09:00:06Z</time>
      </trkpt>
      <trkpt lat="48.8763" lon="1.69016">
        <ele>96</ele>
        <time>2022-03-17T09:00:10Z</time>
      </trkpt>
      <trkpt lat="48.87633" lon="1.69023">
        <ele>96.8</ele>
        <time>2022-03-17T09:00:14Z</time>
      </trkpt>
      <trkpt lat="48.87635" lon="1.6903">
        <ele>97.3</ele>
        <time>2022-03-17T09:00:17Z</time>
      </trkpt>
      <trkpt lat="48.87637" lon="1.69038">
        <ele>98</ele>
        <time>2022-03-17T09:00:21Z</time>
      </trkpt>
      <trkpt lat="48.87641" lon="1.69046">
        <ele>98.8</ele>
        <time>2022-03-17T09:00:26Z</time>
      </trkpt>
      <trkpt lat="48.87643" lon="1.69055">
        <ele>98.9</ele>
        <time>2022-03-17T09:00:31Z</time>
      </trkpt>
      <trkpt lat="48.87645" lon="1.69063">
        <ele>98.4</ele>
        <time>2022-03-17T09:00:36Z</time>
      </trkpt>
      <trkpt lat="48.87647" lon="1.6907">
        <ele>97.8</ele>
        <time>2022-03-17T09:00:40Z</time>
      </trkpt>
      <trkpt lat="48.8765" lon="1.69076">
        <ele>97.8</ele>
        <time>2022-03-17T09:00:43Z</time>
      </trkpt>
      <trkpt lat="48.87653" lon="1.69082">
        <ele>97.9</ele>
        <time>2022-03-17T09:00:47Z</time>
      </trkpt>
      <trkpt lat="48.87656" lon="1.69092">
        <ele>98.4</ele>
        <time>2022-03-17T09:00:52Z</time>
      </trkpt>
      <trkpt lat="48.87658" lon="1.69099">
        <ele>98.7</ele>
        <time>2022-03-17T09:00:56Z</time>
      </trkpt>
      <trkpt lat="48.8766" lon="1.69106">
        <ele>98.9</ele>
        <time>2022-03-17T09:01:00Z</time>
      </trkpt>
      <trkpt lat="48.87663" lon="1.69113">
        <ele>99.2</ele>
        <time>2022-03-17T09:01:03Z</time>
      </trkpt>
      <trkpt lat="48.87665" lon="1.69119">
        <ele>100.1</ele>
        <time>2022-03-17T09:01:07Z</time>
      </trkpt>
      <trkpt lat="48.87667" lon="1.69125">
        <ele>100.9</ele>
        <time>2022-03-17T09:01:10Z</time>
      </trkpt>
      <trkpt lat="48.8767" lon="1.69132">
        <ele>101.6</ele>
        <time>2022-03-17T09:01:13Z</time>
      </trkpt>
      <trkpt lat="48.87673" lon="1.69141">
        <ele>102.2</ele>
        <time>2022-03-17T09:01:18Z</time>
      </trkpt>
      <trkpt lat="48.87675" lon="1.69151">
        <ele>102.1</ele>
        <time>2022-03-17T09:01:23Z</time>
      </trkpt>
      <trkpt lat="48.87676" lon="1.69158">
        <ele>101.9</ele>
        <time>2022-03-17T09:01:27Z</time>
      </trkpt>
      <trkpt lat="48.87678" lon="1.69165">
        <ele>101.9</ele>
        <time>2022-03-17T09:01:31Z</time>
      </trkpt>
      <trkpt lat="48.8768" lon="1.69172">
        <ele>102.1</ele>
        <time>2022-03-17T09:01:35Z</time>
      </trkpt>
      <trkpt lat="48.87682" lon="1.69179">
        <ele>102.1</ele>
        <time>2022-03-17T09:01:38Z</time>
      </trkpt>
      <trkpt lat="48.87684" lon="1.69186">
        <ele>101.6</ele>
        <time>2022-03-17T09:01:43Z</time>
      </trkpt>
      <trkpt lat="48.87685" lon="1.69192">
        <ele>101.2</ele>
        <time>2022-03-17T09:01:47Z</time>
      </trkpt>
      <trkpt lat="48.87688" lon="1.692">
        <ele>101.1</ele>
        <time>2022-03-17T09:01:51Z</time>
      </trkpt>
      <trkpt lat="48.8769" lon="1.69208">
        <ele>100.8</ele>
        <time>2022-03-17T09:01:55Z</time>
      </trkpt>
      <trkpt lat="48.87693" lon="1.69214">
        <ele>100.6</ele>
        <time>2022-03-17T09:01:59Z</time>
      </trkpt>
      <trkpt lat="48.87696" lon="1.69222">
        <ele>100.3</ele>
        <time>2022-03-17T09:02:03Z</time>
      </trkpt>
      <trkpt lat="48.87698" lon="1.6923">
        <ele>100</ele>
        <time>2022-03-17T09:02:08Z</time>
      </trkpt>
      <trkpt lat="48.877" lon="1.69236">
        <ele>100</ele>
        <time>2022-03-17T09:02:13Z</time>
      </trkpt>
      <trkpt lat="48.87703" lon="1.69243">
        <ele>100</ele>
        <time>2022-03-17T09:02:16Z</time>
      </trkpt>
      <trkpt lat="48.87706" lon="1.69253">
        <ele>99.9</ele>
        <time>2022-03-17T09:02:20Z</time>
      </trkpt>
      <trkpt lat="48.87708" lon="1.69259">
        <ele>100.2</ele>
        <time>2022-03-17T09:02:25Z</time>
      </trkpt>
      <trkpt lat="48.8771" lon="1.69267">
        <ele>100.5</ele>
        <time>2022-03-17T09:02:28Z</time>
      </trkpt>
      <trkpt lat="48.87712" lon="1.69273">
        <ele>101</ele>
        <time>2022-03-17T09:02:32Z</time>
      </trkpt>
      <trkpt lat="48.87714" lon="1.69281">
        <ele>101.2</ele>
        <time>2022-03-17T09:02:36Z</time>
      </trkpt>
      <trkpt lat="48.87716" lon="1.69288">
        <ele>101.4</ele>
        <time>2022-03-17T09:02:40Z</time>
      </trkpt>
      <trkpt lat="48.87717" lon="1.69295">
        <ele>101.5</ele>
        <time>2022-03-17T09:02:43Z</time>
      </trkpt>
      <trkpt lat="48.87719" lon="1.69302">
        <ele>101.7</ele>
        <time>2022-03-17T09:02:47Z</time>
      </trkpt>
      <trkpt lat="48.87722" lon="1.69309">
        <ele>101.6</ele>
        <time>2022-03-17T09:02:50Z</time>
      </trkpt>
      <trkpt lat="48.87724" lon="1.69316">
        <ele>101.8</ele>
        <time>2022-03-17T09:02:55Z</time>
      </trkpt>
      <trkpt lat="48.87726" lon="1.69324">
        <ele>101.5</ele>
        <time>2022-03-17T09:02:59Z</time>
      </trkpt>
      <trkpt lat="48.87728" lon="1.69331">
        <ele>101.7</ele>
        <time>2022-03-17T09:03:02Z</time>
      </trkpt>
      <trkpt lat="48.87731" lon="1.69338">
        <ele>101.9</ele>
        <time>2022-03-17T09:03:07Z</time>
      </trkpt>
      <trkpt lat="48.87733" lon="1.69348">
        <ele>102.2</ele>
        <time>2022-03-17T09:03:11Z</time>
      </trkpt>
      <trkpt lat="48.87736" lon="1.69356">
        <ele>101.8</ele>
        <time>2022-03-17T09:03:16Z</time>
      </trkpt>
      <trkpt lat="48.87738" lon="1.69365">
        <ele>101.9</ele>
        <time>2022-03-17T09:03:21Z</time>
      </trkpt>
      <trkpt lat="48.87741" lon="1.69374">
        <ele>101.6</ele>
        <time>2022-03-17T09:03:27Z</time>
      </trkpt>
      <trkpt lat="48.87744" lon="1.69385">
        <ele>101.1</ele>
        <time>2022-03-17T09:03:32Z</time>
      </trkpt>
      <trkpt lat="48.87746" lon="1.69393">
        <ele>100.7</ele>
        <time>2022-03-17T09:03:36Z</time>
      </trkpt>
      <trkpt lat="48.87748" lon="1.694">
        <ele>100</ele>
        <time>2022-03-17T09:03:41Z</time>
      </trkpt>
      <trkpt lat="48.8775" lon="1.69407">
        <ele>100</ele>
        <time>2022-03-17T09:03:45Z</time>
      </trkpt>
      <trkpt lat="48.87751" lon="1.69415">
        <ele>100.1</ele>
        <time>2022-03-17T09:03:49Z</time>
      </trkpt>
      <trkpt lat="48.87753" lon="1.69422">
        <ele>100.1</ele>
        <time>2022-03-17T09:03:53Z</time>
      </trkpt>
      <trkpt lat="48.87756" lon="1.69429">
        <ele>100</ele>
        <time>2022-03-17T09:03:57Z</time>
      </trkpt>
      <trkpt lat="48.87759" lon="1.69438">
        <ele>100</ele>
        <time>2022-03-17T09:04:02Z</time>
      </trkpt>
      <trkpt lat="48.87762" lon="1.69447">
        <ele>100.5</ele>
        <time>2022-03-17T09:04:07Z</time>
      </trkpt>
      <trkpt lat="48.87764" lon="1.69455">
        <ele>100.7</ele>
        <time>2022-03-17T09:04:12Z</time>
      </trkpt>
      <trkpt lat="48.87766" lon="1.69462">
        <ele>100.5</ele>
        <time>2022-03-17T09:04:16Z</time>
      </trkpt>
      <trkpt lat="48.87768" lon="1.69469">
        <ele>99.9</ele>
        <time>2022-03-17T09:04:20Z</time>
      </trkpt>
      <trkpt lat="48.87771" lon="1.69477">
        <ele>99.2</ele>
        <time>2022-03-17T09:04:24Z</time>
      </trkpt>
      <trkpt lat="48.87772" lon="1.69483">
        <ele>98.8</ele>
        <time>2022-03-17T09:04:28Z</time>
      </trkpt>
      <trkpt lat="48.87775" lon="1.69491">
        <ele>98.8</ele>
        <time>2022-03-17T09:04:32Z</time>
      </trkpt>
      <trkpt lat="48.87777" lon="1.69501">
        <ele>99.4</ele>
        <time>2022-03-17T09:04:37Z</time>
      </trkpt>
      <trkpt lat="48.8778" lon="1.69509">
        <ele>100.2</ele>
        <time>2022-03-17T09:04:42Z</time>
      </trkpt>
      <trkpt lat="48.87781" lon="1.69518">
        <ele>100.6</ele>
        <time>2022-03-17T09:04:47Z</time>
      </trkpt>
      <trkpt lat="48.87783" lon="1.69527">
        <ele>100.5</ele>
        <time>2022-03-17T09:04:52Z</time>
      </trkpt>
      <trkpt lat="48.87779" lon="1.69535">
        <ele>100.2</ele>
        <time>2022-03-17T09:04:57Z</time>
      </trkpt>
      <trkpt lat="48.87775" lon="1.69537">
        <ele>100.4</ele>
        <time>2022-03-17T09:05:00Z</time>
      </trkpt>
      <trkpt lat="48.8777" lon="1.6954">
        <ele>100.8</ele>
        <time>2022-03-17T09:05:03Z</time>
      </trkpt>
      <trkpt lat="48.87765" lon="1.69544">
        <ele>101.4</ele>
        <time>2022-03-17T09:05:07Z</time>
      </trkpt>
      <trkpt lat="48.87761" lon="1.69548">
        <ele>101.4</ele>
        <time>2022-03-17T09:05:11Z</time>
      </trkpt>
      <trkpt lat="48.87756" lon="1.69553">
        <ele>101.2</ele>
        <time>2022-03-17T09:05:16Z</time>
      </trkpt>
      <trkpt lat="48.87752" lon="1.69558">
        <ele>100.8</ele>
        <time>2022-03-17T09:05:20Z</time>
      </trkpt>
      <trkpt lat="48.87748" lon="1.69561">
        <ele>100.3</ele>
        <time>2022-03-17T09:05:23Z</time>
      </trkpt>
      <trkpt lat="48.87743" lon="1.69566">
        <ele>99.8</ele>
        <time>2022-03-17T09:05:27Z</time>
      </trkpt>
      <trkpt lat="48.87739" lon="1.69569">
        <ele>99.3</ele>
        <time>2022-03-17T09:05:31Z</time>
      </trkpt>
      <trkpt lat="48.87735" lon="1.69573">
        <ele>98.7</ele>
        <time>2022-03-17T09:05:35Z</time>
      </trkpt>
      <trkpt lat="48.8773" lon="1.69577">
        <ele>98.4</ele>
        <time>2022-03-17T09:05:39Z</time>
      </trkpt>
      <trkpt lat="48.87726" lon="1.6958">
        <ele>98.5</ele>
        <time>2022-03-17T09:05:43Z</time>
      </trkpt>
      <trkpt lat="48.8772" lon="1.69584">
        <ele>98.9</ele>
        <time>2022-03-17T09:05:47Z</time>
      </trkpt>
      <trkpt lat="48.87716" lon="1.69588">
        <ele>99</ele>
        <time>2022-03-17T09:05:51Z</time>
      </trkpt>
      <trkpt lat="48.87711" lon="1.69592">
        <ele>98.6</ele>
        <time>2022-03-17T09:05:55Z</time>
      </trkpt>
      <trkpt lat="48.87706" lon="1.69596">
        <ele>98.3</ele>
        <time>2022-03-17T09:06:00Z</time>
      </trkpt>
      <trkpt lat="48.87701" lon="1.69601">
        <ele>98.6</ele>
        <time>2022-03-17T09:06:04Z</time>
      </trkpt>
      <trkpt lat="48.87696" lon="1.69606">
        <ele>99.3</ele>
        <time>2022-03-17T09:06:07Z</time>
      </trkpt>
      <trkpt lat="48.8769" lon="1.69611">
        <ele>100.5</ele>
        <time>2022-03-17T09:06:12Z</time>
      </trkpt>
      <trkpt lat="48.87686" lon="1.69614">
        <ele>100.4</ele>
        <time>2022-03-17T09:06:17Z</time>
      </trkpt>
      <trkpt lat="48.87682" lon="1.69619">
        <ele>99.8</ele>
        <time>2022-03-17T09:06:21Z</time>
      </trkpt>
      <trkpt lat="48.87677" lon="1.69623">
        <ele>99.4</ele>
        <time>2022-03-17T09:06:25Z</time>
      </trkpt>
      <trkpt lat="48.87671" lon="1.69628">
        <ele>98.8</ele>
        <time>2022-03-17T09:06:30Z</time>
      </trkpt>
      <trkpt lat="48.87666" lon="1.69633">
        <ele>99.1</ele>
        <time>2022-03-17T09:06:34Z</time>
      </trkpt>
      <trkpt lat="48.87661" lon="1.69636">
        <ele>99.2</ele>
        <time>2022-03-17T09:06:38Z</time>
      </trkpt>
      <trkpt lat="48.87655" lon="1.69636">
        <ele>99.1</ele>
        <time>2022-03-17T09:06:42Z</time>
      </trkpt>
      <trkpt lat="48.87652" lon="1.69629">
        <ele>97.4</ele>
        <time>2022-03-17T09:06:47Z</time>
      </trkpt>
      <trkpt lat="48.87648" lon="1.69626">
        <ele>95.5</ele>
        <time>2022-03-17T09:07:01Z</time>
      </trkpt>
      <trkpt lat="48.8765" lon="1.69618">
        <ele>93.9</ele>
        <time>2022-03-17T09:07:07Z</time>
      </trkpt>
      <trkpt lat="48.87653" lon="1.69625">
        <ele>93.2</ele>
        <time>2022-03-17T09:07:10Z</time>
      </trkpt>
      <trkpt lat="48.87653" lon="1.69632">
        <ele>93.3</ele>
        <time>2022-03-17T09:09:34Z</time>
      </trkpt>
      <trkpt lat="48.87651" lon="1.69639">
        <ele>92.2</ele>
        <time>2022-03-17T09:10:10Z</time>
      </trkpt>
      <trkpt lat="48.87646" lon="1.69638">
        <ele>92.2</ele>
        <time>2022-03-17T09:10:15Z</time>
      </trkpt>
      <trkpt lat="48.87642" lon="1.69639">
        <ele>92.4</ele>
        <time>2022-03-17T09:10:19Z</time>
      </trkpt>
      <trkpt lat="48.87643" lon="1.69647">
        <ele>92.2</ele>
        <time>2022-03-17T09:10:25Z</time>
      </trkpt>
      <trkpt lat="48.87645" lon="1.69657">
        <ele>91.5</ele>
        <time>2022-03-17T09:10:27Z</time>
      </trkpt>
      <trkpt lat="48.8764" lon="1.69659">
        <ele>91.4</ele>
        <time>2022-03-17T09:10:30Z</time>
      </trkpt>
      <trkpt lat="48.87636" lon="1.6966">
        <ele>91.6</ele>
        <time>2022-03-17T09:10:33Z</time>
      </trkpt>
      <trkpt lat="48.87631" lon="1.6966">
        <ele>93.8</ele>
        <time>2022-03-17T09:10:38Z</time>
      </trkpt>
      <trkpt lat="48.87626" lon="1.69662">
        <ele>94.3</ele>
        <time>2022-03-17T09:10:42Z</time>
      </trkpt>
      <trkpt lat="48.87621" lon="1.69662">
        <ele>94.9</ele>
        <time>2022-03-17T09:10:47Z</time>
      </trkpt>
      <trkpt lat="48.87615" lon="1.69663">
        <ele>94.9</ele>
        <time>2022-03-17T09:10:51Z</time>
      </trkpt>
      <trkpt lat="48.87613" lon="1.69673">
        <ele>94.9</ele>
        <time>2022-03-17T09:10:54Z</time>
      </trkpt>
      <trkpt lat="48.87608" lon="1.69673">
        <ele>93.8</ele>
        <time>2022-03-17T09:11:02Z</time>
      </trkpt>
      <trkpt lat="48.87602" lon="1.69674">
        <ele>93.7</ele>
        <time>2022-03-17T09:11:07Z</time>
      </trkpt>
      <trkpt lat="48.87597" lon="1.69674">
        <ele>94.1</ele>
        <time>2022-03-17T09:11:12Z</time>
      </trkpt>
      <trkpt lat="48.87593" lon="1.69673">
        <ele>93.6</ele>
        <time>2022-03-17T09:11:16Z</time>
      </trkpt>
      <trkpt lat="48.87588" lon="1.69674">
        <ele>93.2</ele>
        <time>2022-03-17T09:11:20Z</time>
      </trkpt>
      <trkpt lat="48.87582" lon="1.69674">
        <ele>93.9</ele>
        <time>2022-03-17T09:11:25Z</time>
      </trkpt>
      <trkpt lat="48.87575" lon="1.69673">
        <ele>94.4</ele>
        <time>2022-03-17T09:11:30Z</time>
      </trkpt>
      <trkpt lat="48.8757" lon="1.69672">
        <ele>94.9</ele>
        <time>2022-03-17T09:11:34Z</time>
      </trkpt>
      <trkpt lat="48.87566" lon="1.69672">
        <ele>95.3</ele>
        <time>2022-03-17T09:11:38Z</time>
      </trkpt>
      <trkpt lat="48.8756" lon="1.69672">
        <ele>96.3</ele>
        <time>2022-03-17T09:11:42Z</time>
      </trkpt>
      <trkpt lat="48.87556" lon="1.69672">
        <ele>96.8</ele>
        <time>2022-03-17T09:11:46Z</time>
      </trkpt>
      <trkpt lat="48.87551" lon="1.69671">
        <ele>97.4</ele>
        <time>2022-03-17T09:11:49Z</time>
      </trkpt>
      <trkpt lat="48.87546" lon="1.69672">
        <ele>97.8</ele>
        <time>2022-03-17T09:11:53Z</time>
      </trkpt>
      <trkpt lat="48.87541" lon="1.6967">
        <ele>98.1</ele>
        <time>2022-03-17T09:11:57Z</time>
      </trkpt>
      <trkpt lat="48.87536" lon="1.69669">
        <ele>98.6</ele>
        <time>2022-03-17T09:12:00Z</time>
      </trkpt>
      <trkpt lat="48.87531" lon="1.6967">
        <ele>98.7</ele>
        <time>2022-03-17T09:12:05Z</time>
      </trkpt>
      <trkpt lat="48.87525" lon="1.69672">
        <ele>99.7</ele>
        <time>2022-03-17T09:12:09Z</time>
      </trkpt>
      <trkpt lat="48.8752" lon="1.69671">
        <ele>100.6</ele>
        <time>2022-03-17T09:12:13Z</time>
      </trkpt>
      <trkpt lat="48.87515" lon="1.69673">
        <ele>100.6</ele>
        <time>2022-03-17T09:12:17Z</time>
      </trkpt>
      <trkpt lat="48.87509" lon="1.69671">
        <ele>100.3</ele>
        <time>2022-03-17T09:12:22Z</time>
      </trkpt>
      <trkpt lat="48.87504" lon="1.69671">
        <ele>101.4</ele>
        <time>2022-03-17T09:12:27Z</time>
      </trkpt>
      <trkpt lat="48.87499" lon="1.6967">
        <ele>101.9</ele>
        <time>2022-03-17T09:12:31Z</time>
      </trkpt>
      <trkpt lat="48.87494" lon="1.6967">
        <ele>101.9</ele>
        <time>2022-03-17T09:12:35Z</time>
      </trkpt>
      <trkpt lat="48.87489" lon="1.69671">
        <ele>100.9</ele>
        <time>2022-03-17T09:12:39Z</time>
      </trkpt>
      <trkpt lat="48.87484" lon="1.69669">
        <ele>101.1</ele>
        <time>2022-03-17T09:12:44Z</time>
      </trkpt>
      <trkpt lat="48.87479" lon="1.69672">
        <ele>101.8</ele>
        <time>2022-03-17T09:12:48Z</time>
      </trkpt>
      <trkpt lat="48.87475" lon="1.69674">
        <ele>102.6</ele>
        <time>2022-03-17T09:12:51Z</time>
      </trkpt>
      <trkpt lat="48.87469" lon="1.69674">
        <ele>103.2</ele>
        <time>2022-03-17T09:12:55Z</time>
      </trkpt>
      <trkpt lat="48.87464" lon="1.6968">
        <ele>102.9</ele>
        <time>2022-03-17T09:13:00Z</time>
      </trkpt>
      <trkpt lat="48.87459" lon="1.69687">
        <ele>100.9</ele>
        <time>2022-03-17T09:13:05Z</time>
      </trkpt>
      <trkpt lat="48.87455" lon="1.69693">
        <ele>99.7</ele>
        <time>2022-03-17T09:13:10Z</time>
      </trkpt>
      <trkpt lat="48.8745" lon="1.69698">
        <ele>101.3</ele>
        <time>2022-03-17T09:13:15Z</time>
      </trkpt>
      <trkpt lat="48.87444" lon="1.69699">
        <ele>103.3</ele>
        <time>2022-03-17T09:13:20Z</time>
      </trkpt>
      <trkpt lat="48.87437" lon="1.69701">
        <ele>104.2</ele>
        <time>2022-03-17T09:13:25Z</time>
      </trkpt>
      <trkpt lat="48.87432" lon="1.69706">
        <ele>105</ele>
        <time>2022-03-17T09:13:30Z</time>
      </trkpt>
      <trkpt lat="48.87428" lon="1.69713">
        <ele>104.5</ele>
        <time>2022-03-17T09:13:36Z</time>
      </trkpt>
      <trkpt lat="48.87424" lon="1.69722">
        <ele>103.8</ele>
        <time>2022-03-17T09:13:40Z</time>
      </trkpt>
      <trkpt lat="48.87419" lon="1.69728">
        <ele>104.8</ele>
        <time>2022-03-17T09:13:45Z</time>
      </trkpt>
      <trkpt lat="48.87415" lon="1.69729">
        <ele>105.6</ele>
        <time>2022-03-17T09:13:49Z</time>
      </trkpt>
      <trkpt lat="48.8741" lon="1.69731">
        <ele>105.7</ele>
        <time>2022-03-17T09:13:53Z</time>
      </trkpt>
      <trkpt lat="48.87406" lon="1.69735">
        <ele>105.8</ele>
        <time>2022-03-17T09:13:57Z</time>
      </trkpt>
      <trkpt lat="48.87402" lon="1.6974">
        <ele>105.4</ele>
        <time>2022-03-17T09:14:00Z</time>
      </trkpt>
      <trkpt lat="48.87398" lon="1.69748">
        <ele>104.7</ele>
        <time>2022-03-17T09:14:05Z</time>
      </trkpt>
      <trkpt lat="48.87394" lon="1.69755">
        <ele>104.5</ele>
        <time>2022-03-17T09:14:10Z</time>
      </trkpt>
      <trkpt lat="48.8739" lon="1.6975">
        <ele>104.1</ele>
        <time>2022-03-17T09:14:15Z</time>
      </trkpt>
      <trkpt lat="48.87386" lon="1.69755">
        <ele>103.2</ele>
        <time>2022-03-17T09:14:20Z</time>
      </trkpt>
      <trkpt lat="48.87389" lon="1.69762">
        <ele>101.9</ele>
        <time>2022-03-17T09:14:25Z</time>
      </trkpt>
      <trkpt lat="48.87389" lon="1.69769">
        <ele>101.2</ele>
        <time>2022-03-17T09:14:29Z</time>
      </trkpt>
      <trkpt lat="48.87386" lon="1.69776">
        <ele>101.9</ele>
        <time>2022-03-17T09:14:34Z</time>
      </trkpt>
      <trkpt lat="48.87381" lon="1.69779">
        <ele>103.2</ele>
        <time>2022-03-17T09:14:38Z</time>
      </trkpt>
      <trkpt lat="48.87378" lon="1.69785">
        <ele>104.1</ele>
        <time>2022-03-17T09:14:42Z</time>
      </trkpt>
      <trkpt lat="48.87377" lon="1.69793">
        <ele>104.3</ele>
        <time>2022-03-17T09:14:46Z</time>
      </trkpt>
      <trkpt lat="48.87375" lon="1.69801">
        <ele>104.1</ele>
        <time>2022-03-17T09:14:51Z</time>
      </trkpt>
      <trkpt lat="48.87372" lon="1.69807">
        <ele>103.6</ele>
        <time>2022-03-17T09:14:56Z</time>
      </trkpt>
      <trkpt lat="48.87369" lon="1.69815">
        <ele>104.8</ele>
        <time>2022-03-17T09:15:01Z</time>
      </trkpt>
      <trkpt lat="48.87367" lon="1.69823">
        <ele>105.4</ele>
        <time>2022-03-17T09:15:05Z</time>
      </trkpt>
      <trkpt lat="48.87365" lon="1.69832">
        <ele>106.4</ele>
        <time>2022-03-17T09:15:10Z</time>
      </trkpt>
      <trkpt lat="48.87365" lon="1.69842">
        <ele>107.2</ele>
        <time>2022-03-17T09:15:16Z</time>
      </trkpt>
      <trkpt lat="48.87364" lon="1.69851">
        <ele>107.5</ele>
        <time>2022-03-17T09:15:21Z</time>
      </trkpt>
      <trkpt lat="48.87364" lon="1.69861">
        <ele>106.8</ele>
        <time>2022-03-17T09:15:25Z</time>
      </trkpt>
      <trkpt lat="48.87364" lon="1.6987">
        <ele>104.9</ele>
        <time>2022-03-17T09:15:31Z</time>
      </trkpt>
      <trkpt lat="48.87364" lon="1.69878">
        <ele>104</ele>
        <time>2022-03-17T09:15:34Z</time>
      </trkpt>
      <trkpt lat="48.87363" lon="1.69886">
        <ele>104.1</ele>
        <time>2022-03-17T09:15:38Z</time>
      </trkpt>
      <trkpt lat="48.87363" lon="1.69893">
        <ele>104</ele>
        <time>2022-03-17T09:15:41Z</time>
      </trkpt>
      <trkpt lat="48.87362" lon="1.699">
        <ele>103.5</ele>
        <time>2022-03-17T09:15:45Z</time>
      </trkpt>
      <trkpt lat="48.87361" lon="1.69908">
        <ele>102.5</ele>
        <time>2022-03-17T09:15:49Z</time>
      </trkpt>
      <trkpt lat="48.8736" lon="1.69916">
        <ele>102.3</ele>
        <time>2022-03-17T09:15:53Z</time>
      </trkpt>
      <trkpt lat="48.87359" lon="1.69923">
        <ele>102.3</ele>
        <time>2022-03-17T09:15:57Z</time>
      </trkpt>
      <trkpt lat="48.87359" lon="1.69931">
        <ele>102.1</ele>
        <time>2022-03-17T09:16:01Z</time>
      </trkpt>
      <trkpt lat="48.87357" lon="1.6994">
        <ele>101.7</ele>
        <time>2022-03-17T09:16:06Z</time>
      </trkpt>
      <trkpt lat="48.87354" lon="1.69946">
        <ele>100.5</ele>
        <time>2022-03-17T09:16:10Z</time>
      </trkpt>
      <trkpt lat="48.87352" lon="1.69953">
        <ele>99.7</ele>
        <time>2022-03-17T09:16:15Z</time>
      </trkpt>
      <trkpt lat="48.8735" lon="1.6996">
        <ele>99.8</ele>
        <time>2022-03-17T09:16:19Z</time>
      </trkpt>
      <trkpt lat="48.87348" lon="1.69968">
        <ele>100.2</ele>
        <time>2022-03-17T09:16:22Z</time>
      </trkpt>
      <trkpt lat="48.87347" lon="1.69976">
        <ele>100.8</ele>
        <time>2022-03-17T09:16:26Z</time>
      </trkpt>
      <trkpt lat="48.87347" lon="1.69986">
        <ele>101.6</ele>
        <time>2022-03-17T09:16:31Z</time>
      </trkpt>
      <trkpt lat="48.87347" lon="1.69993">
        <ele>102.7</ele>
        <time>2022-03-17T09:16:35Z</time>
      </trkpt>
      <trkpt lat="48.87345" lon="1.70001">
        <ele>102.7</ele>
        <time>2022-03-17T09:16:40Z</time>
      </trkpt>
      <trkpt lat="48.87343" lon="1.70007">
        <ele>101.9</ele>
        <time>2022-03-17T09:16:44Z</time>
      </trkpt>
      <trkpt lat="48.87342" lon="1.70014">
        <ele>101.1</ele>
        <time>2022-03-17T09:16:48Z</time>
      </trkpt>
      <trkpt lat="48.8734" lon="1.70022">
        <ele>101.1</ele>
        <time>2022-03-17T09:16:51Z</time>
      </trkpt>
      <trkpt lat="48.87337" lon="1.7003">
        <ele>101.1</ele>
        <time>2022-03-17T09:16:56Z</time>
      </trkpt>
      <trkpt lat="48.87334" lon="1.70039">
        <ele>101.4</ele>
        <time>2022-03-17T09:17:01Z</time>
      </trkpt>
      <trkpt lat="48.8733" lon="1.70047">
        <ele>101.3</ele>
        <time>2022-03-17T09:17:06Z</time>
      </trkpt>
      <trkpt lat="48.87326" lon="1.70055">
        <ele>101.4</ele>
        <time>2022-03-17T09:17:11Z</time>
      </trkpt>
      <trkpt lat="48.87322" lon="1.70063">
        <ele>101.9</ele>
        <time>2022-03-17T09:17:16Z</time>
      </trkpt>
      <trkpt lat="48.8732" lon="1.70072">
        <ele>101.5</ele>
        <time>2022-03-17T09:17:21Z</time>
      </trkpt>
      <trkpt lat="48.87315" lon="1.70081">
        <ele>100.7</ele>
        <time>2022-03-17T09:17:26Z</time>
      </trkpt>
      <trkpt lat="48.87313" lon="1.70087">
        <ele>100.1</ele>
        <time>2022-03-17T09:17:30Z</time>
      </trkpt>
      <trkpt lat="48.87311" lon="1.70096">
        <ele>100.3</ele>
        <time>2022-03-17T09:17:34Z</time>
      </trkpt>
      <trkpt lat="48.87307" lon="1.70103">
        <ele>100.1</ele>
        <time>2022-03-17T09:17:39Z</time>
      </trkpt>
      <trkpt lat="48.87303" lon="1.70109">
        <ele>99.5</ele>
        <time>2022-03-17T09:17:44Z</time>
      </trkpt>
      <trkpt lat="48.873" lon="1.70114">
        <ele>98.9</ele>
        <time>2022-03-17T09:17:47Z</time>
      </trkpt>
      <trkpt lat="48.87297" lon="1.70123">
        <ele>97.5</ele>
        <time>2022-03-17T09:17:51Z</time>
      </trkpt>
      <trkpt lat="48.87294" lon="1.70131">
        <ele>98.1</ele>
        <time>2022-03-17T09:17:57Z</time>
      </trkpt>
      <trkpt lat="48.87292" lon="1.70138">
        <ele>98.8</ele>
        <time>2022-03-17T09:18:01Z</time>
      </trkpt>
      <trkpt lat="48.87289" lon="1.70147">
        <ele>99</ele>
        <time>2022-03-17T09:18:06Z</time>
      </trkpt>
      <trkpt lat="48.87286" lon="1.70153">
        <ele>99</ele>
        <time>2022-03-17T09:18:12Z</time>
      </trkpt>
      <trkpt lat="48.87283" lon="1.7016">
        <ele>99.5</ele>
        <time>2022-03-17T09:18:16Z</time>
      </trkpt>
      <trkpt lat="48.8728" lon="1.70168">
        <ele>99.6</ele>
        <time>2022-03-17T09:18:22Z</time>
      </trkpt>
      <trkpt lat="48.87277" lon="1.70177">
        <ele>99.7</ele>
        <time>2022-03-17T09:18:27Z</time>
      </trkpt>
      <trkpt lat="48.87274" lon="1.70183">
        <ele>100.2</ele>
        <time>2022-03-17T09:18:31Z</time>
      </trkpt>
      <trkpt lat="48.87271" lon="1.70191">
        <ele>100.5</ele>
        <time>2022-03-17T09:18:36Z</time>
      </trkpt>
      <trkpt lat="48.8727" lon="1.702">
        <ele>100</ele>
        <time>2022-03-17T09:18:41Z</time>
      </trkpt>
      <trkpt lat="48.87267" lon="1.70206">
        <ele>100.1</ele>
        <time>2022-03-17T09:18:46Z</time>
      </trkpt>
      <trkpt lat="48.87262" lon="1.70203">
        <ele>101.1</ele>
        <time>2022-03-17T09:18:55Z</time>
      </trkpt>
      <trkpt lat="48.87259" lon="1.70197">
        <ele>101.1</ele>
        <time>2022-03-17T09:18:58Z</time>
      </trkpt>
      <trkpt lat="48.87256" lon="1.70192">
        <ele>100.9</ele>
        <time>2022-03-17T09:19:01Z</time>
      </trkpt>
      <trkpt lat="48.87253" lon="1.70183">
        <ele>100.4</ele>
        <time>2022-03-17T09:19:07Z</time>
      </trkpt>
      <trkpt lat="48.8725" lon="1.70176">
        <ele>100</ele>
        <time>2022-03-17T09:19:12Z</time>
      </trkpt>
      <trkpt lat="48.87247" lon="1.7017">
        <ele>100.2</ele>
        <time>2022-03-17T09:19:15Z</time>
      </trkpt>
      <trkpt lat="48.87244" lon="1.70163">
        <ele>100.1</ele>
        <time>2022-03-17T09:19:19Z</time>
      </trkpt>
      <trkpt lat="48.87241" lon="1.70156">
        <ele>99.8</ele>
        <time>2022-03-17T09:19:24Z</time>
      </trkpt>
      <trkpt lat="48.87238" lon="1.70151">
        <ele>99.8</ele>
        <time>2022-03-17T09:19:27Z</time>
      </trkpt>
      <trkpt lat="48.87234" lon="1.70144">
        <ele>101.4</ele>
        <time>2022-03-17T09:19:32Z</time>
      </trkpt>
      <trkpt lat="48.87231" lon="1.70136">
        <ele>102.6</ele>
        <time>2022-03-17T09:19:37Z</time>
      </trkpt>
      <trkpt lat="48.87227" lon="1.7013">
        <ele>102.7</ele>
        <time>2022-03-17T09:19:41Z</time>
      </trkpt>
      <trkpt lat="48.87224" lon="1.70125">
        <ele>103.1</ele>
        <time>2022-03-17T09:19:45Z</time>
      </trkpt>
      <trkpt lat="48.8722" lon="1.7012">
        <ele>103.2</ele>
        <time>2022-03-17T09:19:49Z</time>
      </trkpt>
      <trkpt lat="48.87216" lon="1.70118">
        <ele>102.8</ele>
        <time>2022-03-17T09:19:52Z</time>
      </trkpt>
      <trkpt lat="48.87211" lon="1.70116">
        <ele>101.7</ele>
        <time>2022-03-17T09:19:56Z</time>
      </trkpt>
      <trkpt lat="48.87206" lon="1.70114">
        <ele>102.1</ele>
        <time>2022-03-17T09:19:59Z</time>
      </trkpt>
      <trkpt lat="48.87202" lon="1.70111">
        <ele>103.3</ele>
        <time>2022-03-17T09:20:02Z</time>
      </trkpt>
      <trkpt lat="48.87197" lon="1.70104">
        <ele>105</ele>
        <time>2022-03-17T09:20:07Z</time>
      </trkpt>
      <trkpt lat="48.87192" lon="1.70098">
        <ele>106.3</ele>
        <time>2022-03-17T09:20:12Z</time>
      </trkpt>
      <trkpt lat="48.87186" lon="1.70094">
        <ele>106.1</ele>
        <time>2022-03-17T09:20:17Z</time>
      </trkpt>
      <trkpt lat="48.87181" lon="1.70093">
        <ele>104.7</ele>
        <time>2022-03-17T09:20:21Z</time>
      </trkpt>
      <trkpt lat="48.87176" lon="1.70092">
        <ele>102.9</ele>
        <time>2022-03-17T09:20:25Z</time>
      </trkpt>
      <trkpt lat="48.87172" lon="1.7009">
        <ele>102.2</ele>
        <time>2022-03-17T09:20:29Z</time>
      </trkpt>
      <trkpt lat="48.87167" lon="1.70087">
        <ele>101.5</ele>
        <time>2022-03-17T09:20:32Z</time>
      </trkpt>
      <trkpt lat="48.87162" lon="1.70082">
        <ele>100.8</ele>
        <time>2022-03-17T09:20:37Z</time>
      </trkpt>
      <trkpt lat="48.87157" lon="1.70078">
        <ele>101.9</ele>
        <time>2022-03-17T09:20:42Z</time>
      </trkpt>
      <trkpt lat="48.87153" lon="1.70076">
        <ele>102.9</ele>
        <time>2022-03-17T09:20:46Z</time>
      </trkpt>
      <trkpt lat="48.87148" lon="1.70075">
        <ele>103.3</ele>
        <time>2022-03-17T09:20:50Z</time>
      </trkpt>
      <trkpt lat="48.87144" lon="1.70071">
        <ele>102.5</ele>
        <time>2022-03-17T09:20:55Z</time>
      </trkpt>
      <trkpt lat="48.87139" lon="1.70069">
        <ele>102.6</ele>
        <time>2022-03-17T09:20:59Z</time>
      </trkpt>
      <trkpt lat="48.87134" lon="1.70066">
        <ele>102.2</ele>
        <time>2022-03-17T09:21:02Z</time>
      </trkpt>
      <trkpt lat="48.87129" lon="1.70065">
        <ele>102.9</ele>
        <time>2022-03-17T09:21:07Z</time>
      </trkpt>
      <trkpt lat="48.87125" lon="1.70062">
        <ele>103.4</ele>
        <time>2022-03-17T09:21:10Z</time>
      </trkpt>
      <trkpt lat="48.8712" lon="1.7006">
        <ele>104.8</ele>
        <time>2022-03-17T09:21:14Z</time>
      </trkpt>
      <trkpt lat="48.87115" lon="1.70059">
        <ele>105.1</ele>
        <time>2022-03-17T09:21:17Z</time>
      </trkpt>
      <trkpt lat="48.87109" lon="1.7006">
        <ele>105.7</ele>
        <time>2022-03-17T09:21:22Z</time>
      </trkpt>
      <trkpt lat="48.87103" lon="1.70061">
        <ele>106.1</ele>
        <time>2022-03-17T09:21:27Z</time>
      </trkpt>
      <trkpt lat="48.87097" lon="1.70062">
        <ele>105</ele>
        <time>2022-03-17T09:21:33Z</time>
      </trkpt>
      <trkpt lat="48.87091" lon="1.70064">
        <ele>104.3</ele>
        <time>2022-03-17T09:21:38Z</time>
      </trkpt>
      <trkpt lat="48.87086" lon="1.70066">
        <ele>104</ele>
        <time>2022-03-17T09:21:43Z</time>
      </trkpt>
      <trkpt lat="48.87079" lon="1.70066">
        <ele>103.6</ele>
        <time>2022-03-17T09:21:47Z</time>
      </trkpt>
      <trkpt lat="48.87075" lon="1.70064">
        <ele>103.2</ele>
        <time>2022-03-17T09:21:51Z</time>
      </trkpt>
      <trkpt lat="48.87069" lon="1.70064">
        <ele>102.8</ele>
        <time>2022-03-17T09:21:55Z</time>
      </trkpt>
      <trkpt lat="48.87065" lon="1.70063">
        <ele>102</ele>
        <time>2022-03-17T09:21:58Z</time>
      </trkpt>
      <trkpt lat="48.8706" lon="1.70064">
        <ele>101.3</ele>
        <time>2022-03-17T09:22:02Z</time>
      </trkpt>
      <trkpt lat="48.87054" lon="1.70065">
        <ele>100.4</ele>
        <time>2022-03-17T09:22:07Z</time>
      </trkpt>
      <trkpt lat="48.87048" lon="1.70064">
        <ele>100.5</ele>
        <time>2022-03-17T09:22:12Z</time>
      </trkpt>
      <trkpt lat="48.87042" lon="1.70063">
        <ele>102.8</ele>
        <time>2022-03-17T09:22:17Z</time>
      </trkpt>
      <trkpt lat="48.87037" lon="1.70062">
        <ele>104.3</ele>
        <time>2022-03-17T09:22:22Z</time>
      </trkpt>
      <trkpt lat="48.87032" lon="1.70064">
        <ele>104.4</ele>
        <time>2022-03-17T09:22:26Z</time>
      </trkpt>
      <trkpt lat="48.87027" lon="1.70066">
        <ele>104.4</ele>
        <time>2022-03-17T09:22:29Z</time>
      </trkpt>
      <trkpt lat="48.87022" lon="1.70067">
        <ele>105.4</ele>
        <time>2022-03-17T09:22:33Z</time>
      </trkpt>
      <trkpt lat="48.87016" lon="1.70067">
        <ele>106.6</ele>
        <time>2022-03-17T09:22:38Z</time>
      </trkpt>
      <trkpt lat="48.87009" lon="1.70067">
        <ele>107</ele>
        <time>2022-03-17T09:22:42Z</time>
      </trkpt>
      <trkpt lat="48.87005" lon="1.70068">
        <ele>106.6</ele>
        <time>2022-03-17T09:22:47Z</time>
      </trkpt>
      <trkpt lat="48.87" lon="1.70069">
        <ele>106.7</ele>
        <time>2022-03-17T09:22:50Z</time>
      </trkpt>
      <trkpt lat="48.86996" lon="1.70073">
        <ele>106.9</ele>
        <time>2022-03-17T09:22:53Z</time>
      </trkpt>
      <trkpt lat="48.86991" lon="1.70078">
        <ele>107.1</ele>
        <time>2022-03-17T09:22:58Z</time>
      </trkpt>
      <trkpt lat="48.86987" lon="1.70081">
        <ele>106.8</ele>
        <time>2022-03-17T09:23:02Z</time>
      </trkpt>
      <trkpt lat="48.86983" lon="1.70086">
        <ele>106.5</ele>
        <time>2022-03-17T09:23:06Z</time>
      </trkpt>
      <trkpt lat="48.86979" lon="1.70091">
        <ele>106.9</ele>
        <time>2022-03-17T09:23:10Z</time>
      </trkpt>
      <trkpt lat="48.86976" lon="1.70096">
        <ele>107.5</ele>
        <time>2022-03-17T09:23:13Z</time>
      </trkpt>
      <trkpt lat="48.86972" lon="1.70103">
        <ele>107.5</ele>
        <time>2022-03-17T09:23:18Z</time>
      </trkpt>
      <trkpt lat="48.86967" lon="1.70109">
        <ele>107.3</ele>
        <time>2022-03-17T09:23:23Z</time>
      </trkpt>
      <trkpt lat="48.86962" lon="1.70116">
        <ele>106.2</ele>
        <time>2022-03-17T09:23:28Z</time>
      </trkpt>
      <trkpt lat="48.86957" lon="1.7012">
        <ele>105.5</ele>
        <time>2022-03-17T09:23:32Z</time>
      </trkpt>
      <trkpt lat="48.86953" lon="1.70124">
        <ele>105.4</ele>
        <time>2022-03-17T09:23:37Z</time>
      </trkpt>
      <trkpt lat="48.86948" lon="1.70128">
        <ele>106.3</ele>
        <time>2022-03-17T09:23:40Z</time>
      </trkpt>
      <trkpt lat="48.86944" lon="1.70131">
        <ele>106.5</ele>
        <time>2022-03-17T09:23:43Z</time>
      </trkpt>
      <trkpt lat="48.8694" lon="1.70136">
        <ele>105.2</ele>
        <time>2022-03-17T09:23:48Z</time>
      </trkpt>
      <trkpt lat="48.86934" lon="1.70139">
        <ele>104.2</ele>
        <time>2022-03-17T09:23:53Z</time>
      </trkpt>
      <trkpt lat="48.86927" lon="1.70142">
        <ele>104</ele>
        <time>2022-03-17T09:23:58Z</time>
      </trkpt>
      <trkpt lat="48.86923" lon="1.70144">
        <ele>103.4</ele>
        <time>2022-03-17T09:24:02Z</time>
      </trkpt>
      <trkpt lat="48.86918" lon="1.70147">
        <ele>103.3</ele>
        <time>2022-03-17T09:24:06Z</time>
      </trkpt>
      <trkpt lat="48.86913" lon="1.70151">
        <ele>104.1</ele>
        <time>2022-03-17T09:24:10Z</time>
      </trkpt>
      <trkpt lat="48.86908" lon="1.70153">
        <ele>104.5</ele>
        <time>2022-03-17T09:24:14Z</time>
      </trkpt>
      <trkpt lat="48.86904" lon="1.70155">
        <ele>104.2</ele>
        <time>2022-03-17T09:24:18Z</time>
      </trkpt>
      <trkpt lat="48.86897" lon="1.70157">
        <ele>104</ele>
        <time>2022-03-17T09:24:23Z</time>
      </trkpt>
      <trkpt lat="48.8689" lon="1.70158">
        <ele>103.5</ele>
        <time>2022-03-17T09:24:28Z</time>
      </trkpt>
      <trkpt lat="48.86884" lon="1.70162">
        <ele>103.6</ele>
        <time>2022-03-17T09:24:33Z</time>
      </trkpt>
      <trkpt lat="48.86879" lon="1.70169">
        <ele>103.1</ele>
        <time>2022-03-17T09:24:38Z</time>
      </trkpt>
      <trkpt lat="48.86875" lon="1.70175">
        <ele>101.5</ele>
        <time>2022-03-17T09:24:42Z</time>
      </trkpt>
      <trkpt lat="48.86872" lon="1.70179">
        <ele>100.5</ele>
        <time>2022-03-17T09:24:46Z</time>
      </trkpt>
      <trkpt lat="48.86867" lon="1.70183">
        <ele>100</ele>
        <time>2022-03-17T09:24:50Z</time>
      </trkpt>
      <trkpt lat="48.86861" lon="1.70187">
        <ele>100.6</ele>
        <time>2022-03-17T09:24:55Z</time>
      </trkpt>
      <trkpt lat="48.86857" lon="1.70189">
        <ele>101.2</ele>
        <time>2022-03-17T09:24:58Z</time>
      </trkpt>
      <trkpt lat="48.86852" lon="1.70192">
        <ele>101.3</ele>
        <time>2022-03-17T09:25:02Z</time>
      </trkpt>
      <trkpt lat="48.86848" lon="1.70195">
        <ele>101</ele>
        <time>2022-03-17T09:25:06Z</time>
      </trkpt>
      <trkpt lat="48.86844" lon="1.70199">
        <ele>101.4</ele>
        <time>2022-03-17T09:25:10Z</time>
      </trkpt>
      <trkpt lat="48.8684" lon="1.70202">
        <ele>102.1</ele>
        <time>2022-03-17T09:25:13Z</time>
      </trkpt>
      <trkpt lat="48.86832" lon="1.70203">
        <ele>103.5</ele>
        <time>2022-03-17T09:25:18Z</time>
      </trkpt>
      <trkpt lat="48.86826" lon="1.70204">
        <ele>104.9</ele>
        <time>2022-03-17T09:25:23Z</time>
      </trkpt>
      <trkpt lat="48.8682" lon="1.70204">
        <ele>106.1</ele>
        <time>2022-03-17T09:25:28Z</time>
      </trkpt>
      <trkpt lat="48.86814" lon="1.70201">
        <ele>105.2</ele>
        <time>2022-03-17T09:25:34Z</time>
      </trkpt>
      <trkpt lat="48.86808" lon="1.702">
        <ele>103.7</ele>
        <time>2022-03-17T09:25:38Z</time>
      </trkpt>
      <trkpt lat="48.86802" lon="1.70198">
        <ele>104.1</ele>
        <time>2022-03-17T09:25:43Z</time>
      </trkpt>
      <trkpt lat="48.86798" lon="1.70196">
        <ele>103.5</ele>
        <time>2022-03-17T09:25:47Z</time>
      </trkpt>
      <trkpt lat="48.86794" lon="1.70194">
        <ele>103.6</ele>
        <time>2022-03-17T09:25:51Z</time>
      </trkpt>
      <trkpt lat="48.86789" lon="1.70192">
        <ele>103.5</ele>
        <time>2022-03-17T09:25:54Z</time>
      </trkpt>
      <trkpt lat="48.86784" lon="1.70188">
        <ele>103.4</ele>
        <time>2022-03-17T09:25:59Z</time>
      </trkpt>
      <trkpt lat="48.8678" lon="1.70185">
        <ele>102.9</ele>
        <time>2022-03-17T09:26:03Z</time>
      </trkpt>
      <trkpt lat="48.86775" lon="1.70183">
        <ele>102.1</ele>
        <time>2022-03-17T09:26:06Z</time>
      </trkpt>
      <trkpt lat="48.86769" lon="1.70182">
        <ele>101.6</ele>
        <time>2022-03-17T09:26:10Z</time>
      </trkpt>
      <trkpt lat="48.86765" lon="1.70183">
        <ele>100.8</ele>
        <time>2022-03-17T09:26:13Z</time>
      </trkpt>
      <trkpt lat="48.8676" lon="1.70185">
        <ele>98.7</ele>
        <time>2022-03-17T09:26:18Z</time>
      </trkpt>
      <trkpt lat="48.86756" lon="1.70186">
        <ele>97</ele>
        <time>2022-03-17T09:26:22Z</time>
      </trkpt>
      <trkpt lat="48.86751" lon="1.70186">
        <ele>95.8</ele>
        <time>2022-03-17T09:26:26Z</time>
      </trkpt>
      <trkpt lat="48.86746" lon="1.70185">
        <ele>95.1</ele>
        <time>2022-03-17T09:26:29Z</time>
      </trkpt>
      <trkpt lat="48.8674" lon="1.70184">
        <ele>95.4</ele>
        <time>2022-03-17T09:26:33Z</time>
      </trkpt>
      <trkpt lat="48.86733" lon="1.70185">
        <ele>97.1</ele>
        <time>2022-03-17T09:26:38Z</time>
      </trkpt>
      <trkpt lat="48.86728" lon="1.70186">
        <ele>98.2</ele>
        <time>2022-03-17T09:26:43Z</time>
      </trkpt>
      <trkpt lat="48.86721" lon="1.70188">
        <ele>98.9</ele>
        <time>2022-03-17T09:26:48Z</time>
      </trkpt>
      <trkpt lat="48.86715" lon="1.70192">
        <ele>98.5</ele>
        <time>2022-03-17T09:26:54Z</time>
      </trkpt>
      <trkpt lat="48.86711" lon="1.70194">
        <ele>98.2</ele>
        <time>2022-03-17T09:26:58Z</time>
      </trkpt>
      <trkpt lat="48.86707" lon="1.70196">
        <ele>97.9</ele>
        <time>2022-03-17T09:27:02Z</time>
      </trkpt>
      <trkpt lat="48.86702" lon="1.70198">
        <ele>97.9</ele>
        <time>2022-03-17T09:27:06Z</time>
      </trkpt>
      <trkpt lat="48.86697" lon="1.702">
        <ele>97.8</ele>
        <time>2022-03-17T09:27:09Z</time>
      </trkpt>
      <trkpt lat="48.86693" lon="1.70203">
        <ele>97.7</ele>
        <time>2022-03-17T09:27:12Z</time>
      </trkpt>
      <trkpt lat="48.86689" lon="1.70206">
        <ele>97.4</ele>
        <time>2022-03-17T09:27:16Z</time>
      </trkpt>
      <trkpt lat="48.86684" lon="1.70209">
        <ele>97</ele>
        <time>2022-03-17T09:27:20Z</time>
      </trkpt>
      <trkpt lat="48.86679" lon="1.70212">
        <ele>96.7</ele>
        <time>2022-03-17T09:27:24Z</time>
      </trkpt>
      <trkpt lat="48.86675" lon="1.70215">
        <ele>96.4</ele>
        <time>2022-03-17T09:27:28Z</time>
      </trkpt>
      <trkpt lat="48.8667" lon="1.70218">
        <ele>95.8</ele>
        <time>2022-03-17T09:27:32Z</time>
      </trkpt>
      <trkpt lat="48.86665" lon="1.70221">
        <ele>95.4</ele>
        <time>2022-03-17T09:27:36Z</time>
      </trkpt>
      <trkpt lat="48.8666" lon="1.70224">
        <ele>95.4</ele>
        <time>2022-03-17T09:27:40Z</time>
      </trkpt>
      <trkpt lat="48.86655" lon="1.70228">
        <ele>96</ele>
        <time>2022-03-17T09:27:44Z</time>
      </trkpt>
      <trkpt lat="48.8665" lon="1.70231">
        <ele>96.7</ele>
        <time>2022-03-17T09:27:48Z</time>
      </trkpt>
      <trkpt lat="48.86646" lon="1.70234">
        <ele>97.4</ele>
        <time>2022-03-17T09:27:52Z</time>
      </trkpt>
      <trkpt lat="48.86641" lon="1.70238">
        <ele>98.1</ele>
        <time>2022-03-17T09:27:56Z</time>
      </trkpt>
      <trkpt lat="48.86637" lon="1.70242">
        <ele>98.2</ele>
        <time>2022-03-17T09:28:00Z</time>
      </trkpt>
      <trkpt lat="48.86632" lon="1.70246">
        <ele>98.1</ele>
        <time>2022-03-17T09:28:04Z</time>
      </trkpt>
      <trkpt lat="48.86625" lon="1.70249">
        <ele>97.7</ele>
        <time>2022-03-17T09:28:09Z</time>
      </trkpt>
      <trkpt lat="48.8662" lon="1.70252">
        <ele>97.5</ele>
        <time>2022-03-17T09:28:13Z</time>
      </trkpt>
      <trkpt lat="48.86616" lon="1.70255">
        <ele>97.4</ele>
        <time>2022-03-17T09:28:17Z</time>
      </trkpt>
      <trkpt lat="48.86611" lon="1.70258">
        <ele>97.6</ele>
        <time>2022-03-17T09:28:21Z</time>
      </trkpt>
      <trkpt lat="48.86606" lon="1.70262">
        <ele>97.7</ele>
        <time>2022-03-17T09:28:25Z</time>
      </trkpt>
      <trkpt lat="48.86602" lon="1.70265">
        <ele>97.7</ele>
        <time>2022-03-17T09:28:29Z</time>
      </trkpt>
      <trkpt lat="48.86598" lon="1.70269">
        <ele>97.5</ele>
        <time>2022-03-17T09:28:33Z</time>
      </trkpt>
      <trkpt lat="48.86594" lon="1.70274">
        <ele>97.4</ele>
        <time>2022-03-17T09:28:37Z</time>
      </trkpt>
      <trkpt lat="48.86588" lon="1.70278">
        <ele>97.4</ele>
        <time>2022-03-17T09:28:42Z</time>
      </trkpt>
      <trkpt lat="48.86583" lon="1.7028">
        <ele>97.5</ele>
        <time>2022-03-17T09:28:46Z</time>
      </trkpt>
      <trkpt lat="48.86579" lon="1.70284">
        <ele>97.5</ele>
        <time>2022-03-17T09:28:49Z</time>
      </trkpt>
      <trkpt lat="48.86573" lon="1.70289">
        <ele>97.6</ele>
        <time>2022-03-17T09:28:54Z</time>
      </trkpt>
      <trkpt lat="48.86567" lon="1.70292">
        <ele>97.5</ele>
        <time>2022-03-17T09:28:59Z</time>
      </trkpt>
      <trkpt lat="48.86564" lon="1.70296">
        <ele>97.3</ele>
        <time>2022-03-17T09:29:03Z</time>
      </trkpt>
      <trkpt lat="48.86559" lon="1.70301">
        <ele>97.2</ele>
        <time>2022-03-17T09:29:07Z</time>
      </trkpt>
      <trkpt lat="48.86554" lon="1.70305">
        <ele>97.1</ele>
        <time>2022-03-17T09:29:11Z</time>
      </trkpt>
      <trkpt lat="48.8655" lon="1.70308">
        <ele>97</ele>
        <time>2022-03-17T09:29:15Z</time>
      </trkpt>
      <trkpt lat="48.86545" lon="1.70312">
        <ele>96.8</ele>
        <time>2022-03-17T09:29:19Z</time>
      </trkpt>
      <trkpt lat="48.8654" lon="1.70315">
        <ele>96.7</ele>
        <time>2022-03-17T09:29:23Z</time>
      </trkpt>
      <trkpt lat="48.86536" lon="1.70317">
        <ele>96.7</ele>
        <time>2022-03-17T09:29:27Z</time>
      </trkpt>
      <trkpt lat="48.86531" lon="1.70321">
        <ele>97</ele>
        <time>2022-03-17T09:29:31Z</time>
      </trkpt>
      <trkpt lat="48.86526" lon="1.70324">
        <ele>97.7</ele>
        <time>2022-03-17T09:29:34Z</time>
      </trkpt>
      <trkpt lat="48.86521" lon="1.70328">
        <ele>98.4</ele>
        <time>2022-03-17T09:29:39Z</time>
      </trkpt>
      <trkpt lat="48.86515" lon="1.70332">
        <ele>98.3</ele>
        <time>2022-03-17T09:29:44Z</time>
      </trkpt>
      <trkpt lat="48.8651" lon="1.70334">
        <ele>98.3</ele>
        <time>2022-03-17T09:29:49Z</time>
      </trkpt>
      <trkpt lat="48.86504" lon="1.70338">
        <ele>98.7</ele>
        <time>2022-03-17T09:29:54Z</time>
      </trkpt>
      <trkpt lat="48.86497" lon="1.7034">
        <ele>99.3</ele>
        <time>2022-03-17T09:29:59Z</time>
      </trkpt>
      <trkpt lat="48.86491" lon="1.70341">
        <ele>99.8</ele>
        <time>2022-03-17T09:30:05Z</time>
      </trkpt>
      <trkpt lat="48.86485" lon="1.70344">
        <ele>100.1</ele>
        <time>2022-03-17T09:30:09Z</time>
      </trkpt>
      <trkpt lat="48.86479" lon="1.70348">
        <ele>99.9</ele>
        <time>2022-03-17T09:30:15Z</time>
      </trkpt>
      <trkpt lat="48.86473" lon="1.70352">
        <ele>99.7</ele>
        <time>2022-03-17T09:30:20Z</time>
      </trkpt>
      <trkpt lat="48.86467" lon="1.70353">
        <ele>99.8</ele>
        <time>2022-03-17T09:30:24Z</time>
      </trkpt>
      <trkpt lat="48.86461" lon="1.70355">
        <ele>100.9</ele>
        <time>2022-03-17T09:30:30Z</time>
      </trkpt>
      <trkpt lat="48.86455" lon="1.70357">
        <ele>101.4</ele>
        <time>2022-03-17T09:30:34Z</time>
      </trkpt>
      <trkpt lat="48.86449" lon="1.70361">
        <ele>101.3</ele>
        <time>2022-03-17T09:30:39Z</time>
      </trkpt>
      <trkpt lat="48.86443" lon="1.70366">
        <ele>101.6</ele>
        <time>2022-03-17T09:30:44Z</time>
      </trkpt>
      <trkpt lat="48.86438" lon="1.70371">
        <ele>102.4</ele>
        <time>2022-03-17T09:30:49Z</time>
      </trkpt>
      <trkpt lat="48.86433" lon="1.70377">
        <ele>102.5</ele>
        <time>2022-03-17T09:30:54Z</time>
      </trkpt>
      <trkpt lat="48.86428" lon="1.70383">
        <ele>102.3</ele>
        <time>2022-03-17T09:30:59Z</time>
      </trkpt>
      <trkpt lat="48.86422" lon="1.7039">
        <ele>102.4</ele>
        <time>2022-03-17T09:31:04Z</time>
      </trkpt>
      <trkpt lat="48.86417" lon="1.70396">
        <ele>102.6</ele>
        <time>2022-03-17T09:31:09Z</time>
      </trkpt>
      <trkpt lat="48.86412" lon="1.70401">
        <ele>102.8</ele>
        <time>2022-03-17T09:31:14Z</time>
      </trkpt>
      <trkpt lat="48.86406" lon="1.70406">
        <ele>102.6</ele>
        <time>2022-03-17T09:31:19Z</time>
      </trkpt>
      <trkpt lat="48.86401" lon="1.70412">
        <ele>102.2</ele>
        <time>2022-03-17T09:31:25Z</time>
      </trkpt>
      <trkpt lat="48.86396" lon="1.70418">
        <ele>101.9</ele>
        <time>2022-03-17T09:31:30Z</time>
      </trkpt>
      <trkpt lat="48.86392" lon="1.70422">
        <ele>101.9</ele>
        <time>2022-03-17T09:31:33Z</time>
      </trkpt>
      <trkpt lat="48.86388" lon="1.70427">
        <ele>101.6</ele>
        <time>2022-03-17T09:31:37Z</time>
      </trkpt>
      <trkpt lat="48.86384" lon="1.70432">
        <ele>101.3</ele>
        <time>2022-03-17T09:31:41Z</time>
      </trkpt>
      <trkpt lat="48.8638" lon="1.70436">
        <ele>101.1</ele>
        <time>2022-03-17T09:31:44Z</time>
      </trkpt>
      <trkpt lat="48.86374" lon="1.70442">
        <ele>101.2</ele>
        <time>2022-03-17T09:31:49Z</time>
      </trkpt>
      <trkpt lat="48.86371" lon="1.70446">
        <ele>101.3</ele>
        <time>2022-03-17T09:31:53Z</time>
      </trkpt>
      <trkpt lat="48.86366" lon="1.70451">
        <ele>101.1</ele>
        <time>2022-03-17T09:31:57Z</time>
      </trkpt>
      <trkpt lat="48.86363" lon="1.70456">
        <ele>100.9</ele>
        <time>2022-03-17T09:32:01Z</time>
      </trkpt>
      <trkpt lat="48.86358" lon="1.70462">
        <ele>100.5</ele>
        <time>2022-03-17T09:32:05Z</time>
      </trkpt>
      <trkpt lat="48.86353" lon="1.70467">
        <ele>100.2</ele>
        <time>2022-03-17T09:32:10Z</time>
      </trkpt>
      <trkpt lat="48.86349" lon="1.7047">
        <ele>100.5</ele>
        <time>2022-03-17T09:32:14Z</time>
      </trkpt>
      <trkpt lat="48.86345" lon="1.70474">
        <ele>101</ele>
        <time>2022-03-17T09:32:18Z</time>
      </trkpt>
      <trkpt lat="48.8634" lon="1.70478">
        <ele>101.1</ele>
        <time>2022-03-17T09:32:22Z</time>
      </trkpt>
      <trkpt lat="48.86335" lon="1.70483">
        <ele>100.9</ele>
        <time>2022-03-17T09:32:26Z</time>
      </trkpt>
      <trkpt lat="48.8633" lon="1.70488">
        <ele>100.9</ele>
        <time>2022-03-17T09:32:30Z</time>
      </trkpt>
      <trkpt lat="48.86326" lon="1.70493">
        <ele>101</ele>
        <time>2022-03-17T09:32:34Z</time>
      </trkpt>
      <trkpt lat="48.86321" lon="1.70498">
        <ele>100.9</ele>
        <time>2022-03-17T09:32:39Z</time>
      </trkpt>
      <trkpt lat="48.86316" lon="1.70503">
        <ele>100.9</ele>
        <time>2022-03-17T09:32:43Z</time>
      </trkpt>
      <trkpt lat="48.86312" lon="1.70507">
        <ele>100.9</ele>
        <time>2022-03-17T09:32:47Z</time>
      </trkpt>
      <trkpt lat="48.86309" lon="1.70512">
        <ele>101</ele>
        <time>2022-03-17T09:32:50Z</time>
      </trkpt>
      <trkpt lat="48.86304" lon="1.70517">
        <ele>101.1</ele>
        <time>2022-03-17T09:32:55Z</time>
      </trkpt>
      <trkpt lat="48.86298" lon="1.70523">
        <ele>101.1</ele>
        <time>2022-03-17T09:33:00Z</time>
      </trkpt>
      <trkpt lat="48.86295" lon="1.70527">
        <ele>100.9</ele>
        <time>2022-03-17T09:33:04Z</time>
      </trkpt>
      <trkpt lat="48.86291" lon="1.70532">
        <ele>100.8</ele>
        <time>2022-03-17T09:33:08Z</time>
      </trkpt>
      <trkpt lat="48.86286" lon="1.70537">
        <ele>100.7</ele>
        <time>2022-03-17T09:33:12Z</time>
      </trkpt>
      <trkpt lat="48.86282" lon="1.70541">
        <ele>100.7</ele>
        <time>2022-03-17T09:33:15Z</time>
      </trkpt>
      <trkpt lat="48.86278" lon="1.70547">
        <ele>100.7</ele>
        <time>2022-03-17T09:33:20Z</time>
      </trkpt>
      <trkpt lat="48.86274" lon="1.70554">
        <ele>100.5</ele>
        <time>2022-03-17T09:33:25Z</time>
      </trkpt>
      <trkpt lat="48.86269" lon="1.70561">
        <ele>100.3</ele>
        <time>2022-03-17T09:33:30Z</time>
      </trkpt>
      <trkpt lat="48.86264" lon="1.70565">
        <ele>100.3</ele>
        <time>2022-03-17T09:33:35Z</time>
      </trkpt>
      <trkpt lat="48.86259" lon="1.70568">
        <ele>100.5</ele>
        <time>2022-03-17T09:33:39Z</time>
      </trkpt>
      <trkpt lat="48.86255" lon="1.70573">
        <ele>100.7</ele>
        <time>2022-03-17T09:33:43Z</time>
      </trkpt>
      <trkpt lat="48.86251" lon="1.70579">
        <ele>100.6</ele>
        <time>2022-03-17T09:33:48Z</time>
      </trkpt>
      <trkpt lat="48.86247" lon="1.70585">
        <ele>100.4</ele>
        <time>2022-03-17T09:33:51Z</time>
      </trkpt>
      <trkpt lat="48.86243" lon="1.7059">
        <ele>100.1</ele>
        <time>2022-03-17T09:33:56Z</time>
      </trkpt>
      <trkpt lat="48.86239" lon="1.70595">
        <ele>99.7</ele>
        <time>2022-03-17T09:33:59Z</time>
      </trkpt>
      <trkpt lat="48.86235" lon="1.706">
        <ele>99.3</ele>
        <time>2022-03-17T09:34:03Z</time>
      </trkpt>
      <trkpt lat="48.86232" lon="1.70606">
        <ele>98.2</ele>
        <time>2022-03-17T09:34:07Z</time>
      </trkpt>
      <trkpt lat="48.86228" lon="1.70611">
        <ele>97.5</ele>
        <time>2022-03-17T09:34:11Z</time>
      </trkpt>
      <trkpt lat="48.86223" lon="1.70617">
        <ele>97.5</ele>
        <time>2022-03-17T09:34:15Z</time>
      </trkpt>
      <trkpt lat="48.86217" lon="1.70622">
        <ele>98.2</ele>
        <time>2022-03-17T09:34:20Z</time>
      </trkpt>
      <trkpt lat="48.86212" lon="1.70627">
        <ele>99</ele>
        <time>2022-03-17T09:34:25Z</time>
      </trkpt>
      <trkpt lat="48.86208" lon="1.70632">
        <ele>99.4</ele>
        <time>2022-03-17T09:34:29Z</time>
      </trkpt>
      <trkpt lat="48.86203" lon="1.70636">
        <ele>99.7</ele>
        <time>2022-03-17T09:34:33Z</time>
      </trkpt>
      <trkpt lat="48.86199" lon="1.70641">
        <ele>100</ele>
        <time>2022-03-17T09:34:37Z</time>
      </trkpt>
      <trkpt lat="48.86195" lon="1.70646">
        <ele>100.3</ele>
        <time>2022-03-17T09:34:41Z</time>
      </trkpt>
      <trkpt lat="48.86191" lon="1.70652">
        <ele>100.4</ele>
        <time>2022-03-17T09:34:45Z</time>
      </trkpt>
      <trkpt lat="48.86188" lon="1.70656">
        <ele>100.4</ele>
        <time>2022-03-17T09:34:48Z</time>
      </trkpt>
      <trkpt lat="48.86184" lon="1.70662">
        <ele>100.5</ele>
        <time>2022-03-17T09:34:52Z</time>
      </trkpt>
      <trkpt lat="48.86179" lon="1.70667">
        <ele>100.4</ele>
        <time>2022-03-17T09:34:57Z</time>
      </trkpt>
      <trkpt lat="48.86176" lon="1.70672">
        <ele>100.3</ele>
        <time>2022-03-17T09:35:01Z</time>
      </trkpt>
      <trkpt lat="48.86172" lon="1.70677">
        <ele>100.3</ele>
        <time>2022-03-17T09:35:05Z</time>
      </trkpt>
      <trkpt lat="48.86169" lon="1.70683">
        <ele>99.8</ele>
        <time>2022-03-17T09:35:09Z</time>
      </trkpt>
      <trkpt lat="48.86166" lon="1.70689">
        <ele>99.3</ele>
        <time>2022-03-17T09:35:13Z</time>
      </trkpt>
      <trkpt lat="48.86162" lon="1.70694">
        <ele>99.5</ele>
        <time>2022-03-17T09:35:17Z</time>
      </trkpt>
      <trkpt lat="48.86158" lon="1.70699">
        <ele>99.9</ele>
        <time>2022-03-17T09:35:20Z</time>
      </trkpt>
      <trkpt lat="48.86154" lon="1.70703">
        <ele>100.5</ele>
        <time>2022-03-17T09:35:23Z</time>
      </trkpt>
      <trkpt lat="48.8615" lon="1.70708">
        <ele>100.7</ele>
        <time>2022-03-17T09:35:27Z</time>
      </trkpt>
      <trkpt lat="48.86147" lon="1.70713">
        <ele>100.7</ele>
        <time>2022-03-17T09:35:31Z</time>
      </trkpt>
      <trkpt lat="48.86143" lon="1.70719">
        <ele>100.5</ele>
        <time>2022-03-17T09:35:35Z</time>
      </trkpt>
      <trkpt lat="48.86139" lon="1.70727">
        <ele>100.4</ele>
        <time>2022-03-17T09:35:40Z</time>
      </trkpt>
      <trkpt lat="48.86135" lon="1.70734">
        <ele>100.4</ele>
        <time>2022-03-17T09:35:45Z</time>
      </trkpt>
      <trkpt lat="48.8613" lon="1.70739">
        <ele>100.2</ele>
        <time>2022-03-17T09:35:49Z</time>
      </trkpt>
      <trkpt lat="48.86127" lon="1.70744">
        <ele>100</ele>
        <time>2022-03-17T09:35:52Z</time>
      </trkpt>
      <trkpt lat="48.86124" lon="1.7075">
        <ele>100.1</ele>
        <time>2022-03-17T09:35:56Z</time>
      </trkpt>
      <trkpt lat="48.8612" lon="1.70756">
        <ele>100.4</ele>
        <time>2022-03-17T09:36:00Z</time>
      </trkpt>
      <trkpt lat="48.86117" lon="1.70762">
        <ele>100.7</ele>
        <time>2022-03-17T09:36:05Z</time>
      </trkpt>
      <trkpt lat="48.86113" lon="1.70767">
        <ele>100.3</ele>
        <time>2022-03-17T09:36:09Z</time>
      </trkpt>
      <trkpt lat="48.86109" lon="1.70771">
        <ele>100</ele>
        <time>2022-03-17T09:36:12Z</time>
      </trkpt>
      <trkpt lat="48.86106" lon="1.70777">
        <ele>99.7</ele>
        <time>2022-03-17T09:36:15Z</time>
      </trkpt>
      <trkpt lat="48.86102" lon="1.70784">
        <ele>99.6</ele>
        <time>2022-03-17T09:36:20Z</time>
      </trkpt>
      <trkpt lat="48.86098" lon="1.70789">
        <ele>99.6</ele>
        <time>2022-03-17T09:36:24Z</time>
      </trkpt>
      <trkpt lat="48.86093" lon="1.70793">
        <ele>99.6</ele>
        <time>2022-03-17T09:36:29Z</time>
      </trkpt>
      <trkpt lat="48.86089" lon="1.70798">
        <ele>99.6</ele>
        <time>2022-03-17T09:36:32Z</time>
      </trkpt>
      <trkpt lat="48.86086" lon="1.70803">
        <ele>99.6</ele>
        <time>2022-03-17T09:36:35Z</time>
      </trkpt>
      <trkpt lat="48.86083" lon="1.70809">
        <ele>99.9</ele>
        <time>2022-03-17T09:36:41Z</time>
      </trkpt>
      <trkpt lat="48.86079" lon="1.70814">
        <ele>99.7</ele>
        <time>2022-03-17T09:36:45Z</time>
      </trkpt>
      <trkpt lat="48.86076" lon="1.70821">
        <ele>99.6</ele>
        <time>2022-03-17T09:36:49Z</time>
      </trkpt>
      <trkpt lat="48.86072" lon="1.70827">
        <ele>99.4</ele>
        <time>2022-03-17T09:36:52Z</time>
      </trkpt>
      <trkpt lat="48.86069" lon="1.70832">
        <ele>99.4</ele>
        <time>2022-03-17T09:36:57Z</time>
      </trkpt>
      <trkpt lat="48.86065" lon="1.70838">
        <ele>99.4</ele>
        <time>2022-03-17T09:37:01Z</time>
      </trkpt>
      <trkpt lat="48.86062" lon="1.70845">
        <ele>99.4</ele>
        <time>2022-03-17T09:37:05Z</time>
      </trkpt>
      <trkpt lat="48.86056" lon="1.70846">
        <ele>99.4</ele>
        <time>2022-03-17T09:37:10Z</time>
      </trkpt>
      <trkpt lat="48.86052" lon="1.7084">
        <ele>99.9</ele>
        <time>2022-03-17T09:37:16Z</time>
      </trkpt>
      <trkpt lat="48.86051" lon="1.70834">
        <ele>98.6</ele>
        <time>2022-03-17T09:37:31Z</time>
      </trkpt>
      <trkpt lat="48.86049" lon="1.70827">
        <ele>98.9</ele>
        <time>2022-03-17T09:37:38Z</time>
      </trkpt>
      <trkpt lat="48.86048" lon="1.7082">
        <ele>99.3</ele>
        <time>2022-03-17T09:37:42Z</time>
      </trkpt>
      <trkpt lat="48.86047" lon="1.70813">
        <ele>99.5</ele>
        <time>2022-03-17T09:37:46Z</time>
      </trkpt>
      <trkpt lat="48.86045" lon="1.70806">
        <ele>99.6</ele>
        <time>2022-03-17T09:37:51Z</time>
      </trkpt>
      <trkpt lat="48.86044" lon="1.70798">
        <ele>99.6</ele>
        <time>2022-03-17T09:37:56Z</time>
      </trkpt>
      <trkpt lat="48.86042" lon="1.70791">
        <ele>99.3</ele>
        <time>2022-03-17T09:38:00Z</time>
      </trkpt>
      <trkpt lat="48.8604" lon="1.70783">
        <ele>99</ele>
        <time>2022-03-17T09:38:05Z</time>
      </trkpt>
      <trkpt lat="48.86039" lon="1.70777">
        <ele>99</ele>
        <time>2022-03-17T09:38:10Z</time>
      </trkpt>
      <trkpt lat="48.86037" lon="1.70766">
        <ele>99.2</ele>
        <time>2022-03-17T09:38:15Z</time>
      </trkpt>
      <trkpt lat="48.86035" lon="1.7076">
        <ele>99.7</ele>
        <time>2022-03-17T09:38:20Z</time>
      </trkpt>
      <trkpt lat="48.86034" lon="1.70752">
        <ele>99.9</ele>
        <time>2022-03-17T09:38:24Z</time>
      </trkpt>
      <trkpt lat="48.86032" lon="1.70744">
        <ele>99.5</ele>
        <time>2022-03-17T09:38:29Z</time>
      </trkpt>
      <trkpt lat="48.8603" lon="1.70737">
        <ele>99</ele>
        <time>2022-03-17T09:38:34Z</time>
      </trkpt>
      <trkpt lat="48.86029" lon="1.70729">
        <ele>98.6</ele>
        <time>2022-03-17T09:38:39Z</time>
      </trkpt>
      <trkpt lat="48.86027" lon="1.70723">
        <ele>98.3</ele>
        <time>2022-03-17T09:38:43Z</time>
      </trkpt>
      <trkpt lat="48.86025" lon="1.70716">
        <ele>98.4</ele>
        <time>2022-03-17T09:38:47Z</time>
      </trkpt>
      <trkpt lat="48.86023" lon="1.70709">
        <ele>98.5</ele>
        <time>2022-03-17T09:38:50Z</time>
      </trkpt>
      <trkpt lat="48.86021" lon="1.70699">
        <ele>98.6</ele>
        <time>2022-03-17T09:38:55Z</time>
      </trkpt>
      <trkpt lat="48.8602" lon="1.7069">
        <ele>98.9</ele>
        <time>2022-03-17T09:39:01Z</time>
      </trkpt>
      <trkpt lat="48.86017" lon="1.70681">
        <ele>98.9</ele>
        <time>2022-03-17T09:39:06Z</time>
      </trkpt>
      <trkpt lat="48.86015" lon="1.70671">
        <ele>98.6</ele>
        <time>2022-03-17T09:39:11Z</time>
      </trkpt>
      <trkpt lat="48.86013" lon="1.70663">
        <ele>98.4</ele>
        <time>2022-03-17T09:39:15Z</time>
      </trkpt>
      <trkpt lat="48.86012" lon="1.70654">
        <ele>98.3</ele>
        <time>2022-03-17T09:39:20Z</time>
      </trkpt>
      <trkpt lat="48.8601" lon="1.70647">
        <ele>98.3</ele>
        <time>2022-03-17T09:39:25Z</time>
      </trkpt>
      <trkpt lat="48.86009" lon="1.7064">
        <ele>98.2</ele>
        <time>2022-03-17T09:39:29Z</time>
      </trkpt>
      <trkpt lat="48.86007" lon="1.70633">
        <ele>98.1</ele>
        <time>2022-03-17T09:39:33Z</time>
      </trkpt>
      <trkpt lat="48.86005" lon="1.70626">
        <ele>97.9</ele>
        <time>2022-03-17T09:39:37Z</time>
      </trkpt>
      <trkpt lat="48.86003" lon="1.70619">
        <ele>97.7</ele>
        <time>2022-03-17T09:39:40Z</time>
      </trkpt>
      <trkpt lat="48.86002" lon="1.70613">
        <ele>97.2</ele>
        <time>2022-03-17T09:39:45Z</time>
      </trkpt>
      <trkpt lat="48.86" lon="1.70605">
        <ele>97.1</ele>
        <time>2022-03-17T09:39:49Z</time>
      </trkpt>
      <trkpt lat="48.85998" lon="1.70598">
        <ele>97.2</ele>
        <time>2022-03-17T09:39:53Z</time>
      </trkpt>
      <trkpt lat="48.85997" lon="1.70588">
        <ele>97.2</ele>
        <time>2022-03-17T09:39:57Z</time>
      </trkpt>
      <trkpt lat="48.85996" lon="1.70581">
        <ele>97.2</ele>
        <time>2022-03-17T09:40:02Z</time>
      </trkpt>
      <trkpt lat="48.85994" lon="1.70573">
        <ele>97.3</ele>
        <time>2022-03-17T09:40:06Z</time>
      </trkpt>
      <trkpt lat="48.85992" lon="1.70565">
        <ele>97.3</ele>
        <time>2022-03-17T09:40:10Z</time>
      </trkpt>
      <trkpt lat="48.85991" lon="1.70558">
        <ele>97.1</ele>
        <time>2022-03-17T09:40:14Z</time>
      </trkpt>
      <trkpt lat="48.85989" lon="1.7055">
        <ele>96.9</ele>
        <time>2022-03-17T09:40:18Z</time>
      </trkpt>
      <trkpt lat="48.85988" lon="1.70543">
        <ele>96.5</ele>
        <time>2022-03-17T09:40:22Z</time>
      </trkpt>
      <trkpt lat="48.85986" lon="1.70535">
        <ele>96</ele>
        <time>2022-03-17T09:40:26Z</time>
      </trkpt>
      <trkpt lat="48.85985" lon="1.70528">
        <ele>95.4</ele>
        <time>2022-03-17T09:40:30Z</time>
      </trkpt>
      <trkpt lat="48.85983" lon="1.70521">
        <ele>94.1</ele>
        <time>2022-03-17T09:40:34Z</time>
      </trkpt>
      <trkpt lat="48.8598" lon="1.70512">
        <ele>93.7</ele>
        <time>2022-03-17T09:40:38Z</time>
      </trkpt>
      <trkpt lat="48.85979" lon="1.70503">
        <ele>94.1</ele>
        <time>2022-03-17T09:40:43Z</time>
      </trkpt>
      <trkpt lat="48.85978" lon="1.70493">
        <ele>94.1</ele>
        <time>2022-03-17T09:40:48Z</time>
      </trkpt>
      <trkpt lat="48.85977" lon="1.70487">
        <ele>93.7</ele>
        <time>2022-03-17T09:40:52Z</time>
      </trkpt>
      <trkpt lat="48.85975" lon="1.70479">
        <ele>93.4</ele>
        <time>2022-03-17T09:40:56Z</time>
      </trkpt>
      <trkpt lat="48.85974" lon="1.70472">
        <ele>93.3</ele>
        <time>2022-03-17T09:40:59Z</time>
      </trkpt>
      <trkpt lat="48.85974" lon="1.70463">
        <ele>93.5</ele>
        <time>2022-03-17T09:41:03Z</time>
      </trkpt>
      <trkpt lat="48.85973" lon="1.70454">
        <ele>93.5</ele>
        <time>2022-03-17T09:41:08Z</time>
      </trkpt>
      <trkpt lat="48.85972" lon="1.70447">
        <ele>93.4</ele>
        <time>2022-03-17T09:41:12Z</time>
      </trkpt>
      <trkpt lat="48.85971" lon="1.70439">
        <ele>93.4</ele>
        <time>2022-03-17T09:41:17Z</time>
      </trkpt>
      <trkpt lat="48.8597" lon="1.70431">
        <ele>92.7</ele>
        <time>2022-03-17T09:41:21Z</time>
      </trkpt>
      <trkpt lat="48.85969" lon="1.70424">
        <ele>91.9</ele>
        <time>2022-03-17T09:41:25Z</time>
      </trkpt>
      <trkpt lat="48.85968" lon="1.70416">
        <ele>92.1</ele>
        <time>2022-03-17T09:41:29Z</time>
      </trkpt>
      <trkpt lat="48.85967" lon="1.70409">
        <ele>92.6</ele>
        <time>2022-03-17T09:41:33Z</time>
      </trkpt>
      <trkpt lat="48.85966" lon="1.70399">
        <ele>93.3</ele>
        <time>2022-03-17T09:41:38Z</time>
      </trkpt>
      <trkpt lat="48.85967" lon="1.70389">
        <ele>94.5</ele>
        <time>2022-03-17T09:41:43Z</time>
      </trkpt>
      <trkpt lat="48.85968" lon="1.70378">
        <ele>95</ele>
        <time>2022-03-17T09:41:48Z</time>
      </trkpt>
      <trkpt lat="48.85968" lon="1.70369">
        <ele>95.2</ele>
        <time>2022-03-17T09:41:53Z</time>
      </trkpt>
      <trkpt lat="48.8597" lon="1.70359">
        <ele>95</ele>
        <time>2022-03-17T09:41:58Z</time>
      </trkpt>
      <trkpt lat="48.85972" lon="1.7035">
        <ele>94.6</ele>
        <time>2022-03-17T09:42:03Z</time>
      </trkpt>
      <trkpt lat="48.85973" lon="1.7034">
        <ele>94.8</ele>
        <time>2022-03-17T09:42:08Z</time>
      </trkpt>
      <trkpt lat="48.85974" lon="1.7033">
        <ele>95.3</ele>
        <time>2022-03-17T09:42:13Z</time>
      </trkpt>
      <trkpt lat="48.85975" lon="1.70322">
        <ele>95.8</ele>
        <time>2022-03-17T09:42:18Z</time>
      </trkpt>
      <trkpt lat="48.85976" lon="1.70312">
        <ele>95.4</ele>
        <time>2022-03-17T09:42:23Z</time>
      </trkpt>
      <trkpt lat="48.85976" lon="1.70302">
        <ele>94.7</ele>
        <time>2022-03-17T09:42:28Z</time>
      </trkpt>
      <trkpt lat="48.85976" lon="1.70293">
        <ele>94</ele>
        <time>2022-03-17T09:42:33Z</time>
      </trkpt>
      <trkpt lat="48.85977" lon="1.70284">
        <ele>93.4</ele>
        <time>2022-03-17T09:42:38Z</time>
      </trkpt>
      <trkpt lat="48.85978" lon="1.70276">
        <ele>92.6</ele>
        <time>2022-03-17T09:42:43Z</time>
      </trkpt>
      <trkpt lat="48.85979" lon="1.7027">
        <ele>91.6</ele>
        <time>2022-03-17T09:42:46Z</time>
      </trkpt>
      <trkpt lat="48.8598" lon="1.70262">
        <ele>91.1</ele>
        <time>2022-03-17T09:42:50Z</time>
      </trkpt>
      <trkpt lat="48.85982" lon="1.70255">
        <ele>91</ele>
        <time>2022-03-17T09:42:54Z</time>
      </trkpt>
      <trkpt lat="48.85982" lon="1.70246">
        <ele>90.6</ele>
        <time>2022-03-17T09:42:59Z</time>
      </trkpt>
      <trkpt lat="48.85983" lon="1.70236">
        <ele>89.7</ele>
        <time>2022-03-17T09:43:03Z</time>
      </trkpt>
      <trkpt lat="48.85984" lon="1.70227">
        <ele>88.4</ele>
        <time>2022-03-17T09:43:08Z</time>
      </trkpt>
      <trkpt lat="48.85983" lon="1.70221">
        <ele>86.9</ele>
        <time>2022-03-17T09:43:12Z</time>
      </trkpt>
      <trkpt lat="48.85981" lon="1.70214">
        <ele>84.9</ele>
        <time>2022-03-17T09:43:16Z</time>
      </trkpt>
      <trkpt lat="48.85979" lon="1.70206">
        <ele>84.3</ele>
        <time>2022-03-17T09:43:21Z</time>
      </trkpt>
      <trkpt lat="48.85978" lon="1.70198">
        <ele>84.3</ele>
        <time>2022-03-17T09:43:25Z</time>
      </trkpt>
      <trkpt lat="48.85977" lon="1.70191">
        <ele>83.9</ele>
        <time>2022-03-17T09:43:30Z</time>
      </trkpt>
      <trkpt lat="48.85976" lon="1.70183">
        <ele>83.2</ele>
        <time>2022-03-17T09:43:33Z</time>
      </trkpt>
      <trkpt lat="48.85978" lon="1.70175">
        <ele>82.4</ele>
        <time>2022-03-17T09:43:39Z</time>
      </trkpt>
      <trkpt lat="48.85979" lon="1.70166">
        <ele>82.4</ele>
        <time>2022-03-17T09:43:44Z</time>
      </trkpt>
      <trkpt lat="48.85978" lon="1.70157">
        <ele>82.6</ele>
        <time>2022-03-17T09:43:49Z</time>
      </trkpt>
      <trkpt lat="48.85979" lon="1.70149">
        <ele>82.5</ele>
        <time>2022-03-17T09:43:55Z</time>
      </trkpt>
      <trkpt lat="48.85978" lon="1.70142">
        <ele>82.4</ele>
        <time>2022-03-17T09:43:59Z</time>
      </trkpt>
      <trkpt lat="48.85976" lon="1.70133">
        <ele>82.2</ele>
        <time>2022-03-17T09:44:03Z</time>
      </trkpt>
      <trkpt lat="48.85973" lon="1.70124">
        <ele>82.6</ele>
        <time>2022-03-17T09:44:09Z</time>
      </trkpt>
      <trkpt lat="48.85971" lon="1.70115">
        <ele>82.5</ele>
        <time>2022-03-17T09:44:14Z</time>
      </trkpt>
      <trkpt lat="48.85968" lon="1.70107">
        <ele>81.6</ele>
        <time>2022-03-17T09:44:18Z</time>
      </trkpt>
      <trkpt lat="48.85966" lon="1.701">
        <ele>80.6</ele>
        <time>2022-03-17T09:44:23Z</time>
      </trkpt>
      <trkpt lat="48.85964" lon="1.70094">
        <ele>80.4</ele>
        <time>2022-03-17T09:44:26Z</time>
      </trkpt>
      <trkpt lat="48.85961" lon="1.70087">
        <ele>80.6</ele>
        <time>2022-03-17T09:44:30Z</time>
      </trkpt>
      <trkpt lat="48.85959" lon="1.7008">
        <ele>80.9</ele>
        <time>2022-03-17T09:44:34Z</time>
      </trkpt>
      <trkpt lat="48.85956" lon="1.70072">
        <ele>81.5</ele>
        <time>2022-03-17T09:44:39Z</time>
      </trkpt>
      <trkpt lat="48.85954" lon="1.70066">
        <ele>82.2</ele>
        <time>2022-03-17T09:44:42Z</time>
      </trkpt>
      <trkpt lat="48.85953" lon="1.70059">
        <ele>82.7</ele>
        <time>2022-03-17T09:44:46Z</time>
      </trkpt>
      <trkpt lat="48.85951" lon="1.70051">
        <ele>83.3</ele>
        <time>2022-03-17T09:44:50Z</time>
      </trkpt>
      <trkpt lat="48.85948" lon="1.70043">
        <ele>83.1</ele>
        <time>2022-03-17T09:44:54Z</time>
      </trkpt>
      <trkpt lat="48.85942" lon="1.70048">
        <ele>82.7</ele>
        <time>2022-03-17T09:45:00Z</time>
      </trkpt>
      <trkpt lat="48.85939" lon="1.70055">
        <ele>82.1</ele>
        <time>2022-03-17T09:45:04Z</time>
      </trkpt>
      <trkpt lat="48.8594" lon="1.70046">
        <ele>80.4</ele>
        <time>2022-03-17T09:45:09Z</time>
      </trkpt>
      <trkpt lat="48.85942" lon="1.70038">
        <ele>80.4</ele>
        <time>2022-03-17T09:45:11Z</time>
      </trkpt>
      <trkpt lat="48.85941" lon="1.70029">
        <ele>80.8</ele>
        <time>2022-03-17T09:45:14Z</time>
      </trkpt>
      <trkpt lat="48.8594" lon="1.70022">
        <ele>82.6</ele>
        <time>2022-03-17T09:45:18Z</time>
      </trkpt>
      <trkpt lat="48.85937" lon="1.70016">
        <ele>82.9</ele>
        <time>2022-03-17T09:45:21Z</time>
      </trkpt>
      <trkpt lat="48.85935" lon="1.70009">
        <ele>83.1</ele>
        <time>2022-03-17T09:45:25Z</time>
      </trkpt>
      <trkpt lat="48.85933" lon="1.70001">
        <ele>83.2</ele>
        <time>2022-03-17T09:45:29Z</time>
      </trkpt>
      <trkpt lat="48.85931" lon="1.69992">
        <ele>83.5</ele>
        <time>2022-03-17T09:45:34Z</time>
      </trkpt>
      <trkpt lat="48.85928" lon="1.69983">
        <ele>84.3</ele>
        <time>2022-03-17T09:45:39Z</time>
      </trkpt>
      <trkpt lat="48.85926" lon="1.69975">
        <ele>85.2</ele>
        <time>2022-03-17T09:45:44Z</time>
      </trkpt>
      <trkpt lat="48.85924" lon="1.69966">
        <ele>85.6</ele>
        <time>2022-03-17T09:45:49Z</time>
      </trkpt>
      <trkpt lat="48.85921" lon="1.69957">
        <ele>85.6</ele>
        <time>2022-03-17T09:45:54Z</time>
      </trkpt>
      <trkpt lat="48.85918" lon="1.69949">
        <ele>85.3</ele>
        <time>2022-03-17T09:45:59Z</time>
      </trkpt>
      <trkpt lat="48.85916" lon="1.6994">
        <ele>85.2</ele>
        <time>2022-03-17T09:46:04Z</time>
      </trkpt>
      <trkpt lat="48.85913" lon="1.69932">
        <ele>85.6</ele>
        <time>2022-03-17T09:46:09Z</time>
      </trkpt>
      <trkpt lat="48.85911" lon="1.69925">
        <ele>86.2</ele>
        <time>2022-03-17T09:46:13Z</time>
      </trkpt>
      <trkpt lat="48.85909" lon="1.69916">
        <ele>86.8</ele>
        <time>2022-03-17T09:46:18Z</time>
      </trkpt>
      <trkpt lat="48.85908" lon="1.69908">
        <ele>87.7</ele>
        <time>2022-03-17T09:46:22Z</time>
      </trkpt>
      <trkpt lat="48.85906" lon="1.69901">
        <ele>88.5</ele>
        <time>2022-03-17T09:46:26Z</time>
      </trkpt>
      <trkpt lat="48.85905" lon="1.69894">
        <ele>88.9</ele>
        <time>2022-03-17T09:46:29Z</time>
      </trkpt>
      <trkpt lat="48.85902" lon="1.69885">
        <ele>89.5</ele>
        <time>2022-03-17T09:46:34Z</time>
      </trkpt>
      <trkpt lat="48.859" lon="1.69876">
        <ele>90.2</ele>
        <time>2022-03-17T09:46:39Z</time>
      </trkpt>
      <trkpt lat="48.85898" lon="1.69868">
        <ele>90.5</ele>
        <time>2022-03-17T09:46:44Z</time>
      </trkpt>
      <trkpt lat="48.85895" lon="1.69859">
        <ele>91.1</ele>
        <time>2022-03-17T09:46:49Z</time>
      </trkpt>
      <trkpt lat="48.85894" lon="1.6985">
        <ele>91.6</ele>
        <time>2022-03-17T09:46:54Z</time>
      </trkpt>
      <trkpt lat="48.85892" lon="1.69842">
        <ele>91.4</ele>
        <time>2022-03-17T09:46:59Z</time>
      </trkpt>
      <trkpt lat="48.85888" lon="1.69842">
        <ele>89.4</ele>
        <time>2022-03-17T09:47:09Z</time>
      </trkpt>
      <trkpt lat="48.85884" lon="1.69837">
        <ele>88.1</ele>
        <time>2022-03-17T09:47:34Z</time>
      </trkpt>
      <trkpt lat="48.85883" lon="1.6983">
        <ele>88.5</ele>
        <time>2022-03-17T09:47:40Z</time>
      </trkpt>
      <trkpt lat="48.85882" lon="1.69822">
        <ele>89</ele>
        <time>2022-03-17T09:47:47Z</time>
      </trkpt>
      <trkpt lat="48.85883" lon="1.69814">
        <ele>89.4</ele>
        <time>2022-03-17T09:47:53Z</time>
      </trkpt>
      <trkpt lat="48.85882" lon="1.69806">
        <ele>89.8</ele>
        <time>2022-03-17T09:47:57Z</time>
      </trkpt>
      <trkpt lat="48.85882" lon="1.69799">
        <ele>90.6</ele>
        <time>2022-03-17T09:48:01Z</time>
      </trkpt>
      <trkpt lat="48.85883" lon="1.69791">
        <ele>91.4</ele>
        <time>2022-03-17T09:48:06Z</time>
      </trkpt>
      <trkpt lat="48.85884" lon="1.69784">
        <ele>91.9</ele>
        <time>2022-03-17T09:48:10Z</time>
      </trkpt>
      <trkpt lat="48.85883" lon="1.69777">
        <ele>91.9</ele>
        <time>2022-03-17T09:48:14Z</time>
      </trkpt>
      <trkpt lat="48.85882" lon="1.69769">
        <ele>91.8</ele>
        <time>2022-03-17T09:48:19Z</time>
      </trkpt>
      <trkpt lat="48.85881" lon="1.69762">
        <ele>91.9</ele>
        <time>2022-03-17T09:48:23Z</time>
      </trkpt>
      <trkpt lat="48.8588" lon="1.69754">
        <ele>92.4</ele>
        <time>2022-03-17T09:48:28Z</time>
      </trkpt>
      <trkpt lat="48.85879" lon="1.69747">
        <ele>93.1</ele>
        <time>2022-03-17T09:48:32Z</time>
      </trkpt>
      <trkpt lat="48.8588" lon="1.69741">
        <ele>93.5</ele>
        <time>2022-03-17T09:48:35Z</time>
      </trkpt>
      <trkpt lat="48.85882" lon="1.69732">
        <ele>94</ele>
        <time>2022-03-17T09:48:40Z</time>
      </trkpt>
      <trkpt lat="48.85879" lon="1.69725">
        <ele>94</ele>
        <time>2022-03-17T09:48:44Z</time>
      </trkpt>
      <trkpt lat="48.85877" lon="1.69719">
        <ele>93.4</ele>
        <time>2022-03-17T09:48:47Z</time>
      </trkpt>
      <trkpt lat="48.85877" lon="1.69711">
        <ele>92.3</ele>
        <time>2022-03-17T09:48:51Z</time>
      </trkpt>
      <trkpt lat="48.85876" lon="1.69703">
        <ele>92.3</ele>
        <time>2022-03-17T09:48:55Z</time>
      </trkpt>
      <trkpt lat="48.85875" lon="1.69694">
        <ele>93</ele>
        <time>2022-03-17T09:49:00Z</time>
      </trkpt>
      <trkpt lat="48.85872" lon="1.69685">
        <ele>94.3</ele>
        <time>2022-03-17T09:49:05Z</time>
      </trkpt>
      <trkpt lat="48.85869" lon="1.69678">
        <ele>95.2</ele>
        <time>2022-03-17T09:49:09Z</time>
      </trkpt>
      <trkpt lat="48.85867" lon="1.69671">
        <ele>96.6</ele>
        <time>2022-03-17T09:49:13Z</time>
      </trkpt>
      <trkpt lat="48.85865" lon="1.69664">
        <ele>97.4</ele>
        <time>2022-03-17T09:49:17Z</time>
      </trkpt>
      <trkpt lat="48.85863" lon="1.69656">
        <ele>97.9</ele>
        <time>2022-03-17T09:49:20Z</time>
      </trkpt>
      <trkpt lat="48.85859" lon="1.69648">
        <ele>99.4</ele>
        <time>2022-03-17T09:49:25Z</time>
      </trkpt>
      <trkpt lat="48.85856" lon="1.69641">
        <ele>100.8</ele>
        <time>2022-03-17T09:49:30Z</time>
      </trkpt>
      <trkpt lat="48.85853" lon="1.69633">
        <ele>100.3</ele>
        <time>2022-03-17T09:49:35Z</time>
      </trkpt>
      <trkpt lat="48.85851" lon="1.69625">
        <ele>98.6</ele>
        <time>2022-03-17T09:49:40Z</time>
      </trkpt>
      <trkpt lat="48.85849" lon="1.69619">
        <ele>98.7</ele>
        <time>2022-03-17T09:49:46Z</time>
      </trkpt>
      <trkpt lat="48.85845" lon="1.69622">
        <ele>99</ele>
        <time>2022-03-17T09:50:52Z</time>
      </trkpt>
      <trkpt lat="48.85841" lon="1.69624">
        <ele>97.5</ele>
        <time>2022-03-17T09:51:43Z</time>
      </trkpt>
      <trkpt lat="48.85835" lon="1.69622">
        <ele>97.4</ele>
        <time>2022-03-17T09:51:46Z</time>
      </trkpt>
      <trkpt lat="48.8583" lon="1.69621">
        <ele>97.7</ele>
        <time>2022-03-17T09:51:50Z</time>
      </trkpt>
      <trkpt lat="48.85825" lon="1.69623">
        <ele>98.5</ele>
        <time>2022-03-17T09:51:53Z</time>
      </trkpt>
      <trkpt lat="48.85821" lon="1.69625">
        <ele>99</ele>
        <time>2022-03-17T09:51:56Z</time>
      </trkpt>
      <trkpt lat="48.85815" lon="1.69628">
        <ele>99.8</ele>
        <time>2022-03-17T09:52:00Z</time>
      </trkpt>
      <trkpt lat="48.85811" lon="1.6963">
        <ele>100.5</ele>
        <time>2022-03-17T09:52:05Z</time>
      </trkpt>
      <trkpt lat="48.85805" lon="1.69632">
        <ele>100.8</ele>
        <time>2022-03-17T09:52:09Z</time>
      </trkpt>
      <trkpt lat="48.85801" lon="1.69634">
        <ele>100.9</ele>
        <time>2022-03-17T09:52:13Z</time>
      </trkpt>
      <trkpt lat="48.85796" lon="1.69636">
        <ele>100.9</ele>
        <time>2022-03-17T09:52:16Z</time>
      </trkpt>
      <trkpt lat="48.85791" lon="1.69639">
        <ele>100.4</ele>
        <time>2022-03-17T09:52:21Z</time>
      </trkpt>
      <trkpt lat="48.85786" lon="1.6964">
        <ele>99.4</ele>
        <time>2022-03-17T09:52:26Z</time>
      </trkpt>
      <trkpt lat="48.85781" lon="1.69638">
        <ele>99.3</ele>
        <time>2022-03-17T09:52:30Z</time>
      </trkpt>
      <trkpt lat="48.85777" lon="1.69631">
        <ele>99.5</ele>
        <time>2022-03-17T09:52:35Z</time>
      </trkpt>
      <trkpt lat="48.85775" lon="1.69624">
        <ele>98.6</ele>
        <time>2022-03-17T09:52:40Z</time>
      </trkpt>
      <trkpt lat="48.85775" lon="1.69616">
        <ele>96.8</ele>
        <time>2022-03-17T09:52:43Z</time>
      </trkpt>
      <trkpt lat="48.85776" lon="1.69608">
        <ele>96.4</ele>
        <time>2022-03-17T09:52:47Z</time>
      </trkpt>
      <trkpt lat="48.85775" lon="1.696">
        <ele>96.6</ele>
        <time>2022-03-17T09:52:52Z</time>
      </trkpt>
      <trkpt lat="48.85774" lon="1.6959">
        <ele>96.9</ele>
        <time>2022-03-17T09:52:56Z</time>
      </trkpt>
      <trkpt lat="48.85774" lon="1.69583">
        <ele>96.5</ele>
        <time>2022-03-17T09:53:00Z</time>
      </trkpt>
      <trkpt lat="48.85773" lon="1.69575">
        <ele>95.1</ele>
        <time>2022-03-17T09:53:04Z</time>
      </trkpt>
      <trkpt lat="48.85773" lon="1.69567">
        <ele>94.4</ele>
        <time>2022-03-17T09:53:08Z</time>
      </trkpt>
      <trkpt lat="48.85773" lon="1.6956">
        <ele>94.3</ele>
        <time>2022-03-17T09:53:12Z</time>
      </trkpt>
      <trkpt lat="48.85774" lon="1.69549">
        <ele>94</ele>
        <time>2022-03-17T09:53:16Z</time>
      </trkpt>
      <trkpt lat="48.85775" lon="1.69538">
        <ele>93.2</ele>
        <time>2022-03-17T09:53:21Z</time>
      </trkpt>
      <trkpt lat="48.85776" lon="1.69528">
        <ele>92.4</ele>
        <time>2022-03-17T09:53:26Z</time>
      </trkpt>
      <trkpt lat="48.85775" lon="1.69522">
        <ele>92.6</ele>
        <time>2022-03-17T09:53:31Z</time>
      </trkpt>
      <trkpt lat="48.85774" lon="1.69512">
        <ele>93.9</ele>
        <time>2022-03-17T09:53:36Z</time>
      </trkpt>
      <trkpt lat="48.85774" lon="1.69505">
        <ele>95</ele>
        <time>2022-03-17T09:53:40Z</time>
      </trkpt>
      <trkpt lat="48.85774" lon="1.69498">
        <ele>96.4</ele>
        <time>2022-03-17T09:53:43Z</time>
      </trkpt>
      <trkpt lat="48.85775" lon="1.6949">
        <ele>97.2</ele>
        <time>2022-03-17T09:53:46Z</time>
      </trkpt>
      <trkpt lat="48.85775" lon="1.69483">
        <ele>98.6</ele>
        <time>2022-03-17T09:53:51Z</time>
      </trkpt>
      <trkpt lat="48.85776" lon="1.69475">
        <ele>99.8</ele>
        <time>2022-03-17T09:53:54Z</time>
      </trkpt>
      <trkpt lat="48.85777" lon="1.69467">
        <ele>101.2</ele>
        <time>2022-03-17T09:53:58Z</time>
      </trkpt>
      <trkpt lat="48.85777" lon="1.6946">
        <ele>101.7</ele>
        <time>2022-03-17T09:54:01Z</time>
      </trkpt>
      <trkpt lat="48.85777" lon="1.69452">
        <ele>102.1</ele>
        <time>2022-03-17T09:54:06Z</time>
      </trkpt>
      <trkpt lat="48.85776" lon="1.69445">
        <ele>102.4</ele>
        <time>2022-03-17T09:54:10Z</time>
      </trkpt>
      <trkpt lat="48.85775" lon="1.69433">
        <ele>102.5</ele>
        <time>2022-03-17T09:54:15Z</time>
      </trkpt>
      <trkpt lat="48.85775" lon="1.69425">
        <ele>102.8</ele>
        <time>2022-03-17T09:54:19Z</time>
      </trkpt>
      <trkpt lat="48.85775" lon="1.69416">
        <ele>103.1</ele>
        <time>2022-03-17T09:54:23Z</time>
      </trkpt>
      <trkpt lat="48.85775" lon="1.69409">
        <ele>103</ele>
        <time>2022-03-17T09:54:28Z</time>
      </trkpt>
      <trkpt lat="48.85775" lon="1.694">
        <ele>103</ele>
        <time>2022-03-17T09:54:32Z</time>
      </trkpt>
      <trkpt lat="48.85774" lon="1.69393">
        <ele>103.1</ele>
        <time>2022-03-17T09:54:36Z</time>
      </trkpt>
      <trkpt lat="48.85773" lon="1.69386">
        <ele>103.3</ele>
        <time>2022-03-17T09:54:40Z</time>
      </trkpt>
      <trkpt lat="48.85773" lon="1.69377">
        <ele>103.3</ele>
        <time>2022-03-17T09:54:44Z</time>
      </trkpt>
      <trkpt lat="48.85773" lon="1.69368">
        <ele>103.5</ele>
        <time>2022-03-17T09:54:49Z</time>
      </trkpt>
      <trkpt lat="48.85772" lon="1.69359">
        <ele>103.6</ele>
        <time>2022-03-17T09:54:54Z</time>
      </trkpt>
      <trkpt lat="48.85772" lon="1.6935">
        <ele>103.6</ele>
        <time>2022-03-17T09:54:58Z</time>
      </trkpt>
      <trkpt lat="48.85772" lon="1.69343">
        <ele>103.5</ele>
        <time>2022-03-17T09:55:03Z</time>
      </trkpt>
      <trkpt lat="48.85772" lon="1.69335">
        <ele>103.6</ele>
        <time>2022-03-17T09:55:06Z</time>
      </trkpt>
      <trkpt lat="48.85772" lon="1.69328">
        <ele>103.7</ele>
        <time>2022-03-17T09:55:09Z</time>
      </trkpt>
      <trkpt lat="48.85772" lon="1.69319">
        <ele>103.6</ele>
        <time>2022-03-17T09:55:15Z</time>
      </trkpt>
      <trkpt lat="48.85772" lon="1.6931">
        <ele>103.3</ele>
        <time>2022-03-17T09:55:19Z</time>
      </trkpt>
      <trkpt lat="48.85772" lon="1.69299">
        <ele>103.4</ele>
        <time>2022-03-17T09:55:24Z</time>
      </trkpt>
      <trkpt lat="48.85772" lon="1.6929">
        <ele>103.5</ele>
        <time>2022-03-17T09:55:29Z</time>
      </trkpt>
      <trkpt lat="48.85772" lon="1.69281">
        <ele>103.5</ele>
        <time>2022-03-17T09:55:34Z</time>
      </trkpt>
      <trkpt lat="48.85771" lon="1.69272">
        <ele>103.6</ele>
        <time>2022-03-17T09:55:39Z</time>
      </trkpt>
      <trkpt lat="48.85771" lon="1.69265">
        <ele>103.8</ele>
        <time>2022-03-17T09:55:43Z</time>
      </trkpt>
      <trkpt lat="48.85771" lon="1.69257">
        <ele>104</ele>
        <time>2022-03-17T09:55:47Z</time>
      </trkpt>
      <trkpt lat="48.85771" lon="1.69249">
        <ele>104.1</ele>
        <time>2022-03-17T09:55:51Z</time>
      </trkpt>
      <trkpt lat="48.85771" lon="1.69242">
        <ele>104.1</ele>
        <time>2022-03-17T09:55:55Z</time>
      </trkpt>
      <trkpt lat="48.85771" lon="1.69233">
        <ele>104.1</ele>
        <time>2022-03-17T09:55:59Z</time>
      </trkpt>
      <trkpt lat="48.8577" lon="1.69226">
        <ele>104</ele>
        <time>2022-03-17T09:56:03Z</time>
      </trkpt>
      <trkpt lat="48.8577" lon="1.69218">
        <ele>104.1</ele>
        <time>2022-03-17T09:56:07Z</time>
      </trkpt>
      <trkpt lat="48.8577" lon="1.69211">
        <ele>104.4</ele>
        <time>2022-03-17T09:56:11Z</time>
      </trkpt>
      <trkpt lat="48.85769" lon="1.69203">
        <ele>104.4</ele>
        <time>2022-03-17T09:56:14Z</time>
      </trkpt>
      <trkpt lat="48.85769" lon="1.69196">
        <ele>104.6</ele>
        <time>2022-03-17T09:56:18Z</time>
      </trkpt>
      <trkpt lat="48.85769" lon="1.69188">
        <ele>104.6</ele>
        <time>2022-03-17T09:56:22Z</time>
      </trkpt>
      <trkpt lat="48.85769" lon="1.6918">
        <ele>104.8</ele>
        <time>2022-03-17T09:56:26Z</time>
      </trkpt>
      <trkpt lat="48.85768" lon="1.69172">
        <ele>104.9</ele>
        <time>2022-03-17T09:56:31Z</time>
      </trkpt>
      <trkpt lat="48.85768" lon="1.69165">
        <ele>105.3</ele>
        <time>2022-03-17T09:56:35Z</time>
      </trkpt>
      <trkpt lat="48.85768" lon="1.69157">
        <ele>105.7</ele>
        <time>2022-03-17T09:56:39Z</time>
      </trkpt>
      <trkpt lat="48.85768" lon="1.69149">
        <ele>106</ele>
        <time>2022-03-17T09:56:43Z</time>
      </trkpt>
      <trkpt lat="48.85767" lon="1.69141">
        <ele>106.2</ele>
        <time>2022-03-17T09:56:47Z</time>
      </trkpt>
      <trkpt lat="48.85768" lon="1.69133">
        <ele>106.3</ele>
        <time>2022-03-17T09:56:51Z</time>
      </trkpt>
      <trkpt lat="48.85768" lon="1.69125">
        <ele>106.2</ele>
        <time>2022-03-17T09:56:55Z</time>
      </trkpt>
      <trkpt lat="48.85768" lon="1.69118">
        <ele>106.1</ele>
        <time>2022-03-17T09:56:58Z</time>
      </trkpt>
      <trkpt lat="48.85768" lon="1.6911">
        <ele>105.8</ele>
        <time>2022-03-17T09:57:03Z</time>
      </trkpt>
      <trkpt lat="48.85767" lon="1.691">
        <ele>105.8</ele>
        <time>2022-03-17T09:57:08Z</time>
      </trkpt>
      <trkpt lat="48.85766" lon="1.69089">
        <ele>106.3</ele>
        <time>2022-03-17T09:57:13Z</time>
      </trkpt>
      <trkpt lat="48.85764" lon="1.69079">
        <ele>106.8</ele>
        <time>2022-03-17T09:57:18Z</time>
      </trkpt>
      <trkpt lat="48.85763" lon="1.69071">
        <ele>107.3</ele>
        <time>2022-03-17T09:57:22Z</time>
      </trkpt>
      <trkpt lat="48.85761" lon="1.69062">
        <ele>107.6</ele>
        <time>2022-03-17T09:57:28Z</time>
      </trkpt>
      <trkpt lat="48.85759" lon="1.69051">
        <ele>107.6</ele>
        <time>2022-03-17T09:57:33Z</time>
      </trkpt>
      <trkpt lat="48.85756" lon="1.69045">
        <ele>107.5</ele>
        <time>2022-03-17T09:57:37Z</time>
      </trkpt>
      <trkpt lat="48.85754" lon="1.69038">
        <ele>107.5</ele>
        <time>2022-03-17T09:57:41Z</time>
      </trkpt>
      <trkpt lat="48.85751" lon="1.69032">
        <ele>107.7</ele>
        <time>2022-03-17T09:57:45Z</time>
      </trkpt>
      <trkpt lat="48.85748" lon="1.69025">
        <ele>108.3</ele>
        <time>2022-03-17T09:57:49Z</time>
      </trkpt>
      <trkpt lat="48.85746" lon="1.69018">
        <ele>108.8</ele>
        <time>2022-03-17T09:57:53Z</time>
      </trkpt>
      <trkpt lat="48.85742" lon="1.6901">
        <ele>109.6</ele>
        <time>2022-03-17T09:57:58Z</time>
      </trkpt>
      <trkpt lat="48.85738" lon="1.69003">
        <ele>110.2</ele>
        <time>2022-03-17T09:58:03Z</time>
      </trkpt>
      <trkpt lat="48.85735" lon="1.68997">
        <ele>110.5</ele>
        <time>2022-03-17T09:58:07Z</time>
      </trkpt>
      <trkpt lat="48.85732" lon="1.68992">
        <ele>110.8</ele>
        <time>2022-03-17T09:58:11Z</time>
      </trkpt>
      <trkpt lat="48.85728" lon="1.68986">
        <ele>111.3</ele>
        <time>2022-03-17T09:58:16Z</time>
      </trkpt>
      <trkpt lat="48.85725" lon="1.68979">
        <ele>111.8</ele>
        <time>2022-03-17T09:58:20Z</time>
      </trkpt>
      <trkpt lat="48.85722" lon="1.68972">
        <ele>112.3</ele>
        <time>2022-03-17T09:58:23Z</time>
      </trkpt>
      <trkpt lat="48.85718" lon="1.68964">
        <ele>112.6</ele>
        <time>2022-03-17T09:58:28Z</time>
      </trkpt>
      <trkpt lat="48.85714" lon="1.68955">
        <ele>112.5</ele>
        <time>2022-03-17T09:58:33Z</time>
      </trkpt>
      <trkpt lat="48.85711" lon="1.68949">
        <ele>112.5</ele>
        <time>2022-03-17T09:58:38Z</time>
      </trkpt>
      <trkpt lat="48.85708" lon="1.68944">
        <ele>112.5</ele>
        <time>2022-03-17T09:58:42Z</time>
      </trkpt>
      <trkpt lat="48.85705" lon="1.68937">
        <ele>112.8</ele>
        <time>2022-03-17T09:58:47Z</time>
      </trkpt>
      <trkpt lat="48.85701" lon="1.68931">
        <ele>113.2</ele>
        <time>2022-03-17T09:58:51Z</time>
      </trkpt>
      <trkpt lat="48.85698" lon="1.68924">
        <ele>113.4</ele>
        <time>2022-03-17T09:58:55Z</time>
      </trkpt>
      <trkpt lat="48.85695" lon="1.68919">
        <ele>113.4</ele>
        <time>2022-03-17T09:58:59Z</time>
      </trkpt>
      <trkpt lat="48.85691" lon="1.68913">
        <ele>113.5</ele>
        <time>2022-03-17T09:59:03Z</time>
      </trkpt>
      <trkpt lat="48.85688" lon="1.68907">
        <ele>113.4</ele>
        <time>2022-03-17T09:59:07Z</time>
      </trkpt>
      <trkpt lat="48.85685" lon="1.68901">
        <ele>113.3</ele>
        <time>2022-03-17T09:59:10Z</time>
      </trkpt>
      <trkpt lat="48.85682" lon="1.68896">
        <ele>113.2</ele>
        <time>2022-03-17T09:59:14Z</time>
      </trkpt>
      <trkpt lat="48.85678" lon="1.68889">
        <ele>113.3</ele>
        <time>2022-03-17T09:59:19Z</time>
      </trkpt>
      <trkpt lat="48.85674" lon="1.68884">
        <ele>113.4</ele>
        <time>2022-03-17T09:59:23Z</time>
      </trkpt>
      <trkpt lat="48.85671" lon="1.68878">
        <ele>113.6</ele>
        <time>2022-03-17T09:59:27Z</time>
      </trkpt>
      <trkpt lat="48.85668" lon="1.68872">
        <ele>113.6</ele>
        <time>2022-03-17T09:59:30Z</time>
      </trkpt>
      <trkpt lat="48.85665" lon="1.68863">
        <ele>113.6</ele>
        <time>2022-03-17T09:59:35Z</time>
      </trkpt>
      <trkpt lat="48.8566" lon="1.68856">
        <ele>113.6</ele>
        <time>2022-03-17T09:59:40Z</time>
      </trkpt>
      <trkpt lat="48.85657" lon="1.68848">
        <ele>113.5</ele>
        <time>2022-03-17T09:59:45Z</time>
      </trkpt>
      <trkpt lat="48.85653" lon="1.68842">
        <ele>113.1</ele>
        <time>2022-03-17T09:59:49Z</time>
      </trkpt>
      <trkpt lat="48.85649" lon="1.68835">
        <ele>113</ele>
        <time>2022-03-17T09:59:54Z</time>
      </trkpt>
      <trkpt lat="48.85646" lon="1.68828">
        <ele>113.3</ele>
        <time>2022-03-17T09:59:58Z</time>
      </trkpt>
      <trkpt lat="48.85643" lon="1.68822">
        <ele>113.6</ele>
        <time>2022-03-17T10:00:02Z</time>
      </trkpt>
      <trkpt lat="48.8564" lon="1.68816">
        <ele>113.8</ele>
        <time>2022-03-17T10:00:05Z</time>
      </trkpt>
      <trkpt lat="48.85635" lon="1.68808">
        <ele>114.1</ele>
        <time>2022-03-17T10:00:10Z</time>
      </trkpt>
      <trkpt lat="48.85631" lon="1.688">
        <ele>114.5</ele>
        <time>2022-03-17T10:00:15Z</time>
      </trkpt>
      <trkpt lat="48.85628" lon="1.68793">
        <ele>114.5</ele>
        <time>2022-03-17T10:00:20Z</time>
      </trkpt>
      <trkpt lat="48.85624" lon="1.68786">
        <ele>114.6</ele>
        <time>2022-03-17T10:00:25Z</time>
      </trkpt>
      <trkpt lat="48.85621" lon="1.6878">
        <ele>114.6</ele>
        <time>2022-03-17T10:00:29Z</time>
      </trkpt>
      <trkpt lat="48.85618" lon="1.68774">
        <ele>114.7</ele>
        <time>2022-03-17T10:00:33Z</time>
      </trkpt>
      <trkpt lat="48.85614" lon="1.68767">
        <ele>114.8</ele>
        <time>2022-03-17T10:00:37Z</time>
      </trkpt>
      <trkpt lat="48.85611" lon="1.6876">
        <ele>115.1</ele>
        <time>2022-03-17T10:00:41Z</time>
      </trkpt>
      <trkpt lat="48.85608" lon="1.68754">
        <ele>115.4</ele>
        <time>2022-03-17T10:00:45Z</time>
      </trkpt>
      <trkpt lat="48.85605" lon="1.68747">
        <ele>115.5</ele>
        <time>2022-03-17T10:00:49Z</time>
      </trkpt>
      <trkpt lat="48.85601" lon="1.68742">
        <ele>115.4</ele>
        <time>2022-03-17T10:00:53Z</time>
      </trkpt>
      <trkpt lat="48.85598" lon="1.68736">
        <ele>115.2</ele>
        <time>2022-03-17T10:00:56Z</time>
      </trkpt>
      <trkpt lat="48.85595" lon="1.6873">
        <ele>115.2</ele>
        <time>2022-03-17T10:01:00Z</time>
      </trkpt>
      <trkpt lat="48.85591" lon="1.68723">
        <ele>115.3</ele>
        <time>2022-03-17T10:01:06Z</time>
      </trkpt>
      <trkpt lat="48.85588" lon="1.68717">
        <ele>115.3</ele>
        <time>2022-03-17T10:01:09Z</time>
      </trkpt>
      <trkpt lat="48.85585" lon="1.68711">
        <ele>115.2</ele>
        <time>2022-03-17T10:01:12Z</time>
      </trkpt>
      <trkpt lat="48.85581" lon="1.68704">
        <ele>115.2</ele>
        <time>2022-03-17T10:01:16Z</time>
      </trkpt>
      <trkpt lat="48.85578" lon="1.68697">
        <ele>115</ele>
        <time>2022-03-17T10:01:23Z</time>
      </trkpt>
      <trkpt lat="48.85574" lon="1.68693">
        <ele>114.8</ele>
        <time>2022-03-17T10:01:26Z</time>
      </trkpt>
      <trkpt lat="48.8557" lon="1.68687">
        <ele>114.6</ele>
        <time>2022-03-17T10:01:30Z</time>
      </trkpt>
      <trkpt lat="48.85567" lon="1.68681">
        <ele>114.7</ele>
        <time>2022-03-17T10:01:34Z</time>
      </trkpt>
      <trkpt lat="48.85564" lon="1.68675">
        <ele>115</ele>
        <time>2022-03-17T10:01:40Z</time>
      </trkpt>
      <trkpt lat="48.85561" lon="1.68669">
        <ele>115.1</ele>
        <time>2022-03-17T10:01:43Z</time>
      </trkpt>
      <trkpt lat="48.85558" lon="1.68663">
        <ele>114.9</ele>
        <time>2022-03-17T10:01:47Z</time>
      </trkpt>
      <trkpt lat="48.85555" lon="1.68656">
        <ele>114.9</ele>
        <time>2022-03-17T10:01:53Z</time>
      </trkpt>
      <trkpt lat="48.85552" lon="1.68651">
        <ele>115.1</ele>
        <time>2022-03-17T10:01:56Z</time>
      </trkpt>
      <trkpt lat="48.85549" lon="1.68644">
        <ele>115.6</ele>
        <time>2022-03-17T10:02:01Z</time>
      </trkpt>
      <trkpt lat="48.85547" lon="1.68636">
        <ele>115.8</ele>
        <time>2022-03-17T10:02:05Z</time>
      </trkpt>
      <trkpt lat="48.85544" lon="1.6863">
        <ele>115.9</ele>
        <time>2022-03-17T10:02:10Z</time>
      </trkpt>
      <trkpt lat="48.8554" lon="1.68624">
        <ele>116.1</ele>
        <time>2022-03-17T10:02:14Z</time>
      </trkpt>
      <trkpt lat="48.85536" lon="1.68618">
        <ele>116.3</ele>
        <time>2022-03-17T10:02:17Z</time>
      </trkpt>
      <trkpt lat="48.85533" lon="1.68612">
        <ele>116.2</ele>
        <time>2022-03-17T10:02:20Z</time>
      </trkpt>
      <trkpt lat="48.8553" lon="1.68604">
        <ele>115.6</ele>
        <time>2022-03-17T10:02:25Z</time>
      </trkpt>
      <trkpt lat="48.85526" lon="1.68596">
        <ele>115.5</ele>
        <time>2022-03-17T10:02:31Z</time>
      </trkpt>
      <trkpt lat="48.85522" lon="1.68589">
        <ele>115.5</ele>
        <time>2022-03-17T10:02:36Z</time>
      </trkpt>
      <trkpt lat="48.85519" lon="1.68582">
        <ele>115.5</ele>
        <time>2022-03-17T10:02:41Z</time>
      </trkpt>
      <trkpt lat="48.85516" lon="1.68576">
        <ele>115.6</ele>
        <time>2022-03-17T10:02:44Z</time>
      </trkpt>
      <trkpt lat="48.85513" lon="1.6857">
        <ele>115.8</ele>
        <time>2022-03-17T10:02:48Z</time>
      </trkpt>
      <trkpt lat="48.85509" lon="1.68564">
        <ele>115.8</ele>
        <time>2022-03-17T10:02:51Z</time>
      </trkpt>
      <trkpt lat="48.85506" lon="1.68557">
        <ele>115.7</ele>
        <time>2022-03-17T10:02:55Z</time>
      </trkpt>
      <trkpt lat="48.85502" lon="1.68552">
        <ele>115.4</ele>
        <time>2022-03-17T10:03:00Z</time>
      </trkpt>
      <trkpt lat="48.85499" lon="1.68546">
        <ele>114.8</ele>
        <time>2022-03-17T10:03:03Z</time>
      </trkpt>
      <trkpt lat="48.85496" lon="1.6854">
        <ele>114.4</ele>
        <time>2022-03-17T10:03:08Z</time>
      </trkpt>
      <trkpt lat="48.85493" lon="1.68533">
        <ele>114.2</ele>
        <time>2022-03-17T10:03:11Z</time>
      </trkpt>
      <trkpt lat="48.8549" lon="1.68528">
        <ele>114.3</ele>
        <time>2022-03-17T10:03:16Z</time>
      </trkpt>
      <trkpt lat="48.85486" lon="1.68522">
        <ele>114.5</ele>
        <time>2022-03-17T10:03:19Z</time>
      </trkpt>
      <trkpt lat="48.85483" lon="1.68516">
        <ele>114.7</ele>
        <time>2022-03-17T10:03:23Z</time>
      </trkpt>
      <trkpt lat="48.85479" lon="1.6851">
        <ele>114.7</ele>
        <time>2022-03-17T10:03:28Z</time>
      </trkpt>
      <trkpt lat="48.85477" lon="1.68502">
        <ele>115</ele>
        <time>2022-03-17T10:03:32Z</time>
      </trkpt>
      <trkpt lat="48.85474" lon="1.68495">
        <ele>115.7</ele>
        <time>2022-03-17T10:03:36Z</time>
      </trkpt>
      <trkpt lat="48.85471" lon="1.68488">
        <ele>116.6</ele>
        <time>2022-03-17T10:03:40Z</time>
      </trkpt>
      <trkpt lat="48.85467" lon="1.68482">
        <ele>116.8</ele>
        <time>2022-03-17T10:03:44Z</time>
      </trkpt>
      <trkpt lat="48.85465" lon="1.68476">
        <ele>116.9</ele>
        <time>2022-03-17T10:03:47Z</time>
      </trkpt>
      <trkpt lat="48.85462" lon="1.68469">
        <ele>116.8</ele>
        <time>2022-03-17T10:03:51Z</time>
      </trkpt>
      <trkpt lat="48.85459" lon="1.68463">
        <ele>116.8</ele>
        <time>2022-03-17T10:03:55Z</time>
      </trkpt>
      <trkpt lat="48.85455" lon="1.68458">
        <ele>116.6</ele>
        <time>2022-03-17T10:04:00Z</time>
      </trkpt>
      <trkpt lat="48.85452" lon="1.68451">
        <ele>116.2</ele>
        <time>2022-03-17T10:04:05Z</time>
      </trkpt>
      <trkpt lat="48.85448" lon="1.68445">
        <ele>116.1</ele>
        <time>2022-03-17T10:04:09Z</time>
      </trkpt>
      <trkpt lat="48.85444" lon="1.6844">
        <ele>116.5</ele>
        <time>2022-03-17T10:04:14Z</time>
      </trkpt>
      <trkpt lat="48.8544" lon="1.68437">
        <ele>116.5</ele>
        <time>2022-03-17T10:04:23Z</time>
      </trkpt>
      <trkpt lat="48.85438" lon="1.68429">
        <ele>116.9</ele>
        <time>2022-03-17T10:04:47Z</time>
      </trkpt>
      <trkpt lat="48.85435" lon="1.68422">
        <ele>117.5</ele>
        <time>2022-03-17T10:05:03Z</time>
      </trkpt>
      <trkpt lat="48.85431" lon="1.68416">
        <ele>117.6</ele>
        <time>2022-03-17T10:05:10Z</time>
      </trkpt>
      <trkpt lat="48.85428" lon="1.6841">
        <ele>117.9</ele>
        <time>2022-03-17T10:05:15Z</time>
      </trkpt>
      <trkpt lat="48.85426" lon="1.68403">
        <ele>117.9</ele>
        <time>2022-03-17T10:05:21Z</time>
      </trkpt>
      <trkpt lat="48.85423" lon="1.68399">
        <ele>116.6</ele>
        <time>2022-03-17T10:05:27Z</time>
      </trkpt>
      <trkpt lat="48.85418" lon="1.68396">
        <ele>114.9</ele>
        <time>2022-03-17T10:05:32Z</time>
      </trkpt>
      <trkpt lat="48.85415" lon="1.68392">
        <ele>114</ele>
        <time>2022-03-17T10:05:36Z</time>
      </trkpt>
      <trkpt lat="48.85412" lon="1.68386">
        <ele>114</ele>
        <time>2022-03-17T10:05:41Z</time>
      </trkpt>
      <trkpt lat="48.85407" lon="1.68379">
        <ele>114.1</ele>
        <time>2022-03-17T10:05:47Z</time>
      </trkpt>
      <trkpt lat="48.85405" lon="1.68372">
        <ele>114.8</ele>
        <time>2022-03-17T10:06:00Z</time>
      </trkpt>
      <trkpt lat="48.85403" lon="1.68364">
        <ele>114.9</ele>
        <time>2022-03-17T10:06:04Z</time>
      </trkpt>
      <trkpt lat="48.854" lon="1.68356">
        <ele>115.9</ele>
        <time>2022-03-17T10:06:09Z</time>
      </trkpt>
      <trkpt lat="48.85398" lon="1.68349">
        <ele>117.6</ele>
        <time>2022-03-17T10:06:13Z</time>
      </trkpt>
      <trkpt lat="48.85393" lon="1.68342">
        <ele>118.5</ele>
        <time>2022-03-17T10:06:18Z</time>
      </trkpt>
      <trkpt lat="48.8539" lon="1.68335">
        <ele>118.7</ele>
        <time>2022-03-17T10:06:23Z</time>
      </trkpt>
      <trkpt lat="48.85389" lon="1.68327">
        <ele>118.5</ele>
        <time>2022-03-17T10:06:27Z</time>
      </trkpt>
      <trkpt lat="48.85393" lon="1.68321">
        <ele>118.5</ele>
        <time>2022-03-17T10:06:32Z</time>
      </trkpt>
      <trkpt lat="48.85396" lon="1.68314">
        <ele>118.6</ele>
        <time>2022-03-17T10:06:37Z</time>
      </trkpt>
      <trkpt lat="48.85399" lon="1.68305">
        <ele>119.3</ele>
        <time>2022-03-17T10:06:41Z</time>
      </trkpt>
      <trkpt lat="48.85399" lon="1.68298">
        <ele>120</ele>
        <time>2022-03-17T10:06:44Z</time>
      </trkpt>
      <trkpt lat="48.85397" lon="1.68292">
        <ele>120.4</ele>
        <time>2022-03-17T10:06:48Z</time>
      </trkpt>
      <trkpt lat="48.85394" lon="1.68285">
        <ele>120.2</ele>
        <time>2022-03-17T10:06:52Z</time>
      </trkpt>
      <trkpt lat="48.85392" lon="1.68279">
        <ele>119.8</ele>
        <time>2022-03-17T10:06:55Z</time>
      </trkpt>
      <trkpt lat="48.85391" lon="1.68272">
        <ele>119.5</ele>
        <time>2022-03-17T10:06:58Z</time>
      </trkpt>
      <trkpt lat="48.8539" lon="1.68265">
        <ele>119.4</ele>
        <time>2022-03-17T10:07:02Z</time>
      </trkpt>
      <trkpt lat="48.85387" lon="1.68259">
        <ele>119.3</ele>
        <time>2022-03-17T10:07:06Z</time>
      </trkpt>
      <trkpt lat="48.85383" lon="1.68252">
        <ele>119.1</ele>
        <time>2022-03-17T10:07:10Z</time>
      </trkpt>
      <trkpt lat="48.85379" lon="1.68248">
        <ele>118.9</ele>
        <time>2022-03-17T10:07:14Z</time>
      </trkpt>
      <trkpt lat="48.85376" lon="1.68242">
        <ele>119.1</ele>
        <time>2022-03-17T10:07:19Z</time>
      </trkpt>
      <trkpt lat="48.85373" lon="1.68236">
        <ele>119.4</ele>
        <time>2022-03-17T10:07:23Z</time>
      </trkpt>
      <trkpt lat="48.8537" lon="1.68228">
        <ele>120.4</ele>
        <time>2022-03-17T10:07:28Z</time>
      </trkpt>
      <trkpt lat="48.85368" lon="1.6822">
        <ele>120.7</ele>
        <time>2022-03-17T10:07:33Z</time>
      </trkpt>
      <trkpt lat="48.85365" lon="1.68211">
        <ele>120.3</ele>
        <time>2022-03-17T10:07:38Z</time>
      </trkpt>
      <trkpt lat="48.85363" lon="1.68205">
        <ele>119.9</ele>
        <time>2022-03-17T10:07:42Z</time>
      </trkpt>
      <trkpt lat="48.85361" lon="1.68199">
        <ele>119.5</ele>
        <time>2022-03-17T10:07:45Z</time>
      </trkpt>
      <trkpt lat="48.85357" lon="1.68192">
        <ele>119</ele>
        <time>2022-03-17T10:07:50Z</time>
      </trkpt>
      <trkpt lat="48.85355" lon="1.68186">
        <ele>118.3</ele>
        <time>2022-03-17T10:07:54Z</time>
      </trkpt>
      <trkpt lat="48.85351" lon="1.6818">
        <ele>117.2</ele>
        <time>2022-03-17T10:07:58Z</time>
      </trkpt>
      <trkpt lat="48.85346" lon="1.68173">
        <ele>116.7</ele>
        <time>2022-03-17T10:08:03Z</time>
      </trkpt>
      <trkpt lat="48.8534" lon="1.68167">
        <ele>117</ele>
        <time>2022-03-17T10:08:09Z</time>
      </trkpt>
      <trkpt lat="48.85335" lon="1.68162">
        <ele>117.7</ele>
        <time>2022-03-17T10:08:13Z</time>
      </trkpt>
      <trkpt lat="48.85331" lon="1.68162">
        <ele>118.5</ele>
        <time>2022-03-17T10:08:18Z</time>
      </trkpt>
      <trkpt lat="48.85329" lon="1.68152">
        <ele>118.9</ele>
        <time>2022-03-17T10:08:22Z</time>
      </trkpt>
      <trkpt lat="48.85327" lon="1.68145">
        <ele>119.8</ele>
        <time>2022-03-17T10:08:27Z</time>
      </trkpt>
      <trkpt lat="48.85323" lon="1.6814">
        <ele>121.6</ele>
        <time>2022-03-17T10:08:32Z</time>
      </trkpt>
      <trkpt lat="48.85318" lon="1.68137">
        <ele>122.5</ele>
        <time>2022-03-17T10:08:37Z</time>
      </trkpt>
      <trkpt lat="48.85314" lon="1.68131">
        <ele>122.4</ele>
        <time>2022-03-17T10:08:42Z</time>
      </trkpt>
      <trkpt lat="48.85312" lon="1.68123">
        <ele>122.2</ele>
        <time>2022-03-17T10:08:46Z</time>
      </trkpt>
      <trkpt lat="48.85311" lon="1.68117">
        <ele>122.2</ele>
        <time>2022-03-17T10:08:49Z</time>
      </trkpt>
      <trkpt lat="48.85308" lon="1.68111">
        <ele>122.3</ele>
        <time>2022-03-17T10:08:54Z</time>
      </trkpt>
      <trkpt lat="48.85303" lon="1.68106">
        <ele>122.4</ele>
        <time>2022-03-17T10:08:57Z</time>
      </trkpt>
      <trkpt lat="48.853" lon="1.681">
        <ele>122.3</ele>
        <time>2022-03-17T10:09:01Z</time>
      </trkpt>
      <trkpt lat="48.85297" lon="1.68096">
        <ele>122</ele>
        <time>2022-03-17T10:09:06Z</time>
      </trkpt>
      <trkpt lat="48.85293" lon="1.68089">
        <ele>121.7</ele>
        <time>2022-03-17T10:09:11Z</time>
      </trkpt>
      <trkpt lat="48.85289" lon="1.68085">
        <ele>121.8</ele>
        <time>2022-03-17T10:09:15Z</time>
      </trkpt>
      <trkpt lat="48.85285" lon="1.68078">
        <ele>122.6</ele>
        <time>2022-03-17T10:09:20Z</time>
      </trkpt>
      <trkpt lat="48.85284" lon="1.6807">
        <ele>123.5</ele>
        <time>2022-03-17T10:09:24Z</time>
      </trkpt>
      <trkpt lat="48.85281" lon="1.68064">
        <ele>124</ele>
        <time>2022-03-17T10:09:28Z</time>
      </trkpt>
      <trkpt lat="48.85276" lon="1.68058">
        <ele>123.7</ele>
        <time>2022-03-17T10:09:33Z</time>
      </trkpt>
      <trkpt lat="48.85273" lon="1.68053">
        <ele>123</ele>
        <time>2022-03-17T10:09:36Z</time>
      </trkpt>
      <trkpt lat="48.85269" lon="1.68047">
        <ele>121.7</ele>
        <time>2022-03-17T10:09:40Z</time>
      </trkpt>
      <trkpt lat="48.85265" lon="1.68042">
        <ele>121.2</ele>
        <time>2022-03-17T10:09:45Z</time>
      </trkpt>
      <trkpt lat="48.85261" lon="1.68035">
        <ele>121.3</ele>
        <time>2022-03-17T10:09:50Z</time>
      </trkpt>
      <trkpt lat="48.85256" lon="1.68029">
        <ele>120.5</ele>
        <time>2022-03-17T10:09:55Z</time>
      </trkpt>
      <trkpt lat="48.85253" lon="1.68023">
        <ele>120.2</ele>
        <time>2022-03-17T10:10:00Z</time>
      </trkpt>
      <trkpt lat="48.85253" lon="1.68015">
        <ele>120.4</ele>
        <time>2022-03-17T10:10:04Z</time>
      </trkpt>
      <trkpt lat="48.85256" lon="1.68009">
        <ele>120.6</ele>
        <time>2022-03-17T10:10:08Z</time>
      </trkpt>
      <trkpt lat="48.8526" lon="1.68002">
        <ele>120.9</ele>
        <time>2022-03-17T10:10:13Z</time>
      </trkpt>
      <trkpt lat="48.85263" lon="1.67996">
        <ele>121.5</ele>
        <time>2022-03-17T10:10:17Z</time>
      </trkpt>
      <trkpt lat="48.85266" lon="1.6799">
        <ele>121.9</ele>
        <time>2022-03-17T10:10:20Z</time>
      </trkpt>
      <trkpt lat="48.85269" lon="1.67984">
        <ele>121.7</ele>
        <time>2022-03-17T10:10:24Z</time>
      </trkpt>
      <trkpt lat="48.85271" lon="1.67978">
        <ele>121.5</ele>
        <time>2022-03-17T10:10:28Z</time>
      </trkpt>
      <trkpt lat="48.85276" lon="1.67973">
        <ele>121.7</ele>
        <time>2022-03-17T10:10:33Z</time>
      </trkpt>
      <trkpt lat="48.8528" lon="1.67973">
        <ele>121.9</ele>
        <time>2022-03-17T10:10:36Z</time>
      </trkpt>
      <trkpt lat="48.8528" lon="1.67981">
        <ele>122.8</ele>
        <time>2022-03-17T10:10:43Z</time>
      </trkpt>
      <trkpt lat="48.85284" lon="1.67975">
        <ele>123.8</ele>
        <time>2022-03-17T10:11:02Z</time>
      </trkpt>
      <trkpt lat="48.85286" lon="1.67966">
        <ele>124.3</ele>
        <time>2022-03-17T10:11:06Z</time>
      </trkpt>
      <trkpt lat="48.85288" lon="1.67956">
        <ele>124.7</ele>
        <time>2022-03-17T10:11:11Z</time>
      </trkpt>
      <trkpt lat="48.85291" lon="1.67949">
        <ele>124.3</ele>
        <time>2022-03-17T10:11:15Z</time>
      </trkpt>
      <trkpt lat="48.85294" lon="1.67943">
        <ele>123.7</ele>
        <time>2022-03-17T10:11:19Z</time>
      </trkpt>
      <trkpt lat="48.85299" lon="1.67939">
        <ele>123.8</ele>
        <time>2022-03-17T10:11:23Z</time>
      </trkpt>
      <trkpt lat="48.85303" lon="1.6794">
        <ele>124.3</ele>
        <time>2022-03-17T10:11:28Z</time>
      </trkpt>
      <trkpt lat="48.85306" lon="1.67934">
        <ele>124.3</ele>
        <time>2022-03-17T10:11:32Z</time>
      </trkpt>
      <trkpt lat="48.85308" lon="1.67926">
        <ele>124.3</ele>
        <time>2022-03-17T10:11:36Z</time>
      </trkpt>
      <trkpt lat="48.85312" lon="1.6792">
        <ele>124.1</ele>
        <time>2022-03-17T10:11:41Z</time>
      </trkpt>
      <trkpt lat="48.85314" lon="1.67913">
        <ele>123.9</ele>
        <time>2022-03-17T10:11:47Z</time>
      </trkpt>
      <trkpt lat="48.85316" lon="1.67907">
        <ele>123.8</ele>
        <time>2022-03-17T10:11:51Z</time>
      </trkpt>
      <trkpt lat="48.85318" lon="1.679">
        <ele>123.5</ele>
        <time>2022-03-17T10:11:55Z</time>
      </trkpt>
      <trkpt lat="48.85316" lon="1.67893">
        <ele>122.4</ele>
        <time>2022-03-17T10:12:03Z</time>
      </trkpt>
      <trkpt lat="48.85312" lon="1.67886">
        <ele>121.3</ele>
        <time>2022-03-17T10:12:06Z</time>
      </trkpt>
      <trkpt lat="48.85308" lon="1.67884">
        <ele>120.4</ele>
        <time>2022-03-17T10:12:10Z</time>
      </trkpt>
      <trkpt lat="48.85302" lon="1.67882">
        <ele>120.7</ele>
        <time>2022-03-17T10:12:14Z</time>
      </trkpt>
      <trkpt lat="48.85297" lon="1.6788">
        <ele>121.6</ele>
        <time>2022-03-17T10:12:18Z</time>
      </trkpt>
      <trkpt lat="48.85292" lon="1.67879">
        <ele>122.4</ele>
        <time>2022-03-17T10:12:22Z</time>
      </trkpt>
      <trkpt lat="48.85287" lon="1.67876">
        <ele>123.1</ele>
        <time>2022-03-17T10:12:28Z</time>
      </trkpt>
      <trkpt lat="48.85283" lon="1.67874">
        <ele>123.3</ele>
        <time>2022-03-17T10:12:33Z</time>
      </trkpt>
      <trkpt lat="48.85278" lon="1.67871">
        <ele>123.9</ele>
        <time>2022-03-17T10:12:38Z</time>
      </trkpt>
      <trkpt lat="48.85273" lon="1.67869">
        <ele>124.2</ele>
        <time>2022-03-17T10:12:41Z</time>
      </trkpt>
      <trkpt lat="48.85268" lon="1.67867">
        <ele>124.4</ele>
        <time>2022-03-17T10:12:46Z</time>
      </trkpt>
      <trkpt lat="48.85262" lon="1.67865">
        <ele>124.7</ele>
        <time>2022-03-17T10:12:51Z</time>
      </trkpt>
      <trkpt lat="48.85257" lon="1.67863">
        <ele>124.8</ele>
        <time>2022-03-17T10:12:57Z</time>
      </trkpt>
      <trkpt lat="48.85251" lon="1.67859">
        <ele>125.1</ele>
        <time>2022-03-17T10:13:01Z</time>
      </trkpt>
      <trkpt lat="48.85245" lon="1.67857">
        <ele>125.7</ele>
        <time>2022-03-17T10:13:06Z</time>
      </trkpt>
      <trkpt lat="48.85241" lon="1.67855">
        <ele>126.3</ele>
        <time>2022-03-17T10:13:10Z</time>
      </trkpt>
      <trkpt lat="48.85235" lon="1.67853">
        <ele>126.5</ele>
        <time>2022-03-17T10:13:15Z</time>
      </trkpt>
      <trkpt lat="48.8523" lon="1.6785">
        <ele>126.6</ele>
        <time>2022-03-17T10:13:19Z</time>
      </trkpt>
      <trkpt lat="48.85225" lon="1.67848">
        <ele>126.6</ele>
        <time>2022-03-17T10:13:23Z</time>
      </trkpt>
      <trkpt lat="48.85221" lon="1.67846">
        <ele>126.7</ele>
        <time>2022-03-17T10:13:26Z</time>
      </trkpt>
      <trkpt lat="48.85215" lon="1.67842">
        <ele>126.8</ele>
        <time>2022-03-17T10:13:31Z</time>
      </trkpt>
      <trkpt lat="48.8521" lon="1.67838">
        <ele>127.1</ele>
        <time>2022-03-17T10:13:36Z</time>
      </trkpt>
      <trkpt lat="48.85205" lon="1.67835">
        <ele>127</ele>
        <time>2022-03-17T10:13:41Z</time>
      </trkpt>
      <trkpt lat="48.85199" lon="1.67832">
        <ele>126.7</ele>
        <time>2022-03-17T10:13:46Z</time>
      </trkpt>
      <trkpt lat="48.85193" lon="1.67831">
        <ele>125.9</ele>
        <time>2022-03-17T10:14:00Z</time>
      </trkpt>
      <trkpt lat="48.8519" lon="1.67826">
        <ele>126</ele>
        <time>2022-03-17T10:14:04Z</time>
      </trkpt>
      <trkpt lat="48.85186" lon="1.67822">
        <ele>126.3</ele>
        <time>2022-03-17T10:14:08Z</time>
      </trkpt>
      <trkpt lat="48.85182" lon="1.67817">
        <ele>126.4</ele>
        <time>2022-03-17T10:14:11Z</time>
      </trkpt>
      <trkpt lat="48.85178" lon="1.67816">
        <ele>126.1</ele>
        <time>2022-03-17T10:14:18Z</time>
      </trkpt>
      <trkpt lat="48.85174" lon="1.67812">
        <ele>126.1</ele>
        <time>2022-03-17T10:14:25Z</time>
      </trkpt>
      <trkpt lat="48.8517" lon="1.67806">
        <ele>126.6</ele>
        <time>2022-03-17T10:14:33Z</time>
      </trkpt>
      <trkpt lat="48.85168" lon="1.678">
        <ele>128</ele>
        <time>2022-03-17T10:14:49Z</time>
      </trkpt>
      <trkpt lat="48.85164" lon="1.67797">
        <ele>128.3</ele>
        <time>2022-03-17T10:15:02Z</time>
      </trkpt>
      <trkpt lat="48.85161" lon="1.67793">
        <ele>127</ele>
        <time>2022-03-17T10:15:21Z</time>
      </trkpt>
      <trkpt lat="48.85155" lon="1.67792">
        <ele>127.3</ele>
        <time>2022-03-17T10:15:27Z</time>
      </trkpt>
      <trkpt lat="48.85152" lon="1.67798">
        <ele>128.2</ele>
        <time>2022-03-17T10:15:32Z</time>
      </trkpt>
      <trkpt lat="48.85149" lon="1.67804">
        <ele>128.8</ele>
        <time>2022-03-17T10:15:37Z</time>
      </trkpt>
      <trkpt lat="48.85146" lon="1.67809">
        <ele>129.2</ele>
        <time>2022-03-17T10:15:42Z</time>
      </trkpt>
      <trkpt lat="48.85142" lon="1.67812">
        <ele>131.2</ele>
        <time>2022-03-17T10:15:48Z</time>
      </trkpt>
      <trkpt lat="48.85137" lon="1.67817">
        <ele>132.3</ele>
        <time>2022-03-17T10:15:54Z</time>
      </trkpt>
      <trkpt lat="48.85132" lon="1.67813">
        <ele>129.2</ele>
        <time>2022-03-17T10:16:12Z</time>
      </trkpt>
      <trkpt lat="48.85127" lon="1.67812">
        <ele>128.9</ele>
        <time>2022-03-17T10:16:19Z</time>
      </trkpt>
      <trkpt lat="48.85124" lon="1.67808">
        <ele>128.2</ele>
        <time>2022-03-17T10:16:26Z</time>
      </trkpt>
      <trkpt lat="48.8512" lon="1.67803">
        <ele>127.6</ele>
        <time>2022-03-17T10:16:32Z</time>
      </trkpt>
      <trkpt lat="48.85118" lon="1.67796">
        <ele>129.9</ele>
        <time>2022-03-17T10:16:40Z</time>
      </trkpt>
      <trkpt lat="48.8512" lon="1.67803">
        <ele>128.4</ele>
        <time>2022-03-17T10:16:51Z</time>
      </trkpt>
      <trkpt lat="48.8512" lon="1.6781">
        <ele>128</ele>
        <time>2022-03-17T10:16:56Z</time>
      </trkpt>
      <trkpt lat="48.85122" lon="1.67816">
        <ele>129.2</ele>
        <time>2022-03-17T10:17:00Z</time>
      </trkpt>
      <trkpt lat="48.85125" lon="1.67823">
        <ele>129.5</ele>
        <time>2022-03-17T10:17:05Z</time>
      </trkpt>
      <trkpt lat="48.8513" lon="1.67822">
        <ele>129.2</ele>
        <time>2022-03-17T10:17:25Z</time>
      </trkpt>
      <trkpt lat="48.8513" lon="1.67813">
        <ele>127.6</ele>
        <time>2022-03-17T10:18:02Z</time>
      </trkpt>
      <trkpt lat="48.85128" lon="1.67819">
        <ele>126</ele>
        <time>2022-03-17T10:18:35Z</time>
      </trkpt>
      <trkpt lat="48.85127" lon="1.67826">
        <ele>127.4</ele>
        <time>2022-03-17T10:20:30Z</time>
      </trkpt>
      <trkpt lat="48.85123" lon="1.67825">
        <ele>128.4</ele>
        <time>2022-03-17T10:21:03Z</time>
      </trkpt>
      <trkpt lat="48.85125" lon="1.67819">
        <ele>128.6</ele>
        <time>2022-03-17T10:21:48Z</time>
      </trkpt>
      <trkpt lat="48.85127" lon="1.67825">
        <ele>132.6</ele>
        <time>2022-03-17T10:23:30Z</time>
      </trkpt>
      <trkpt lat="48.85132" lon="1.67828">
        <ele>130.8</ele>
        <time>2022-03-17T10:24:03Z</time>
      </trkpt>
      <trkpt lat="48.85137" lon="1.67828">
        <ele>130.5</ele>
        <time>2022-03-17T10:24:07Z</time>
      </trkpt>
      <trkpt lat="48.85141" lon="1.67823">
        <ele>129.5</ele>
        <time>2022-03-17T10:24:11Z</time>
      </trkpt>
      <trkpt lat="48.85144" lon="1.67818">
        <ele>129.2</ele>
        <time>2022-03-17T10:24:14Z</time>
      </trkpt>
      <trkpt lat="48.85149" lon="1.6781">
        <ele>129.9</ele>
        <time>2022-03-17T10:24:19Z</time>
      </trkpt>
      <trkpt lat="48.85153" lon="1.67804">
        <ele>131.9</ele>
        <time>2022-03-17T10:24:24Z</time>
      </trkpt>
      <trkpt lat="48.85157" lon="1.67797">
        <ele>132.6</ele>
        <time>2022-03-17T10:24:29Z</time>
      </trkpt>
      <trkpt lat="48.85153" lon="1.67788">
        <ele>131.5</ele>
        <time>2022-03-17T10:24:34Z</time>
      </trkpt>
      <trkpt lat="48.85148" lon="1.67783">
        <ele>129.1</ele>
        <time>2022-03-17T10:24:38Z</time>
      </trkpt>
      <trkpt lat="48.85145" lon="1.67777">
        <ele>127.1</ele>
        <time>2022-03-17T10:24:43Z</time>
      </trkpt>
      <trkpt lat="48.85143" lon="1.67771">
        <ele>126.1</ele>
        <time>2022-03-17T10:24:47Z</time>
      </trkpt>
      <trkpt lat="48.85141" lon="1.67764">
        <ele>126.2</ele>
        <time>2022-03-17T10:24:51Z</time>
      </trkpt>
      <trkpt lat="48.85139" lon="1.67758">
        <ele>126.1</ele>
        <time>2022-03-17T10:24:55Z</time>
      </trkpt>
      <trkpt lat="48.85138" lon="1.6775">
        <ele>126.4</ele>
        <time>2022-03-17T10:24:58Z</time>
      </trkpt>
      <trkpt lat="48.85137" lon="1.67742">
        <ele>126.6</ele>
        <time>2022-03-17T10:25:03Z</time>
      </trkpt>
      <trkpt lat="48.85135" lon="1.67734">
        <ele>127.2</ele>
        <time>2022-03-17T10:25:07Z</time>
      </trkpt>
      <trkpt lat="48.85137" lon="1.67726">
        <ele>128</ele>
        <time>2022-03-17T10:25:11Z</time>
      </trkpt>
      <trkpt lat="48.85135" lon="1.67719">
        <ele>128.5</ele>
        <time>2022-03-17T10:25:14Z</time>
      </trkpt>
      <trkpt lat="48.85132" lon="1.67711">
        <ele>128.8</ele>
        <time>2022-03-17T10:25:19Z</time>
      </trkpt>
      <trkpt lat="48.85131" lon="1.67703">
        <ele>129.1</ele>
        <time>2022-03-17T10:25:23Z</time>
      </trkpt>
      <trkpt lat="48.85129" lon="1.67695">
        <ele>129.2</ele>
        <time>2022-03-17T10:25:28Z</time>
      </trkpt>
      <trkpt lat="48.85128" lon="1.67688">
        <ele>129.3</ele>
        <time>2022-03-17T10:25:31Z</time>
      </trkpt>
      <trkpt lat="48.85126" lon="1.67681">
        <ele>129.2</ele>
        <time>2022-03-17T10:25:35Z</time>
      </trkpt>
      <trkpt lat="48.85125" lon="1.67672">
        <ele>129.1</ele>
        <time>2022-03-17T10:25:40Z</time>
      </trkpt>
      <trkpt lat="48.85124" lon="1.67662">
        <ele>129.1</ele>
        <time>2022-03-17T10:25:44Z</time>
      </trkpt>
      <trkpt lat="48.85122" lon="1.67653">
        <ele>129.9</ele>
        <time>2022-03-17T10:25:49Z</time>
      </trkpt>
      <trkpt lat="48.85121" lon="1.67643">
        <ele>130.8</ele>
        <time>2022-03-17T10:25:54Z</time>
      </trkpt>
      <trkpt lat="48.8512" lon="1.67633">
        <ele>131.4</ele>
        <time>2022-03-17T10:25:59Z</time>
      </trkpt>
      <trkpt lat="48.85118" lon="1.67625">
        <ele>131.3</ele>
        <time>2022-03-17T10:26:04Z</time>
      </trkpt>
      <trkpt lat="48.85116" lon="1.67618">
        <ele>130.6</ele>
        <time>2022-03-17T10:26:08Z</time>
      </trkpt>
      <trkpt lat="48.85115" lon="1.67611">
        <ele>129.9</ele>
        <time>2022-03-17T10:26:12Z</time>
      </trkpt>
      <trkpt lat="48.85114" lon="1.67604">
        <ele>129.3</ele>
        <time>2022-03-17T10:26:16Z</time>
      </trkpt>
      <trkpt lat="48.85113" lon="1.67596">
        <ele>129.1</ele>
        <time>2022-03-17T10:26:19Z</time>
      </trkpt>
      <trkpt lat="48.85111" lon="1.67586">
        <ele>129.1</ele>
        <time>2022-03-17T10:26:24Z</time>
      </trkpt>
      <trkpt lat="48.85113" lon="1.67576">
        <ele>129.5</ele>
        <time>2022-03-17T10:26:30Z</time>
      </trkpt>
      <trkpt lat="48.85113" lon="1.67569">
        <ele>129.7</ele>
        <time>2022-03-17T10:26:34Z</time>
      </trkpt>
      <trkpt lat="48.85113" lon="1.6756">
        <ele>129.6</ele>
        <time>2022-03-17T10:26:37Z</time>
      </trkpt>
      <trkpt lat="48.85113" lon="1.67552">
        <ele>129.2</ele>
        <time>2022-03-17T10:26:41Z</time>
      </trkpt>
      <trkpt lat="48.85112" lon="1.67544">
        <ele>128.2</ele>
        <time>2022-03-17T10:26:46Z</time>
      </trkpt>
      <trkpt lat="48.85111" lon="1.67536">
        <ele>127.6</ele>
        <time>2022-03-17T10:26:49Z</time>
      </trkpt>
      <trkpt lat="48.8511" lon="1.67527">
        <ele>127.4</ele>
        <time>2022-03-17T10:26:54Z</time>
      </trkpt>
      <trkpt lat="48.85108" lon="1.67519">
        <ele>127.7</ele>
        <time>2022-03-17T10:26:59Z</time>
      </trkpt>
      <trkpt lat="48.85106" lon="1.67512">
        <ele>128.2</ele>
        <time>2022-03-17T10:27:03Z</time>
      </trkpt>
      <trkpt lat="48.85103" lon="1.67505">
        <ele>128.4</ele>
        <time>2022-03-17T10:27:07Z</time>
      </trkpt>
      <trkpt lat="48.85101" lon="1.67494">
        <ele>129</ele>
        <time>2022-03-17T10:27:11Z</time>
      </trkpt>
      <trkpt lat="48.85099" lon="1.67486">
        <ele>130.3</ele>
        <time>2022-03-17T10:27:16Z</time>
      </trkpt>
      <trkpt lat="48.85095" lon="1.67475">
        <ele>130.5</ele>
        <time>2022-03-17T10:27:22Z</time>
      </trkpt>
      <trkpt lat="48.85092" lon="1.67468">
        <ele>130.1</ele>
        <time>2022-03-17T10:27:26Z</time>
      </trkpt>
      <trkpt lat="48.85089" lon="1.6746">
        <ele>130</ele>
        <time>2022-03-17T10:27:32Z</time>
      </trkpt>
      <trkpt lat="48.85085" lon="1.67452">
        <ele>129.8</ele>
        <time>2022-03-17T10:27:37Z</time>
      </trkpt>
      <trkpt lat="48.85082" lon="1.67446">
        <ele>129.2</ele>
        <time>2022-03-17T10:27:41Z</time>
      </trkpt>
      <trkpt lat="48.85079" lon="1.6744">
        <ele>128.3</ele>
        <time>2022-03-17T10:27:45Z</time>
      </trkpt>
      <trkpt lat="48.85076" lon="1.67434">
        <ele>127.5</ele>
        <time>2022-03-17T10:27:49Z</time>
      </trkpt>
      <trkpt lat="48.85073" lon="1.67427">
        <ele>127.5</ele>
        <time>2022-03-17T10:27:53Z</time>
      </trkpt>
      <trkpt lat="48.85069" lon="1.6742">
        <ele>128.1</ele>
        <time>2022-03-17T10:27:57Z</time>
      </trkpt>
      <trkpt lat="48.85066" lon="1.67414">
        <ele>128.2</ele>
        <time>2022-03-17T10:28:02Z</time>
      </trkpt>
      <trkpt lat="48.85064" lon="1.67406">
        <ele>128.1</ele>
        <time>2022-03-17T10:28:07Z</time>
      </trkpt>
      <trkpt lat="48.85062" lon="1.674">
        <ele>128.3</ele>
        <time>2022-03-17T10:28:11Z</time>
      </trkpt>
      <trkpt lat="48.8506" lon="1.67392">
        <ele>128.4</ele>
        <time>2022-03-17T10:28:15Z</time>
      </trkpt>
      <trkpt lat="48.85057" lon="1.67387">
        <ele>127.9</ele>
        <time>2022-03-17T10:28:19Z</time>
      </trkpt>
      <trkpt lat="48.85054" lon="1.67381">
        <ele>127.9</ele>
        <time>2022-03-17T10:28:22Z</time>
      </trkpt>
      <trkpt lat="48.85051" lon="1.67373">
        <ele>128.1</ele>
        <time>2022-03-17T10:28:27Z</time>
      </trkpt>
      <trkpt lat="48.85047" lon="1.67365">
        <ele>129.1</ele>
        <time>2022-03-17T10:28:32Z</time>
      </trkpt>
      <trkpt lat="48.85043" lon="1.67358">
        <ele>131</ele>
        <time>2022-03-17T10:28:37Z</time>
      </trkpt>
      <trkpt lat="48.85038" lon="1.6735">
        <ele>132.6</ele>
        <time>2022-03-17T10:28:42Z</time>
      </trkpt>
      <trkpt lat="48.85035" lon="1.67343">
        <ele>133.9</ele>
        <time>2022-03-17T10:28:47Z</time>
      </trkpt>
      <trkpt lat="48.85032" lon="1.67338">
        <ele>134.7</ele>
        <time>2022-03-17T10:28:52Z</time>
      </trkpt>
      <trkpt lat="48.85029" lon="1.67331">
        <ele>134.9</ele>
        <time>2022-03-17T10:28:56Z</time>
      </trkpt>
      <trkpt lat="48.85026" lon="1.67325">
        <ele>134.9</ele>
        <time>2022-03-17T10:29:00Z</time>
      </trkpt>
      <trkpt lat="48.85023" lon="1.67319">
        <ele>135.1</ele>
        <time>2022-03-17T10:29:05Z</time>
      </trkpt>
      <trkpt lat="48.85019" lon="1.67313">
        <ele>135.3</ele>
        <time>2022-03-17T10:29:09Z</time>
      </trkpt>
      <trkpt lat="48.85015" lon="1.67309">
        <ele>135.2</ele>
        <time>2022-03-17T10:29:13Z</time>
      </trkpt>
      <trkpt lat="48.85011" lon="1.67303">
        <ele>135.1</ele>
        <time>2022-03-17T10:29:17Z</time>
      </trkpt>
      <trkpt lat="48.85007" lon="1.67296">
        <ele>135</ele>
        <time>2022-03-17T10:29:22Z</time>
      </trkpt>
      <trkpt lat="48.85002" lon="1.67288">
        <ele>134.8</ele>
        <time>2022-03-17T10:29:27Z</time>
      </trkpt>
      <trkpt lat="48.84998" lon="1.67281">
        <ele>134.7</ele>
        <time>2022-03-17T10:29:32Z</time>
      </trkpt>
      <trkpt lat="48.84993" lon="1.67275">
        <ele>134.8</ele>
        <time>2022-03-17T10:29:37Z</time>
      </trkpt>
      <trkpt lat="48.84988" lon="1.67269">
        <ele>134.6</ele>
        <time>2022-03-17T10:29:42Z</time>
      </trkpt>
      <trkpt lat="48.84981" lon="1.67265">
        <ele>134.3</ele>
        <time>2022-03-17T10:29:47Z</time>
      </trkpt>
      <trkpt lat="48.84977" lon="1.67263">
        <ele>134.3</ele>
        <time>2022-03-17T10:29:51Z</time>
      </trkpt>
      <trkpt lat="48.84973" lon="1.67261">
        <ele>134.9</ele>
        <time>2022-03-17T10:29:55Z</time>
      </trkpt>
      <trkpt lat="48.84968" lon="1.67258">
        <ele>135</ele>
        <time>2022-03-17T10:29:59Z</time>
      </trkpt>
      <trkpt lat="48.84964" lon="1.67255">
        <ele>134.8</ele>
        <time>2022-03-17T10:30:02Z</time>
      </trkpt>
      <trkpt lat="48.84958" lon="1.67254">
        <ele>134.5</ele>
        <time>2022-03-17T10:30:08Z</time>
      </trkpt>
      <trkpt lat="48.84953" lon="1.67251">
        <ele>134.7</ele>
        <time>2022-03-17T10:30:12Z</time>
      </trkpt>
      <trkpt lat="48.84947" lon="1.67247">
        <ele>135.4</ele>
        <time>2022-03-17T10:30:17Z</time>
      </trkpt>
      <trkpt lat="48.84943" lon="1.67244">
        <ele>135.6</ele>
        <time>2022-03-17T10:30:21Z</time>
      </trkpt>
      <trkpt lat="48.84939" lon="1.67241">
        <ele>135.7</ele>
        <time>2022-03-17T10:30:25Z</time>
      </trkpt>
      <trkpt lat="48.84934" lon="1.67238">
        <ele>135.3</ele>
        <time>2022-03-17T10:30:30Z</time>
      </trkpt>
      <trkpt lat="48.84929" lon="1.67234">
        <ele>135.3</ele>
        <time>2022-03-17T10:30:34Z</time>
      </trkpt>
      <trkpt lat="48.84925" lon="1.67231">
        <ele>135.2</ele>
        <time>2022-03-17T10:30:38Z</time>
      </trkpt>
      <trkpt lat="48.8492" lon="1.67227">
        <ele>135.4</ele>
        <time>2022-03-17T10:30:42Z</time>
      </trkpt>
      <trkpt lat="48.84915" lon="1.67223">
        <ele>135.4</ele>
        <time>2022-03-17T10:30:48Z</time>
      </trkpt>
      <trkpt lat="48.84908" lon="1.67221">
        <ele>134.9</ele>
        <time>2022-03-17T10:30:52Z</time>
      </trkpt>
      <trkpt lat="48.84903" lon="1.67219">
        <ele>133.6</ele>
        <time>2022-03-17T10:30:57Z</time>
      </trkpt>
      <trkpt lat="48.84897" lon="1.67215">
        <ele>133.2</ele>
        <time>2022-03-17T10:31:03Z</time>
      </trkpt>
      <trkpt lat="48.84893" lon="1.67212">
        <ele>133.5</ele>
        <time>2022-03-17T10:31:07Z</time>
      </trkpt>
      <trkpt lat="48.84887" lon="1.67209">
        <ele>134</ele>
        <time>2022-03-17T10:31:13Z</time>
      </trkpt>
      <trkpt lat="48.84882" lon="1.67204">
        <ele>135.1</ele>
        <time>2022-03-17T10:31:17Z</time>
      </trkpt>
      <trkpt lat="48.84877" lon="1.67202">
        <ele>137</ele>
        <time>2022-03-17T10:31:25Z</time>
      </trkpt>
      <trkpt lat="48.84872" lon="1.67199">
        <ele>137.7</ele>
        <time>2022-03-17T10:31:29Z</time>
      </trkpt>
      <trkpt lat="48.84868" lon="1.67196">
        <ele>138.5</ele>
        <time>2022-03-17T10:31:32Z</time>
      </trkpt>
      <trkpt lat="48.84867" lon="1.67202">
        <ele>140.5</ele>
        <time>2022-03-17T10:31:49Z</time>
      </trkpt>
      <trkpt lat="48.84869" lon="1.67209">
        <ele>138.1</ele>
        <time>2022-03-17T10:31:56Z</time>
      </trkpt>
      <trkpt lat="48.84874" lon="1.67213">
        <ele>137.2</ele>
        <time>2022-03-17T10:31:59Z</time>
      </trkpt>
      <trkpt lat="48.84881" lon="1.67212">
        <ele>137.8</ele>
        <time>2022-03-17T10:32:03Z</time>
      </trkpt>
      <trkpt lat="48.84886" lon="1.67207">
        <ele>138.5</ele>
        <time>2022-03-17T10:32:05Z</time>
      </trkpt>
      <trkpt lat="48.8489" lon="1.672">
        <ele>139.4</ele>
        <time>2022-03-17T10:32:09Z</time>
      </trkpt>
      <trkpt lat="48.8489" lon="1.67192">
        <ele>139.1</ele>
        <time>2022-03-17T10:32:12Z</time>
      </trkpt>
      <trkpt lat="48.84889" lon="1.67185">
        <ele>138.7</ele>
        <time>2022-03-17T10:32:15Z</time>
      </trkpt>
      <trkpt lat="48.84891" lon="1.67177">
        <ele>138.8</ele>
        <time>2022-03-17T10:32:18Z</time>
      </trkpt>
      <trkpt lat="48.84893" lon="1.67169">
        <ele>140.7</ele>
        <time>2022-03-17T10:32:22Z</time>
      </trkpt>
      <trkpt lat="48.84894" lon="1.67163">
        <ele>140.7</ele>
        <time>2022-03-17T10:32:26Z</time>
      </trkpt>
      <trkpt lat="48.84895" lon="1.67155">
        <ele>140</ele>
        <time>2022-03-17T10:32:28Z</time>
      </trkpt>
      <trkpt lat="48.84896" lon="1.67148">
        <ele>139.2</ele>
        <time>2022-03-17T10:32:32Z</time>
      </trkpt>
      <trkpt lat="48.849" lon="1.67106">
        <ele>139.2</ele>
        <time>2022-03-17T10:32:53Z</time>
      </trkpt>
      <trkpt lat="48.84901" lon="1.67097">
        <ele>139.6</ele>
        <time>2022-03-17T10:32:57Z</time>
      </trkpt>
      <trkpt lat="48.84901" lon="1.67089">
        <ele>139.5</ele>
        <time>2022-03-17T10:33:01Z</time>
      </trkpt>
      <trkpt lat="48.84902" lon="1.67082">
        <ele>139.5</ele>
        <time>2022-03-17T10:33:03Z</time>
      </trkpt>
      <trkpt lat="48.84905" lon="1.67041">
        <ele>134.8</ele>
        <time>2022-03-17T10:33:25Z</time>
      </trkpt>
      <trkpt lat="48.84909" lon="1.67022">
        <ele>136.7</ele>
        <time>2022-03-17T10:33:35Z</time>
      </trkpt>
      <trkpt lat="48.8491" lon="1.67013">
        <ele>137.8</ele>
        <time>2022-03-17T10:33:40Z</time>
      </trkpt>
      <trkpt lat="48.84912" lon="1.67005">
        <ele>139.1</ele>
        <time>2022-03-17T10:33:43Z</time>
      </trkpt>
      <trkpt lat="48.84912" lon="1.66996">
        <ele>140.5</ele>
        <time>2022-03-17T10:33:47Z</time>
      </trkpt>
      <trkpt lat="48.84912" lon="1.66987">
        <ele>141.5</ele>
        <time>2022-03-17T10:33:52Z</time>
      </trkpt>
      <trkpt lat="48.84913" lon="1.66978">
        <ele>141.4</ele>
        <time>2022-03-17T10:33:57Z</time>
      </trkpt>
      <trkpt lat="48.84914" lon="1.66969">
        <ele>140.4</ele>
        <time>2022-03-17T10:34:02Z</time>
      </trkpt>
      <trkpt lat="48.84915" lon="1.66959">
        <ele>139</ele>
        <time>2022-03-17T10:34:07Z</time>
      </trkpt>
      <trkpt lat="48.84916" lon="1.6695">
        <ele>137.6</ele>
        <time>2022-03-17T10:34:12Z</time>
      </trkpt>
      <trkpt lat="48.84915" lon="1.66943">
        <ele>134.8</ele>
        <time>2022-03-17T10:34:17Z</time>
      </trkpt>
      <trkpt lat="48.84916" lon="1.66934">
        <ele>133.1</ele>
        <time>2022-03-17T10:34:22Z</time>
      </trkpt>
      <trkpt lat="48.84917" lon="1.66927">
        <ele>132.6</ele>
        <time>2022-03-17T10:34:25Z</time>
      </trkpt>
      <trkpt lat="48.84919" lon="1.66921">
        <ele>133.1</ele>
        <time>2022-03-17T10:34:29Z</time>
      </trkpt>
      <trkpt lat="48.84921" lon="1.66914">
        <ele>133.3</ele>
        <time>2022-03-17T10:34:33Z</time>
      </trkpt>
      <trkpt lat="48.84922" lon="1.66906">
        <ele>134.2</ele>
        <time>2022-03-17T10:34:37Z</time>
      </trkpt>
      <trkpt lat="48.84924" lon="1.669">
        <ele>134.7</ele>
        <time>2022-03-17T10:34:40Z</time>
      </trkpt>
      <trkpt lat="48.84926" lon="1.66891">
        <ele>135.9</ele>
        <time>2022-03-17T10:34:45Z</time>
      </trkpt>
      <trkpt lat="48.84928" lon="1.66884">
        <ele>136.1</ele>
        <time>2022-03-17T10:34:50Z</time>
      </trkpt>
      <trkpt lat="48.84932" lon="1.66874">
        <ele>135.9</ele>
        <time>2022-03-17T10:34:55Z</time>
      </trkpt>
      <trkpt lat="48.84936" lon="1.66866">
        <ele>135.8</ele>
        <time>2022-03-17T10:35:00Z</time>
      </trkpt>
      <trkpt lat="48.84938" lon="1.66857">
        <ele>134.7</ele>
        <time>2022-03-17T10:35:05Z</time>
      </trkpt>
      <trkpt lat="48.84941" lon="1.66848">
        <ele>134.3</ele>
        <time>2022-03-17T10:35:11Z</time>
      </trkpt>
      <trkpt lat="48.84943" lon="1.66839">
        <ele>134.8</ele>
        <time>2022-03-17T10:35:15Z</time>
      </trkpt>
      <trkpt lat="48.84947" lon="1.66831">
        <ele>136.5</ele>
        <time>2022-03-17T10:35:20Z</time>
      </trkpt>
      <trkpt lat="48.84949" lon="1.66823">
        <ele>136.8</ele>
        <time>2022-03-17T10:35:29Z</time>
      </trkpt>
      <trkpt lat="48.84954" lon="1.66818">
        <ele>136.8</ele>
        <time>2022-03-17T10:35:32Z</time>
      </trkpt>
      <trkpt lat="48.84957" lon="1.6681">
        <ele>137</ele>
        <time>2022-03-17T10:35:36Z</time>
      </trkpt>
      <trkpt lat="48.84958" lon="1.66801">
        <ele>137.2</ele>
        <time>2022-03-17T10:35:40Z</time>
      </trkpt>
      <trkpt lat="48.84958" lon="1.66793">
        <ele>137</ele>
        <time>2022-03-17T10:35:45Z</time>
      </trkpt>
      <trkpt lat="48.8496" lon="1.66783">
        <ele>137.2</ele>
        <time>2022-03-17T10:35:50Z</time>
      </trkpt>
      <trkpt lat="48.84962" lon="1.66776">
        <ele>137.9</ele>
        <time>2022-03-17T10:35:55Z</time>
      </trkpt>
      <trkpt lat="48.84962" lon="1.66769">
        <ele>138.4</ele>
        <time>2022-03-17T10:36:00Z</time>
      </trkpt>
      <trkpt lat="48.84964" lon="1.66761">
        <ele>138.5</ele>
        <time>2022-03-17T10:36:05Z</time>
      </trkpt>
      <trkpt lat="48.84966" lon="1.66754">
        <ele>138.4</ele>
        <time>2022-03-17T10:36:09Z</time>
      </trkpt>
      <trkpt lat="48.84966" lon="1.66747">
        <ele>138.1</ele>
        <time>2022-03-17T10:36:13Z</time>
      </trkpt>
      <trkpt lat="48.84967" lon="1.66738">
        <ele>137.9</ele>
        <time>2022-03-17T10:36:17Z</time>
      </trkpt>
      <trkpt lat="48.84968" lon="1.66731">
        <ele>138</ele>
        <time>2022-03-17T10:36:21Z</time>
      </trkpt>
      <trkpt lat="48.8497" lon="1.66722">
        <ele>138.2</ele>
        <time>2022-03-17T10:36:25Z</time>
      </trkpt>
      <trkpt lat="48.8497" lon="1.66712">
        <ele>137.6</ele>
        <time>2022-03-17T10:36:30Z</time>
      </trkpt>
      <trkpt lat="48.8497" lon="1.66705">
        <ele>136.5</ele>
        <time>2022-03-17T10:36:36Z</time>
      </trkpt>
      <trkpt lat="48.84974" lon="1.66699">
        <ele>135.8</ele>
        <time>2022-03-17T10:36:42Z</time>
      </trkpt>
      <trkpt lat="48.84977" lon="1.6669">
        <ele>135.3</ele>
        <time>2022-03-17T10:36:46Z</time>
      </trkpt>
      <trkpt lat="48.84979" lon="1.66682">
        <ele>135.6</ele>
        <time>2022-03-17T10:36:50Z</time>
      </trkpt>
      <trkpt lat="48.84981" lon="1.66675">
        <ele>136.7</ele>
        <time>2022-03-17T10:36:54Z</time>
      </trkpt>
      <trkpt lat="48.84982" lon="1.66667">
        <ele>137.7</ele>
        <time>2022-03-17T10:36:57Z</time>
      </trkpt>
      <trkpt lat="48.84985" lon="1.66661">
        <ele>138.4</ele>
        <time>2022-03-17T10:37:01Z</time>
      </trkpt>
      <trkpt lat="48.84986" lon="1.66653">
        <ele>138.8</ele>
        <time>2022-03-17T10:37:05Z</time>
      </trkpt>
      <trkpt lat="48.84988" lon="1.66647">
        <ele>139.1</ele>
        <time>2022-03-17T10:37:09Z</time>
      </trkpt>
      <trkpt lat="48.84989" lon="1.6664">
        <ele>139.6</ele>
        <time>2022-03-17T10:37:12Z</time>
      </trkpt>
      <trkpt lat="48.84989" lon="1.66632">
        <ele>140.1</ele>
        <time>2022-03-17T10:37:17Z</time>
      </trkpt>
      <trkpt lat="48.84988" lon="1.66624">
        <ele>139.7</ele>
        <time>2022-03-17T10:37:21Z</time>
      </trkpt>
      <trkpt lat="48.8499" lon="1.66615">
        <ele>139.2</ele>
        <time>2022-03-17T10:37:26Z</time>
      </trkpt>
      <trkpt lat="48.84991" lon="1.66609">
        <ele>139.2</ele>
        <time>2022-03-17T10:37:28Z</time>
      </trkpt>
      <trkpt lat="48.84994" lon="1.66602">
        <ele>139.8</ele>
        <time>2022-03-17T10:37:33Z</time>
      </trkpt>
      <trkpt lat="48.84997" lon="1.66594">
        <ele>140.8</ele>
        <time>2022-03-17T10:37:37Z</time>
      </trkpt>
      <trkpt lat="48.84999" lon="1.66586">
        <ele>140.5</ele>
        <time>2022-03-17T10:37:42Z</time>
      </trkpt>
      <trkpt lat="48.85" lon="1.66579">
        <ele>140.1</ele>
        <time>2022-03-17T10:37:46Z</time>
      </trkpt>
      <trkpt lat="48.85" lon="1.66572">
        <ele>139.4</ele>
        <time>2022-03-17T10:37:50Z</time>
      </trkpt>
      <trkpt lat="48.85002" lon="1.66564">
        <ele>139.2</ele>
        <time>2022-03-17T10:37:54Z</time>
      </trkpt>
      <trkpt lat="48.85004" lon="1.66556">
        <ele>138.6</ele>
        <time>2022-03-17T10:37:59Z</time>
      </trkpt>
      <trkpt lat="48.85005" lon="1.66546">
        <ele>138.2</ele>
        <time>2022-03-17T10:38:04Z</time>
      </trkpt>
      <trkpt lat="48.85007" lon="1.66539">
        <ele>138.3</ele>
        <time>2022-03-17T10:38:08Z</time>
      </trkpt>
      <trkpt lat="48.8501" lon="1.66532">
        <ele>138</ele>
        <time>2022-03-17T10:38:11Z</time>
      </trkpt>
      <trkpt lat="48.85012" lon="1.66526">
        <ele>137.7</ele>
        <time>2022-03-17T10:38:14Z</time>
      </trkpt>
      <trkpt lat="48.85014" lon="1.66517">
        <ele>137.5</ele>
        <time>2022-03-17T10:38:18Z</time>
      </trkpt>
      <trkpt lat="48.85016" lon="1.66507">
        <ele>138.7</ele>
        <time>2022-03-17T10:38:24Z</time>
      </trkpt>
      <trkpt lat="48.85018" lon="1.66499">
        <ele>140.1</ele>
        <time>2022-03-17T10:38:28Z</time>
      </trkpt>
      <trkpt lat="48.85019" lon="1.66492">
        <ele>140.7</ele>
        <time>2022-03-17T10:38:31Z</time>
      </trkpt>
      <trkpt lat="48.85021" lon="1.66484">
        <ele>141.2</ele>
        <time>2022-03-17T10:38:35Z</time>
      </trkpt>
      <trkpt lat="48.85023" lon="1.66474">
        <ele>141.7</ele>
        <time>2022-03-17T10:38:39Z</time>
      </trkpt>
      <trkpt lat="48.85023" lon="1.66467">
        <ele>140.7</ele>
        <time>2022-03-17T10:38:44Z</time>
      </trkpt>
      <trkpt lat="48.85024" lon="1.66459">
        <ele>139.6</ele>
        <time>2022-03-17T10:38:48Z</time>
      </trkpt>
      <trkpt lat="48.85025" lon="1.6645">
        <ele>139.7</ele>
        <time>2022-03-17T10:38:52Z</time>
      </trkpt>
      <trkpt lat="48.85026" lon="1.66443">
        <ele>140.1</ele>
        <time>2022-03-17T10:38:56Z</time>
      </trkpt>
      <trkpt lat="48.85027" lon="1.66435">
        <ele>140.7</ele>
        <time>2022-03-17T10:39:00Z</time>
      </trkpt>
      <trkpt lat="48.85028" lon="1.66427">
        <ele>141.2</ele>
        <time>2022-03-17T10:39:04Z</time>
      </trkpt>
      <trkpt lat="48.85029" lon="1.66419">
        <ele>141.4</ele>
        <time>2022-03-17T10:39:08Z</time>
      </trkpt>
      <trkpt lat="48.8503" lon="1.6641">
        <ele>142</ele>
        <time>2022-03-17T10:39:13Z</time>
      </trkpt>
      <trkpt lat="48.85032" lon="1.66402">
        <ele>142.2</ele>
        <time>2022-03-17T10:39:17Z</time>
      </trkpt>
      <trkpt lat="48.85034" lon="1.66394">
        <ele>142.5</ele>
        <time>2022-03-17T10:39:21Z</time>
      </trkpt>
      <trkpt lat="48.85035" lon="1.66385">
        <ele>142.8</ele>
        <time>2022-03-17T10:39:25Z</time>
      </trkpt>
      <trkpt lat="48.85037" lon="1.66379">
        <ele>142.1</ele>
        <time>2022-03-17T10:39:28Z</time>
      </trkpt>
      <trkpt lat="48.85038" lon="1.66372">
        <ele>141.4</ele>
        <time>2022-03-17T10:39:32Z</time>
      </trkpt>
      <trkpt lat="48.8504" lon="1.66365">
        <ele>141.1</ele>
        <time>2022-03-17T10:39:36Z</time>
      </trkpt>
      <trkpt lat="48.85042" lon="1.66357">
        <ele>141.1</ele>
        <time>2022-03-17T10:39:40Z</time>
      </trkpt>
      <trkpt lat="48.85043" lon="1.6635">
        <ele>140.9</ele>
        <time>2022-03-17T10:39:44Z</time>
      </trkpt>
      <trkpt lat="48.85044" lon="1.66341">
        <ele>140.6</ele>
        <time>2022-03-17T10:39:51Z</time>
      </trkpt>
      <trkpt lat="48.85046" lon="1.66334">
        <ele>140.6</ele>
        <time>2022-03-17T10:39:54Z</time>
      </trkpt>
      <trkpt lat="48.85048" lon="1.66328">
        <ele>141</ele>
        <time>2022-03-17T10:39:58Z</time>
      </trkpt>
      <trkpt lat="48.85051" lon="1.6632">
        <ele>141.3</ele>
        <time>2022-03-17T10:40:03Z</time>
      </trkpt>
      <trkpt lat="48.85052" lon="1.66312">
        <ele>141.3</ele>
        <time>2022-03-17T10:40:07Z</time>
      </trkpt>
      <trkpt lat="48.85056" lon="1.66306">
        <ele>139.2</ele>
        <time>2022-03-17T10:40:16Z</time>
      </trkpt>
      <trkpt lat="48.8506" lon="1.66303">
        <ele>137.8</ele>
        <time>2022-03-17T10:40:22Z</time>
      </trkpt>
      <trkpt lat="48.85064" lon="1.66309">
        <ele>136.4</ele>
        <time>2022-03-17T10:40:26Z</time>
      </trkpt>
      <trkpt lat="48.85068" lon="1.66314">
        <ele>135</ele>
        <time>2022-03-17T10:40:31Z</time>
      </trkpt>
      <trkpt lat="48.85073" lon="1.66317">
        <ele>134.5</ele>
        <time>2022-03-17T10:40:35Z</time>
      </trkpt>
      <trkpt lat="48.85077" lon="1.66321">
        <ele>134.3</ele>
        <time>2022-03-17T10:40:39Z</time>
      </trkpt>
      <trkpt lat="48.85083" lon="1.66322">
        <ele>133.6</ele>
        <time>2022-03-17T10:40:43Z</time>
      </trkpt>
      <trkpt lat="48.85089" lon="1.66323">
        <ele>132.5</ele>
        <time>2022-03-17T10:40:47Z</time>
      </trkpt>
      <trkpt lat="48.85093" lon="1.66327">
        <ele>131.7</ele>
        <time>2022-03-17T10:40:53Z</time>
      </trkpt>
      <trkpt lat="48.85098" lon="1.66331">
        <ele>131.5</ele>
        <time>2022-03-17T10:40:59Z</time>
      </trkpt>
      <trkpt lat="48.85103" lon="1.66333">
        <ele>131.2</ele>
        <time>2022-03-17T10:41:02Z</time>
      </trkpt>
      <trkpt lat="48.85108" lon="1.66334">
        <ele>130.2</ele>
        <time>2022-03-17T10:41:06Z</time>
      </trkpt>
      <trkpt lat="48.85113" lon="1.66335">
        <ele>129.7</ele>
        <time>2022-03-17T10:41:10Z</time>
      </trkpt>
      <trkpt lat="48.85117" lon="1.66338">
        <ele>129.8</ele>
        <time>2022-03-17T10:41:13Z</time>
      </trkpt>
      <trkpt lat="48.85122" lon="1.66342">
        <ele>130.2</ele>
        <time>2022-03-17T10:41:18Z</time>
      </trkpt>
      <trkpt lat="48.85127" lon="1.66344">
        <ele>130.3</ele>
        <time>2022-03-17T10:41:22Z</time>
      </trkpt>
      <trkpt lat="48.85134" lon="1.66345">
        <ele>130</ele>
        <time>2022-03-17T10:41:27Z</time>
      </trkpt>
      <trkpt lat="48.85139" lon="1.66345">
        <ele>129.2</ele>
        <time>2022-03-17T10:41:30Z</time>
      </trkpt>
      <trkpt lat="48.85143" lon="1.66347">
        <ele>128</ele>
        <time>2022-03-17T10:41:34Z</time>
      </trkpt>
      <trkpt lat="48.85148" lon="1.66349">
        <ele>126.7</ele>
        <time>2022-03-17T10:41:38Z</time>
      </trkpt>
      <trkpt lat="48.85153" lon="1.66351">
        <ele>126.1</ele>
        <time>2022-03-17T10:41:42Z</time>
      </trkpt>
      <trkpt lat="48.85158" lon="1.66352">
        <ele>125.9</ele>
        <time>2022-03-17T10:41:46Z</time>
      </trkpt>
      <trkpt lat="48.85163" lon="1.66354">
        <ele>126</ele>
        <time>2022-03-17T10:41:50Z</time>
      </trkpt>
      <trkpt lat="48.85169" lon="1.66356">
        <ele>126.2</ele>
        <time>2022-03-17T10:41:54Z</time>
      </trkpt>
      <trkpt lat="48.85173" lon="1.66358">
        <ele>126.3</ele>
        <time>2022-03-17T10:41:57Z</time>
      </trkpt>
      <trkpt lat="48.85179" lon="1.66361">
        <ele>126.5</ele>
        <time>2022-03-17T10:42:01Z</time>
      </trkpt>
      <trkpt lat="48.85184" lon="1.66363">
        <ele>126.3</ele>
        <time>2022-03-17T10:42:05Z</time>
      </trkpt>
      <trkpt lat="48.85189" lon="1.66363">
        <ele>125.5</ele>
        <time>2022-03-17T10:42:09Z</time>
      </trkpt>
      <trkpt lat="48.85194" lon="1.66363">
        <ele>124.5</ele>
        <time>2022-03-17T10:42:13Z</time>
      </trkpt>
      <trkpt lat="48.85199" lon="1.66363">
        <ele>123.5</ele>
        <time>2022-03-17T10:42:17Z</time>
      </trkpt>
      <trkpt lat="48.85205" lon="1.66364">
        <ele>123.3</ele>
        <time>2022-03-17T10:42:21Z</time>
      </trkpt>
      <trkpt lat="48.8521" lon="1.66366">
        <ele>123.5</ele>
        <time>2022-03-17T10:42:25Z</time>
      </trkpt>
      <trkpt lat="48.85215" lon="1.66367">
        <ele>124.1</ele>
        <time>2022-03-17T10:42:29Z</time>
      </trkpt>
      <trkpt lat="48.8522" lon="1.66369">
        <ele>124.1</ele>
        <time>2022-03-17T10:42:32Z</time>
      </trkpt>
      <trkpt lat="48.85225" lon="1.6637">
        <ele>123.9</ele>
        <time>2022-03-17T10:42:36Z</time>
      </trkpt>
      <trkpt lat="48.8523" lon="1.66373">
        <ele>123.9</ele>
        <time>2022-03-17T10:42:40Z</time>
      </trkpt>
      <trkpt lat="48.85234" lon="1.66375">
        <ele>124.2</ele>
        <time>2022-03-17T10:42:43Z</time>
      </trkpt>
      <trkpt lat="48.85239" lon="1.66376">
        <ele>124.5</ele>
        <time>2022-03-17T10:42:46Z</time>
      </trkpt>
      <trkpt lat="48.85244" lon="1.66378">
        <ele>124</ele>
        <time>2022-03-17T10:42:51Z</time>
      </trkpt>
      <trkpt lat="48.85249" lon="1.6638">
        <ele>123.3</ele>
        <time>2022-03-17T10:42:55Z</time>
      </trkpt>
      <trkpt lat="48.85254" lon="1.66383">
        <ele>122.3</ele>
        <time>2022-03-17T10:42:59Z</time>
      </trkpt>
      <trkpt lat="48.85259" lon="1.66383">
        <ele>121.7</ele>
        <time>2022-03-17T10:43:04Z</time>
      </trkpt>
      <trkpt lat="48.85265" lon="1.66385">
        <ele>121.7</ele>
        <time>2022-03-17T10:43:09Z</time>
      </trkpt>
      <trkpt lat="48.8527" lon="1.66387">
        <ele>121.8</ele>
        <time>2022-03-17T10:43:12Z</time>
      </trkpt>
      <trkpt lat="48.85275" lon="1.66389">
        <ele>121.7</ele>
        <time>2022-03-17T10:43:16Z</time>
      </trkpt>
      <trkpt lat="48.8528" lon="1.6639">
        <ele>121.7</ele>
        <time>2022-03-17T10:43:20Z</time>
      </trkpt>
      <trkpt lat="48.85285" lon="1.66392">
        <ele>121.4</ele>
        <time>2022-03-17T10:43:24Z</time>
      </trkpt>
      <trkpt lat="48.85291" lon="1.66394">
        <ele>121</ele>
        <time>2022-03-17T10:43:28Z</time>
      </trkpt>
      <trkpt lat="48.85295" lon="1.66396">
        <ele>120.9</ele>
        <time>2022-03-17T10:43:32Z</time>
      </trkpt>
      <trkpt lat="48.85301" lon="1.66398">
        <ele>120.7</ele>
        <time>2022-03-17T10:43:37Z</time>
      </trkpt>
      <trkpt lat="48.85306" lon="1.66401">
        <ele>120.5</ele>
        <time>2022-03-17T10:43:41Z</time>
      </trkpt>
      <trkpt lat="48.85311" lon="1.66403">
        <ele>120.1</ele>
        <time>2022-03-17T10:43:44Z</time>
      </trkpt>
      <trkpt lat="48.85316" lon="1.66404">
        <ele>119.7</ele>
        <time>2022-03-17T10:43:48Z</time>
      </trkpt>
      <trkpt lat="48.85322" lon="1.66407">
        <ele>119.6</ele>
        <time>2022-03-17T10:43:52Z</time>
      </trkpt>
      <trkpt lat="48.85327" lon="1.6641">
        <ele>119.6</ele>
        <time>2022-03-17T10:43:56Z</time>
      </trkpt>
      <trkpt lat="48.85332" lon="1.66412">
        <ele>119.6</ele>
        <time>2022-03-17T10:44:00Z</time>
      </trkpt>
      <trkpt lat="48.85336" lon="1.66415">
        <ele>119.7</ele>
        <time>2022-03-17T10:44:04Z</time>
      </trkpt>
      <trkpt lat="48.85341" lon="1.66416">
        <ele>120</ele>
        <time>2022-03-17T10:44:08Z</time>
      </trkpt>
      <trkpt lat="48.85347" lon="1.66419">
        <ele>120.6</ele>
        <time>2022-03-17T10:44:12Z</time>
      </trkpt>
      <trkpt lat="48.85351" lon="1.66422">
        <ele>120.9</ele>
        <time>2022-03-17T10:44:15Z</time>
      </trkpt>
      <trkpt lat="48.85356" lon="1.66424">
        <ele>121.1</ele>
        <time>2022-03-17T10:44:19Z</time>
      </trkpt>
      <trkpt lat="48.85361" lon="1.66426">
        <ele>120.7</ele>
        <time>2022-03-17T10:44:23Z</time>
      </trkpt>
      <trkpt lat="48.85365" lon="1.66427">
        <ele>120.2</ele>
        <time>2022-03-17T10:44:26Z</time>
      </trkpt>
      <trkpt lat="48.8537" lon="1.66429">
        <ele>119.8</ele>
        <time>2022-03-17T10:44:30Z</time>
      </trkpt>
      <trkpt lat="48.85376" lon="1.66431">
        <ele>119.3</ele>
        <time>2022-03-17T10:44:34Z</time>
      </trkpt>
      <trkpt lat="48.8538" lon="1.66433">
        <ele>119.1</ele>
        <time>2022-03-17T10:44:37Z</time>
      </trkpt>
      <trkpt lat="48.85386" lon="1.66436">
        <ele>119</ele>
        <time>2022-03-17T10:44:42Z</time>
      </trkpt>
      <trkpt lat="48.85391" lon="1.66437">
        <ele>119.1</ele>
        <time>2022-03-17T10:44:45Z</time>
      </trkpt>
      <trkpt lat="48.85395" lon="1.6644">
        <ele>119.2</ele>
        <time>2022-03-17T10:44:49Z</time>
      </trkpt>
      <trkpt lat="48.854" lon="1.66442">
        <ele>119.1</ele>
        <time>2022-03-17T10:44:53Z</time>
      </trkpt>
      <trkpt lat="48.85406" lon="1.66444">
        <ele>118.7</ele>
        <time>2022-03-17T10:44:57Z</time>
      </trkpt>
      <trkpt lat="48.85411" lon="1.66447">
        <ele>118.1</ele>
        <time>2022-03-17T10:45:01Z</time>
      </trkpt>
      <trkpt lat="48.85416" lon="1.66449">
        <ele>117.4</ele>
        <time>2022-03-17T10:45:05Z</time>
      </trkpt>
      <trkpt lat="48.85421" lon="1.66451">
        <ele>117.1</ele>
        <time>2022-03-17T10:45:09Z</time>
      </trkpt>
      <trkpt lat="48.85426" lon="1.66454">
        <ele>117.1</ele>
        <time>2022-03-17T10:45:13Z</time>
      </trkpt>
      <trkpt lat="48.85431" lon="1.66456">
        <ele>117.3</ele>
        <time>2022-03-17T10:45:17Z</time>
      </trkpt>
      <trkpt lat="48.85436" lon="1.66458">
        <ele>117.2</ele>
        <time>2022-03-17T10:45:20Z</time>
      </trkpt>
      <trkpt lat="48.85441" lon="1.6646">
        <ele>116.9</ele>
        <time>2022-03-17T10:45:24Z</time>
      </trkpt>
      <trkpt lat="48.85447" lon="1.66463">
        <ele>116.8</ele>
        <time>2022-03-17T10:45:29Z</time>
      </trkpt>
      <trkpt lat="48.85452" lon="1.66466">
        <ele>116.9</ele>
        <time>2022-03-17T10:45:33Z</time>
      </trkpt>
      <trkpt lat="48.85457" lon="1.66468">
        <ele>117.1</ele>
        <time>2022-03-17T10:45:38Z</time>
      </trkpt>
      <trkpt lat="48.85461" lon="1.6647">
        <ele>117.3</ele>
        <time>2022-03-17T10:45:41Z</time>
      </trkpt>
      <trkpt lat="48.85466" lon="1.66473">
        <ele>117.5</ele>
        <time>2022-03-17T10:45:47Z</time>
      </trkpt>
      <trkpt lat="48.85472" lon="1.66473">
        <ele>117.3</ele>
        <time>2022-03-17T10:45:50Z</time>
      </trkpt>
      <trkpt lat="48.85475" lon="1.6648">
        <ele>117.3</ele>
        <time>2022-03-17T10:45:56Z</time>
      </trkpt>
      <trkpt lat="48.8548" lon="1.66481">
        <ele>117.3</ele>
        <time>2022-03-17T10:45:59Z</time>
      </trkpt>
      <trkpt lat="48.85484" lon="1.66483">
        <ele>117.3</ele>
        <time>2022-03-17T10:46:03Z</time>
      </trkpt>
      <trkpt lat="48.8549" lon="1.66485">
        <ele>117.1</ele>
        <time>2022-03-17T10:46:06Z</time>
      </trkpt>
      <trkpt lat="48.85495" lon="1.66487">
        <ele>116.6</ele>
        <time>2022-03-17T10:46:11Z</time>
      </trkpt>
      <trkpt lat="48.855" lon="1.6649">
        <ele>116.2</ele>
        <time>2022-03-17T10:46:14Z</time>
      </trkpt>
      <trkpt lat="48.85505" lon="1.66493">
        <ele>115.9</ele>
        <time>2022-03-17T10:46:19Z</time>
      </trkpt>
      <trkpt lat="48.8551" lon="1.66495">
        <ele>115.9</ele>
        <time>2022-03-17T10:46:22Z</time>
      </trkpt>
      <trkpt lat="48.85516" lon="1.66498">
        <ele>116.1</ele>
        <time>2022-03-17T10:46:26Z</time>
      </trkpt>
      <trkpt lat="48.85521" lon="1.665">
        <ele>116</ele>
        <time>2022-03-17T10:46:30Z</time>
      </trkpt>
      <trkpt lat="48.85526" lon="1.66501">
        <ele>115.6</ele>
        <time>2022-03-17T10:46:34Z</time>
      </trkpt>
      <trkpt lat="48.8553" lon="1.66505">
        <ele>115.6</ele>
        <time>2022-03-17T10:46:38Z</time>
      </trkpt>
      <trkpt lat="48.85535" lon="1.66508">
        <ele>115.5</ele>
        <time>2022-03-17T10:46:42Z</time>
      </trkpt>
      <trkpt lat="48.8554" lon="1.66512">
        <ele>115.4</ele>
        <time>2022-03-17T10:46:46Z</time>
      </trkpt>
      <trkpt lat="48.85545" lon="1.66516">
        <ele>115.6</ele>
        <time>2022-03-17T10:46:50Z</time>
      </trkpt>
      <trkpt lat="48.85613" lon="1.66556">
        <ele>117.1</ele>
        <time>2022-03-17T10:47:42Z</time>
      </trkpt>
      <trkpt lat="48.85618" lon="1.66557">
        <ele>117.7</ele>
        <time>2022-03-17T10:47:46Z</time>
      </trkpt>
      <trkpt lat="48.85623" lon="1.66559">
        <ele>117.7</ele>
        <time>2022-03-17T10:47:50Z</time>
      </trkpt>
      <trkpt lat="48.85628" lon="1.66562">
        <ele>117.5</ele>
        <time>2022-03-17T10:47:54Z</time>
      </trkpt>
      <trkpt lat="48.85633" lon="1.66564">
        <ele>117.3</ele>
        <time>2022-03-17T10:47:58Z</time>
      </trkpt>
      <trkpt lat="48.85637" lon="1.66566">
        <ele>117.2</ele>
        <time>2022-03-17T10:48:02Z</time>
      </trkpt>
      <trkpt lat="48.85643" lon="1.66569">
        <ele>117</ele>
        <time>2022-03-17T10:48:06Z</time>
      </trkpt>
      <trkpt lat="48.85648" lon="1.66571">
        <ele>116.9</ele>
        <time>2022-03-17T10:48:10Z</time>
      </trkpt>
      <trkpt lat="48.85653" lon="1.66573">
        <ele>116.6</ele>
        <time>2022-03-17T10:48:14Z</time>
      </trkpt>
      <trkpt lat="48.85658" lon="1.66574">
        <ele>116.4</ele>
        <time>2022-03-17T10:48:18Z</time>
      </trkpt>
      <trkpt lat="48.85663" lon="1.66577">
        <ele>116.3</ele>
        <time>2022-03-17T10:48:22Z</time>
      </trkpt>
      <trkpt lat="48.85668" lon="1.66578">
        <ele>116.3</ele>
        <time>2022-03-17T10:48:26Z</time>
      </trkpt>
      <trkpt lat="48.85673" lon="1.6658">
        <ele>116.2</ele>
        <time>2022-03-17T10:48:30Z</time>
      </trkpt>
      <trkpt lat="48.85678" lon="1.66581">
        <ele>115.8</ele>
        <time>2022-03-17T10:48:34Z</time>
      </trkpt>
      <trkpt lat="48.85684" lon="1.66584">
        <ele>115.6</ele>
        <time>2022-03-17T10:48:38Z</time>
      </trkpt>
      <trkpt lat="48.8569" lon="1.66584">
        <ele>115.6</ele>
        <time>2022-03-17T10:48:42Z</time>
      </trkpt>
      <trkpt lat="48.85695" lon="1.66582">
        <ele>115.6</ele>
        <time>2022-03-17T10:48:46Z</time>
      </trkpt>
      <trkpt lat="48.857" lon="1.66579">
        <ele>115.7</ele>
        <time>2022-03-17T10:48:51Z</time>
      </trkpt>
      <trkpt lat="48.857" lon="1.66572">
        <ele>116.6</ele>
        <time>2022-03-17T10:48:57Z</time>
      </trkpt>
      <trkpt lat="48.85696" lon="1.66575">
        <ele>117.9</ele>
        <time>2022-03-17T10:51:32Z</time>
      </trkpt>
      <trkpt lat="48.85697" lon="1.66567">
        <ele>117.4</ele>
        <time>2022-03-17T10:51:40Z</time>
      </trkpt>
      <trkpt lat="48.85698" lon="1.66559">
        <ele>117.1</ele>
        <time>2022-03-17T10:51:44Z</time>
      </trkpt>
      <trkpt lat="48.85697" lon="1.66552">
        <ele>116.5</ele>
        <time>2022-03-17T10:51:48Z</time>
      </trkpt>
      <trkpt lat="48.85697" lon="1.66543">
        <ele>115.8</ele>
        <time>2022-03-17T10:51:53Z</time>
      </trkpt>
      <trkpt lat="48.85697" lon="1.66535">
        <ele>115.5</ele>
        <time>2022-03-17T10:51:57Z</time>
      </trkpt>
      <trkpt lat="48.85696" lon="1.66528">
        <ele>115.7</ele>
        <time>2022-03-17T10:52:02Z</time>
      </trkpt>
      <trkpt lat="48.85695" lon="1.66521">
        <ele>116.1</ele>
        <time>2022-03-17T10:52:05Z</time>
      </trkpt>
      <trkpt lat="48.85695" lon="1.66514">
        <ele>116.2</ele>
        <time>2022-03-17T10:52:08Z</time>
      </trkpt>
      <trkpt lat="48.85694" lon="1.66506">
        <ele>116.1</ele>
        <time>2022-03-17T10:52:12Z</time>
      </trkpt>
      <trkpt lat="48.85693" lon="1.66496">
        <ele>115.8</ele>
        <time>2022-03-17T10:52:17Z</time>
      </trkpt>
      <trkpt lat="48.85694" lon="1.66487">
        <ele>116.3</ele>
        <time>2022-03-17T10:52:23Z</time>
      </trkpt>
      <trkpt lat="48.85693" lon="1.66477">
        <ele>116.6</ele>
        <time>2022-03-17T10:52:27Z</time>
      </trkpt>
      <trkpt lat="48.85693" lon="1.66469">
        <ele>116.3</ele>
        <time>2022-03-17T10:52:32Z</time>
      </trkpt>
      <trkpt lat="48.85692" lon="1.66461">
        <ele>116.2</ele>
        <time>2022-03-17T10:52:37Z</time>
      </trkpt>
      <trkpt lat="48.85692" lon="1.66454">
        <ele>116.5</ele>
        <time>2022-03-17T10:52:41Z</time>
      </trkpt>
      <trkpt lat="48.85692" lon="1.66447">
        <ele>117.1</ele>
        <time>2022-03-17T10:52:44Z</time>
      </trkpt>
      <trkpt lat="48.85691" lon="1.66439">
        <ele>117.6</ele>
        <time>2022-03-17T10:52:48Z</time>
      </trkpt>
      <trkpt lat="48.8569" lon="1.66429">
        <ele>117.7</ele>
        <time>2022-03-17T10:52:52Z</time>
      </trkpt>
      <trkpt lat="48.85689" lon="1.66422">
        <ele>117.9</ele>
        <time>2022-03-17T10:52:57Z</time>
      </trkpt>
      <trkpt lat="48.85689" lon="1.66415">
        <ele>118.3</ele>
        <time>2022-03-17T10:53:00Z</time>
      </trkpt>
      <trkpt lat="48.85689" lon="1.66407">
        <ele>118.2</ele>
        <time>2022-03-17T10:53:05Z</time>
      </trkpt>
      <trkpt lat="48.85688" lon="1.664">
        <ele>118.2</ele>
        <time>2022-03-17T10:53:08Z</time>
      </trkpt>
      <trkpt lat="48.85687" lon="1.66393">
        <ele>118.4</ele>
        <time>2022-03-17T10:53:12Z</time>
      </trkpt>
      <trkpt lat="48.85687" lon="1.66385">
        <ele>118.7</ele>
        <time>2022-03-17T10:53:16Z</time>
      </trkpt>
      <trkpt lat="48.85688" lon="1.66377">
        <ele>118.2</ele>
        <time>2022-03-17T10:53:20Z</time>
      </trkpt>
      <trkpt lat="48.85688" lon="1.6637">
        <ele>118</ele>
        <time>2022-03-17T10:53:23Z</time>
      </trkpt>
      <trkpt lat="48.85687" lon="1.66362">
        <ele>117.6</ele>
        <time>2022-03-17T10:53:28Z</time>
      </trkpt>
      <trkpt lat="48.85687" lon="1.66354">
        <ele>117.3</ele>
        <time>2022-03-17T10:53:32Z</time>
      </trkpt>
      <trkpt lat="48.85685" lon="1.66345">
        <ele>117.2</ele>
        <time>2022-03-17T10:53:37Z</time>
      </trkpt>
      <trkpt lat="48.85685" lon="1.66335">
        <ele>117.5</ele>
        <time>2022-03-17T10:53:41Z</time>
      </trkpt>
      <trkpt lat="48.85684" lon="1.66326">
        <ele>117.1</ele>
        <time>2022-03-17T10:53:46Z</time>
      </trkpt>
      <trkpt lat="48.85683" lon="1.66318">
        <ele>116.5</ele>
        <time>2022-03-17T10:53:51Z</time>
      </trkpt>
      <trkpt lat="48.85683" lon="1.66308">
        <ele>116.4</ele>
        <time>2022-03-17T10:53:57Z</time>
      </trkpt>
      <trkpt lat="48.85682" lon="1.66301">
        <ele>116.2</ele>
        <time>2022-03-17T10:54:01Z</time>
      </trkpt>
      <trkpt lat="48.8568" lon="1.66293">
        <ele>115.7</ele>
        <time>2022-03-17T10:54:05Z</time>
      </trkpt>
      <trkpt lat="48.85679" lon="1.66286">
        <ele>114.8</ele>
        <time>2022-03-17T10:54:09Z</time>
      </trkpt>
      <trkpt lat="48.85678" lon="1.66277">
        <ele>114.1</ele>
        <time>2022-03-17T10:54:13Z</time>
      </trkpt>
      <trkpt lat="48.85675" lon="1.66271">
        <ele>113.6</ele>
        <time>2022-03-17T10:54:17Z</time>
      </trkpt>
      <trkpt lat="48.85673" lon="1.66262">
        <ele>112.7</ele>
        <time>2022-03-17T10:54:21Z</time>
      </trkpt>
      <trkpt lat="48.85672" lon="1.66255">
        <ele>111.5</ele>
        <time>2022-03-17T10:54:26Z</time>
      </trkpt>
      <trkpt lat="48.85671" lon="1.66248">
        <ele>110.9</ele>
        <time>2022-03-17T10:54:29Z</time>
      </trkpt>
      <trkpt lat="48.8567" lon="1.6624">
        <ele>110.5</ele>
        <time>2022-03-17T10:54:33Z</time>
      </trkpt>
      <trkpt lat="48.85669" lon="1.66234">
        <ele>110.4</ele>
        <time>2022-03-17T10:54:37Z</time>
      </trkpt>
      <trkpt lat="48.85667" lon="1.66226">
        <ele>110.4</ele>
        <time>2022-03-17T10:54:41Z</time>
      </trkpt>
      <trkpt lat="48.85665" lon="1.6622">
        <ele>110.7</ele>
        <time>2022-03-17T10:54:44Z</time>
      </trkpt>
      <trkpt lat="48.85663" lon="1.66211">
        <ele>110.8</ele>
        <time>2022-03-17T10:54:49Z</time>
      </trkpt>
      <trkpt lat="48.8566" lon="1.66203">
        <ele>110.9</ele>
        <time>2022-03-17T10:54:54Z</time>
      </trkpt>
      <trkpt lat="48.85658" lon="1.66195">
        <ele>111.1</ele>
        <time>2022-03-17T10:54:59Z</time>
      </trkpt>
      <trkpt lat="48.85658" lon="1.66188">
        <ele>111.7</ele>
        <time>2022-03-17T10:55:02Z</time>
      </trkpt>
      <trkpt lat="48.85656" lon="1.66179">
        <ele>112.5</ele>
        <time>2022-03-17T10:55:07Z</time>
      </trkpt>
      <trkpt lat="48.85655" lon="1.66172">
        <ele>112.7</ele>
        <time>2022-03-17T10:55:11Z</time>
      </trkpt>
      <trkpt lat="48.85655" lon="1.66164">
        <ele>112.6</ele>
        <time>2022-03-17T10:55:16Z</time>
      </trkpt>
      <trkpt lat="48.85653" lon="1.66157">
        <ele>112.7</ele>
        <time>2022-03-17T10:55:20Z</time>
      </trkpt>
      <trkpt lat="48.8565" lon="1.66149">
        <ele>113</ele>
        <time>2022-03-17T10:55:24Z</time>
      </trkpt>
      <trkpt lat="48.85648" lon="1.66143">
        <ele>113.4</ele>
        <time>2022-03-17T10:55:28Z</time>
      </trkpt>
      <trkpt lat="48.85646" lon="1.66136">
        <ele>113.4</ele>
        <time>2022-03-17T10:55:32Z</time>
      </trkpt>
      <trkpt lat="48.85643" lon="1.6613">
        <ele>113</ele>
        <time>2022-03-17T10:55:36Z</time>
      </trkpt>
      <trkpt lat="48.8564" lon="1.66124">
        <ele>112.7</ele>
        <time>2022-03-17T10:55:40Z</time>
      </trkpt>
      <trkpt lat="48.85638" lon="1.66116">
        <ele>112.7</ele>
        <time>2022-03-17T10:55:44Z</time>
      </trkpt>
      <trkpt lat="48.85636" lon="1.66108">
        <ele>113.1</ele>
        <time>2022-03-17T10:55:49Z</time>
      </trkpt>
      <trkpt lat="48.85632" lon="1.661">
        <ele>113.3</ele>
        <time>2022-03-17T10:55:54Z</time>
      </trkpt>
      <trkpt lat="48.85628" lon="1.66092">
        <ele>113.7</ele>
        <time>2022-03-17T10:55:59Z</time>
      </trkpt>
      <trkpt lat="48.85624" lon="1.66084">
        <ele>114.7</ele>
        <time>2022-03-17T10:56:04Z</time>
      </trkpt>
      <trkpt lat="48.8562" lon="1.66077">
        <ele>115.3</ele>
        <time>2022-03-17T10:56:09Z</time>
      </trkpt>
      <trkpt lat="48.85616" lon="1.6607">
        <ele>114.8</ele>
        <time>2022-03-17T10:56:14Z</time>
      </trkpt>
      <trkpt lat="48.85612" lon="1.66064">
        <ele>114.6</ele>
        <time>2022-03-17T10:56:19Z</time>
      </trkpt>
      <trkpt lat="48.85608" lon="1.66056">
        <ele>114.8</ele>
        <time>2022-03-17T10:56:24Z</time>
      </trkpt>
      <trkpt lat="48.85604" lon="1.6605">
        <ele>114.7</ele>
        <time>2022-03-17T10:56:30Z</time>
      </trkpt>
      <trkpt lat="48.85601" lon="1.66044">
        <ele>114.3</ele>
        <time>2022-03-17T10:56:34Z</time>
      </trkpt>
      <trkpt lat="48.85596" lon="1.66036">
        <ele>114</ele>
        <time>2022-03-17T10:56:39Z</time>
      </trkpt>
      <trkpt lat="48.85593" lon="1.6603">
        <ele>113.9</ele>
        <time>2022-03-17T10:56:43Z</time>
      </trkpt>
      <trkpt lat="48.8559" lon="1.66023">
        <ele>114.3</ele>
        <time>2022-03-17T10:56:48Z</time>
      </trkpt>
      <trkpt lat="48.85587" lon="1.66019">
        <ele>114.2</ele>
        <time>2022-03-17T10:56:51Z</time>
      </trkpt>
      <trkpt lat="48.85583" lon="1.66014">
        <ele>113.6</ele>
        <time>2022-03-17T10:56:55Z</time>
      </trkpt>
      <trkpt lat="48.85579" lon="1.66007">
        <ele>112.5</ele>
        <time>2022-03-17T10:56:59Z</time>
      </trkpt>
      <trkpt lat="48.85575" lon="1.66">
        <ele>111.5</ele>
        <time>2022-03-17T10:57:04Z</time>
      </trkpt>
      <trkpt lat="48.8557" lon="1.65992">
        <ele>110.9</ele>
        <time>2022-03-17T10:57:09Z</time>
      </trkpt>
      <trkpt lat="48.85566" lon="1.65984">
        <ele>111.2</ele>
        <time>2022-03-17T10:57:14Z</time>
      </trkpt>
      <trkpt lat="48.85562" lon="1.65976">
        <ele>112.4</ele>
        <time>2022-03-17T10:57:19Z</time>
      </trkpt>
      <trkpt lat="48.85559" lon="1.6597">
        <ele>113.6</ele>
        <time>2022-03-17T10:57:24Z</time>
      </trkpt>
      <trkpt lat="48.85554" lon="1.65964">
        <ele>115.5</ele>
        <time>2022-03-17T10:57:30Z</time>
      </trkpt>
      <trkpt lat="48.85551" lon="1.65958">
        <ele>117</ele>
        <time>2022-03-17T10:57:33Z</time>
      </trkpt>
      <trkpt lat="48.85547" lon="1.65951">
        <ele>117.8</ele>
        <time>2022-03-17T10:57:37Z</time>
      </trkpt>
      <trkpt lat="48.85544" lon="1.65945">
        <ele>118.2</ele>
        <time>2022-03-17T10:57:41Z</time>
      </trkpt>
      <trkpt lat="48.8554" lon="1.65937">
        <ele>118.2</ele>
        <time>2022-03-17T10:57:46Z</time>
      </trkpt>
      <trkpt lat="48.85536" lon="1.65933">
        <ele>117.6</ele>
        <time>2022-03-17T10:57:49Z</time>
      </trkpt>
      <trkpt lat="48.85532" lon="1.65927">
        <ele>116.9</ele>
        <time>2022-03-17T10:57:54Z</time>
      </trkpt>
      <trkpt lat="48.85527" lon="1.65922">
        <ele>117.4</ele>
        <time>2022-03-17T10:57:59Z</time>
      </trkpt>
      <trkpt lat="48.85523" lon="1.65914">
        <ele>117.9</ele>
        <time>2022-03-17T10:58:05Z</time>
      </trkpt>
      <trkpt lat="48.85519" lon="1.65907">
        <ele>117.7</ele>
        <time>2022-03-17T10:58:10Z</time>
      </trkpt>
      <trkpt lat="48.85515" lon="1.65902">
        <ele>117.1</ele>
        <time>2022-03-17T10:58:14Z</time>
      </trkpt>
      <trkpt lat="48.85511" lon="1.65895">
        <ele>117</ele>
        <time>2022-03-17T10:58:19Z</time>
      </trkpt>
      <trkpt lat="48.85507" lon="1.65888">
        <ele>117.1</ele>
        <time>2022-03-17T10:58:24Z</time>
      </trkpt>
      <trkpt lat="48.85504" lon="1.65881">
        <ele>117.2</ele>
        <time>2022-03-17T10:58:29Z</time>
      </trkpt>
      <trkpt lat="48.855" lon="1.65873">
        <ele>117.8</ele>
        <time>2022-03-17T10:58:35Z</time>
      </trkpt>
      <trkpt lat="48.85497" lon="1.65865">
        <ele>118.7</ele>
        <time>2022-03-17T10:58:40Z</time>
      </trkpt>
      <trkpt lat="48.85494" lon="1.65857">
        <ele>118.9</ele>
        <time>2022-03-17T10:58:45Z</time>
      </trkpt>
      <trkpt lat="48.8549" lon="1.65848">
        <ele>118.5</ele>
        <time>2022-03-17T10:58:50Z</time>
      </trkpt>
      <trkpt lat="48.85488" lon="1.65843">
        <ele>117.6</ele>
        <time>2022-03-17T10:58:54Z</time>
      </trkpt>
      <trkpt lat="48.85485" lon="1.65836">
        <ele>117.3</ele>
        <time>2022-03-17T10:58:58Z</time>
      </trkpt>
      <trkpt lat="48.85484" lon="1.65829">
        <ele>117.8</ele>
        <time>2022-03-17T10:59:01Z</time>
      </trkpt>
      <trkpt lat="48.85481" lon="1.65822">
        <ele>118.5</ele>
        <time>2022-03-17T10:59:05Z</time>
      </trkpt>
      <trkpt lat="48.85479" lon="1.65815">
        <ele>119.2</ele>
        <time>2022-03-17T10:59:09Z</time>
      </trkpt>
      <trkpt lat="48.85477" lon="1.65808">
        <ele>120.2</ele>
        <time>2022-03-17T10:59:13Z</time>
      </trkpt>
      <trkpt lat="48.85474" lon="1.65801">
        <ele>120.7</ele>
        <time>2022-03-17T10:59:17Z</time>
      </trkpt>
      <trkpt lat="48.85471" lon="1.65794">
        <ele>120.8</ele>
        <time>2022-03-17T10:59:21Z</time>
      </trkpt>
      <trkpt lat="48.85468" lon="1.65787">
        <ele>120.5</ele>
        <time>2022-03-17T10:59:26Z</time>
      </trkpt>
      <trkpt lat="48.85465" lon="1.6578">
        <ele>120.5</ele>
        <time>2022-03-17T10:59:31Z</time>
      </trkpt>
      <trkpt lat="48.85463" lon="1.65774">
        <ele>120.3</ele>
        <time>2022-03-17T10:59:35Z</time>
      </trkpt>
      <trkpt lat="48.8546" lon="1.65766">
        <ele>119.4</ele>
        <time>2022-03-17T10:59:40Z</time>
      </trkpt>
      <trkpt lat="48.85458" lon="1.65759">
        <ele>119.1</ele>
        <time>2022-03-17T10:59:44Z</time>
      </trkpt>
      <trkpt lat="48.85456" lon="1.65752">
        <ele>119.3</ele>
        <time>2022-03-17T10:59:48Z</time>
      </trkpt>
      <trkpt lat="48.85455" lon="1.65744">
        <ele>119.7</ele>
        <time>2022-03-17T10:59:54Z</time>
      </trkpt>
      <trkpt lat="48.85453" lon="1.65737">
        <ele>120</ele>
        <time>2022-03-17T10:59:58Z</time>
      </trkpt>
      <trkpt lat="48.85451" lon="1.65729">
        <ele>120</ele>
        <time>2022-03-17T11:00:02Z</time>
      </trkpt>
      <trkpt lat="48.8545" lon="1.65723">
        <ele>120.1</ele>
        <time>2022-03-17T11:00:05Z</time>
      </trkpt>
      <trkpt lat="48.85446" lon="1.65715">
        <ele>120.4</ele>
        <time>2022-03-17T11:00:10Z</time>
      </trkpt>
      <trkpt lat="48.85443" lon="1.65709">
        <ele>121.7</ele>
        <time>2022-03-17T11:00:19Z</time>
      </trkpt>
      <trkpt lat="48.8544" lon="1.65703">
        <ele>122.1</ele>
        <time>2022-03-17T11:00:26Z</time>
      </trkpt>
      <trkpt lat="48.85444" lon="1.65701">
        <ele>121.6</ele>
        <time>2022-03-17T11:00:49Z</time>
      </trkpt>
      <trkpt lat="48.85446" lon="1.65694">
        <ele>120.6</ele>
        <time>2022-03-17T11:00:54Z</time>
      </trkpt>
      <trkpt lat="48.8545" lon="1.65689">
        <ele>119.3</ele>
        <time>2022-03-17T11:00:58Z</time>
      </trkpt>
      <trkpt lat="48.85454" lon="1.65684">
        <ele>118.5</ele>
        <time>2022-03-17T11:01:04Z</time>
      </trkpt>
      <trkpt lat="48.85458" lon="1.6568">
        <ele>118</ele>
        <time>2022-03-17T11:01:08Z</time>
      </trkpt>
      <trkpt lat="48.85461" lon="1.65674">
        <ele>117.6</ele>
        <time>2022-03-17T11:01:12Z</time>
      </trkpt>
      <trkpt lat="48.85465" lon="1.65669">
        <ele>117.2</ele>
        <time>2022-03-17T11:01:16Z</time>
      </trkpt>
      <trkpt lat="48.8547" lon="1.65664">
        <ele>116.2</ele>
        <time>2022-03-17T11:01:20Z</time>
      </trkpt>
      <trkpt lat="48.85473" lon="1.65659">
        <ele>115.6</ele>
        <time>2022-03-17T11:01:25Z</time>
      </trkpt>
      <trkpt lat="48.85477" lon="1.65655">
        <ele>115.8</ele>
        <time>2022-03-17T11:01:29Z</time>
      </trkpt>
      <trkpt lat="48.85482" lon="1.65651">
        <ele>115.7</ele>
        <time>2022-03-17T11:01:33Z</time>
      </trkpt>
      <trkpt lat="48.85487" lon="1.65646">
        <ele>115.1</ele>
        <time>2022-03-17T11:01:38Z</time>
      </trkpt>
      <trkpt lat="48.8549" lon="1.65642">
        <ele>114.7</ele>
        <time>2022-03-17T11:01:41Z</time>
      </trkpt>
      <trkpt lat="48.85495" lon="1.65635">
        <ele>113.1</ele>
        <time>2022-03-17T11:01:46Z</time>
      </trkpt>
      <trkpt lat="48.855" lon="1.65629">
        <ele>112.2</ele>
        <time>2022-03-17T11:01:51Z</time>
      </trkpt>
      <trkpt lat="48.85506" lon="1.65624">
        <ele>111.9</ele>
        <time>2022-03-17T11:01:56Z</time>
      </trkpt>
      <trkpt lat="48.85511" lon="1.65621">
        <ele>111.7</ele>
        <time>2022-03-17T11:02:00Z</time>
      </trkpt>
      <trkpt lat="48.85514" lon="1.65615">
        <ele>111.5</ele>
        <time>2022-03-17T11:02:06Z</time>
      </trkpt>
      <trkpt lat="48.85519" lon="1.65611">
        <ele>111.5</ele>
        <time>2022-03-17T11:02:11Z</time>
      </trkpt>
      <trkpt lat="48.85523" lon="1.65608">
        <ele>111.4</ele>
        <time>2022-03-17T11:02:15Z</time>
      </trkpt>
      <trkpt lat="48.85527" lon="1.65602">
        <ele>111.2</ele>
        <time>2022-03-17T11:02:19Z</time>
      </trkpt>
      <trkpt lat="48.85531" lon="1.65598">
        <ele>110.9</ele>
        <time>2022-03-17T11:02:23Z</time>
      </trkpt>
      <trkpt lat="48.85535" lon="1.65593">
        <ele>110.8</ele>
        <time>2022-03-17T11:02:26Z</time>
      </trkpt>
      <trkpt lat="48.8554" lon="1.65588">
        <ele>110.4</ele>
        <time>2022-03-17T11:02:31Z</time>
      </trkpt>
      <trkpt lat="48.85544" lon="1.65582">
        <ele>110</ele>
        <time>2022-03-17T11:02:36Z</time>
      </trkpt>
      <trkpt lat="48.85547" lon="1.65574">
        <ele>109.8</ele>
        <time>2022-03-17T11:02:41Z</time>
      </trkpt>
      <trkpt lat="48.85547" lon="1.65564">
        <ele>109.8</ele>
        <time>2022-03-17T11:02:46Z</time>
      </trkpt>
      <trkpt lat="48.85545" lon="1.65557">
        <ele>109.7</ele>
        <time>2022-03-17T11:02:50Z</time>
      </trkpt>
      <trkpt lat="48.85542" lon="1.65551">
        <ele>109.5</ele>
        <time>2022-03-17T11:02:54Z</time>
      </trkpt>
      <trkpt lat="48.8554" lon="1.65544">
        <ele>109.4</ele>
        <time>2022-03-17T11:02:58Z</time>
      </trkpt>
      <trkpt lat="48.85537" lon="1.65537">
        <ele>109.2</ele>
        <time>2022-03-17T11:03:02Z</time>
      </trkpt>
      <trkpt lat="48.85534" lon="1.65531">
        <ele>108.8</ele>
        <time>2022-03-17T11:03:05Z</time>
      </trkpt>
      <trkpt lat="48.85531" lon="1.65526">
        <ele>108</ele>
        <time>2022-03-17T11:03:10Z</time>
      </trkpt>
      <trkpt lat="48.85529" lon="1.65518">
        <ele>107.7</ele>
        <time>2022-03-17T11:03:14Z</time>
      </trkpt>
      <trkpt lat="48.85527" lon="1.65512">
        <ele>107.6</ele>
        <time>2022-03-17T11:03:19Z</time>
      </trkpt>
      <trkpt lat="48.85525" lon="1.65505">
        <ele>107.6</ele>
        <time>2022-03-17T11:03:23Z</time>
      </trkpt>
      <trkpt lat="48.85522" lon="1.65497">
        <ele>107.4</ele>
        <time>2022-03-17T11:03:27Z</time>
      </trkpt>
      <trkpt lat="48.85519" lon="1.65492">
        <ele>107.4</ele>
        <time>2022-03-17T11:03:31Z</time>
      </trkpt>
      <trkpt lat="48.85514" lon="1.65489">
        <ele>107.6</ele>
        <time>2022-03-17T11:03:36Z</time>
      </trkpt>
      <trkpt lat="48.8551" lon="1.65485">
        <ele>107.8</ele>
        <time>2022-03-17T11:03:40Z</time>
      </trkpt>
      <trkpt lat="48.85506" lon="1.65481">
        <ele>107.8</ele>
        <time>2022-03-17T11:03:43Z</time>
      </trkpt>
      <trkpt lat="48.85503" lon="1.65475">
        <ele>107.9</ele>
        <time>2022-03-17T11:03:47Z</time>
      </trkpt>
      <trkpt lat="48.85501" lon="1.65468">
        <ele>108</ele>
        <time>2022-03-17T11:03:50Z</time>
      </trkpt>
      <trkpt lat="48.85498" lon="1.65461">
        <ele>108.1</ele>
        <time>2022-03-17T11:03:55Z</time>
      </trkpt>
      <trkpt lat="48.85494" lon="1.65455">
        <ele>108</ele>
        <time>2022-03-17T11:03:59Z</time>
      </trkpt>
      <trkpt lat="48.85491" lon="1.6545">
        <ele>107.5</ele>
        <time>2022-03-17T11:04:02Z</time>
      </trkpt>
      <trkpt lat="48.85486" lon="1.65445">
        <ele>106.5</ele>
        <time>2022-03-17T11:04:06Z</time>
      </trkpt>
      <trkpt lat="48.85482" lon="1.65439">
        <ele>105.7</ele>
        <time>2022-03-17T11:04:11Z</time>
      </trkpt>
      <trkpt lat="48.85477" lon="1.65433">
        <ele>105.3</ele>
        <time>2022-03-17T11:04:17Z</time>
      </trkpt>
      <trkpt lat="48.85472" lon="1.65427">
        <ele>104.9</ele>
        <time>2022-03-17T11:04:21Z</time>
      </trkpt>
      <trkpt lat="48.85468" lon="1.6542">
        <ele>104.8</ele>
        <time>2022-03-17T11:04:27Z</time>
      </trkpt>
      <trkpt lat="48.85464" lon="1.65413">
        <ele>104.8</ele>
        <time>2022-03-17T11:04:31Z</time>
      </trkpt>
      <trkpt lat="48.8546" lon="1.65407">
        <ele>104.5</ele>
        <time>2022-03-17T11:04:36Z</time>
      </trkpt>
      <trkpt lat="48.85455" lon="1.65398">
        <ele>104.3</ele>
        <time>2022-03-17T11:04:42Z</time>
      </trkpt>
      <trkpt lat="48.85451" lon="1.65391">
        <ele>104.5</ele>
        <time>2022-03-17T11:04:46Z</time>
      </trkpt>
      <trkpt lat="48.85448" lon="1.65385">
        <ele>105</ele>
        <time>2022-03-17T11:04:51Z</time>
      </trkpt>
      <trkpt lat="48.85445" lon="1.65378">
        <ele>105.6</ele>
        <time>2022-03-17T11:04:54Z</time>
      </trkpt>
      <trkpt lat="48.8544" lon="1.65372">
        <ele>106</ele>
        <time>2022-03-17T11:04:58Z</time>
      </trkpt>
      <trkpt lat="48.85437" lon="1.65368">
        <ele>106.1</ele>
        <time>2022-03-17T11:05:01Z</time>
      </trkpt>
      <trkpt lat="48.85432" lon="1.6536">
        <ele>106.2</ele>
        <time>2022-03-17T11:05:07Z</time>
      </trkpt>
      <trkpt lat="48.85429" lon="1.65355">
        <ele>106</ele>
        <time>2022-03-17T11:05:12Z</time>
      </trkpt>
      <trkpt lat="48.85426" lon="1.6535">
        <ele>105.5</ele>
        <time>2022-03-17T11:05:17Z</time>
      </trkpt>
      <trkpt lat="48.85421" lon="1.65343">
        <ele>104.8</ele>
        <time>2022-03-17T11:05:21Z</time>
      </trkpt>
      <trkpt lat="48.85418" lon="1.65335">
        <ele>104</ele>
        <time>2022-03-17T11:05:26Z</time>
      </trkpt>
      <trkpt lat="48.85414" lon="1.65327">
        <ele>103.5</ele>
        <time>2022-03-17T11:05:31Z</time>
      </trkpt>
      <trkpt lat="48.85411" lon="1.65318">
        <ele>103.2</ele>
        <time>2022-03-17T11:05:36Z</time>
      </trkpt>
      <trkpt lat="48.85408" lon="1.65309">
        <ele>103.1</ele>
        <time>2022-03-17T11:05:41Z</time>
      </trkpt>
      <trkpt lat="48.85405" lon="1.65302">
        <ele>103.5</ele>
        <time>2022-03-17T11:05:46Z</time>
      </trkpt>
      <trkpt lat="48.85402" lon="1.65293">
        <ele>104.2</ele>
        <time>2022-03-17T11:05:51Z</time>
      </trkpt>
      <trkpt lat="48.854" lon="1.65285">
        <ele>105.4</ele>
        <time>2022-03-17T11:05:56Z</time>
      </trkpt>
      <trkpt lat="48.85398" lon="1.65278">
        <ele>106</ele>
        <time>2022-03-17T11:06:00Z</time>
      </trkpt>
      <trkpt lat="48.85395" lon="1.65271">
        <ele>105.7</ele>
        <time>2022-03-17T11:06:04Z</time>
      </trkpt>
      <trkpt lat="48.85392" lon="1.65264">
        <ele>105.7</ele>
        <time>2022-03-17T11:06:08Z</time>
      </trkpt>
      <trkpt lat="48.8539" lon="1.65258">
        <ele>105.8</ele>
        <time>2022-03-17T11:06:11Z</time>
      </trkpt>
      <trkpt lat="48.85386" lon="1.6525">
        <ele>105.9</ele>
        <time>2022-03-17T11:06:16Z</time>
      </trkpt>
      <trkpt lat="48.85382" lon="1.65242">
        <ele>105.9</ele>
        <time>2022-03-17T11:06:21Z</time>
      </trkpt>
      <trkpt lat="48.85379" lon="1.65234">
        <ele>106.3</ele>
        <time>2022-03-17T11:06:26Z</time>
      </trkpt>
      <trkpt lat="48.85377" lon="1.65228">
        <ele>106.4</ele>
        <time>2022-03-17T11:06:31Z</time>
      </trkpt>
      <trkpt lat="48.85374" lon="1.65221">
        <ele>106.4</ele>
        <time>2022-03-17T11:06:34Z</time>
      </trkpt>
      <trkpt lat="48.85372" lon="1.65213">
        <ele>106.6</ele>
        <time>2022-03-17T11:06:39Z</time>
      </trkpt>
      <trkpt lat="48.8537" lon="1.65206">
        <ele>106.8</ele>
        <time>2022-03-17T11:06:42Z</time>
      </trkpt>
      <trkpt lat="48.85367" lon="1.652">
        <ele>107</ele>
        <time>2022-03-17T11:06:46Z</time>
      </trkpt>
      <trkpt lat="48.85364" lon="1.65193">
        <ele>107.3</ele>
        <time>2022-03-17T11:06:50Z</time>
      </trkpt>
      <trkpt lat="48.85361" lon="1.65187">
        <ele>107.7</ele>
        <time>2022-03-17T11:06:54Z</time>
      </trkpt>
      <trkpt lat="48.85358" lon="1.65179">
        <ele>108</ele>
        <time>2022-03-17T11:06:59Z</time>
      </trkpt>
      <trkpt lat="48.85355" lon="1.65171">
        <ele>108.5</ele>
        <time>2022-03-17T11:07:04Z</time>
      </trkpt>
      <trkpt lat="48.85352" lon="1.65164">
        <ele>109.6</ele>
        <time>2022-03-17T11:07:09Z</time>
      </trkpt>
      <trkpt lat="48.8535" lon="1.65157">
        <ele>110.2</ele>
        <time>2022-03-17T11:07:13Z</time>
      </trkpt>
      <trkpt lat="48.85347" lon="1.65149">
        <ele>110.4</ele>
        <time>2022-03-17T11:07:17Z</time>
      </trkpt>
      <trkpt lat="48.85344" lon="1.65143">
        <ele>110.2</ele>
        <time>2022-03-17T11:07:21Z</time>
      </trkpt>
      <trkpt lat="48.8534" lon="1.65144">
        <ele>110.4</ele>
        <time>2022-03-17T11:07:28Z</time>
      </trkpt>
      <trkpt lat="48.85336" lon="1.65139">
        <ele>110.5</ele>
        <time>2022-03-17T11:07:34Z</time>
      </trkpt>
      <trkpt lat="48.85334" lon="1.65132">
        <ele>110.6</ele>
        <time>2022-03-17T11:07:37Z</time>
      </trkpt>
      <trkpt lat="48.85332" lon="1.65123">
        <ele>110.4</ele>
        <time>2022-03-17T11:07:42Z</time>
      </trkpt>
      <trkpt lat="48.85329" lon="1.65115">
        <ele>110.3</ele>
        <time>2022-03-17T11:07:47Z</time>
      </trkpt>
      <trkpt lat="48.85327" lon="1.65105">
        <ele>110.6</ele>
        <time>2022-03-17T11:07:52Z</time>
      </trkpt>
      <trkpt lat="48.85324" lon="1.65098">
        <ele>110.8</ele>
        <time>2022-03-17T11:07:57Z</time>
      </trkpt>
      <trkpt lat="48.85321" lon="1.65091">
        <ele>110.5</ele>
        <time>2022-03-17T11:08:01Z</time>
      </trkpt>
      <trkpt lat="48.85318" lon="1.65085">
        <ele>110.2</ele>
        <time>2022-03-17T11:08:06Z</time>
      </trkpt>
      <trkpt lat="48.85315" lon="1.65079">
        <ele>110.3</ele>
        <time>2022-03-17T11:08:10Z</time>
      </trkpt>
      <trkpt lat="48.85311" lon="1.65073">
        <ele>110.6</ele>
        <time>2022-03-17T11:08:16Z</time>
      </trkpt>
      <trkpt lat="48.85309" lon="1.65066">
        <ele>110.6</ele>
        <time>2022-03-17T11:08:20Z</time>
      </trkpt>
      <trkpt lat="48.85306" lon="1.65059">
        <ele>110.2</ele>
        <time>2022-03-17T11:08:24Z</time>
      </trkpt>
      <trkpt lat="48.85303" lon="1.65053">
        <ele>109.5</ele>
        <time>2022-03-17T11:08:28Z</time>
      </trkpt>
      <trkpt lat="48.85301" lon="1.65045">
        <ele>109.2</ele>
        <time>2022-03-17T11:08:33Z</time>
      </trkpt>
      <trkpt lat="48.85301" lon="1.65036">
        <ele>109.4</ele>
        <time>2022-03-17T11:08:37Z</time>
      </trkpt>
      <trkpt lat="48.85303" lon="1.65029">
        <ele>109.3</ele>
        <time>2022-03-17T11:08:42Z</time>
      </trkpt>
      <trkpt lat="48.85308" lon="1.65026">
        <ele>108.7</ele>
        <time>2022-03-17T11:08:47Z</time>
      </trkpt>
      <trkpt lat="48.85313" lon="1.65025">
        <ele>107.9</ele>
        <time>2022-03-17T11:08:51Z</time>
      </trkpt>
      <trkpt lat="48.85318" lon="1.65023">
        <ele>107.5</ele>
        <time>2022-03-17T11:08:56Z</time>
      </trkpt>
      <trkpt lat="48.85323" lon="1.65021">
        <ele>107.2</ele>
        <time>2022-03-17T11:09:00Z</time>
      </trkpt>
      <trkpt lat="48.85328" lon="1.65018">
        <ele>106.9</ele>
        <time>2022-03-17T11:09:04Z</time>
      </trkpt>
      <trkpt lat="48.85333" lon="1.65015">
        <ele>106.7</ele>
        <time>2022-03-17T11:09:08Z</time>
      </trkpt>
      <trkpt lat="48.85338" lon="1.65013">
        <ele>106.8</ele>
        <time>2022-03-17T11:09:12Z</time>
      </trkpt>
      <trkpt lat="48.85344" lon="1.65011">
        <ele>107.2</ele>
        <time>2022-03-17T11:09:17Z</time>
      </trkpt>
      <trkpt lat="48.85348" lon="1.65008">
        <ele>107.3</ele>
        <time>2022-03-17T11:09:20Z</time>
      </trkpt>
      <trkpt lat="48.85353" lon="1.65005">
        <ele>107.4</ele>
        <time>2022-03-17T11:09:24Z</time>
      </trkpt>
      <trkpt lat="48.85357" lon="1.65003">
        <ele>107.4</ele>
        <time>2022-03-17T11:09:27Z</time>
      </trkpt>
      <trkpt lat="48.85363" lon="1.65">
        <ele>107.6</ele>
        <time>2022-03-17T11:09:33Z</time>
      </trkpt>
      <trkpt lat="48.85369" lon="1.64999">
        <ele>107.8</ele>
        <time>2022-03-17T11:09:37Z</time>
      </trkpt>
      <trkpt lat="48.85373" lon="1.64997">
        <ele>107.7</ele>
        <time>2022-03-17T11:09:41Z</time>
      </trkpt>
      <trkpt lat="48.85378" lon="1.64994">
        <ele>107.4</ele>
        <time>2022-03-17T11:09:45Z</time>
      </trkpt>
      <trkpt lat="48.85383" lon="1.64991">
        <ele>107.1</ele>
        <time>2022-03-17T11:09:48Z</time>
      </trkpt>
      <trkpt lat="48.85387" lon="1.64988">
        <ele>106.9</ele>
        <time>2022-03-17T11:09:51Z</time>
      </trkpt>
      <trkpt lat="48.85392" lon="1.64986">
        <ele>106.8</ele>
        <time>2022-03-17T11:09:55Z</time>
      </trkpt>
      <trkpt lat="48.85398" lon="1.64982">
        <ele>106.6</ele>
        <time>2022-03-17T11:10:00Z</time>
      </trkpt>
      <trkpt lat="48.85404" lon="1.6498">
        <ele>106.3</ele>
        <time>2022-03-17T11:10:04Z</time>
      </trkpt>
      <trkpt lat="48.85411" lon="1.64976">
        <ele>105.6</ele>
        <time>2022-03-17T11:10:09Z</time>
      </trkpt>
      <trkpt lat="48.85415" lon="1.64975">
        <ele>105.4</ele>
        <time>2022-03-17T11:10:14Z</time>
      </trkpt>
      <trkpt lat="48.8542" lon="1.64973">
        <ele>105.6</ele>
        <time>2022-03-17T11:10:18Z</time>
      </trkpt>
      <trkpt lat="48.85425" lon="1.6497">
        <ele>105.9</ele>
        <time>2022-03-17T11:10:22Z</time>
      </trkpt>
      <trkpt lat="48.8543" lon="1.64969">
        <ele>106.2</ele>
        <time>2022-03-17T11:10:25Z</time>
      </trkpt>
      <trkpt lat="48.85434" lon="1.64967">
        <ele>106.7</ele>
        <time>2022-03-17T11:10:29Z</time>
      </trkpt>
      <trkpt lat="48.85439" lon="1.64965">
        <ele>106.7</ele>
        <time>2022-03-17T11:10:32Z</time>
      </trkpt>
      <trkpt lat="48.85444" lon="1.64962">
        <ele>106.6</ele>
        <time>2022-03-17T11:10:36Z</time>
      </trkpt>
      <trkpt lat="48.85449" lon="1.64959">
        <ele>106.4</ele>
        <time>2022-03-17T11:10:40Z</time>
      </trkpt>
      <trkpt lat="48.85455" lon="1.64955">
        <ele>106.3</ele>
        <time>2022-03-17T11:10:45Z</time>
      </trkpt>
      <trkpt lat="48.8546" lon="1.64952">
        <ele>106.4</ele>
        <time>2022-03-17T11:10:49Z</time>
      </trkpt>
      <trkpt lat="48.85465" lon="1.6495">
        <ele>106.5</ele>
        <time>2022-03-17T11:10:53Z</time>
      </trkpt>
      <trkpt lat="48.8547" lon="1.64948">
        <ele>106.9</ele>
        <time>2022-03-17T11:10:57Z</time>
      </trkpt>
      <trkpt lat="48.85474" lon="1.64946">
        <ele>107.1</ele>
        <time>2022-03-17T11:11:00Z</time>
      </trkpt>
      <trkpt lat="48.8548" lon="1.64942">
        <ele>107.4</ele>
        <time>2022-03-17T11:11:05Z</time>
      </trkpt>
      <trkpt lat="48.85486" lon="1.64938">
        <ele>107.4</ele>
        <time>2022-03-17T11:11:10Z</time>
      </trkpt>
      <trkpt lat="48.85492" lon="1.64936">
        <ele>107.5</ele>
        <time>2022-03-17T11:11:15Z</time>
      </trkpt>
      <trkpt lat="48.85497" lon="1.64933">
        <ele>107.6</ele>
        <time>2022-03-17T11:11:20Z</time>
      </trkpt>
      <trkpt lat="48.85502" lon="1.64931">
        <ele>107.8</ele>
        <time>2022-03-17T11:11:24Z</time>
      </trkpt>
      <trkpt lat="48.85507" lon="1.64928">
        <ele>108.3</ele>
        <time>2022-03-17T11:11:28Z</time>
      </trkpt>
      <trkpt lat="48.85512" lon="1.64925">
        <ele>108.8</ele>
        <time>2022-03-17T11:11:32Z</time>
      </trkpt>
      <trkpt lat="48.85516" lon="1.64922">
        <ele>109</ele>
        <time>2022-03-17T11:11:36Z</time>
      </trkpt>
      <trkpt lat="48.85521" lon="1.64921">
        <ele>109.3</ele>
        <time>2022-03-17T11:11:40Z</time>
      </trkpt>
      <trkpt lat="48.85525" lon="1.64919">
        <ele>109.7</ele>
        <time>2022-03-17T11:11:44Z</time>
      </trkpt>
      <trkpt lat="48.8553" lon="1.64916">
        <ele>109.7</ele>
        <time>2022-03-17T11:11:48Z</time>
      </trkpt>
      <trkpt lat="48.85536" lon="1.64912">
        <ele>109.3</ele>
        <time>2022-03-17T11:11:52Z</time>
      </trkpt>
      <trkpt lat="48.8554" lon="1.6491">
        <ele>109.3</ele>
        <time>2022-03-17T11:11:55Z</time>
      </trkpt>
      <trkpt lat="48.85545" lon="1.64908">
        <ele>109.2</ele>
        <time>2022-03-17T11:11:59Z</time>
      </trkpt>
      <trkpt lat="48.85549" lon="1.64906">
        <ele>109.3</ele>
        <time>2022-03-17T11:12:03Z</time>
      </trkpt>
      <trkpt lat="48.85555" lon="1.64904">
        <ele>109.3</ele>
        <time>2022-03-17T11:12:07Z</time>
      </trkpt>
      <trkpt lat="48.8556" lon="1.64902">
        <ele>109.3</ele>
        <time>2022-03-17T11:12:11Z</time>
      </trkpt>
      <trkpt lat="48.85565" lon="1.649">
        <ele>109.2</ele>
        <time>2022-03-17T11:12:15Z</time>
      </trkpt>
      <trkpt lat="48.85569" lon="1.64897">
        <ele>109.1</ele>
        <time>2022-03-17T11:12:19Z</time>
      </trkpt>
      <trkpt lat="48.85573" lon="1.64894">
        <ele>109.1</ele>
        <time>2022-03-17T11:12:22Z</time>
      </trkpt>
      <trkpt lat="48.85578" lon="1.64891">
        <ele>109.1</ele>
        <time>2022-03-17T11:12:26Z</time>
      </trkpt>
      <trkpt lat="48.85583" lon="1.6489">
        <ele>109.3</ele>
        <time>2022-03-17T11:12:29Z</time>
      </trkpt>
      <trkpt lat="48.85588" lon="1.64888">
        <ele>109.5</ele>
        <time>2022-03-17T11:12:34Z</time>
      </trkpt>
      <trkpt lat="48.85592" lon="1.64885">
        <ele>109.3</ele>
        <time>2022-03-17T11:12:37Z</time>
      </trkpt>
      <trkpt lat="48.85597" lon="1.64883">
        <ele>108.9</ele>
        <time>2022-03-17T11:12:41Z</time>
      </trkpt>
      <trkpt lat="48.85602" lon="1.64879">
        <ele>108.8</ele>
        <time>2022-03-17T11:12:45Z</time>
      </trkpt>
      <trkpt lat="48.85607" lon="1.64877">
        <ele>109.1</ele>
        <time>2022-03-17T11:12:49Z</time>
      </trkpt>
      <trkpt lat="48.85612" lon="1.64875">
        <ele>109.6</ele>
        <time>2022-03-17T11:12:53Z</time>
      </trkpt>
      <trkpt lat="48.85616" lon="1.64871">
        <ele>109.9</ele>
        <time>2022-03-17T11:12:57Z</time>
      </trkpt>
      <trkpt lat="48.85621" lon="1.64868">
        <ele>110.1</ele>
        <time>2022-03-17T11:13:00Z</time>
      </trkpt>
      <trkpt lat="48.85625" lon="1.64864">
        <ele>110.1</ele>
        <time>2022-03-17T11:13:04Z</time>
      </trkpt>
      <trkpt lat="48.85629" lon="1.64861">
        <ele>110.4</ele>
        <time>2022-03-17T11:13:07Z</time>
      </trkpt>
      <trkpt lat="48.85634" lon="1.64857">
        <ele>110.9</ele>
        <time>2022-03-17T11:13:11Z</time>
      </trkpt>
      <trkpt lat="48.85639" lon="1.64853">
        <ele>111.6</ele>
        <time>2022-03-17T11:13:15Z</time>
      </trkpt>
      <trkpt lat="48.85643" lon="1.6485">
        <ele>112.6</ele>
        <time>2022-03-17T11:13:19Z</time>
      </trkpt>
      <trkpt lat="48.85648" lon="1.64846">
        <ele>113.6</ele>
        <time>2022-03-17T11:13:23Z</time>
      </trkpt>
      <trkpt lat="48.85651" lon="1.64841">
        <ele>114.5</ele>
        <time>2022-03-17T11:13:27Z</time>
      </trkpt>
      <trkpt lat="48.85655" lon="1.64835">
        <ele>114.5</ele>
        <time>2022-03-17T11:13:33Z</time>
      </trkpt>
      <trkpt lat="48.8566" lon="1.64827">
        <ele>114.2</ele>
        <time>2022-03-17T11:13:38Z</time>
      </trkpt>
      <trkpt lat="48.85665" lon="1.64823">
        <ele>113.7</ele>
        <time>2022-03-17T11:13:43Z</time>
      </trkpt>
      <trkpt lat="48.85669" lon="1.64818">
        <ele>113.7</ele>
        <time>2022-03-17T11:13:48Z</time>
      </trkpt>
      <trkpt lat="48.85674" lon="1.64812">
        <ele>113.8</ele>
        <time>2022-03-17T11:13:53Z</time>
      </trkpt>
      <trkpt lat="48.85679" lon="1.64806">
        <ele>113.7</ele>
        <time>2022-03-17T11:13:57Z</time>
      </trkpt>
      <trkpt lat="48.85683" lon="1.648">
        <ele>113.5</ele>
        <time>2022-03-17T11:14:02Z</time>
      </trkpt>
      <trkpt lat="48.85688" lon="1.64795">
        <ele>113.4</ele>
        <time>2022-03-17T11:14:06Z</time>
      </trkpt>
      <trkpt lat="48.85693" lon="1.64792">
        <ele>113.4</ele>
        <time>2022-03-17T11:14:11Z</time>
      </trkpt>
      <trkpt lat="48.85697" lon="1.64795">
        <ele>114</ele>
        <time>2022-03-17T11:14:16Z</time>
      </trkpt>
      <trkpt lat="48.85702" lon="1.64791">
        <ele>114.5</ele>
        <time>2022-03-17T11:14:19Z</time>
      </trkpt>
      <trkpt lat="48.85706" lon="1.64787">
        <ele>114.9</ele>
        <time>2022-03-17T11:14:23Z</time>
      </trkpt>
      <trkpt lat="48.8571" lon="1.64782">
        <ele>114.9</ele>
        <time>2022-03-17T11:14:29Z</time>
      </trkpt>
      <trkpt lat="48.85715" lon="1.64782">
        <ele>114.8</ele>
        <time>2022-03-17T11:14:33Z</time>
      </trkpt>
      <trkpt lat="48.85721" lon="1.64783">
        <ele>114.7</ele>
        <time>2022-03-17T11:14:39Z</time>
      </trkpt>
      <trkpt lat="48.85727" lon="1.64784">
        <ele>114.8</ele>
        <time>2022-03-17T11:14:43Z</time>
      </trkpt>
      <trkpt lat="48.85733" lon="1.64784">
        <ele>115.4</ele>
        <time>2022-03-17T11:14:49Z</time>
      </trkpt>
      <trkpt lat="48.85739" lon="1.64784">
        <ele>116</ele>
        <time>2022-03-17T11:14:53Z</time>
      </trkpt>
      <trkpt lat="48.85744" lon="1.64785">
        <ele>116.8</ele>
        <time>2022-03-17T11:14:59Z</time>
      </trkpt>
      <trkpt lat="48.85747" lon="1.64781">
        <ele>117.9</ele>
        <time>2022-03-17T11:15:04Z</time>
      </trkpt>
      <trkpt lat="48.85753" lon="1.64779">
        <ele>118.3</ele>
        <time>2022-03-17T11:15:11Z</time>
      </trkpt>
      <trkpt lat="48.85758" lon="1.64778">
        <ele>116.9</ele>
        <time>2022-03-17T11:15:16Z</time>
      </trkpt>
      <trkpt lat="48.85763" lon="1.6478">
        <ele>117</ele>
        <time>2022-03-17T11:15:25Z</time>
      </trkpt>
      <trkpt lat="48.85768" lon="1.64777">
        <ele>119.3</ele>
        <time>2022-03-17T11:15:44Z</time>
      </trkpt>
      <trkpt lat="48.85773" lon="1.64778">
        <ele>119.9</ele>
        <time>2022-03-17T11:15:50Z</time>
      </trkpt>
      <trkpt lat="48.85775" lon="1.64784">
        <ele>120.3</ele>
        <time>2022-03-17T11:17:56Z</time>
      </trkpt>
      <trkpt lat="48.85781" lon="1.64783">
        <ele>120.3</ele>
        <time>2022-03-17T11:18:01Z</time>
      </trkpt>
      <trkpt lat="48.85786" lon="1.64783">
        <ele>120.3</ele>
        <time>2022-03-17T11:18:04Z</time>
      </trkpt>
      <trkpt lat="48.85792" lon="1.64786">
        <ele>119.5</ele>
        <time>2022-03-17T11:18:11Z</time>
      </trkpt>
      <trkpt lat="48.85798" lon="1.64785">
        <ele>119.6</ele>
        <time>2022-03-17T11:18:16Z</time>
      </trkpt>
      <trkpt lat="48.85803" lon="1.64784">
        <ele>119.9</ele>
        <time>2022-03-17T11:18:22Z</time>
      </trkpt>
      <trkpt lat="48.8581" lon="1.64786">
        <ele>120</ele>
        <time>2022-03-17T11:18:27Z</time>
      </trkpt>
      <trkpt lat="48.85807" lon="1.64792">
        <ele>120.2</ele>
        <time>2022-03-17T11:18:32Z</time>
      </trkpt>
      <trkpt lat="48.85812" lon="1.64795">
        <ele>121</ele>
        <time>2022-03-17T11:18:36Z</time>
      </trkpt>
      <trkpt lat="48.85816" lon="1.64794">
        <ele>121.7</ele>
        <time>2022-03-17T11:18:40Z</time>
      </trkpt>
      <trkpt lat="48.85821" lon="1.64793">
        <ele>122.6</ele>
        <time>2022-03-17T11:18:44Z</time>
      </trkpt>
      <trkpt lat="48.85827" lon="1.64791">
        <ele>123</ele>
        <time>2022-03-17T11:18:48Z</time>
      </trkpt>
      <trkpt lat="48.85832" lon="1.64789">
        <ele>122.9</ele>
        <time>2022-03-17T11:18:52Z</time>
      </trkpt>
      <trkpt lat="48.85837" lon="1.64788">
        <ele>122.4</ele>
        <time>2022-03-17T11:18:55Z</time>
      </trkpt>
      <trkpt lat="48.85842" lon="1.64788">
        <ele>121.9</ele>
        <time>2022-03-17T11:18:58Z</time>
      </trkpt>
      <trkpt lat="48.85847" lon="1.64788">
        <ele>121.5</ele>
        <time>2022-03-17T11:19:02Z</time>
      </trkpt>
      <trkpt lat="48.85852" lon="1.64788">
        <ele>121.5</ele>
        <time>2022-03-17T11:19:05Z</time>
      </trkpt>
      <trkpt lat="48.85856" lon="1.64787">
        <ele>121.7</ele>
        <time>2022-03-17T11:19:08Z</time>
      </trkpt>
      <trkpt lat="48.85863" lon="1.64788">
        <ele>122.9</ele>
        <time>2022-03-17T11:19:13Z</time>
      </trkpt>
      <trkpt lat="48.85869" lon="1.64787">
        <ele>122.5</ele>
        <time>2022-03-17T11:19:19Z</time>
      </trkpt>
      <trkpt lat="48.85876" lon="1.64787">
        <ele>121.3</ele>
        <time>2022-03-17T11:19:23Z</time>
      </trkpt>
      <trkpt lat="48.8588" lon="1.64787">
        <ele>121.3</ele>
        <time>2022-03-17T11:19:27Z</time>
      </trkpt>
      <trkpt lat="48.85886" lon="1.64786">
        <ele>121.6</ele>
        <time>2022-03-17T11:19:32Z</time>
      </trkpt>
      <trkpt lat="48.8589" lon="1.64786">
        <ele>121.5</ele>
        <time>2022-03-17T11:19:35Z</time>
      </trkpt>
      <trkpt lat="48.85895" lon="1.64785">
        <ele>121.1</ele>
        <time>2022-03-17T11:19:39Z</time>
      </trkpt>
      <trkpt lat="48.85901" lon="1.64782">
        <ele>120.5</ele>
        <time>2022-03-17T11:19:43Z</time>
      </trkpt>
      <trkpt lat="48.85905" lon="1.64781">
        <ele>119.8</ele>
        <time>2022-03-17T11:19:47Z</time>
      </trkpt>
      <trkpt lat="48.85911" lon="1.64779">
        <ele>119.5</ele>
        <time>2022-03-17T11:19:51Z</time>
      </trkpt>
      <trkpt lat="48.85916" lon="1.64779">
        <ele>119.2</ele>
        <time>2022-03-17T11:19:55Z</time>
      </trkpt>
      <trkpt lat="48.85921" lon="1.64777">
        <ele>119.2</ele>
        <time>2022-03-17T11:19:58Z</time>
      </trkpt>
      <trkpt lat="48.85925" lon="1.64776">
        <ele>119.2</ele>
        <time>2022-03-17T11:20:02Z</time>
      </trkpt>
      <trkpt lat="48.85931" lon="1.64773">
        <ele>119.1</ele>
        <time>2022-03-17T11:20:05Z</time>
      </trkpt>
      <trkpt lat="48.85937" lon="1.6477">
        <ele>119.1</ele>
        <time>2022-03-17T11:20:10Z</time>
      </trkpt>
      <trkpt lat="48.85942" lon="1.64769">
        <ele>119.6</ele>
        <time>2022-03-17T11:20:14Z</time>
      </trkpt>
      <trkpt lat="48.85947" lon="1.64768">
        <ele>120.4</ele>
        <time>2022-03-17T11:20:17Z</time>
      </trkpt>
      <trkpt lat="48.85953" lon="1.64766">
        <ele>120.6</ele>
        <time>2022-03-17T11:20:20Z</time>
      </trkpt>
      <trkpt lat="48.85958" lon="1.64761">
        <ele>120.8</ele>
        <time>2022-03-17T11:20:25Z</time>
      </trkpt>
      <trkpt lat="48.85963" lon="1.64758">
        <ele>121.2</ele>
        <time>2022-03-17T11:20:32Z</time>
      </trkpt>
      <trkpt lat="48.85967" lon="1.64758">
        <ele>121.4</ele>
        <time>2022-03-17T11:20:37Z</time>
      </trkpt>
      <trkpt lat="48.85974" lon="1.64757">
        <ele>121.6</ele>
        <time>2022-03-17T11:20:42Z</time>
      </trkpt>
      <trkpt lat="48.8598" lon="1.64756">
        <ele>122.4</ele>
        <time>2022-03-17T11:20:47Z</time>
      </trkpt>
      <trkpt lat="48.85986" lon="1.64754">
        <ele>123.1</ele>
        <time>2022-03-17T11:20:52Z</time>
      </trkpt>
      <trkpt lat="48.85989" lon="1.6475">
        <ele>123.3</ele>
        <time>2022-03-17T11:20:56Z</time>
      </trkpt>
      <trkpt lat="48.85993" lon="1.64745">
        <ele>123</ele>
        <time>2022-03-17T11:21:00Z</time>
      </trkpt>
      <trkpt lat="48.85997" lon="1.64742">
        <ele>123</ele>
        <time>2022-03-17T11:21:03Z</time>
      </trkpt>
      <trkpt lat="48.86003" lon="1.6474">
        <ele>123.5</ele>
        <time>2022-03-17T11:21:07Z</time>
      </trkpt>
      <trkpt lat="48.86008" lon="1.64737">
        <ele>123.3</ele>
        <time>2022-03-17T11:21:12Z</time>
      </trkpt>
      <trkpt lat="48.86014" lon="1.64733">
        <ele>123.1</ele>
        <time>2022-03-17T11:21:17Z</time>
      </trkpt>
      <trkpt lat="48.86021" lon="1.64729">
        <ele>124.1</ele>
        <time>2022-03-17T11:21:22Z</time>
      </trkpt>
      <trkpt lat="48.86026" lon="1.64726">
        <ele>124.7</ele>
        <time>2022-03-17T11:21:27Z</time>
      </trkpt>
      <trkpt lat="48.86032" lon="1.64723">
        <ele>124.7</ele>
        <time>2022-03-17T11:21:33Z</time>
      </trkpt>
      <trkpt lat="48.86036" lon="1.64722">
        <ele>124.8</ele>
        <time>2022-03-17T11:21:36Z</time>
      </trkpt>
      <trkpt lat="48.86042" lon="1.64719">
        <ele>124.8</ele>
        <time>2022-03-17T11:21:40Z</time>
      </trkpt>
      <trkpt lat="48.86046" lon="1.64718">
        <ele>125</ele>
        <time>2022-03-17T11:21:43Z</time>
      </trkpt>
      <trkpt lat="48.86051" lon="1.64713">
        <ele>124.5</ele>
        <time>2022-03-17T11:21:49Z</time>
      </trkpt>
      <trkpt lat="48.86056" lon="1.64708">
        <ele>124.1</ele>
        <time>2022-03-17T11:21:52Z</time>
      </trkpt>
      <trkpt lat="48.86055" lon="1.647">
        <ele>123.5</ele>
        <time>2022-03-17T11:21:56Z</time>
      </trkpt>
      <trkpt lat="48.86052" lon="1.64694">
        <ele>121.8</ele>
        <time>2022-03-17T11:23:35Z</time>
      </trkpt>
      <trkpt lat="48.86051" lon="1.64688">
        <ele>122.4</ele>
        <time>2022-03-17T11:23:42Z</time>
      </trkpt>
      <trkpt lat="48.8605" lon="1.64681">
        <ele>122.9</ele>
        <time>2022-03-17T11:23:47Z</time>
      </trkpt>
      <trkpt lat="48.86047" lon="1.64674">
        <ele>123.6</ele>
        <time>2022-03-17T11:23:52Z</time>
      </trkpt>
      <trkpt lat="48.86042" lon="1.64667">
        <ele>124.2</ele>
        <time>2022-03-17T11:23:58Z</time>
      </trkpt>
      <trkpt lat="48.86038" lon="1.64662">
        <ele>124.4</ele>
        <time>2022-03-17T11:24:03Z</time>
      </trkpt>
      <trkpt lat="48.86035" lon="1.64655">
        <ele>124.4</ele>
        <time>2022-03-17T11:24:07Z</time>
      </trkpt>
      <trkpt lat="48.86032" lon="1.64649">
        <ele>124.3</ele>
        <time>2022-03-17T11:24:12Z</time>
      </trkpt>
      <trkpt lat="48.86028" lon="1.64643">
        <ele>124.3</ele>
        <time>2022-03-17T11:24:18Z</time>
      </trkpt>
      <trkpt lat="48.86023" lon="1.64638">
        <ele>124.4</ele>
        <time>2022-03-17T11:24:23Z</time>
      </trkpt>
      <trkpt lat="48.86019" lon="1.64629">
        <ele>124.7</ele>
        <time>2022-03-17T11:24:28Z</time>
      </trkpt>
      <trkpt lat="48.86015" lon="1.64623">
        <ele>125.1</ele>
        <time>2022-03-17T11:24:33Z</time>
      </trkpt>
      <trkpt lat="48.86012" lon="1.64616">
        <ele>126</ele>
        <time>2022-03-17T11:24:38Z</time>
      </trkpt>
      <trkpt lat="48.86008" lon="1.64611">
        <ele>126.5</ele>
        <time>2022-03-17T11:24:43Z</time>
      </trkpt>
      <trkpt lat="48.86004" lon="1.64603">
        <ele>126.4</ele>
        <time>2022-03-17T11:24:49Z</time>
      </trkpt>
      <trkpt lat="48.86" lon="1.64596">
        <ele>126.2</ele>
        <time>2022-03-17T11:24:54Z</time>
      </trkpt>
      <trkpt lat="48.85996" lon="1.64589">
        <ele>126.1</ele>
        <time>2022-03-17T11:24:58Z</time>
      </trkpt>
      <trkpt lat="48.85991" lon="1.64583">
        <ele>126</ele>
        <time>2022-03-17T11:25:03Z</time>
      </trkpt>
      <trkpt lat="48.85987" lon="1.64575">
        <ele>125.9</ele>
        <time>2022-03-17T11:25:09Z</time>
      </trkpt>
      <trkpt lat="48.85984" lon="1.64569">
        <ele>126.4</ele>
        <time>2022-03-17T11:25:14Z</time>
      </trkpt>
      <trkpt lat="48.85978" lon="1.64564">
        <ele>127.1</ele>
        <time>2022-03-17T11:25:18Z</time>
      </trkpt>
      <trkpt lat="48.85975" lon="1.64558">
        <ele>127.7</ele>
        <time>2022-03-17T11:25:22Z</time>
      </trkpt>
      <trkpt lat="48.85972" lon="1.64552">
        <ele>128.2</ele>
        <time>2022-03-17T11:25:26Z</time>
      </trkpt>
      <trkpt lat="48.85969" lon="1.64547">
        <ele>130.1</ele>
        <time>2022-03-17T11:25:39Z</time>
      </trkpt>
      <trkpt lat="48.85964" lon="1.64539">
        <ele>131.2</ele>
        <time>2022-03-17T11:25:43Z</time>
      </trkpt>
      <trkpt lat="48.85961" lon="1.64534">
        <ele>131.4</ele>
        <time>2022-03-17T11:25:47Z</time>
      </trkpt>
      <trkpt lat="48.85957" lon="1.6453">
        <ele>131.6</ele>
        <time>2022-03-17T11:25:50Z</time>
      </trkpt>
      <trkpt lat="48.85954" lon="1.64525">
        <ele>131.7</ele>
        <time>2022-03-17T11:25:53Z</time>
      </trkpt>
      <trkpt lat="48.85948" lon="1.6452">
        <ele>131.5</ele>
        <time>2022-03-17T11:25:58Z</time>
      </trkpt>
      <trkpt lat="48.85944" lon="1.64514">
        <ele>128.4</ele>
        <time>2022-03-17T11:26:04Z</time>
      </trkpt>
      <trkpt lat="48.85941" lon="1.64506">
        <ele>127.3</ele>
        <time>2022-03-17T11:26:08Z</time>
      </trkpt>
      <trkpt lat="48.85936" lon="1.645">
        <ele>127.5</ele>
        <time>2022-03-17T11:26:13Z</time>
      </trkpt>
      <trkpt lat="48.85933" lon="1.64494">
        <ele>126.9</ele>
        <time>2022-03-17T11:26:18Z</time>
      </trkpt>
      <trkpt lat="48.8593" lon="1.64489">
        <ele>126</ele>
        <time>2022-03-17T11:26:22Z</time>
      </trkpt>
      <trkpt lat="48.85927" lon="1.64482">
        <ele>125.7</ele>
        <time>2022-03-17T11:26:25Z</time>
      </trkpt>
      <trkpt lat="48.85925" lon="1.64475">
        <ele>125.1</ele>
        <time>2022-03-17T11:26:28Z</time>
      </trkpt>
      <trkpt lat="48.85922" lon="1.64466">
        <ele>124.2</ele>
        <time>2022-03-17T11:26:33Z</time>
      </trkpt>
      <trkpt lat="48.85919" lon="1.64458">
        <ele>125.2</ele>
        <time>2022-03-17T11:26:38Z</time>
      </trkpt>
      <trkpt lat="48.85915" lon="1.6445">
        <ele>127.3</ele>
        <time>2022-03-17T11:26:43Z</time>
      </trkpt>
      <trkpt lat="48.85913" lon="1.64441">
        <ele>127.8</ele>
        <time>2022-03-17T11:26:48Z</time>
      </trkpt>
      <trkpt lat="48.85909" lon="1.64433">
        <ele>127.6</ele>
        <time>2022-03-17T11:26:53Z</time>
      </trkpt>
      <trkpt lat="48.85905" lon="1.64425">
        <ele>127.8</ele>
        <time>2022-03-17T11:26:58Z</time>
      </trkpt>
      <trkpt lat="48.859" lon="1.64417">
        <ele>128.6</ele>
        <time>2022-03-17T11:27:04Z</time>
      </trkpt>
      <trkpt lat="48.85897" lon="1.64407">
        <ele>127.8</ele>
        <time>2022-03-17T11:27:08Z</time>
      </trkpt>
      <trkpt lat="48.85895" lon="1.644">
        <ele>127.2</ele>
        <time>2022-03-17T11:27:15Z</time>
      </trkpt>
      <trkpt lat="48.85893" lon="1.64393">
        <ele>126.9</ele>
        <time>2022-03-17T11:27:19Z</time>
      </trkpt>
      <trkpt lat="48.85892" lon="1.64385">
        <ele>125.9</ele>
        <time>2022-03-17T11:27:23Z</time>
      </trkpt>
      <trkpt lat="48.85891" lon="1.64378">
        <ele>125.8</ele>
        <time>2022-03-17T11:27:28Z</time>
      </trkpt>
      <trkpt lat="48.85889" lon="1.64371">
        <ele>127.4</ele>
        <time>2022-03-17T11:27:34Z</time>
      </trkpt>
      <trkpt lat="48.8589" lon="1.64364">
        <ele>128.2</ele>
        <time>2022-03-17T11:27:38Z</time>
      </trkpt>
      <trkpt lat="48.85893" lon="1.64357">
        <ele>127.5</ele>
        <time>2022-03-17T11:27:44Z</time>
      </trkpt>
      <trkpt lat="48.85898" lon="1.64358">
        <ele>126.5</ele>
        <time>2022-03-17T11:27:50Z</time>
      </trkpt>
      <trkpt lat="48.85894" lon="1.64364">
        <ele>124.1</ele>
        <time>2022-03-17T11:28:04Z</time>
      </trkpt>
      <trkpt lat="48.85894" lon="1.64357">
        <ele>121.5</ele>
        <time>2022-03-17T11:28:32Z</time>
      </trkpt>
      <trkpt lat="48.85892" lon="1.64349">
        <ele>120.6</ele>
        <time>2022-03-17T11:29:14Z</time>
      </trkpt>
      <trkpt lat="48.85897" lon="1.64344">
        <ele>121.7</ele>
        <time>2022-03-17T11:29:18Z</time>
      </trkpt>
      <trkpt lat="48.8589" lon="1.64343">
        <ele>123.2</ele>
        <time>2022-03-17T11:29:21Z</time>
      </trkpt>
      <trkpt lat="48.85885" lon="1.64343">
        <ele>124.4</ele>
        <time>2022-03-17T11:29:26Z</time>
      </trkpt>
      <trkpt lat="48.85884" lon="1.64351">
        <ele>123.2</ele>
        <time>2022-03-17T11:29:54Z</time>
      </trkpt>
      <trkpt lat="48.85881" lon="1.64343">
        <ele>122.3</ele>
        <time>2022-03-17T11:30:06Z</time>
      </trkpt>
      <trkpt lat="48.85883" lon="1.64334">
        <ele>122.3</ele>
        <time>2022-03-17T11:30:15Z</time>
      </trkpt>
      <trkpt lat="48.85882" lon="1.64326">
        <ele>123.5</ele>
        <time>2022-03-17T11:30:22Z</time>
      </trkpt>
      <trkpt lat="48.85881" lon="1.64318">
        <ele>123.3</ele>
        <time>2022-03-17T11:30:28Z</time>
      </trkpt>
      <trkpt lat="48.8588" lon="1.64311">
        <ele>123.3</ele>
        <time>2022-03-17T11:30:32Z</time>
      </trkpt>
      <trkpt lat="48.85877" lon="1.64305">
        <ele>123.4</ele>
        <time>2022-03-17T11:30:39Z</time>
      </trkpt>
      <trkpt lat="48.85876" lon="1.64298">
        <ele>121</ele>
        <time>2022-03-17T11:30:57Z</time>
      </trkpt>
      <trkpt lat="48.85875" lon="1.64291">
        <ele>120.5</ele>
        <time>2022-03-17T11:31:02Z</time>
      </trkpt>
      <trkpt lat="48.85874" lon="1.64284">
        <ele>120.6</ele>
        <time>2022-03-17T11:31:07Z</time>
      </trkpt>
      <trkpt lat="48.85873" lon="1.64276">
        <ele>120.6</ele>
        <time>2022-03-17T11:31:12Z</time>
      </trkpt>
      <trkpt lat="48.85872" lon="1.64269">
        <ele>120.6</ele>
        <time>2022-03-17T11:31:17Z</time>
      </trkpt>
      <trkpt lat="48.85871" lon="1.64261">
        <ele>120.4</ele>
        <time>2022-03-17T11:31:21Z</time>
      </trkpt>
      <trkpt lat="48.85871" lon="1.64251">
        <ele>120.2</ele>
        <time>2022-03-17T11:31:25Z</time>
      </trkpt>
      <trkpt lat="48.85871" lon="1.6424">
        <ele>121.2</ele>
        <time>2022-03-17T11:31:31Z</time>
      </trkpt>
      <trkpt lat="48.85869" lon="1.64233">
        <ele>123</ele>
        <time>2022-03-17T11:31:35Z</time>
      </trkpt>
      <trkpt lat="48.85864" lon="1.6423">
        <ele>124.4</ele>
        <time>2022-03-17T11:31:40Z</time>
      </trkpt>
      <trkpt lat="48.85858" lon="1.64228">
        <ele>124.8</ele>
        <time>2022-03-17T11:31:43Z</time>
      </trkpt>
      <trkpt lat="48.85853" lon="1.64227">
        <ele>124.9</ele>
        <time>2022-03-17T11:31:47Z</time>
      </trkpt>
      <trkpt lat="48.85848" lon="1.64229">
        <ele>124.6</ele>
        <time>2022-03-17T11:31:50Z</time>
      </trkpt>
      <trkpt lat="48.85843" lon="1.6423">
        <ele>123.8</ele>
        <time>2022-03-17T11:31:56Z</time>
      </trkpt>
      <trkpt lat="48.85838" lon="1.64228">
        <ele>123.1</ele>
        <time>2022-03-17T11:31:59Z</time>
      </trkpt>
      <trkpt lat="48.85834" lon="1.64226">
        <ele>123.1</ele>
        <time>2022-03-17T11:32:03Z</time>
      </trkpt>
      <trkpt lat="48.85829" lon="1.64223">
        <ele>123.3</ele>
        <time>2022-03-17T11:32:07Z</time>
      </trkpt>
      <trkpt lat="48.85823" lon="1.64223">
        <ele>123.4</ele>
        <time>2022-03-17T11:32:12Z</time>
      </trkpt>
      <trkpt lat="48.85818" lon="1.64222">
        <ele>123.7</ele>
        <time>2022-03-17T11:32:38Z</time>
      </trkpt>
      <trkpt lat="48.85814" lon="1.64218">
        <ele>124.3</ele>
        <time>2022-03-17T11:32:42Z</time>
      </trkpt>
      <trkpt lat="48.85809" lon="1.64216">
        <ele>124.4</ele>
        <time>2022-03-17T11:32:48Z</time>
      </trkpt>
      <trkpt lat="48.85804" lon="1.64213">
        <ele>123.7</ele>
        <time>2022-03-17T11:32:52Z</time>
      </trkpt>
      <trkpt lat="48.85801" lon="1.64209">
        <ele>123.3</ele>
        <time>2022-03-17T11:32:57Z</time>
      </trkpt>
      <trkpt lat="48.85796" lon="1.64208">
        <ele>123.3</ele>
        <time>2022-03-17T11:33:03Z</time>
      </trkpt>
      <trkpt lat="48.85791" lon="1.64205">
        <ele>123.5</ele>
        <time>2022-03-17T11:33:06Z</time>
      </trkpt>
      <trkpt lat="48.85787" lon="1.64201">
        <ele>123.8</ele>
        <time>2022-03-17T11:33:12Z</time>
      </trkpt>
      <trkpt lat="48.85781" lon="1.64199">
        <ele>124.1</ele>
        <time>2022-03-17T11:33:16Z</time>
      </trkpt>
      <trkpt lat="48.85775" lon="1.64195">
        <ele>123.9</ele>
        <time>2022-03-17T11:33:21Z</time>
      </trkpt>
      <trkpt lat="48.85778" lon="1.6419">
        <ele>122.2</ele>
        <time>2022-03-17T11:33:33Z</time>
      </trkpt>
      <trkpt lat="48.85783" lon="1.64187">
        <ele>121.6</ele>
        <time>2022-03-17T11:33:36Z</time>
      </trkpt>
      <trkpt lat="48.85789" lon="1.64183">
        <ele>121.1</ele>
        <time>2022-03-17T11:33:41Z</time>
      </trkpt>
      <trkpt lat="48.85795" lon="1.64179">
        <ele>120.7</ele>
        <time>2022-03-17T11:33:47Z</time>
      </trkpt>
      <trkpt lat="48.85798" lon="1.64172">
        <ele>119.9</ele>
        <time>2022-03-17T11:33:54Z</time>
      </trkpt>
      <trkpt lat="48.85801" lon="1.64164">
        <ele>120.7</ele>
        <time>2022-03-17T11:33:59Z</time>
      </trkpt>
      <trkpt lat="48.85804" lon="1.64156">
        <ele>122.3</ele>
        <time>2022-03-17T11:34:04Z</time>
      </trkpt>
      <trkpt lat="48.85806" lon="1.64149">
        <ele>122.5</ele>
        <time>2022-03-17T11:34:09Z</time>
      </trkpt>
      <trkpt lat="48.85808" lon="1.64142">
        <ele>122.1</ele>
        <time>2022-03-17T11:34:14Z</time>
      </trkpt>
      <trkpt lat="48.85809" lon="1.64134">
        <ele>121.9</ele>
        <time>2022-03-17T11:34:20Z</time>
      </trkpt>
      <trkpt lat="48.85811" lon="1.64127">
        <ele>121.7</ele>
        <time>2022-03-17T11:34:23Z</time>
      </trkpt>
      <trkpt lat="48.85813" lon="1.64119">
        <ele>121.5</ele>
        <time>2022-03-17T11:34:28Z</time>
      </trkpt>
      <trkpt lat="48.85816" lon="1.64112">
        <ele>121.1</ele>
        <time>2022-03-17T11:34:33Z</time>
      </trkpt>
      <trkpt lat="48.85818" lon="1.64105">
        <ele>120.8</ele>
        <time>2022-03-17T11:34:36Z</time>
      </trkpt>
      <trkpt lat="48.85821" lon="1.64096">
        <ele>121.3</ele>
        <time>2022-03-17T11:34:42Z</time>
      </trkpt>
      <trkpt lat="48.85823" lon="1.64087">
        <ele>122.2</ele>
        <time>2022-03-17T11:34:46Z</time>
      </trkpt>
      <trkpt lat="48.85826" lon="1.6408">
        <ele>123.1</ele>
        <time>2022-03-17T11:34:52Z</time>
      </trkpt>
      <trkpt lat="48.85827" lon="1.64073">
        <ele>124.2</ele>
        <time>2022-03-17T11:34:57Z</time>
      </trkpt>
      <trkpt lat="48.85828" lon="1.64065">
        <ele>123.2</ele>
        <time>2022-03-17T11:35:10Z</time>
      </trkpt>
      <trkpt lat="48.85831" lon="1.64059">
        <ele>122.5</ele>
        <time>2022-03-17T11:35:13Z</time>
      </trkpt>
      <trkpt lat="48.85833" lon="1.64051">
        <ele>122</ele>
        <time>2022-03-17T11:35:18Z</time>
      </trkpt>
      <trkpt lat="48.85832" lon="1.64043">
        <ele>123.1</ele>
        <time>2022-03-17T11:35:24Z</time>
      </trkpt>
      <trkpt lat="48.85834" lon="1.64035">
        <ele>125.1</ele>
        <time>2022-03-17T11:35:31Z</time>
      </trkpt>
      <trkpt lat="48.85836" lon="1.64029">
        <ele>125</ele>
        <time>2022-03-17T11:35:35Z</time>
      </trkpt>
      <trkpt lat="48.85839" lon="1.64023">
        <ele>124.8</ele>
        <time>2022-03-17T11:35:39Z</time>
      </trkpt>
      <trkpt lat="48.85842" lon="1.64015">
        <ele>124.4</ele>
        <time>2022-03-17T11:35:43Z</time>
      </trkpt>
      <trkpt lat="48.85845" lon="1.64009">
        <ele>124.4</ele>
        <time>2022-03-17T11:35:47Z</time>
      </trkpt>
      <trkpt lat="48.85848" lon="1.64002">
        <ele>124.1</ele>
        <time>2022-03-17T11:35:52Z</time>
      </trkpt>
      <trkpt lat="48.85852" lon="1.63995">
        <ele>123.6</ele>
        <time>2022-03-17T11:35:57Z</time>
      </trkpt>
      <trkpt lat="48.85856" lon="1.63986">
        <ele>123.1</ele>
        <time>2022-03-17T11:36:01Z</time>
      </trkpt>
      <trkpt lat="48.85858" lon="1.63979">
        <ele>123.2</ele>
        <time>2022-03-17T11:36:07Z</time>
      </trkpt>
      <trkpt lat="48.8586" lon="1.63971">
        <ele>124</ele>
        <time>2022-03-17T11:36:11Z</time>
      </trkpt>
      <trkpt lat="48.85862" lon="1.63964">
        <ele>124.7</ele>
        <time>2022-03-17T11:36:15Z</time>
      </trkpt>
      <trkpt lat="48.85865" lon="1.63958">
        <ele>124.7</ele>
        <time>2022-03-17T11:36:19Z</time>
      </trkpt>
      <trkpt lat="48.85868" lon="1.63951">
        <ele>124.5</ele>
        <time>2022-03-17T11:36:25Z</time>
      </trkpt>
      <trkpt lat="48.8587" lon="1.63945">
        <ele>124.4</ele>
        <time>2022-03-17T11:36:29Z</time>
      </trkpt>
      <trkpt lat="48.85874" lon="1.6394">
        <ele>124.3</ele>
        <time>2022-03-17T11:36:32Z</time>
      </trkpt>
      <trkpt lat="48.85878" lon="1.63937">
        <ele>123.9</ele>
        <time>2022-03-17T11:36:36Z</time>
      </trkpt>
      <trkpt lat="48.85882" lon="1.63933">
        <ele>123.8</ele>
        <time>2022-03-17T11:36:41Z</time>
      </trkpt>
      <trkpt lat="48.85887" lon="1.6393">
        <ele>123.9</ele>
        <time>2022-03-17T11:36:45Z</time>
      </trkpt>
      <trkpt lat="48.8589" lon="1.63925">
        <ele>124.8</ele>
        <time>2022-03-17T11:36:50Z</time>
      </trkpt>
      <trkpt lat="48.85894" lon="1.63932">
        <ele>126.3</ele>
        <time>2022-03-17T11:37:05Z</time>
      </trkpt>
      <trkpt lat="48.85898" lon="1.63939">
        <ele>125.7</ele>
        <time>2022-03-17T11:37:09Z</time>
      </trkpt>
      <trkpt lat="48.85901" lon="1.63945">
        <ele>124.8</ele>
        <time>2022-03-17T11:37:15Z</time>
      </trkpt>
      <trkpt lat="48.85906" lon="1.63949">
        <ele>124.3</ele>
        <time>2022-03-17T11:37:19Z</time>
      </trkpt>
      <trkpt lat="48.8591" lon="1.63953">
        <ele>124.2</ele>
        <time>2022-03-17T11:37:22Z</time>
      </trkpt>
      <trkpt lat="48.85915" lon="1.6396">
        <ele>124.3</ele>
        <time>2022-03-17T11:37:27Z</time>
      </trkpt>
      <trkpt lat="48.8592" lon="1.63966">
        <ele>124.3</ele>
        <time>2022-03-17T11:37:32Z</time>
      </trkpt>
      <trkpt lat="48.85925" lon="1.63971">
        <ele>124.2</ele>
        <time>2022-03-17T11:37:37Z</time>
      </trkpt>
      <trkpt lat="48.85929" lon="1.63976">
        <ele>124.8</ele>
        <time>2022-03-17T11:37:43Z</time>
      </trkpt>
      <trkpt lat="48.85934" lon="1.63982">
        <ele>125.3</ele>
        <time>2022-03-17T11:37:47Z</time>
      </trkpt>
      <trkpt lat="48.85936" lon="1.63974">
        <ele>126.2</ele>
        <time>2022-03-17T11:38:04Z</time>
      </trkpt>
      <trkpt lat="48.85934" lon="1.63966">
        <ele>126.3</ele>
        <time>2022-03-17T11:38:07Z</time>
      </trkpt>
      <trkpt lat="48.85929" lon="1.63959">
        <ele>126.2</ele>
        <time>2022-03-17T11:38:12Z</time>
      </trkpt>
      <trkpt lat="48.85929" lon="1.6395">
        <ele>126.5</ele>
        <time>2022-03-17T11:38:17Z</time>
      </trkpt>
      <trkpt lat="48.85928" lon="1.63942">
        <ele>126.8</ele>
        <time>2022-03-17T11:38:23Z</time>
      </trkpt>
      <trkpt lat="48.85927" lon="1.63935">
        <ele>125.7</ele>
        <time>2022-03-17T11:38:27Z</time>
      </trkpt>
      <trkpt lat="48.85926" lon="1.63928">
        <ele>124.3</ele>
        <time>2022-03-17T11:38:29Z</time>
      </trkpt>
      <trkpt lat="48.85925" lon="1.63919">
        <ele>122.6</ele>
        <time>2022-03-17T11:38:33Z</time>
      </trkpt>
      <trkpt lat="48.85925" lon="1.63911">
        <ele>121.1</ele>
        <time>2022-03-17T11:38:38Z</time>
      </trkpt>
      <trkpt lat="48.85926" lon="1.63901">
        <ele>121.8</ele>
        <time>2022-03-17T11:38:42Z</time>
      </trkpt>
      <trkpt lat="48.85927" lon="1.63891">
        <ele>122.1</ele>
        <time>2022-03-17T11:38:47Z</time>
      </trkpt>
      <trkpt lat="48.85925" lon="1.63881">
        <ele>121.9</ele>
        <time>2022-03-17T11:38:52Z</time>
      </trkpt>
      <trkpt lat="48.85924" lon="1.63873">
        <ele>123.4</ele>
        <time>2022-03-17T11:38:56Z</time>
      </trkpt>
      <trkpt lat="48.85924" lon="1.63866">
        <ele>124.7</ele>
        <time>2022-03-17T11:38:59Z</time>
      </trkpt>
      <trkpt lat="48.85924" lon="1.63858">
        <ele>125.9</ele>
        <time>2022-03-17T11:39:02Z</time>
      </trkpt>
      <trkpt lat="48.85925" lon="1.63848">
        <ele>126.7</ele>
        <time>2022-03-17T11:39:07Z</time>
      </trkpt>
      <trkpt lat="48.85927" lon="1.6384">
        <ele>125.3</ele>
        <time>2022-03-17T11:39:12Z</time>
      </trkpt>
      <trkpt lat="48.85926" lon="1.63833">
        <ele>123.2</ele>
        <time>2022-03-17T11:39:16Z</time>
      </trkpt>
      <trkpt lat="48.85924" lon="1.63826">
        <ele>122.3</ele>
        <time>2022-03-17T11:39:19Z</time>
      </trkpt>
      <trkpt lat="48.85919" lon="1.63821">
        <ele>121.9</ele>
        <time>2022-03-17T11:39:22Z</time>
      </trkpt>
      <trkpt lat="48.85915" lon="1.63817">
        <ele>121.1</ele>
        <time>2022-03-17T11:39:26Z</time>
      </trkpt>
      <trkpt lat="48.85914" lon="1.6381">
        <ele>120.7</ele>
        <time>2022-03-17T11:39:30Z</time>
      </trkpt>
      <trkpt lat="48.85914" lon="1.63802">
        <ele>120.8</ele>
        <time>2022-03-17T11:39:34Z</time>
      </trkpt>
      <trkpt lat="48.85913" lon="1.63795">
        <ele>120.7</ele>
        <time>2022-03-17T11:39:37Z</time>
      </trkpt>
      <trkpt lat="48.85911" lon="1.63789">
        <ele>120.2</ele>
        <time>2022-03-17T11:39:42Z</time>
      </trkpt>
      <trkpt lat="48.85909" lon="1.63782">
        <ele>119.4</ele>
        <time>2022-03-17T11:39:46Z</time>
      </trkpt>
      <trkpt lat="48.85907" lon="1.63776">
        <ele>119.3</ele>
        <time>2022-03-17T11:39:50Z</time>
      </trkpt>
      <trkpt lat="48.85907" lon="1.63766">
        <ele>120.4</ele>
        <time>2022-03-17T11:39:54Z</time>
      </trkpt>
      <trkpt lat="48.85904" lon="1.63759">
        <ele>123.3</ele>
        <time>2022-03-17T11:39:59Z</time>
      </trkpt>
      <trkpt lat="48.85902" lon="1.6375">
        <ele>124.2</ele>
        <time>2022-03-17T11:40:04Z</time>
      </trkpt>
      <trkpt lat="48.85902" lon="1.63741">
        <ele>124.5</ele>
        <time>2022-03-17T11:40:08Z</time>
      </trkpt>
      <trkpt lat="48.85901" lon="1.63731">
        <ele>124.9</ele>
        <time>2022-03-17T11:40:13Z</time>
      </trkpt>
      <trkpt lat="48.85899" lon="1.63721">
        <ele>124.7</ele>
        <time>2022-03-17T11:40:18Z</time>
      </trkpt>
      <trkpt lat="48.85896" lon="1.63713">
        <ele>123.1</ele>
        <time>2022-03-17T11:40:23Z</time>
      </trkpt>
      <trkpt lat="48.85893" lon="1.63705">
        <ele>121.6</ele>
        <time>2022-03-17T11:40:28Z</time>
      </trkpt>
      <trkpt lat="48.85892" lon="1.63697">
        <ele>120.8</ele>
        <time>2022-03-17T11:40:32Z</time>
      </trkpt>
      <trkpt lat="48.85892" lon="1.6369">
        <ele>120.7</ele>
        <time>2022-03-17T11:40:36Z</time>
      </trkpt>
      <trkpt lat="48.85891" lon="1.63682">
        <ele>121</ele>
        <time>2022-03-17T11:40:40Z</time>
      </trkpt>
      <trkpt lat="48.85889" lon="1.63675">
        <ele>121.5</ele>
        <time>2022-03-17T11:40:44Z</time>
      </trkpt>
      <trkpt lat="48.85888" lon="1.63668">
        <ele>121.4</ele>
        <time>2022-03-17T11:40:48Z</time>
      </trkpt>
      <trkpt lat="48.85886" lon="1.63661">
        <ele>121</ele>
        <time>2022-03-17T11:40:52Z</time>
      </trkpt>
      <trkpt lat="48.85886" lon="1.63654">
        <ele>121</ele>
        <time>2022-03-17T11:40:56Z</time>
      </trkpt>
      <trkpt lat="48.85885" lon="1.63646">
        <ele>120.9</ele>
        <time>2022-03-17T11:41:00Z</time>
      </trkpt>
      <trkpt lat="48.85883" lon="1.63638">
        <ele>120.9</ele>
        <time>2022-03-17T11:41:04Z</time>
      </trkpt>
      <trkpt lat="48.85883" lon="1.6363">
        <ele>120.9</ele>
        <time>2022-03-17T11:41:08Z</time>
      </trkpt>
      <trkpt lat="48.85883" lon="1.63622">
        <ele>121.1</ele>
        <time>2022-03-17T11:41:12Z</time>
      </trkpt>
      <trkpt lat="48.85883" lon="1.63614">
        <ele>121.4</ele>
        <time>2022-03-17T11:41:16Z</time>
      </trkpt>
      <trkpt lat="48.85883" lon="1.63607">
        <ele>121.9</ele>
        <time>2022-03-17T11:41:20Z</time>
      </trkpt>
      <trkpt lat="48.85883" lon="1.63599">
        <ele>122.5</ele>
        <time>2022-03-17T11:41:24Z</time>
      </trkpt>
      <trkpt lat="48.85881" lon="1.6359">
        <ele>123.1</ele>
        <time>2022-03-17T11:41:28Z</time>
      </trkpt>
      <trkpt lat="48.8588" lon="1.63583">
        <ele>123.6</ele>
        <time>2022-03-17T11:41:32Z</time>
      </trkpt>
      <trkpt lat="48.85879" lon="1.63576">
        <ele>124</ele>
        <time>2022-03-17T11:41:36Z</time>
      </trkpt>
      <trkpt lat="48.85877" lon="1.63569">
        <ele>124.1</ele>
        <time>2022-03-17T11:41:39Z</time>
      </trkpt>
      <trkpt lat="48.85875" lon="1.63561">
        <ele>124.3</ele>
        <time>2022-03-17T11:41:43Z</time>
      </trkpt>
      <trkpt lat="48.85873" lon="1.63552">
        <ele>124.1</ele>
        <time>2022-03-17T11:41:48Z</time>
      </trkpt>
      <trkpt lat="48.85871" lon="1.63543">
        <ele>124.2</ele>
        <time>2022-03-17T11:41:53Z</time>
      </trkpt>
      <trkpt lat="48.85869" lon="1.63533">
        <ele>124.9</ele>
        <time>2022-03-17T11:41:58Z</time>
      </trkpt>
      <trkpt lat="48.85867" lon="1.63524">
        <ele>125.4</ele>
        <time>2022-03-17T11:42:03Z</time>
      </trkpt>
      <trkpt lat="48.85865" lon="1.63517">
        <ele>125.1</ele>
        <time>2022-03-17T11:42:08Z</time>
      </trkpt>
      <trkpt lat="48.85863" lon="1.6351">
        <ele>124.7</ele>
        <time>2022-03-17T11:42:13Z</time>
      </trkpt>
      <trkpt lat="48.85862" lon="1.63503">
        <ele>125</ele>
        <time>2022-03-17T11:42:17Z</time>
      </trkpt>
      <trkpt lat="48.85861" lon="1.63494">
        <ele>126.3</ele>
        <time>2022-03-17T11:42:22Z</time>
      </trkpt>
      <trkpt lat="48.85859" lon="1.63487">
        <ele>127.3</ele>
        <time>2022-03-17T11:42:26Z</time>
      </trkpt>
      <trkpt lat="48.85859" lon="1.63478">
        <ele>127.2</ele>
        <time>2022-03-17T11:42:32Z</time>
      </trkpt>
      <trkpt lat="48.8586" lon="1.63471">
        <ele>126.9</ele>
        <time>2022-03-17T11:42:36Z</time>
      </trkpt>
      <trkpt lat="48.85861" lon="1.63463">
        <ele>127.1</ele>
        <time>2022-03-17T11:42:41Z</time>
      </trkpt>
      <trkpt lat="48.85863" lon="1.63457">
        <ele>127.6</ele>
        <time>2022-03-17T11:42:44Z</time>
      </trkpt>
      <trkpt lat="48.85864" lon="1.63448">
        <ele>128.8</ele>
        <time>2022-03-17T11:42:49Z</time>
      </trkpt>
      <trkpt lat="48.85863" lon="1.63439">
        <ele>129.5</ele>
        <time>2022-03-17T11:42:53Z</time>
      </trkpt>
      <trkpt lat="48.85865" lon="1.6343">
        <ele>130.1</ele>
        <time>2022-03-17T11:42:58Z</time>
      </trkpt>
      <trkpt lat="48.85865" lon="1.63422">
        <ele>130.7</ele>
        <time>2022-03-17T11:43:02Z</time>
      </trkpt>
      <trkpt lat="48.85866" lon="1.63413">
        <ele>131.6</ele>
        <time>2022-03-17T11:43:07Z</time>
      </trkpt>
      <trkpt lat="48.85868" lon="1.63405">
        <ele>132.3</ele>
        <time>2022-03-17T11:43:13Z</time>
      </trkpt>
      <trkpt lat="48.85869" lon="1.63397">
        <ele>132.8</ele>
        <time>2022-03-17T11:43:16Z</time>
      </trkpt>
      <trkpt lat="48.85869" lon="1.63389">
        <ele>133.2</ele>
        <time>2022-03-17T11:43:20Z</time>
      </trkpt>
      <trkpt lat="48.85869" lon="1.6338">
        <ele>133.3</ele>
        <time>2022-03-17T11:43:25Z</time>
      </trkpt>
      <trkpt lat="48.85869" lon="1.63372">
        <ele>133.1</ele>
        <time>2022-03-17T11:43:28Z</time>
      </trkpt>
      <trkpt lat="48.8587" lon="1.63362">
        <ele>132.8</ele>
        <time>2022-03-17T11:43:33Z</time>
      </trkpt>
      <trkpt lat="48.85869" lon="1.63352">
        <ele>132.6</ele>
        <time>2022-03-17T11:43:38Z</time>
      </trkpt>
      <trkpt lat="48.85869" lon="1.63343">
        <ele>132.3</ele>
        <time>2022-03-17T11:43:43Z</time>
      </trkpt>
      <trkpt lat="48.8587" lon="1.63333">
        <ele>131.7</ele>
        <time>2022-03-17T11:43:48Z</time>
      </trkpt>
      <trkpt lat="48.8587" lon="1.63324">
        <ele>131.2</ele>
        <time>2022-03-17T11:43:53Z</time>
      </trkpt>
      <trkpt lat="48.85869" lon="1.63314">
        <ele>130.8</ele>
        <time>2022-03-17T11:43:59Z</time>
      </trkpt>
      <trkpt lat="48.85869" lon="1.63304">
        <ele>130.2</ele>
        <time>2022-03-17T11:44:03Z</time>
      </trkpt>
      <trkpt lat="48.85868" lon="1.63295">
        <ele>129.5</ele>
        <time>2022-03-17T11:44:08Z</time>
      </trkpt>
      <trkpt lat="48.85866" lon="1.63286">
        <ele>129.2</ele>
        <time>2022-03-17T11:44:13Z</time>
      </trkpt>
      <trkpt lat="48.85866" lon="1.63279">
        <ele>129.4</ele>
        <time>2022-03-17T11:44:18Z</time>
      </trkpt>
      <trkpt lat="48.85864" lon="1.63272">
        <ele>129.6</ele>
        <time>2022-03-17T11:44:22Z</time>
      </trkpt>
      <trkpt lat="48.85861" lon="1.63263">
        <ele>129.8</ele>
        <time>2022-03-17T11:44:26Z</time>
      </trkpt>
      <trkpt lat="48.85858" lon="1.63255">
        <ele>130</ele>
        <time>2022-03-17T11:44:31Z</time>
      </trkpt>
      <trkpt lat="48.85854" lon="1.63247">
        <ele>130.1</ele>
        <time>2022-03-17T11:44:36Z</time>
      </trkpt>
      <trkpt lat="48.8585" lon="1.63238">
        <ele>130.6</ele>
        <time>2022-03-17T11:44:41Z</time>
      </trkpt>
      <trkpt lat="48.85846" lon="1.63233">
        <ele>130.7</ele>
        <time>2022-03-17T11:44:46Z</time>
      </trkpt>
      <trkpt lat="48.85843" lon="1.63225">
        <ele>130.8</ele>
        <time>2022-03-17T11:44:51Z</time>
      </trkpt>
      <trkpt lat="48.8584" lon="1.63218">
        <ele>131.2</ele>
        <time>2022-03-17T11:44:55Z</time>
      </trkpt>
      <trkpt lat="48.85838" lon="1.63211">
        <ele>131.5</ele>
        <time>2022-03-17T11:44:59Z</time>
      </trkpt>
      <trkpt lat="48.85835" lon="1.63204">
        <ele>131.4</ele>
        <time>2022-03-17T11:45:03Z</time>
      </trkpt>
      <trkpt lat="48.85833" lon="1.63197">
        <ele>131.2</ele>
        <time>2022-03-17T11:45:06Z</time>
      </trkpt>
      <trkpt lat="48.8583" lon="1.63188">
        <ele>130.9</ele>
        <time>2022-03-17T11:45:11Z</time>
      </trkpt>
      <trkpt lat="48.85827" lon="1.6318">
        <ele>130.8</ele>
        <time>2022-03-17T11:45:16Z</time>
      </trkpt>
      <trkpt lat="48.85824" lon="1.63171">
        <ele>130.6</ele>
        <time>2022-03-17T11:45:21Z</time>
      </trkpt>
      <trkpt lat="48.85821" lon="1.63163">
        <ele>130.1</ele>
        <time>2022-03-17T11:45:26Z</time>
      </trkpt>
      <trkpt lat="48.85818" lon="1.63154">
        <ele>130.3</ele>
        <time>2022-03-17T11:45:31Z</time>
      </trkpt>
      <trkpt lat="48.85815" lon="1.63146">
        <ele>130.5</ele>
        <time>2022-03-17T11:45:36Z</time>
      </trkpt>
      <trkpt lat="48.85811" lon="1.63137">
        <ele>130.7</ele>
        <time>2022-03-17T11:45:42Z</time>
      </trkpt>
      <trkpt lat="48.85809" lon="1.63129">
        <ele>130.7</ele>
        <time>2022-03-17T11:45:47Z</time>
      </trkpt>
      <trkpt lat="48.85806" lon="1.63123">
        <ele>130.6</ele>
        <time>2022-03-17T11:45:50Z</time>
      </trkpt>
      <trkpt lat="48.85803" lon="1.63114">
        <ele>130.5</ele>
        <time>2022-03-17T11:45:55Z</time>
      </trkpt>
      <trkpt lat="48.85801" lon="1.63107">
        <ele>130.6</ele>
        <time>2022-03-17T11:45:59Z</time>
      </trkpt>
      <trkpt lat="48.85799" lon="1.63101">
        <ele>130.7</ele>
        <time>2022-03-17T11:46:03Z</time>
      </trkpt>
      <trkpt lat="48.85796" lon="1.63094">
        <ele>131.1</ele>
        <time>2022-03-17T11:46:07Z</time>
      </trkpt>
      <trkpt lat="48.85794" lon="1.63087">
        <ele>131.7</ele>
        <time>2022-03-17T11:46:12Z</time>
      </trkpt>
      <trkpt lat="48.85792" lon="1.6308">
        <ele>131.8</ele>
        <time>2022-03-17T11:46:15Z</time>
      </trkpt>
      <trkpt lat="48.85789" lon="1.63073">
        <ele>131.6</ele>
        <time>2022-03-17T11:46:19Z</time>
      </trkpt>
      <trkpt lat="48.85786" lon="1.63065">
        <ele>131.2</ele>
        <time>2022-03-17T11:46:24Z</time>
      </trkpt>
      <trkpt lat="48.85785" lon="1.63057">
        <ele>130.3</ele>
        <time>2022-03-17T11:46:28Z</time>
      </trkpt>
      <trkpt lat="48.8579" lon="1.63056">
        <ele>132.1</ele>
        <time>2022-03-17T11:46:50Z</time>
      </trkpt>
      <trkpt lat="48.85795" lon="1.63056">
        <ele>132.2</ele>
        <time>2022-03-17T11:46:55Z</time>
      </trkpt>
      <trkpt lat="48.858" lon="1.63053">
        <ele>132.3</ele>
        <time>2022-03-17T11:47:01Z</time>
      </trkpt>
      <trkpt lat="48.85803" lon="1.63048">
        <ele>132.5</ele>
        <time>2022-03-17T11:47:05Z</time>
      </trkpt>
      <trkpt lat="48.85808" lon="1.63043">
        <ele>133.1</ele>
        <time>2022-03-17T11:47:11Z</time>
      </trkpt>
      <trkpt lat="48.85811" lon="1.63038">
        <ele>133.8</ele>
        <time>2022-03-17T11:47:17Z</time>
      </trkpt>
      <trkpt lat="48.85815" lon="1.63033">
        <ele>134.3</ele>
        <time>2022-03-17T11:47:21Z</time>
      </trkpt>
      <trkpt lat="48.85819" lon="1.63029">
        <ele>134.7</ele>
        <time>2022-03-17T11:47:26Z</time>
      </trkpt>
      <trkpt lat="48.85823" lon="1.63023">
        <ele>134.7</ele>
        <time>2022-03-17T11:47:31Z</time>
      </trkpt>
      <trkpt lat="48.85826" lon="1.63017">
        <ele>134.7</ele>
        <time>2022-03-17T11:47:36Z</time>
      </trkpt>
      <trkpt lat="48.85831" lon="1.63012">
        <ele>134.9</ele>
        <time>2022-03-17T11:47:42Z</time>
      </trkpt>
      <trkpt lat="48.85835" lon="1.63008">
        <ele>135.2</ele>
        <time>2022-03-17T11:47:45Z</time>
      </trkpt>
      <trkpt lat="48.85839" lon="1.63002">
        <ele>135.5</ele>
        <time>2022-03-17T11:47:50Z</time>
      </trkpt>
      <trkpt lat="48.85843" lon="1.62997">
        <ele>135.5</ele>
        <time>2022-03-17T11:47:53Z</time>
      </trkpt>
      <trkpt lat="48.85846" lon="1.62992">
        <ele>135.4</ele>
        <time>2022-03-17T11:47:57Z</time>
      </trkpt>
      <trkpt lat="48.8585" lon="1.62986">
        <ele>135.2</ele>
        <time>2022-03-17T11:48:01Z</time>
      </trkpt>
      <trkpt lat="48.85853" lon="1.62981">
        <ele>135.1</ele>
        <time>2022-03-17T11:48:04Z</time>
      </trkpt>
      <trkpt lat="48.85858" lon="1.62975">
        <ele>134.7</ele>
        <time>2022-03-17T11:48:09Z</time>
      </trkpt>
      <trkpt lat="48.85861" lon="1.6297">
        <ele>134.4</ele>
        <time>2022-03-17T11:48:14Z</time>
      </trkpt>
      <trkpt lat="48.85865" lon="1.62965">
        <ele>134.3</ele>
        <time>2022-03-17T11:48:17Z</time>
      </trkpt>
      <trkpt lat="48.85869" lon="1.6296">
        <ele>134.1</ele>
        <time>2022-03-17T11:48:21Z</time>
      </trkpt>
      <trkpt lat="48.85873" lon="1.62955">
        <ele>133.8</ele>
        <time>2022-03-17T11:48:25Z</time>
      </trkpt>
      <trkpt lat="48.85877" lon="1.6295">
        <ele>133.7</ele>
        <time>2022-03-17T11:48:29Z</time>
      </trkpt>
      <trkpt lat="48.8588" lon="1.62945">
        <ele>133.5</ele>
        <time>2022-03-17T11:48:32Z</time>
      </trkpt>
      <trkpt lat="48.85885" lon="1.62937">
        <ele>132.8</ele>
        <time>2022-03-17T11:48:38Z</time>
      </trkpt>
      <trkpt lat="48.85888" lon="1.62931">
        <ele>132</ele>
        <time>2022-03-17T11:48:42Z</time>
      </trkpt>
      <trkpt lat="48.85892" lon="1.62926">
        <ele>131.7</ele>
        <time>2022-03-17T11:48:46Z</time>
      </trkpt>
      <trkpt lat="48.85896" lon="1.62921">
        <ele>131.6</ele>
        <time>2022-03-17T11:48:51Z</time>
      </trkpt>
      <trkpt lat="48.859" lon="1.62916">
        <ele>131.5</ele>
        <time>2022-03-17T11:48:55Z</time>
      </trkpt>
      <trkpt lat="48.85904" lon="1.62911">
        <ele>131.4</ele>
        <time>2022-03-17T11:48:58Z</time>
      </trkpt>
      <trkpt lat="48.85907" lon="1.62906">
        <ele>130.9</ele>
        <time>2022-03-17T11:49:01Z</time>
      </trkpt>
      <trkpt lat="48.8591" lon="1.62901">
        <ele>130.5</ele>
        <time>2022-03-17T11:49:06Z</time>
      </trkpt>
      <trkpt lat="48.85913" lon="1.62895">
        <ele>130.3</ele>
        <time>2022-03-17T11:49:10Z</time>
      </trkpt>
      <trkpt lat="48.85916" lon="1.6289">
        <ele>130.1</ele>
        <time>2022-03-17T11:49:14Z</time>
      </trkpt>
      <trkpt lat="48.85919" lon="1.62884">
        <ele>129.5</ele>
        <time>2022-03-17T11:49:17Z</time>
      </trkpt>
      <trkpt lat="48.85923" lon="1.62877">
        <ele>128.6</ele>
        <time>2022-03-17T11:49:22Z</time>
      </trkpt>
      <trkpt lat="48.85928" lon="1.6287">
        <ele>127.7</ele>
        <time>2022-03-17T11:49:27Z</time>
      </trkpt>
      <trkpt lat="48.85932" lon="1.62863">
        <ele>127.2</ele>
        <time>2022-03-17T11:49:32Z</time>
      </trkpt>
      <trkpt lat="48.85935" lon="1.62857">
        <ele>126.8</ele>
        <time>2022-03-17T11:49:36Z</time>
      </trkpt>
      <trkpt lat="48.85938" lon="1.62851">
        <ele>126</ele>
        <time>2022-03-17T11:49:40Z</time>
      </trkpt>
      <trkpt lat="48.85941" lon="1.62845">
        <ele>125.6</ele>
        <time>2022-03-17T11:49:44Z</time>
      </trkpt>
      <trkpt lat="48.85944" lon="1.62839">
        <ele>125.4</ele>
        <time>2022-03-17T11:49:48Z</time>
      </trkpt>
      <trkpt lat="48.85947" lon="1.62832">
        <ele>125.5</ele>
        <time>2022-03-17T11:49:52Z</time>
      </trkpt>
      <trkpt lat="48.8595" lon="1.62823">
        <ele>125.9</ele>
        <time>2022-03-17T11:49:57Z</time>
      </trkpt>
      <trkpt lat="48.85953" lon="1.62815">
        <ele>126.4</ele>
        <time>2022-03-17T11:50:02Z</time>
      </trkpt>
      <trkpt lat="48.85956" lon="1.62809">
        <ele>126.6</ele>
        <time>2022-03-17T11:50:06Z</time>
      </trkpt>
      <trkpt lat="48.85959" lon="1.62801">
        <ele>127.1</ele>
        <time>2022-03-17T11:50:11Z</time>
      </trkpt>
      <trkpt lat="48.85962" lon="1.62794">
        <ele>127.4</ele>
        <time>2022-03-17T11:50:15Z</time>
      </trkpt>
      <trkpt lat="48.85964" lon="1.62787">
        <ele>127.3</ele>
        <time>2022-03-17T11:50:20Z</time>
      </trkpt>
      <trkpt lat="48.85967" lon="1.62781">
        <ele>127.1</ele>
        <time>2022-03-17T11:50:23Z</time>
      </trkpt>
      <trkpt lat="48.85969" lon="1.62772">
        <ele>126.9</ele>
        <time>2022-03-17T11:50:27Z</time>
      </trkpt>
      <trkpt lat="48.85972" lon="1.62766">
        <ele>126.4</ele>
        <time>2022-03-17T11:50:32Z</time>
      </trkpt>
      <trkpt lat="48.85974" lon="1.62758">
        <ele>126</ele>
        <time>2022-03-17T11:50:37Z</time>
      </trkpt>
      <trkpt lat="48.85977" lon="1.62749">
        <ele>125.4</ele>
        <time>2022-03-17T11:50:41Z</time>
      </trkpt>
      <trkpt lat="48.8598" lon="1.62744">
        <ele>124.9</ele>
        <time>2022-03-17T11:50:45Z</time>
      </trkpt>
      <trkpt lat="48.85983" lon="1.62738">
        <ele>124.9</ele>
        <time>2022-03-17T11:50:49Z</time>
      </trkpt>
      <trkpt lat="48.85986" lon="1.62732">
        <ele>125</ele>
        <time>2022-03-17T11:50:52Z</time>
      </trkpt>
      <trkpt lat="48.8599" lon="1.62726">
        <ele>125</ele>
        <time>2022-03-17T11:50:56Z</time>
      </trkpt>
      <trkpt lat="48.85994" lon="1.6272">
        <ele>125.3</ele>
        <time>2022-03-17T11:51:01Z</time>
      </trkpt>
      <trkpt lat="48.85998" lon="1.62713">
        <ele>125.6</ele>
        <time>2022-03-17T11:51:06Z</time>
      </trkpt>
      <trkpt lat="48.86001" lon="1.62707">
        <ele>126.1</ele>
        <time>2022-03-17T11:51:10Z</time>
      </trkpt>
      <trkpt lat="48.86005" lon="1.62701">
        <ele>126.5</ele>
        <time>2022-03-17T11:51:14Z</time>
      </trkpt>
      <trkpt lat="48.86009" lon="1.62695">
        <ele>126.9</ele>
        <time>2022-03-17T11:51:18Z</time>
      </trkpt>
      <trkpt lat="48.86012" lon="1.62691">
        <ele>126.6</ele>
        <time>2022-03-17T11:51:22Z</time>
      </trkpt>
      <trkpt lat="48.86017" lon="1.62684">
        <ele>125.8</ele>
        <time>2022-03-17T11:51:26Z</time>
      </trkpt>
      <trkpt lat="48.8602" lon="1.62679">
        <ele>124.6</ele>
        <time>2022-03-17T11:51:30Z</time>
      </trkpt>
      <trkpt lat="48.86024" lon="1.62674">
        <ele>124</ele>
        <time>2022-03-17T11:51:35Z</time>
      </trkpt>
      <trkpt lat="48.86028" lon="1.6267">
        <ele>124</ele>
        <time>2022-03-17T11:51:39Z</time>
      </trkpt>
      <trkpt lat="48.86031" lon="1.62665">
        <ele>124.3</ele>
        <time>2022-03-17T11:51:43Z</time>
      </trkpt>
      <trkpt lat="48.86036" lon="1.62662">
        <ele>125</ele>
        <time>2022-03-17T11:51:47Z</time>
      </trkpt>
      <trkpt lat="48.86041" lon="1.62658">
        <ele>125.5</ele>
        <time>2022-03-17T11:51:51Z</time>
      </trkpt>
      <trkpt lat="48.86045" lon="1.62652">
        <ele>125.7</ele>
        <time>2022-03-17T11:51:56Z</time>
      </trkpt>
      <trkpt lat="48.8605" lon="1.62648">
        <ele>125.9</ele>
        <time>2022-03-17T11:52:00Z</time>
      </trkpt>
      <trkpt lat="48.86055" lon="1.62643">
        <ele>126.4</ele>
        <time>2022-03-17T11:52:05Z</time>
      </trkpt>
      <trkpt lat="48.86059" lon="1.62638">
        <ele>126.6</ele>
        <time>2022-03-17T11:52:08Z</time>
      </trkpt>
      <trkpt lat="48.86063" lon="1.62634">
        <ele>126.7</ele>
        <time>2022-03-17T11:52:12Z</time>
      </trkpt>
      <trkpt lat="48.86069" lon="1.62629">
        <ele>127.1</ele>
        <time>2022-03-17T11:52:16Z</time>
      </trkpt>
      <trkpt lat="48.86073" lon="1.62624">
        <ele>127.8</ele>
        <time>2022-03-17T11:52:21Z</time>
      </trkpt>
      <trkpt lat="48.86079" lon="1.62619">
        <ele>128.6</ele>
        <time>2022-03-17T11:52:26Z</time>
      </trkpt>
      <trkpt lat="48.86083" lon="1.62612">
        <ele>128.5</ele>
        <time>2022-03-17T11:52:31Z</time>
      </trkpt>
      <trkpt lat="48.86087" lon="1.62608">
        <ele>127.8</ele>
        <time>2022-03-17T11:52:36Z</time>
      </trkpt>
      <trkpt lat="48.86094" lon="1.62601">
        <ele>127.5</ele>
        <time>2022-03-17T11:52:41Z</time>
      </trkpt>
      <trkpt lat="48.86098" lon="1.62596">
        <ele>127.3</ele>
        <time>2022-03-17T11:52:46Z</time>
      </trkpt>
      <trkpt lat="48.86103" lon="1.62589">
        <ele>127.3</ele>
        <time>2022-03-17T11:52:51Z</time>
      </trkpt>
      <trkpt lat="48.86108" lon="1.62584">
        <ele>127.9</ele>
        <time>2022-03-17T11:52:56Z</time>
      </trkpt>
      <trkpt lat="48.86114" lon="1.6258">
        <ele>128.2</ele>
        <time>2022-03-17T11:53:01Z</time>
      </trkpt>
      <trkpt lat="48.86119" lon="1.62573">
        <ele>127.6</ele>
        <time>2022-03-17T11:53:06Z</time>
      </trkpt>
      <trkpt lat="48.86124" lon="1.62567">
        <ele>127.1</ele>
        <time>2022-03-17T11:53:11Z</time>
      </trkpt>
      <trkpt lat="48.86129" lon="1.62562">
        <ele>127.2</ele>
        <time>2022-03-17T11:53:16Z</time>
      </trkpt>
      <trkpt lat="48.86134" lon="1.62556">
        <ele>127.7</ele>
        <time>2022-03-17T11:53:21Z</time>
      </trkpt>
      <trkpt lat="48.86139" lon="1.6255">
        <ele>127.9</ele>
        <time>2022-03-17T11:53:26Z</time>
      </trkpt>
      <trkpt lat="48.86143" lon="1.62544">
        <ele>127.6</ele>
        <time>2022-03-17T11:53:31Z</time>
      </trkpt>
      <trkpt lat="48.86149" lon="1.62538">
        <ele>127.2</ele>
        <time>2022-03-17T11:53:36Z</time>
      </trkpt>
      <trkpt lat="48.86152" lon="1.62534">
        <ele>126.9</ele>
        <time>2022-03-17T11:53:41Z</time>
      </trkpt>
      <trkpt lat="48.86156" lon="1.6253">
        <ele>126.7</ele>
        <time>2022-03-17T11:53:44Z</time>
      </trkpt>
      <trkpt lat="48.8616" lon="1.62525">
        <ele>126.5</ele>
        <time>2022-03-17T11:53:48Z</time>
      </trkpt>
      <trkpt lat="48.86164" lon="1.62521">
        <ele>126.4</ele>
        <time>2022-03-17T11:53:51Z</time>
      </trkpt>
      <trkpt lat="48.86169" lon="1.62516">
        <ele>126.9</ele>
        <time>2022-03-17T11:53:56Z</time>
      </trkpt>
      <trkpt lat="48.86174" lon="1.6251">
        <ele>127.2</ele>
        <time>2022-03-17T11:54:01Z</time>
      </trkpt>
      <trkpt lat="48.86179" lon="1.62504">
        <ele>126.9</ele>
        <time>2022-03-17T11:54:06Z</time>
      </trkpt>
      <trkpt lat="48.86184" lon="1.62498">
        <ele>126.7</ele>
        <time>2022-03-17T11:54:11Z</time>
      </trkpt>
      <trkpt lat="48.86189" lon="1.62491">
        <ele>126.8</ele>
        <time>2022-03-17T11:54:16Z</time>
      </trkpt>
      <trkpt lat="48.86193" lon="1.62484">
        <ele>127</ele>
        <time>2022-03-17T11:54:21Z</time>
      </trkpt>
      <trkpt lat="48.86198" lon="1.62478">
        <ele>127.3</ele>
        <time>2022-03-17T11:54:26Z</time>
      </trkpt>
      <trkpt lat="48.86202" lon="1.62471">
        <ele>127.9</ele>
        <time>2022-03-17T11:54:31Z</time>
      </trkpt>
      <trkpt lat="48.86207" lon="1.62464">
        <ele>128.3</ele>
        <time>2022-03-17T11:54:36Z</time>
      </trkpt>
      <trkpt lat="48.8621" lon="1.62456">
        <ele>128.3</ele>
        <time>2022-03-17T11:54:41Z</time>
      </trkpt>
      <trkpt lat="48.86213" lon="1.62446">
        <ele>127.8</ele>
        <time>2022-03-17T11:54:46Z</time>
      </trkpt>
      <trkpt lat="48.86216" lon="1.62438">
        <ele>126.9</ele>
        <time>2022-03-17T11:54:51Z</time>
      </trkpt>
      <trkpt lat="48.86219" lon="1.62429">
        <ele>126.5</ele>
        <time>2022-03-17T11:54:56Z</time>
      </trkpt>
      <trkpt lat="48.86222" lon="1.62421">
        <ele>126.5</ele>
        <time>2022-03-17T11:55:01Z</time>
      </trkpt>
      <trkpt lat="48.86224" lon="1.62413">
        <ele>126.5</ele>
        <time>2022-03-17T11:55:07Z</time>
      </trkpt>
      <trkpt lat="48.86227" lon="1.62403">
        <ele>126.1</ele>
        <time>2022-03-17T11:55:12Z</time>
      </trkpt>
      <trkpt lat="48.86228" lon="1.62396">
        <ele>125.9</ele>
        <time>2022-03-17T11:55:17Z</time>
      </trkpt>
      <trkpt lat="48.86231" lon="1.62388">
        <ele>125.9</ele>
        <time>2022-03-17T11:55:22Z</time>
      </trkpt>
      <trkpt lat="48.86233" lon="1.62381">
        <ele>126.2</ele>
        <time>2022-03-17T11:55:26Z</time>
      </trkpt>
      <trkpt lat="48.86235" lon="1.62373">
        <ele>126.2</ele>
        <time>2022-03-17T11:55:30Z</time>
      </trkpt>
      <trkpt lat="48.86236" lon="1.62366">
        <ele>126.2</ele>
        <time>2022-03-17T11:55:33Z</time>
      </trkpt>
      <trkpt lat="48.86237" lon="1.62358">
        <ele>126.2</ele>
        <time>2022-03-17T11:55:38Z</time>
      </trkpt>
      <trkpt lat="48.8624" lon="1.6235">
        <ele>126</ele>
        <time>2022-03-17T11:55:43Z</time>
      </trkpt>
      <trkpt lat="48.86246" lon="1.62343">
        <ele>125.8</ele>
        <time>2022-03-17T11:55:48Z</time>
      </trkpt>
      <trkpt lat="48.8625" lon="1.6234">
        <ele>125.6</ele>
        <time>2022-03-17T11:55:52Z</time>
      </trkpt>
      <trkpt lat="48.86254" lon="1.62335">
        <ele>125.2</ele>
        <time>2022-03-17T11:55:56Z</time>
      </trkpt>
      <trkpt lat="48.86258" lon="1.62331">
        <ele>124.6</ele>
        <time>2022-03-17T11:56:01Z</time>
      </trkpt>
      <trkpt lat="48.86262" lon="1.62327">
        <ele>124.5</ele>
        <time>2022-03-17T11:56:04Z</time>
      </trkpt>
      <trkpt lat="48.86267" lon="1.62324">
        <ele>124.5</ele>
        <time>2022-03-17T11:56:09Z</time>
      </trkpt>
      <trkpt lat="48.86271" lon="1.62321">
        <ele>124.4</ele>
        <time>2022-03-17T11:56:13Z</time>
      </trkpt>
      <trkpt lat="48.86277" lon="1.62318">
        <ele>124.3</ele>
        <time>2022-03-17T11:56:17Z</time>
      </trkpt>
      <trkpt lat="48.86284" lon="1.62315">
        <ele>124.3</ele>
        <time>2022-03-17T11:56:23Z</time>
      </trkpt>
      <trkpt lat="48.86288" lon="1.6231">
        <ele>124.8</ele>
        <time>2022-03-17T11:56:28Z</time>
      </trkpt>
      <trkpt lat="48.86293" lon="1.62308">
        <ele>125.1</ele>
        <time>2022-03-17T11:56:33Z</time>
      </trkpt>
      <trkpt lat="48.86299" lon="1.62304">
        <ele>124.7</ele>
        <time>2022-03-17T11:56:36Z</time>
      </trkpt>
      <trkpt lat="48.86303" lon="1.623">
        <ele>124.1</ele>
        <time>2022-03-17T11:56:41Z</time>
      </trkpt>
      <trkpt lat="48.86308" lon="1.62298">
        <ele>123.6</ele>
        <time>2022-03-17T11:56:44Z</time>
      </trkpt>
      <trkpt lat="48.86313" lon="1.62296">
        <ele>123.2</ele>
        <time>2022-03-17T11:56:49Z</time>
      </trkpt>
      <trkpt lat="48.86319" lon="1.62295">
        <ele>123.1</ele>
        <time>2022-03-17T11:56:52Z</time>
      </trkpt>
      <trkpt lat="48.86325" lon="1.62292">
        <ele>123.5</ele>
        <time>2022-03-17T11:56:58Z</time>
      </trkpt>
      <trkpt lat="48.86331" lon="1.62288">
        <ele>123.6</ele>
        <time>2022-03-17T11:57:03Z</time>
      </trkpt>
      <trkpt lat="48.86336" lon="1.62284">
        <ele>123.1</ele>
        <time>2022-03-17T11:57:08Z</time>
      </trkpt>
      <trkpt lat="48.86342" lon="1.62281">
        <ele>122.8</ele>
        <time>2022-03-17T11:57:13Z</time>
      </trkpt>
      <trkpt lat="48.86347" lon="1.62278">
        <ele>123</ele>
        <time>2022-03-17T11:57:17Z</time>
      </trkpt>
      <trkpt lat="48.86352" lon="1.62275">
        <ele>123.2</ele>
        <time>2022-03-17T11:57:21Z</time>
      </trkpt>
      <trkpt lat="48.86357" lon="1.62273">
        <ele>123.3</ele>
        <time>2022-03-17T11:57:23Z</time>
      </trkpt>
      <trkpt lat="48.86363" lon="1.6227">
        <ele>123</ele>
        <time>2022-03-17T11:57:27Z</time>
      </trkpt>
      <trkpt lat="48.86367" lon="1.62268">
        <ele>122.9</ele>
        <time>2022-03-17T11:57:32Z</time>
      </trkpt>
      <trkpt lat="48.86372" lon="1.62265">
        <ele>122.9</ele>
        <time>2022-03-17T11:57:36Z</time>
      </trkpt>
      <trkpt lat="48.86377" lon="1.62262">
        <ele>123.2</ele>
        <time>2022-03-17T11:57:40Z</time>
      </trkpt>
      <trkpt lat="48.86382" lon="1.62259">
        <ele>123</ele>
        <time>2022-03-17T11:57:44Z</time>
      </trkpt>
      <trkpt lat="48.86387" lon="1.62255">
        <ele>122.6</ele>
        <time>2022-03-17T11:57:48Z</time>
      </trkpt>
      <trkpt lat="48.86392" lon="1.62252">
        <ele>122.3</ele>
        <time>2022-03-17T11:57:52Z</time>
      </trkpt>
      <trkpt lat="48.86397" lon="1.62248">
        <ele>122.2</ele>
        <time>2022-03-17T11:57:56Z</time>
      </trkpt>
      <trkpt lat="48.86402" lon="1.62244">
        <ele>121.7</ele>
        <time>2022-03-17T11:58:01Z</time>
      </trkpt>
      <trkpt lat="48.86407" lon="1.6224">
        <ele>121.6</ele>
        <time>2022-03-17T11:58:05Z</time>
      </trkpt>
      <trkpt lat="48.86412" lon="1.62236">
        <ele>121.6</ele>
        <time>2022-03-17T11:58:09Z</time>
      </trkpt>
      <trkpt lat="48.86415" lon="1.62232">
        <ele>121.5</ele>
        <time>2022-03-17T11:58:13Z</time>
      </trkpt>
      <trkpt lat="48.86421" lon="1.62228">
        <ele>121.4</ele>
        <time>2022-03-17T11:58:17Z</time>
      </trkpt>
      <trkpt lat="48.86427" lon="1.62221">
        <ele>121.5</ele>
        <time>2022-03-17T11:58:22Z</time>
      </trkpt>
      <trkpt lat="48.86432" lon="1.62218">
        <ele>121.8</ele>
        <time>2022-03-17T11:58:27Z</time>
      </trkpt>
      <trkpt lat="48.86437" lon="1.62212">
        <ele>122.2</ele>
        <time>2022-03-17T11:58:32Z</time>
      </trkpt>
      <trkpt lat="48.86442" lon="1.62207">
        <ele>122.2</ele>
        <time>2022-03-17T11:58:36Z</time>
      </trkpt>
      <trkpt lat="48.86446" lon="1.62203">
        <ele>122.2</ele>
        <time>2022-03-17T11:58:40Z</time>
      </trkpt>
      <trkpt lat="48.8645" lon="1.622">
        <ele>122.1</ele>
        <time>2022-03-17T11:58:44Z</time>
      </trkpt>
      <trkpt lat="48.86455" lon="1.62196">
        <ele>122</ele>
        <time>2022-03-17T11:58:48Z</time>
      </trkpt>
      <trkpt lat="48.86459" lon="1.62192">
        <ele>121.8</ele>
        <time>2022-03-17T11:58:52Z</time>
      </trkpt>
      <trkpt lat="48.86463" lon="1.62187">
        <ele>121.6</ele>
        <time>2022-03-17T11:58:56Z</time>
      </trkpt>
      <trkpt lat="48.86467" lon="1.62183">
        <ele>121.1</ele>
        <time>2022-03-17T11:59:00Z</time>
      </trkpt>
      <trkpt lat="48.86471" lon="1.62179">
        <ele>120.6</ele>
        <time>2022-03-17T11:59:04Z</time>
      </trkpt>
      <trkpt lat="48.86476" lon="1.62174">
        <ele>120.3</ele>
        <time>2022-03-17T11:59:08Z</time>
      </trkpt>
      <trkpt lat="48.86481" lon="1.62168">
        <ele>120.1</ele>
        <time>2022-03-17T11:59:12Z</time>
      </trkpt>
      <trkpt lat="48.86486" lon="1.62162">
        <ele>119.5</ele>
        <time>2022-03-17T11:59:17Z</time>
      </trkpt>
      <trkpt lat="48.8649" lon="1.62157">
        <ele>118.8</ele>
        <time>2022-03-17T11:59:22Z</time>
      </trkpt>
      <trkpt lat="48.86495" lon="1.62151">
        <ele>118.2</ele>
        <time>2022-03-17T11:59:27Z</time>
      </trkpt>
      <trkpt lat="48.86499" lon="1.62146">
        <ele>118</ele>
        <time>2022-03-17T11:59:32Z</time>
      </trkpt>
      <trkpt lat="48.86503" lon="1.62141">
        <ele>117.9</ele>
        <time>2022-03-17T11:59:36Z</time>
      </trkpt>
      <trkpt lat="48.86507" lon="1.62137">
        <ele>117.8</ele>
        <time>2022-03-17T11:59:40Z</time>
      </trkpt>
      <trkpt lat="48.86513" lon="1.62132">
        <ele>117.9</ele>
        <time>2022-03-17T11:59:46Z</time>
      </trkpt>
      <trkpt lat="48.86517" lon="1.62128">
        <ele>118</ele>
        <time>2022-03-17T11:59:50Z</time>
      </trkpt>
      <trkpt lat="48.86521" lon="1.62123">
        <ele>118.1</ele>
        <time>2022-03-17T11:59:54Z</time>
      </trkpt>
      <trkpt lat="48.86525" lon="1.62119">
        <ele>118.4</ele>
        <time>2022-03-17T11:59:58Z</time>
      </trkpt>
      <trkpt lat="48.8653" lon="1.62113">
        <ele>118.3</ele>
        <time>2022-03-17T12:00:02Z</time>
      </trkpt>
      <trkpt lat="48.86534" lon="1.62109">
        <ele>118</ele>
        <time>2022-03-17T12:00:06Z</time>
      </trkpt>
      <trkpt lat="48.86539" lon="1.62104">
        <ele>117.6</ele>
        <time>2022-03-17T12:00:10Z</time>
      </trkpt>
      <trkpt lat="48.86543" lon="1.62099">
        <ele>117.2</ele>
        <time>2022-03-17T12:00:15Z</time>
      </trkpt>
      <trkpt lat="48.86547" lon="1.62095">
        <ele>117.4</ele>
        <time>2022-03-17T12:00:19Z</time>
      </trkpt>
      <trkpt lat="48.86552" lon="1.62091">
        <ele>118</ele>
        <time>2022-03-17T12:00:22Z</time>
      </trkpt>
      <trkpt lat="48.86556" lon="1.62088">
        <ele>118.4</ele>
        <time>2022-03-17T12:00:26Z</time>
      </trkpt>
      <trkpt lat="48.86561" lon="1.62084">
        <ele>118.5</ele>
        <time>2022-03-17T12:00:31Z</time>
      </trkpt>
      <trkpt lat="48.86565" lon="1.62078">
        <ele>118</ele>
        <time>2022-03-17T12:00:35Z</time>
      </trkpt>
      <trkpt lat="48.86569" lon="1.62073">
        <ele>117.4</ele>
        <time>2022-03-17T12:00:39Z</time>
      </trkpt>
      <trkpt lat="48.86574" lon="1.6207">
        <ele>117</ele>
        <time>2022-03-17T12:00:44Z</time>
      </trkpt>
      <trkpt lat="48.86578" lon="1.62066">
        <ele>117.2</ele>
        <time>2022-03-17T12:00:49Z</time>
      </trkpt>
      <trkpt lat="48.86582" lon="1.62061">
        <ele>117.5</ele>
        <time>2022-03-17T12:00:54Z</time>
      </trkpt>
      <trkpt lat="48.86586" lon="1.62056">
        <ele>117.5</ele>
        <time>2022-03-17T12:00:58Z</time>
      </trkpt>
      <trkpt lat="48.86589" lon="1.6205">
        <ele>117.5</ele>
        <time>2022-03-17T12:01:03Z</time>
      </trkpt>
      <trkpt lat="48.86592" lon="1.62044">
        <ele>117.6</ele>
        <time>2022-03-17T12:01:07Z</time>
      </trkpt>
      <trkpt lat="48.86598" lon="1.62038">
        <ele>117.5</ele>
        <time>2022-03-17T12:01:12Z</time>
      </trkpt>
      <trkpt lat="48.86602" lon="1.62034">
        <ele>116.5</ele>
        <time>2022-03-17T12:01:17Z</time>
      </trkpt>
      <trkpt lat="48.86606" lon="1.62031">
        <ele>115.7</ele>
        <time>2022-03-17T12:01:22Z</time>
      </trkpt>
      <trkpt lat="48.8661" lon="1.62027">
        <ele>116.1</ele>
        <time>2022-03-17T12:01:27Z</time>
      </trkpt>
      <trkpt lat="48.86613" lon="1.6202">
        <ele>117.2</ele>
        <time>2022-03-17T12:01:47Z</time>
      </trkpt>
      <trkpt lat="48.86617" lon="1.62016">
        <ele>117.3</ele>
        <time>2022-03-17T12:01:50Z</time>
      </trkpt>
      <trkpt lat="48.86622" lon="1.62015">
        <ele>117.1</ele>
        <time>2022-03-17T12:01:53Z</time>
      </trkpt>
      <trkpt lat="48.86626" lon="1.6201">
        <ele>116.9</ele>
        <time>2022-03-17T12:01:57Z</time>
      </trkpt>
      <trkpt lat="48.86629" lon="1.62005">
        <ele>117</ele>
        <time>2022-03-17T12:02:02Z</time>
      </trkpt>
      <trkpt lat="48.86634" lon="1.62003">
        <ele>116.9</ele>
        <time>2022-03-17T12:02:07Z</time>
      </trkpt>
      <trkpt lat="48.86637" lon="1.61997">
        <ele>116.5</ele>
        <time>2022-03-17T12:02:11Z</time>
      </trkpt>
      <trkpt lat="48.8664" lon="1.61989">
        <ele>115.9</ele>
        <time>2022-03-17T12:02:15Z</time>
      </trkpt>
      <trkpt lat="48.86643" lon="1.61982">
        <ele>115.8</ele>
        <time>2022-03-17T12:02:21Z</time>
      </trkpt>
      <trkpt lat="48.86646" lon="1.61976">
        <ele>116.3</ele>
        <time>2022-03-17T12:02:24Z</time>
      </trkpt>
      <trkpt lat="48.86648" lon="1.6197">
        <ele>117</ele>
        <time>2022-03-17T12:02:28Z</time>
      </trkpt>
      <trkpt lat="48.86651" lon="1.61962">
        <ele>117.2</ele>
        <time>2022-03-17T12:02:33Z</time>
      </trkpt>
      <trkpt lat="48.86654" lon="1.61957">
        <ele>116.8</ele>
        <time>2022-03-17T12:02:37Z</time>
      </trkpt>
      <trkpt lat="48.86658" lon="1.61952">
        <ele>115.5</ele>
        <time>2022-03-17T12:02:41Z</time>
      </trkpt>
      <trkpt lat="48.86662" lon="1.61947">
        <ele>114.1</ele>
        <time>2022-03-17T12:02:45Z</time>
      </trkpt>
      <trkpt lat="48.86666" lon="1.61942">
        <ele>113.1</ele>
        <time>2022-03-17T12:02:49Z</time>
      </trkpt>
      <trkpt lat="48.86668" lon="1.61935">
        <ele>112.6</ele>
        <time>2022-03-17T12:02:55Z</time>
      </trkpt>
      <trkpt lat="48.8667" lon="1.61927">
        <ele>112.8</ele>
        <time>2022-03-17T12:02:59Z</time>
      </trkpt>
      <trkpt lat="48.86675" lon="1.61921">
        <ele>113.5</ele>
        <time>2022-03-17T12:03:03Z</time>
      </trkpt>
      <trkpt lat="48.86677" lon="1.61914">
        <ele>113.9</ele>
        <time>2022-03-17T12:03:08Z</time>
      </trkpt>
      <trkpt lat="48.86679" lon="1.61907">
        <ele>114.6</ele>
        <time>2022-03-17T12:03:13Z</time>
      </trkpt>
      <trkpt lat="48.86684" lon="1.61902">
        <ele>114.7</ele>
        <time>2022-03-17T12:03:18Z</time>
      </trkpt>
      <trkpt lat="48.86687" lon="1.61897">
        <ele>113.1</ele>
        <time>2022-03-17T12:03:22Z</time>
      </trkpt>
      <trkpt lat="48.8669" lon="1.61889">
        <ele>111.7</ele>
        <time>2022-03-17T12:03:27Z</time>
      </trkpt>
      <trkpt lat="48.86693" lon="1.61884">
        <ele>112.8</ele>
        <time>2022-03-17T12:03:31Z</time>
      </trkpt>
      <trkpt lat="48.86697" lon="1.61878">
        <ele>114.7</ele>
        <time>2022-03-17T12:03:35Z</time>
      </trkpt>
      <trkpt lat="48.86702" lon="1.61874">
        <ele>114.6</ele>
        <time>2022-03-17T12:03:38Z</time>
      </trkpt>
      <trkpt lat="48.86707" lon="1.61876">
        <ele>113.6</ele>
        <time>2022-03-17T12:03:42Z</time>
      </trkpt>
      <trkpt lat="48.86712" lon="1.61878">
        <ele>112.1</ele>
        <time>2022-03-17T12:03:45Z</time>
      </trkpt>
      <trkpt lat="48.86716" lon="1.6188">
        <ele>110.9</ele>
        <time>2022-03-17T12:03:48Z</time>
      </trkpt>
      <trkpt lat="48.8672" lon="1.61884">
        <ele>109.8</ele>
        <time>2022-03-17T12:03:53Z</time>
      </trkpt>
      <trkpt lat="48.86725" lon="1.61886">
        <ele>110</ele>
        <time>2022-03-17T12:03:55Z</time>
      </trkpt>
      <trkpt lat="48.8673" lon="1.61889">
        <ele>110.7</ele>
        <time>2022-03-17T12:03:59Z</time>
      </trkpt>
      <trkpt lat="48.86737" lon="1.61891">
        <ele>112.5</ele>
        <time>2022-03-17T12:04:03Z</time>
      </trkpt>
      <trkpt lat="48.86744" lon="1.61894">
        <ele>114.3</ele>
        <time>2022-03-17T12:04:08Z</time>
      </trkpt>
      <trkpt lat="48.86749" lon="1.61896">
        <ele>114.7</ele>
        <time>2022-03-17T12:04:14Z</time>
      </trkpt>
      <trkpt lat="48.86749" lon="1.61889">
        <ele>115.1</ele>
        <time>2022-03-17T12:04:17Z</time>
      </trkpt>
      <trkpt lat="48.86755" lon="1.61893">
        <ele>117.7</ele>
        <time>2022-03-17T12:04:22Z</time>
      </trkpt>
      <trkpt lat="48.86759" lon="1.61898">
        <ele>118.4</ele>
        <time>2022-03-17T12:04:24Z</time>
      </trkpt>
      <trkpt lat="48.86761" lon="1.61904">
        <ele>118.5</ele>
        <time>2022-03-17T12:04:28Z</time>
      </trkpt>
      <trkpt lat="48.86764" lon="1.6191">
        <ele>117.8</ele>
        <time>2022-03-17T12:04:32Z</time>
      </trkpt>
      <trkpt lat="48.86766" lon="1.61917">
        <ele>117.3</ele>
        <time>2022-03-17T12:04:37Z</time>
      </trkpt>
      <trkpt lat="48.86769" lon="1.61924">
        <ele>117</ele>
        <time>2022-03-17T12:04:42Z</time>
      </trkpt>
      <trkpt lat="48.86773" lon="1.61928">
        <ele>116.7</ele>
        <time>2022-03-17T12:04:46Z</time>
      </trkpt>
      <trkpt lat="48.86777" lon="1.61934">
        <ele>116.5</ele>
        <time>2022-03-17T12:04:51Z</time>
      </trkpt>
      <trkpt lat="48.8678" lon="1.61941">
        <ele>116.5</ele>
        <time>2022-03-17T12:04:56Z</time>
      </trkpt>
      <trkpt lat="48.86781" lon="1.61948">
        <ele>116.8</ele>
        <time>2022-03-17T12:05:00Z</time>
      </trkpt>
      <trkpt lat="48.86783" lon="1.61955">
        <ele>117.3</ele>
        <time>2022-03-17T12:05:04Z</time>
      </trkpt>
      <trkpt lat="48.86785" lon="1.61963">
        <ele>117.9</ele>
        <time>2022-03-17T12:05:08Z</time>
      </trkpt>
      <trkpt lat="48.86789" lon="1.6197">
        <ele>118.3</ele>
        <time>2022-03-17T12:05:14Z</time>
      </trkpt>
      <trkpt lat="48.86791" lon="1.6198">
        <ele>118.6</ele>
        <time>2022-03-17T12:05:18Z</time>
      </trkpt>
      <trkpt lat="48.86795" lon="1.61988">
        <ele>119.3</ele>
        <time>2022-03-17T12:05:24Z</time>
      </trkpt>
      <trkpt lat="48.86797" lon="1.61995">
        <ele>119.7</ele>
        <time>2022-03-17T12:05:28Z</time>
      </trkpt>
      <trkpt lat="48.86799" lon="1.62002">
        <ele>119.8</ele>
        <time>2022-03-17T12:05:33Z</time>
      </trkpt>
      <trkpt lat="48.86802" lon="1.62008">
        <ele>119.9</ele>
        <time>2022-03-17T12:05:38Z</time>
      </trkpt>
      <trkpt lat="48.86805" lon="1.62015">
        <ele>120.3</ele>
        <time>2022-03-17T12:05:43Z</time>
      </trkpt>
      <trkpt lat="48.8681" lon="1.6202">
        <ele>120.7</ele>
        <time>2022-03-17T12:05:47Z</time>
      </trkpt>
      <trkpt lat="48.86814" lon="1.62023">
        <ele>120.8</ele>
        <time>2022-03-17T12:05:51Z</time>
      </trkpt>
      <trkpt lat="48.8682" lon="1.62022">
        <ele>120.9</ele>
        <time>2022-03-17T12:05:56Z</time>
      </trkpt>
      <trkpt lat="48.86824" lon="1.62021">
        <ele>120.8</ele>
        <time>2022-03-17T12:06:00Z</time>
      </trkpt>
      <trkpt lat="48.86828" lon="1.62017">
        <ele>120.5</ele>
        <time>2022-03-17T12:06:03Z</time>
      </trkpt>
      <trkpt lat="48.86833" lon="1.62012">
        <ele>120.2</ele>
        <time>2022-03-17T12:06:08Z</time>
      </trkpt>
      <trkpt lat="48.86839" lon="1.62008">
        <ele>119.8</ele>
        <time>2022-03-17T12:06:14Z</time>
      </trkpt>
      <trkpt lat="48.86845" lon="1.62006">
        <ele>119.2</ele>
        <time>2022-03-17T12:06:18Z</time>
      </trkpt>
      <trkpt lat="48.86851" lon="1.62002">
        <ele>118.5</ele>
        <time>2022-03-17T12:06:24Z</time>
      </trkpt>
      <trkpt lat="48.86856" lon="1.61999">
        <ele>118.1</ele>
        <time>2022-03-17T12:06:29Z</time>
      </trkpt>
      <trkpt lat="48.86861" lon="1.61995">
        <ele>118</ele>
        <time>2022-03-17T12:06:33Z</time>
      </trkpt>
      <trkpt lat="48.86867" lon="1.61993">
        <ele>117.8</ele>
        <time>2022-03-17T12:06:38Z</time>
      </trkpt>
      <trkpt lat="48.86871" lon="1.6199">
        <ele>117.5</ele>
        <time>2022-03-17T12:06:42Z</time>
      </trkpt>
      <trkpt lat="48.86876" lon="1.61987">
        <ele>117.2</ele>
        <time>2022-03-17T12:06:46Z</time>
      </trkpt>
      <trkpt lat="48.86881" lon="1.61984">
        <ele>117.2</ele>
        <time>2022-03-17T12:06:50Z</time>
      </trkpt>
      <trkpt lat="48.86886" lon="1.6198">
        <ele>117.2</ele>
        <time>2022-03-17T12:06:55Z</time>
      </trkpt>
      <trkpt lat="48.86891" lon="1.61977">
        <ele>117.3</ele>
        <time>2022-03-17T12:06:59Z</time>
      </trkpt>
      <trkpt lat="48.86896" lon="1.61973">
        <ele>117.4</ele>
        <time>2022-03-17T12:07:04Z</time>
      </trkpt>
      <trkpt lat="48.86902" lon="1.61971">
        <ele>118</ele>
        <time>2022-03-17T12:07:08Z</time>
      </trkpt>
      <trkpt lat="48.86907" lon="1.61968">
        <ele>118.5</ele>
        <time>2022-03-17T12:07:13Z</time>
      </trkpt>
      <trkpt lat="48.86911" lon="1.61965">
        <ele>118.8</ele>
        <time>2022-03-17T12:07:17Z</time>
      </trkpt>
      <trkpt lat="48.86916" lon="1.61961">
        <ele>119.7</ele>
        <time>2022-03-17T12:07:21Z</time>
      </trkpt>
      <trkpt lat="48.8692" lon="1.61957">
        <ele>120.4</ele>
        <time>2022-03-17T12:07:24Z</time>
      </trkpt>
      <trkpt lat="48.86925" lon="1.61955">
        <ele>120.8</ele>
        <time>2022-03-17T12:07:28Z</time>
      </trkpt>
      <trkpt lat="48.86929" lon="1.61952">
        <ele>120.9</ele>
        <time>2022-03-17T12:07:32Z</time>
      </trkpt>
      <trkpt lat="48.86934" lon="1.61948">
        <ele>120.9</ele>
        <time>2022-03-17T12:07:37Z</time>
      </trkpt>
      <trkpt lat="48.86939" lon="1.61945">
        <ele>121</ele>
        <time>2022-03-17T12:07:42Z</time>
      </trkpt>
      <trkpt lat="48.86944" lon="1.61942">
        <ele>121</ele>
        <time>2022-03-17T12:07:46Z</time>
      </trkpt>
      <trkpt lat="48.86948" lon="1.61939">
        <ele>121.3</ele>
        <time>2022-03-17T12:07:51Z</time>
      </trkpt>
      <trkpt lat="48.86953" lon="1.61935">
        <ele>121.5</ele>
        <time>2022-03-17T12:07:55Z</time>
      </trkpt>
      <trkpt lat="48.86957" lon="1.61933">
        <ele>121.7</ele>
        <time>2022-03-17T12:07:59Z</time>
      </trkpt>
      <trkpt lat="48.86962" lon="1.6193">
        <ele>121.9</ele>
        <time>2022-03-17T12:08:03Z</time>
      </trkpt>
      <trkpt lat="48.86967" lon="1.61927">
        <ele>122.1</ele>
        <time>2022-03-17T12:08:07Z</time>
      </trkpt>
      <trkpt lat="48.86971" lon="1.61924">
        <ele>122.2</ele>
        <time>2022-03-17T12:08:10Z</time>
      </trkpt>
      <trkpt lat="48.86978" lon="1.61922">
        <ele>122.5</ele>
        <time>2022-03-17T12:08:15Z</time>
      </trkpt>
      <trkpt lat="48.86983" lon="1.6192">
        <ele>122.7</ele>
        <time>2022-03-17T12:08:20Z</time>
      </trkpt>
      <trkpt lat="48.86989" lon="1.61919">
        <ele>122.8</ele>
        <time>2022-03-17T12:08:25Z</time>
      </trkpt>
      <trkpt lat="48.86994" lon="1.6192">
        <ele>122.8</ele>
        <time>2022-03-17T12:08:29Z</time>
      </trkpt>
      <trkpt lat="48.86999" lon="1.6192">
        <ele>123.2</ele>
        <time>2022-03-17T12:08:34Z</time>
      </trkpt>
      <trkpt lat="48.87004" lon="1.6192">
        <ele>123.4</ele>
        <time>2022-03-17T12:08:37Z</time>
      </trkpt>
      <trkpt lat="48.87009" lon="1.6192">
        <ele>123.6</ele>
        <time>2022-03-17T12:08:41Z</time>
      </trkpt>
      <trkpt lat="48.87013" lon="1.6192">
        <ele>123.8</ele>
        <time>2022-03-17T12:08:45Z</time>
      </trkpt>
      <trkpt lat="48.87019" lon="1.61922">
        <ele>124.1</ele>
        <time>2022-03-17T12:08:49Z</time>
      </trkpt>
      <trkpt lat="48.87023" lon="1.61923">
        <ele>124.2</ele>
        <time>2022-03-17T12:08:53Z</time>
      </trkpt>
      <trkpt lat="48.87028" lon="1.61923">
        <ele>124.3</ele>
        <time>2022-03-17T12:08:57Z</time>
      </trkpt>
      <trkpt lat="48.87032" lon="1.61919">
        <ele>124.4</ele>
        <time>2022-03-17T12:09:01Z</time>
      </trkpt>
      <trkpt lat="48.87037" lon="1.61922">
        <ele>124.8</ele>
        <time>2022-03-17T12:09:06Z</time>
      </trkpt>
      <trkpt lat="48.87043" lon="1.61925">
        <ele>124.8</ele>
        <time>2022-03-17T12:09:11Z</time>
      </trkpt>
      <trkpt lat="48.87049" lon="1.61927">
        <ele>124.7</ele>
        <time>2022-03-17T12:09:16Z</time>
      </trkpt>
      <trkpt lat="48.87055" lon="1.61928">
        <ele>124.8</ele>
        <time>2022-03-17T12:09:21Z</time>
      </trkpt>
      <trkpt lat="48.8706" lon="1.61928">
        <ele>124.9</ele>
        <time>2022-03-17T12:09:25Z</time>
      </trkpt>
      <trkpt lat="48.87065" lon="1.6193">
        <ele>124.9</ele>
        <time>2022-03-17T12:09:29Z</time>
      </trkpt>
      <trkpt lat="48.8707" lon="1.6193">
        <ele>124.9</ele>
        <time>2022-03-17T12:09:33Z</time>
      </trkpt>
      <trkpt lat="48.87075" lon="1.61931">
        <ele>124.9</ele>
        <time>2022-03-17T12:09:36Z</time>
      </trkpt>
      <trkpt lat="48.8708" lon="1.61932">
        <ele>124.9</ele>
        <time>2022-03-17T12:09:41Z</time>
      </trkpt>
      <trkpt lat="48.87088" lon="1.6193">
        <ele>124.4</ele>
        <time>2022-03-17T12:10:08Z</time>
      </trkpt>
      <trkpt lat="48.87094" lon="1.61931">
        <ele>124</ele>
        <time>2022-03-17T12:10:12Z</time>
      </trkpt>
      <trkpt lat="48.871" lon="1.61935">
        <ele>124.1</ele>
        <time>2022-03-17T12:10:16Z</time>
      </trkpt>
      <trkpt lat="48.87104" lon="1.61937">
        <ele>124.2</ele>
        <time>2022-03-17T12:10:19Z</time>
      </trkpt>
      <trkpt lat="48.87109" lon="1.61938">
        <ele>124.3</ele>
        <time>2022-03-17T12:10:23Z</time>
      </trkpt>
      <trkpt lat="48.87115" lon="1.61938">
        <ele>123.9</ele>
        <time>2022-03-17T12:10:27Z</time>
      </trkpt>
      <trkpt lat="48.8712" lon="1.61939">
        <ele>123.7</ele>
        <time>2022-03-17T12:10:32Z</time>
      </trkpt>
      <trkpt lat="48.87125" lon="1.61942">
        <ele>124</ele>
        <time>2022-03-17T12:10:36Z</time>
      </trkpt>
      <trkpt lat="48.8713" lon="1.61943">
        <ele>124.3</ele>
        <time>2022-03-17T12:10:40Z</time>
      </trkpt>
      <trkpt lat="48.87134" lon="1.61945">
        <ele>124.5</ele>
        <time>2022-03-17T12:10:43Z</time>
      </trkpt>
      <trkpt lat="48.87139" lon="1.61945">
        <ele>125.1</ele>
        <time>2022-03-17T12:10:47Z</time>
      </trkpt>
      <trkpt lat="48.87144" lon="1.61946">
        <ele>125.4</ele>
        <time>2022-03-17T12:10:51Z</time>
      </trkpt>
      <trkpt lat="48.87149" lon="1.61946">
        <ele>125.5</ele>
        <time>2022-03-17T12:10:54Z</time>
      </trkpt>
      <trkpt lat="48.87154" lon="1.61947">
        <ele>125.5</ele>
        <time>2022-03-17T12:10:59Z</time>
      </trkpt>
      <trkpt lat="48.8716" lon="1.61949">
        <ele>125.7</ele>
        <time>2022-03-17T12:11:04Z</time>
      </trkpt>
      <trkpt lat="48.87165" lon="1.61949">
        <ele>125.7</ele>
        <time>2022-03-17T12:11:08Z</time>
      </trkpt>
      <trkpt lat="48.87171" lon="1.61949">
        <ele>125.6</ele>
        <time>2022-03-17T12:11:12Z</time>
      </trkpt>
      <trkpt lat="48.87176" lon="1.61949">
        <ele>125.3</ele>
        <time>2022-03-17T12:11:17Z</time>
      </trkpt>
      <trkpt lat="48.87181" lon="1.61947">
        <ele>124.5</ele>
        <time>2022-03-17T12:11:22Z</time>
      </trkpt>
      <trkpt lat="48.87187" lon="1.61946">
        <ele>123.7</ele>
        <time>2022-03-17T12:11:27Z</time>
      </trkpt>
      <trkpt lat="48.87193" lon="1.61947">
        <ele>123.4</ele>
        <time>2022-03-17T12:11:31Z</time>
      </trkpt>
      <trkpt lat="48.87198" lon="1.61948">
        <ele>123</ele>
        <time>2022-03-17T12:11:36Z</time>
      </trkpt>
      <trkpt lat="48.87203" lon="1.61947">
        <ele>122.4</ele>
        <time>2022-03-17T12:11:40Z</time>
      </trkpt>
      <trkpt lat="48.87208" lon="1.61949">
        <ele>122.5</ele>
        <time>2022-03-17T12:11:45Z</time>
      </trkpt>
      <trkpt lat="48.87213" lon="1.61951">
        <ele>123.2</ele>
        <time>2022-03-17T12:11:49Z</time>
      </trkpt>
      <trkpt lat="48.87218" lon="1.61953">
        <ele>123.8</ele>
        <time>2022-03-17T12:11:54Z</time>
      </trkpt>
      <trkpt lat="48.87223" lon="1.61955">
        <ele>124.2</ele>
        <time>2022-03-17T12:11:59Z</time>
      </trkpt>
      <trkpt lat="48.87227" lon="1.61957">
        <ele>124.2</ele>
        <time>2022-03-17T12:12:04Z</time>
      </trkpt>
      <trkpt lat="48.87232" lon="1.61956">
        <ele>124</ele>
        <time>2022-03-17T12:12:08Z</time>
      </trkpt>
      <trkpt lat="48.87237" lon="1.61955">
        <ele>124</ele>
        <time>2022-03-17T12:12:13Z</time>
      </trkpt>
      <trkpt lat="48.87241" lon="1.61957">
        <ele>124.1</ele>
        <time>2022-03-17T12:12:18Z</time>
      </trkpt>
      <trkpt lat="48.87246" lon="1.61959">
        <ele>123.9</ele>
        <time>2022-03-17T12:12:23Z</time>
      </trkpt>
      <trkpt lat="48.87251" lon="1.61957">
        <ele>122.9</ele>
        <time>2022-03-17T12:12:29Z</time>
      </trkpt>
      <trkpt lat="48.87245" lon="1.61962">
        <ele>121.4</ele>
        <time>2022-03-17T12:13:35Z</time>
      </trkpt>
      <trkpt lat="48.87244" lon="1.61955">
        <ele>121.1</ele>
        <time>2022-03-17T12:13:42Z</time>
      </trkpt>
      <trkpt lat="48.87243" lon="1.61947">
        <ele>121.9</ele>
        <time>2022-03-17T12:13:47Z</time>
      </trkpt>
      <trkpt lat="48.87241" lon="1.61941">
        <ele>122.4</ele>
        <time>2022-03-17T12:13:52Z</time>
      </trkpt>
      <trkpt lat="48.87241" lon="1.61934">
        <ele>125.3</ele>
        <time>2022-03-17T12:14:11Z</time>
      </trkpt>
      <trkpt lat="48.87239" lon="1.6195">
        <ele>126.7</ele>
        <time>2022-03-17T12:48:45Z</time>
      </trkpt>
      <trkpt lat="48.87236" lon="1.61955">
        <ele>124.2</ele>
        <time>2022-03-17T12:49:09Z</time>
      </trkpt>
      <trkpt lat="48.87231" lon="1.61958">
        <ele>122.3</ele>
        <time>2022-03-17T12:49:17Z</time>
      </trkpt>
      <trkpt lat="48.87226" lon="1.61956">
        <ele>122</ele>
        <time>2022-03-17T12:49:22Z</time>
      </trkpt>
      <trkpt lat="48.87221" lon="1.61954">
        <ele>122.2</ele>
        <time>2022-03-17T12:49:28Z</time>
      </trkpt>
      <trkpt lat="48.87216" lon="1.61954">
        <ele>122.2</ele>
        <time>2022-03-17T12:49:38Z</time>
      </trkpt>
      <trkpt lat="48.87213" lon="1.61949">
        <ele>122</ele>
        <time>2022-03-17T12:49:46Z</time>
      </trkpt>
      <trkpt lat="48.87212" lon="1.61941">
        <ele>121.6</ele>
        <time>2022-03-17T12:49:52Z</time>
      </trkpt>
      <trkpt lat="48.87208" lon="1.61937">
        <ele>121.1</ele>
        <time>2022-03-17T12:49:59Z</time>
      </trkpt>
      <trkpt lat="48.87203" lon="1.61937">
        <ele>120.8</ele>
        <time>2022-03-17T12:50:05Z</time>
      </trkpt>
      <trkpt lat="48.872" lon="1.61932">
        <ele>120.6</ele>
        <time>2022-03-17T12:50:12Z</time>
      </trkpt>
      <trkpt lat="48.87197" lon="1.61926">
        <ele>120.2</ele>
        <time>2022-03-17T12:50:17Z</time>
      </trkpt>
      <trkpt lat="48.87196" lon="1.61918">
        <ele>120.3</ele>
        <time>2022-03-17T12:50:23Z</time>
      </trkpt>
      <trkpt lat="48.87195" lon="1.61911">
        <ele>120.5</ele>
        <time>2022-03-17T12:50:28Z</time>
      </trkpt>
      <trkpt lat="48.87192" lon="1.61905">
        <ele>118</ele>
        <time>2022-03-17T12:50:44Z</time>
      </trkpt>
      <trkpt lat="48.8719" lon="1.619">
        <ele>118.6</ele>
        <time>2022-03-17T12:50:47Z</time>
      </trkpt>
      <trkpt lat="48.87186" lon="1.61892">
        <ele>119.2</ele>
        <time>2022-03-17T12:50:52Z</time>
      </trkpt>
      <trkpt lat="48.87183" lon="1.61884">
        <ele>118.9</ele>
        <time>2022-03-17T12:50:57Z</time>
      </trkpt>
      <trkpt lat="48.87179" lon="1.6188">
        <ele>118.5</ele>
        <time>2022-03-17T12:51:01Z</time>
      </trkpt>
      <trkpt lat="48.87174" lon="1.61876">
        <ele>118.5</ele>
        <time>2022-03-17T12:51:05Z</time>
      </trkpt>
      <trkpt lat="48.8717" lon="1.61874">
        <ele>118.4</ele>
        <time>2022-03-17T12:51:08Z</time>
      </trkpt>
      <trkpt lat="48.87164" lon="1.61872">
        <ele>118.4</ele>
        <time>2022-03-17T12:51:13Z</time>
      </trkpt>
      <trkpt lat="48.87158" lon="1.61872">
        <ele>118.6</ele>
        <time>2022-03-17T12:51:17Z</time>
      </trkpt>
      <trkpt lat="48.87152" lon="1.61871">
        <ele>119.9</ele>
        <time>2022-03-17T12:51:22Z</time>
      </trkpt>
      <trkpt lat="48.87148" lon="1.61869">
        <ele>120.8</ele>
        <time>2022-03-17T12:51:25Z</time>
      </trkpt>
      <trkpt lat="48.87142" lon="1.61867">
        <ele>121.7</ele>
        <time>2022-03-17T12:51:30Z</time>
      </trkpt>
      <trkpt lat="48.87138" lon="1.61866">
        <ele>121.5</ele>
        <time>2022-03-17T12:51:34Z</time>
      </trkpt>
      <trkpt lat="48.87132" lon="1.61865">
        <ele>121</ele>
        <time>2022-03-17T12:51:39Z</time>
      </trkpt>
      <trkpt lat="48.87128" lon="1.61864">
        <ele>120.6</ele>
        <time>2022-03-17T12:51:42Z</time>
      </trkpt>
      <trkpt lat="48.87123" lon="1.61864">
        <ele>120</ele>
        <time>2022-03-17T12:51:47Z</time>
      </trkpt>
      <trkpt lat="48.87118" lon="1.61863">
        <ele>119.5</ele>
        <time>2022-03-17T12:51:52Z</time>
      </trkpt>
      <trkpt lat="48.87112" lon="1.6186">
        <ele>119.4</ele>
        <time>2022-03-17T12:51:56Z</time>
      </trkpt>
      <trkpt lat="48.87108" lon="1.61858">
        <ele>120.4</ele>
        <time>2022-03-17T12:52:00Z</time>
      </trkpt>
      <trkpt lat="48.87103" lon="1.61856">
        <ele>121.9</ele>
        <time>2022-03-17T12:52:04Z</time>
      </trkpt>
      <trkpt lat="48.87098" lon="1.61854">
        <ele>122.8</ele>
        <time>2022-03-17T12:52:09Z</time>
      </trkpt>
      <trkpt lat="48.87092" lon="1.61853">
        <ele>123.5</ele>
        <time>2022-03-17T12:52:13Z</time>
      </trkpt>
      <trkpt lat="48.87087" lon="1.6185">
        <ele>124.5</ele>
        <time>2022-03-17T12:52:17Z</time>
      </trkpt>
      <trkpt lat="48.87082" lon="1.61849">
        <ele>125.9</ele>
        <time>2022-03-17T12:52:22Z</time>
      </trkpt>
      <trkpt lat="48.87076" lon="1.61844">
        <ele>126.5</ele>
        <time>2022-03-17T12:52:27Z</time>
      </trkpt>
      <trkpt lat="48.87078" lon="1.61837">
        <ele>126.3</ele>
        <time>2022-03-17T12:52:31Z</time>
      </trkpt>
      <trkpt lat="48.87082" lon="1.61832">
        <ele>125.9</ele>
        <time>2022-03-17T12:52:34Z</time>
      </trkpt>
      <trkpt lat="48.87086" lon="1.61825">
        <ele>125</ele>
        <time>2022-03-17T12:52:39Z</time>
      </trkpt>
      <trkpt lat="48.8709" lon="1.6182">
        <ele>124.4</ele>
        <time>2022-03-17T12:52:43Z</time>
      </trkpt>
      <trkpt lat="48.87093" lon="1.61815">
        <ele>123.2</ele>
        <time>2022-03-17T12:52:47Z</time>
      </trkpt>
      <trkpt lat="48.87097" lon="1.61809">
        <ele>121.8</ele>
        <time>2022-03-17T12:52:51Z</time>
      </trkpt>
      <trkpt lat="48.87101" lon="1.61804">
        <ele>121</ele>
        <time>2022-03-17T12:52:55Z</time>
      </trkpt>
      <trkpt lat="48.87105" lon="1.61799">
        <ele>120.6</ele>
        <time>2022-03-17T12:52:59Z</time>
      </trkpt>
      <trkpt lat="48.87109" lon="1.61793">
        <ele>120.4</ele>
        <time>2022-03-17T12:53:03Z</time>
      </trkpt>
      <trkpt lat="48.87112" lon="1.61786">
        <ele>121.2</ele>
        <time>2022-03-17T12:53:07Z</time>
      </trkpt>
      <trkpt lat="48.87117" lon="1.61778">
        <ele>121.9</ele>
        <time>2022-03-17T12:53:12Z</time>
      </trkpt>
      <trkpt lat="48.8712" lon="1.61773">
        <ele>122.1</ele>
        <time>2022-03-17T12:53:16Z</time>
      </trkpt>
      <trkpt lat="48.87123" lon="1.61766">
        <ele>122.2</ele>
        <time>2022-03-17T12:53:20Z</time>
      </trkpt>
      <trkpt lat="48.87125" lon="1.61761">
        <ele>122.3</ele>
        <time>2022-03-17T12:53:23Z</time>
      </trkpt>
      <trkpt lat="48.87129" lon="1.61752">
        <ele>122</ele>
        <time>2022-03-17T12:53:28Z</time>
      </trkpt>
      <trkpt lat="48.87131" lon="1.61746">
        <ele>122</ele>
        <time>2022-03-17T12:53:32Z</time>
      </trkpt>
      <trkpt lat="48.87134" lon="1.6174">
        <ele>122.5</ele>
        <time>2022-03-17T12:53:37Z</time>
      </trkpt>
      <trkpt lat="48.87137" lon="1.61733">
        <ele>122.7</ele>
        <time>2022-03-17T12:53:40Z</time>
      </trkpt>
      <trkpt lat="48.8714" lon="1.61729">
        <ele>122.8</ele>
        <time>2022-03-17T12:53:43Z</time>
      </trkpt>
      <trkpt lat="48.87145" lon="1.61721">
        <ele>122.4</ele>
        <time>2022-03-17T12:53:48Z</time>
      </trkpt>
      <trkpt lat="48.87149" lon="1.61714">
        <ele>121.9</ele>
        <time>2022-03-17T12:53:53Z</time>
      </trkpt>
      <trkpt lat="48.87152" lon="1.61705">
        <ele>121.6</ele>
        <time>2022-03-17T12:53:58Z</time>
      </trkpt>
      <trkpt lat="48.87158" lon="1.61696">
        <ele>121.8</ele>
        <time>2022-03-17T12:54:03Z</time>
      </trkpt>
      <trkpt lat="48.87161" lon="1.61691">
        <ele>120.9</ele>
        <time>2022-03-17T12:54:08Z</time>
      </trkpt>
      <trkpt lat="48.87164" lon="1.61685">
        <ele>120.2</ele>
        <time>2022-03-17T12:54:12Z</time>
      </trkpt>
      <trkpt lat="48.87167" lon="1.61678">
        <ele>120</ele>
        <time>2022-03-17T12:54:16Z</time>
      </trkpt>
      <trkpt lat="48.8717" lon="1.61671">
        <ele>120.1</ele>
        <time>2022-03-17T12:54:20Z</time>
      </trkpt>
      <trkpt lat="48.87173" lon="1.61664">
        <ele>120</ele>
        <time>2022-03-17T12:54:24Z</time>
      </trkpt>
      <trkpt lat="48.87175" lon="1.61658">
        <ele>119.6</ele>
        <time>2022-03-17T12:54:27Z</time>
      </trkpt>
      <trkpt lat="48.87179" lon="1.6165">
        <ele>119.4</ele>
        <time>2022-03-17T12:54:33Z</time>
      </trkpt>
      <trkpt lat="48.87183" lon="1.61642">
        <ele>119.9</ele>
        <time>2022-03-17T12:54:37Z</time>
      </trkpt>
      <trkpt lat="48.87186" lon="1.61634">
        <ele>121.5</ele>
        <time>2022-03-17T12:54:43Z</time>
      </trkpt>
      <trkpt lat="48.8719" lon="1.61626">
        <ele>122.4</ele>
        <time>2022-03-17T12:54:48Z</time>
      </trkpt>
      <trkpt lat="48.87193" lon="1.61619">
        <ele>122.4</ele>
        <time>2022-03-17T12:54:53Z</time>
      </trkpt>
      <trkpt lat="48.87197" lon="1.61614">
        <ele>121.8</ele>
        <time>2022-03-17T12:54:57Z</time>
      </trkpt>
      <trkpt lat="48.872" lon="1.61607">
        <ele>121.5</ele>
        <time>2022-03-17T12:55:01Z</time>
      </trkpt>
      <trkpt lat="48.87203" lon="1.616">
        <ele>121.7</ele>
        <time>2022-03-17T12:55:05Z</time>
      </trkpt>
      <trkpt lat="48.87206" lon="1.61594">
        <ele>122.2</ele>
        <time>2022-03-17T12:55:08Z</time>
      </trkpt>
      <trkpt lat="48.87209" lon="1.61587">
        <ele>122.6</ele>
        <time>2022-03-17T12:55:13Z</time>
      </trkpt>
      <trkpt lat="48.87213" lon="1.6158">
        <ele>123</ele>
        <time>2022-03-17T12:55:18Z</time>
      </trkpt>
      <trkpt lat="48.87216" lon="1.61572">
        <ele>123</ele>
        <time>2022-03-17T12:55:23Z</time>
      </trkpt>
      <trkpt lat="48.87219" lon="1.61563">
        <ele>123</ele>
        <time>2022-03-17T12:55:28Z</time>
      </trkpt>
      <trkpt lat="48.87222" lon="1.61555">
        <ele>123.2</ele>
        <time>2022-03-17T12:55:33Z</time>
      </trkpt>
      <trkpt lat="48.87226" lon="1.61547">
        <ele>122.9</ele>
        <time>2022-03-17T12:55:38Z</time>
      </trkpt>
      <trkpt lat="48.87231" lon="1.6154">
        <ele>121.8</ele>
        <time>2022-03-17T12:55:43Z</time>
      </trkpt>
      <trkpt lat="48.87235" lon="1.61532">
        <ele>121</ele>
        <time>2022-03-17T12:55:48Z</time>
      </trkpt>
      <trkpt lat="48.87237" lon="1.61526">
        <ele>120.9</ele>
        <time>2022-03-17T12:55:52Z</time>
      </trkpt>
      <trkpt lat="48.8724" lon="1.61518">
        <ele>121</ele>
        <time>2022-03-17T12:55:56Z</time>
      </trkpt>
      <trkpt lat="48.87243" lon="1.61512">
        <ele>121</ele>
        <time>2022-03-17T12:55:59Z</time>
      </trkpt>
      <trkpt lat="48.87246" lon="1.61505">
        <ele>120.8</ele>
        <time>2022-03-17T12:56:03Z</time>
      </trkpt>
      <trkpt lat="48.87249" lon="1.61499">
        <ele>120.4</ele>
        <time>2022-03-17T12:56:07Z</time>
      </trkpt>
      <trkpt lat="48.87251" lon="1.61493">
        <ele>120.4</ele>
        <time>2022-03-17T12:56:11Z</time>
      </trkpt>
      <trkpt lat="48.87254" lon="1.61485">
        <ele>120.3</ele>
        <time>2022-03-17T12:56:16Z</time>
      </trkpt>
      <trkpt lat="48.87257" lon="1.61478">
        <ele>120.5</ele>
        <time>2022-03-17T12:56:19Z</time>
      </trkpt>
      <trkpt lat="48.87259" lon="1.61471">
        <ele>120.3</ele>
        <time>2022-03-17T12:56:23Z</time>
      </trkpt>
      <trkpt lat="48.87262" lon="1.61462">
        <ele>120.1</ele>
        <time>2022-03-17T12:56:28Z</time>
      </trkpt>
      <trkpt lat="48.87266" lon="1.61453">
        <ele>119.9</ele>
        <time>2022-03-17T12:56:33Z</time>
      </trkpt>
      <trkpt lat="48.87268" lon="1.61447">
        <ele>119.9</ele>
        <time>2022-03-17T12:56:37Z</time>
      </trkpt>
      <trkpt lat="48.87271" lon="1.61439">
        <ele>120.3</ele>
        <time>2022-03-17T12:56:42Z</time>
      </trkpt>
      <trkpt lat="48.87273" lon="1.61433">
        <ele>120.3</ele>
        <time>2022-03-17T12:56:45Z</time>
      </trkpt>
      <trkpt lat="48.87275" lon="1.61426">
        <ele>120</ele>
        <time>2022-03-17T12:56:48Z</time>
      </trkpt>
      <trkpt lat="48.87278" lon="1.6142">
        <ele>119.2</ele>
        <time>2022-03-17T12:56:52Z</time>
      </trkpt>
      <trkpt lat="48.8728" lon="1.61413">
        <ele>118.5</ele>
        <time>2022-03-17T12:56:56Z</time>
      </trkpt>
      <trkpt lat="48.87282" lon="1.61408">
        <ele>118</ele>
        <time>2022-03-17T12:56:59Z</time>
      </trkpt>
      <trkpt lat="48.87286" lon="1.614">
        <ele>117.9</ele>
        <time>2022-03-17T12:57:04Z</time>
      </trkpt>
      <trkpt lat="48.87289" lon="1.61393">
        <ele>117.7</ele>
        <time>2022-03-17T12:57:08Z</time>
      </trkpt>
      <trkpt lat="48.87293" lon="1.61385">
        <ele>117.5</ele>
        <time>2022-03-17T12:57:13Z</time>
      </trkpt>
      <trkpt lat="48.87297" lon="1.61376">
        <ele>117.2</ele>
        <time>2022-03-17T12:57:18Z</time>
      </trkpt>
      <trkpt lat="48.873" lon="1.61368">
        <ele>117.5</ele>
        <time>2022-03-17T12:57:23Z</time>
      </trkpt>
      <trkpt lat="48.87304" lon="1.6136">
        <ele>118.4</ele>
        <time>2022-03-17T12:57:28Z</time>
      </trkpt>
      <trkpt lat="48.87308" lon="1.61352">
        <ele>118.6</ele>
        <time>2022-03-17T12:57:33Z</time>
      </trkpt>
      <trkpt lat="48.87311" lon="1.61346">
        <ele>118.2</ele>
        <time>2022-03-17T12:57:37Z</time>
      </trkpt>
      <trkpt lat="48.87314" lon="1.61339">
        <ele>117.5</ele>
        <time>2022-03-17T12:57:41Z</time>
      </trkpt>
      <trkpt lat="48.87316" lon="1.61333">
        <ele>117.2</ele>
        <time>2022-03-17T12:57:44Z</time>
      </trkpt>
      <trkpt lat="48.87319" lon="1.61325">
        <ele>116.7</ele>
        <time>2022-03-17T12:57:48Z</time>
      </trkpt>
      <trkpt lat="48.8732" lon="1.61318">
        <ele>115.9</ele>
        <time>2022-03-17T12:57:52Z</time>
      </trkpt>
      <trkpt lat="48.87322" lon="1.61312">
        <ele>115.2</ele>
        <time>2022-03-17T12:57:56Z</time>
      </trkpt>
      <trkpt lat="48.87325" lon="1.61305">
        <ele>114.7</ele>
        <time>2022-03-17T12:58:00Z</time>
      </trkpt>
      <trkpt lat="48.87328" lon="1.613">
        <ele>114.5</ele>
        <time>2022-03-17T12:58:03Z</time>
      </trkpt>
      <trkpt lat="48.87331" lon="1.61294">
        <ele>114.5</ele>
        <time>2022-03-17T12:58:07Z</time>
      </trkpt>
      <trkpt lat="48.87334" lon="1.61289">
        <ele>114.5</ele>
        <time>2022-03-17T12:58:11Z</time>
      </trkpt>
      <trkpt lat="48.87337" lon="1.61281">
        <ele>114.3</ele>
        <time>2022-03-17T12:58:15Z</time>
      </trkpt>
      <trkpt lat="48.87339" lon="1.61274">
        <ele>114.1</ele>
        <time>2022-03-17T12:58:19Z</time>
      </trkpt>
      <trkpt lat="48.87342" lon="1.61266">
        <ele>113.9</ele>
        <time>2022-03-17T12:58:23Z</time>
      </trkpt>
      <trkpt lat="48.87345" lon="1.61261">
        <ele>114.1</ele>
        <time>2022-03-17T12:58:28Z</time>
      </trkpt>
      <trkpt lat="48.87348" lon="1.61255">
        <ele>113.8</ele>
        <time>2022-03-17T12:58:32Z</time>
      </trkpt>
      <trkpt lat="48.87351" lon="1.61248">
        <ele>113.4</ele>
        <time>2022-03-17T12:58:36Z</time>
      </trkpt>
      <trkpt lat="48.87354" lon="1.61241">
        <ele>113.3</ele>
        <time>2022-03-17T12:58:40Z</time>
      </trkpt>
      <trkpt lat="48.87357" lon="1.61234">
        <ele>113.4</ele>
        <time>2022-03-17T12:58:44Z</time>
      </trkpt>
      <trkpt lat="48.8736" lon="1.61228">
        <ele>113.3</ele>
        <time>2022-03-17T12:58:48Z</time>
      </trkpt>
      <trkpt lat="48.87362" lon="1.61221">
        <ele>112.8</ele>
        <time>2022-03-17T12:58:52Z</time>
      </trkpt>
      <trkpt lat="48.87365" lon="1.61215">
        <ele>111.8</ele>
        <time>2022-03-17T12:58:56Z</time>
      </trkpt>
      <trkpt lat="48.87368" lon="1.61209">
        <ele>111.2</ele>
        <time>2022-03-17T12:58:59Z</time>
      </trkpt>
      <trkpt lat="48.87371" lon="1.61202">
        <ele>111.2</ele>
        <time>2022-03-17T12:59:03Z</time>
      </trkpt>
      <trkpt lat="48.87376" lon="1.61195">
        <ele>111</ele>
        <time>2022-03-17T12:59:08Z</time>
      </trkpt>
      <trkpt lat="48.87381" lon="1.61187">
        <ele>110.4</ele>
        <time>2022-03-17T12:59:13Z</time>
      </trkpt>
      <trkpt lat="48.87384" lon="1.61182">
        <ele>109.9</ele>
        <time>2022-03-17T12:59:16Z</time>
      </trkpt>
      <trkpt lat="48.87387" lon="1.61176">
        <ele>109.6</ele>
        <time>2022-03-17T12:59:20Z</time>
      </trkpt>
      <trkpt lat="48.8739" lon="1.61169">
        <ele>108.9</ele>
        <time>2022-03-17T12:59:25Z</time>
      </trkpt>
      <trkpt lat="48.87392" lon="1.61163">
        <ele>108.1</ele>
        <time>2022-03-17T12:59:29Z</time>
      </trkpt>
      <trkpt lat="48.87395" lon="1.61156">
        <ele>107.4</ele>
        <time>2022-03-17T12:59:33Z</time>
      </trkpt>
      <trkpt lat="48.87398" lon="1.61149">
        <ele>106.6</ele>
        <time>2022-03-17T12:59:37Z</time>
      </trkpt>
      <trkpt lat="48.874" lon="1.61142">
        <ele>106.3</ele>
        <time>2022-03-17T12:59:41Z</time>
      </trkpt>
      <trkpt lat="48.87404" lon="1.61134">
        <ele>106.4</ele>
        <time>2022-03-17T12:59:46Z</time>
      </trkpt>
      <trkpt lat="48.87407" lon="1.61128">
        <ele>107</ele>
        <time>2022-03-17T12:59:50Z</time>
      </trkpt>
      <trkpt lat="48.87409" lon="1.6112">
        <ele>107.5</ele>
        <time>2022-03-17T12:59:54Z</time>
      </trkpt>
      <trkpt lat="48.87412" lon="1.61113">
        <ele>107.7</ele>
        <time>2022-03-17T12:59:58Z</time>
      </trkpt>
      <trkpt lat="48.87414" lon="1.61106">
        <ele>107.8</ele>
        <time>2022-03-17T13:00:01Z</time>
      </trkpt>
      <trkpt lat="48.87417" lon="1.61097">
        <ele>107.7</ele>
        <time>2022-03-17T13:00:05Z</time>
      </trkpt>
      <trkpt lat="48.87419" lon="1.6109">
        <ele>107.2</ele>
        <time>2022-03-17T13:00:10Z</time>
      </trkpt>
      <trkpt lat="48.87421" lon="1.61082">
        <ele>106.2</ele>
        <time>2022-03-17T13:00:15Z</time>
      </trkpt>
      <trkpt lat="48.87423" lon="1.61075">
        <ele>105.4</ele>
        <time>2022-03-17T13:00:18Z</time>
      </trkpt>
      <trkpt lat="48.87426" lon="1.6107">
        <ele>104.6</ele>
        <time>2022-03-17T13:00:21Z</time>
      </trkpt>
      <trkpt lat="48.8743" lon="1.61063">
        <ele>104.3</ele>
        <time>2022-03-17T13:00:26Z</time>
      </trkpt>
      <trkpt lat="48.87433" lon="1.61057">
        <ele>105.1</ele>
        <time>2022-03-17T13:00:30Z</time>
      </trkpt>
      <trkpt lat="48.87435" lon="1.61049">
        <ele>105.5</ele>
        <time>2022-03-17T13:00:34Z</time>
      </trkpt>
      <trkpt lat="48.87437" lon="1.61041">
        <ele>104.4</ele>
        <time>2022-03-17T13:00:38Z</time>
      </trkpt>
      <trkpt lat="48.8744" lon="1.61036">
        <ele>102.9</ele>
        <time>2022-03-17T13:00:42Z</time>
      </trkpt>
      <trkpt lat="48.87445" lon="1.61032">
        <ele>102.2</ele>
        <time>2022-03-17T13:00:47Z</time>
      </trkpt>
      <trkpt lat="48.8745" lon="1.6103">
        <ele>102.3</ele>
        <time>2022-03-17T13:00:50Z</time>
      </trkpt>
      <trkpt lat="48.87455" lon="1.61027">
        <ele>101.7</ele>
        <time>2022-03-17T13:00:54Z</time>
      </trkpt>
      <trkpt lat="48.8746" lon="1.61024">
        <ele>101.2</ele>
        <time>2022-03-17T13:00:59Z</time>
      </trkpt>
      <trkpt lat="48.87464" lon="1.61022">
        <ele>101.3</ele>
        <time>2022-03-17T13:01:02Z</time>
      </trkpt>
      <trkpt lat="48.87469" lon="1.61022">
        <ele>101.6</ele>
        <time>2022-03-17T13:01:06Z</time>
      </trkpt>
      <trkpt lat="48.87474" lon="1.61024">
        <ele>100.6</ele>
        <time>2022-03-17T13:01:11Z</time>
      </trkpt>
      <trkpt lat="48.8748" lon="1.61025">
        <ele>99.8</ele>
        <time>2022-03-17T13:01:16Z</time>
      </trkpt>
      <trkpt lat="48.87486" lon="1.61027">
        <ele>98.9</ele>
        <time>2022-03-17T13:01:21Z</time>
      </trkpt>
      <trkpt lat="48.87491" lon="1.61031">
        <ele>98.3</ele>
        <time>2022-03-17T13:01:26Z</time>
      </trkpt>
      <trkpt lat="48.87496" lon="1.61033">
        <ele>98.8</ele>
        <time>2022-03-17T13:01:31Z</time>
      </trkpt>
      <trkpt lat="48.875" lon="1.61037">
        <ele>99.3</ele>
        <time>2022-03-17T13:01:36Z</time>
      </trkpt>
      <trkpt lat="48.87505" lon="1.61038">
        <ele>99.3</ele>
        <time>2022-03-17T13:01:41Z</time>
      </trkpt>
      <trkpt lat="48.8751" lon="1.61041">
        <ele>99.1</ele>
        <time>2022-03-17T13:01:46Z</time>
      </trkpt>
      <trkpt lat="48.87514" lon="1.61047">
        <ele>99</ele>
        <time>2022-03-17T13:01:52Z</time>
      </trkpt>
      <trkpt lat="48.87518" lon="1.61052">
        <ele>98.6</ele>
        <time>2022-03-17T13:01:55Z</time>
      </trkpt>
      <trkpt lat="48.87521" lon="1.61058">
        <ele>98.1</ele>
        <time>2022-03-17T13:02:00Z</time>
      </trkpt>
      <trkpt lat="48.87526" lon="1.61062">
        <ele>98</ele>
        <time>2022-03-17T13:02:04Z</time>
      </trkpt>
      <trkpt lat="48.87531" lon="1.61065">
        <ele>98</ele>
        <time>2022-03-17T13:02:09Z</time>
      </trkpt>
      <trkpt lat="48.87536" lon="1.61065">
        <ele>98.1</ele>
        <time>2022-03-17T13:02:12Z</time>
      </trkpt>
      <trkpt lat="48.87542" lon="1.61063">
        <ele>97.2</ele>
        <time>2022-03-17T13:02:16Z</time>
      </trkpt>
      <trkpt lat="48.87549" lon="1.61063">
        <ele>96</ele>
        <time>2022-03-17T13:02:21Z</time>
      </trkpt>
      <trkpt lat="48.87556" lon="1.61066">
        <ele>94.7</ele>
        <time>2022-03-17T13:02:26Z</time>
      </trkpt>
      <trkpt lat="48.87562" lon="1.61065">
        <ele>92.7</ele>
        <time>2022-03-17T13:02:31Z</time>
      </trkpt>
      <trkpt lat="48.87568" lon="1.61064">
        <ele>89.8</ele>
        <time>2022-03-17T13:02:36Z</time>
      </trkpt>
      <trkpt lat="48.87573" lon="1.61065">
        <ele>89.4</ele>
        <time>2022-03-17T13:02:41Z</time>
      </trkpt>
      <trkpt lat="48.87578" lon="1.61068">
        <ele>90.9</ele>
        <time>2022-03-17T13:02:46Z</time>
      </trkpt>
      <trkpt lat="48.87581" lon="1.61061">
        <ele>94.1</ele>
        <time>2022-03-17T13:02:53Z</time>
      </trkpt>
      <trkpt lat="48.87581" lon="1.61052">
        <ele>94.4</ele>
        <time>2022-03-17T13:02:59Z</time>
      </trkpt>
      <trkpt lat="48.87581" lon="1.61045">
        <ele>93.4</ele>
        <time>2022-03-17T13:03:02Z</time>
      </trkpt>
      <trkpt lat="48.87581" lon="1.61037">
        <ele>91.6</ele>
        <time>2022-03-17T13:03:06Z</time>
      </trkpt>
      <trkpt lat="48.8758" lon="1.61029">
        <ele>89.5</ele>
        <time>2022-03-17T13:03:11Z</time>
      </trkpt>
      <trkpt lat="48.87581" lon="1.61022">
        <ele>89.5</ele>
        <time>2022-03-17T13:03:17Z</time>
      </trkpt>
      <trkpt lat="48.87583" lon="1.61014">
        <ele>91.4</ele>
        <time>2022-03-17T13:03:22Z</time>
      </trkpt>
      <trkpt lat="48.87582" lon="1.61005">
        <ele>92.9</ele>
        <time>2022-03-17T13:03:27Z</time>
      </trkpt>
      <trkpt lat="48.87582" lon="1.60997">
        <ele>92.5</ele>
        <time>2022-03-17T13:03:32Z</time>
      </trkpt>
      <trkpt lat="48.87584" lon="1.6099">
        <ele>90.7</ele>
        <time>2022-03-17T13:03:37Z</time>
      </trkpt>
      <trkpt lat="48.87584" lon="1.60983">
        <ele>90.9</ele>
        <time>2022-03-17T13:03:41Z</time>
      </trkpt>
      <trkpt lat="48.87583" lon="1.60974">
        <ele>92.4</ele>
        <time>2022-03-17T13:03:47Z</time>
      </trkpt>
      <trkpt lat="48.87583" lon="1.60966">
        <ele>93.6</ele>
        <time>2022-03-17T13:03:52Z</time>
      </trkpt>
      <trkpt lat="48.87586" lon="1.60958">
        <ele>94.1</ele>
        <time>2022-03-17T13:03:56Z</time>
      </trkpt>
      <trkpt lat="48.8759" lon="1.60955">
        <ele>94.8</ele>
        <time>2022-03-17T13:04:01Z</time>
      </trkpt>
      <trkpt lat="48.87593" lon="1.60948">
        <ele>95</ele>
        <time>2022-03-17T13:04:06Z</time>
      </trkpt>
      <trkpt lat="48.87592" lon="1.6094">
        <ele>94.9</ele>
        <time>2022-03-17T13:04:11Z</time>
      </trkpt>
      <trkpt lat="48.87596" lon="1.60935">
        <ele>93.7</ele>
        <time>2022-03-17T13:04:17Z</time>
      </trkpt>
      <trkpt lat="48.87602" lon="1.60934">
        <ele>92.6</ele>
        <time>2022-03-17T13:04:22Z</time>
      </trkpt>
      <trkpt lat="48.87607" lon="1.60937">
        <ele>91.1</ele>
        <time>2022-03-17T13:04:28Z</time>
      </trkpt>
      <trkpt lat="48.8761" lon="1.60943">
        <ele>88.6</ele>
        <time>2022-03-17T13:04:34Z</time>
      </trkpt>
      <trkpt lat="48.87613" lon="1.60949">
        <ele>88.2</ele>
        <time>2022-03-17T13:04:38Z</time>
      </trkpt>
      <trkpt lat="48.87617" lon="1.60955">
        <ele>89</ele>
        <time>2022-03-17T13:04:43Z</time>
      </trkpt>
      <trkpt lat="48.87618" lon="1.60964">
        <ele>90.4</ele>
        <time>2022-03-17T13:04:47Z</time>
      </trkpt>
      <trkpt lat="48.87619" lon="1.60971">
        <ele>91.8</ele>
        <time>2022-03-17T13:04:51Z</time>
      </trkpt>
      <trkpt lat="48.8762" lon="1.6098">
        <ele>92.7</ele>
        <time>2022-03-17T13:04:55Z</time>
      </trkpt>
      <trkpt lat="48.87622" lon="1.60987">
        <ele>95.3</ele>
        <time>2022-03-17T13:05:00Z</time>
      </trkpt>
      <trkpt lat="48.87627" lon="1.60988">
        <ele>97.5</ele>
        <time>2022-03-17T13:05:04Z</time>
      </trkpt>
      <trkpt lat="48.87632" lon="1.60984">
        <ele>98.4</ele>
        <time>2022-03-17T13:05:07Z</time>
      </trkpt>
      <trkpt lat="48.87634" lon="1.60977">
        <ele>98.9</ele>
        <time>2022-03-17T13:05:11Z</time>
      </trkpt>
      <trkpt lat="48.87635" lon="1.6097">
        <ele>98.7</ele>
        <time>2022-03-17T13:05:15Z</time>
      </trkpt>
      <trkpt lat="48.87635" lon="1.60962">
        <ele>98.8</ele>
        <time>2022-03-17T13:05:19Z</time>
      </trkpt>
      <trkpt lat="48.87633" lon="1.60957">
        <ele>98.6</ele>
        <time>2022-03-17T13:05:24Z</time>
      </trkpt>
      <trkpt lat="48.87633" lon="1.6095">
        <ele>98.5</ele>
        <time>2022-03-17T13:05:28Z</time>
      </trkpt>
      <trkpt lat="48.87635" lon="1.60943">
        <ele>98.5</ele>
        <time>2022-03-17T13:05:32Z</time>
      </trkpt>
      <trkpt lat="48.87637" lon="1.60936">
        <ele>98.2</ele>
        <time>2022-03-17T13:05:37Z</time>
      </trkpt>
      <trkpt lat="48.87639" lon="1.60929">
        <ele>98.1</ele>
        <time>2022-03-17T13:05:42Z</time>
      </trkpt>
      <trkpt lat="48.87639" lon="1.60922">
        <ele>99.5</ele>
        <time>2022-03-17T13:05:48Z</time>
      </trkpt>
      <trkpt lat="48.87641" lon="1.60915">
        <ele>100</ele>
        <time>2022-03-17T13:05:52Z</time>
      </trkpt>
      <trkpt lat="48.87644" lon="1.60908">
        <ele>100.1</ele>
        <time>2022-03-17T13:05:57Z</time>
      </trkpt>
      <trkpt lat="48.87646" lon="1.60899">
        <ele>100.6</ele>
        <time>2022-03-17T13:06:02Z</time>
      </trkpt>
      <trkpt lat="48.87649" lon="1.60891">
        <ele>100.9</ele>
        <time>2022-03-17T13:06:07Z</time>
      </trkpt>
      <trkpt lat="48.87651" lon="1.60884">
        <ele>101.5</ele>
        <time>2022-03-17T13:06:12Z</time>
      </trkpt>
      <trkpt lat="48.87652" lon="1.60876">
        <ele>101.5</ele>
        <time>2022-03-17T13:06:17Z</time>
      </trkpt>
      <trkpt lat="48.87655" lon="1.60868">
        <ele>103.6</ele>
        <time>2022-03-17T13:06:22Z</time>
      </trkpt>
      <trkpt lat="48.87657" lon="1.6086">
        <ele>105.7</ele>
        <time>2022-03-17T13:06:27Z</time>
      </trkpt>
      <trkpt lat="48.87657" lon="1.60851">
        <ele>105.6</ele>
        <time>2022-03-17T13:06:33Z</time>
      </trkpt>
      <trkpt lat="48.87656" lon="1.60842">
        <ele>106.2</ele>
        <time>2022-03-17T13:06:37Z</time>
      </trkpt>
      <trkpt lat="48.87657" lon="1.60833">
        <ele>107.6</ele>
        <time>2022-03-17T13:06:42Z</time>
      </trkpt>
      <trkpt lat="48.87659" lon="1.60825">
        <ele>108.3</ele>
        <time>2022-03-17T13:06:47Z</time>
      </trkpt>
      <trkpt lat="48.87662" lon="1.60819">
        <ele>108</ele>
        <time>2022-03-17T13:06:51Z</time>
      </trkpt>
      <trkpt lat="48.87663" lon="1.60812">
        <ele>106.7</ele>
        <time>2022-03-17T13:06:54Z</time>
      </trkpt>
      <trkpt lat="48.87666" lon="1.60805">
        <ele>106.5</ele>
        <time>2022-03-17T13:07:00Z</time>
      </trkpt>
      <trkpt lat="48.8767" lon="1.608">
        <ele>106.9</ele>
        <time>2022-03-17T13:07:03Z</time>
      </trkpt>
      <trkpt lat="48.87672" lon="1.60793">
        <ele>108.1</ele>
        <time>2022-03-17T13:07:07Z</time>
      </trkpt>
      <trkpt lat="48.87673" lon="1.60784">
        <ele>109.3</ele>
        <time>2022-03-17T13:07:14Z</time>
      </trkpt>
      <trkpt lat="48.87676" lon="1.60777">
        <ele>109</ele>
        <time>2022-03-17T13:07:20Z</time>
      </trkpt>
      <trkpt lat="48.87677" lon="1.6077">
        <ele>109.3</ele>
        <time>2022-03-17T13:07:25Z</time>
      </trkpt>
      <trkpt lat="48.87679" lon="1.60762">
        <ele>108.4</ele>
        <time>2022-03-17T13:07:30Z</time>
      </trkpt>
      <trkpt lat="48.87682" lon="1.60756">
        <ele>107</ele>
        <time>2022-03-17T13:07:34Z</time>
      </trkpt>
      <trkpt lat="48.87686" lon="1.60752">
        <ele>106</ele>
        <time>2022-03-17T13:07:39Z</time>
      </trkpt>
      <trkpt lat="48.87689" lon="1.60746">
        <ele>105.5</ele>
        <time>2022-03-17T13:07:44Z</time>
      </trkpt>
      <trkpt lat="48.87692" lon="1.60741">
        <ele>105.6</ele>
        <time>2022-03-17T13:07:48Z</time>
      </trkpt>
      <trkpt lat="48.87695" lon="1.60734">
        <ele>106.3</ele>
        <time>2022-03-17T13:07:52Z</time>
      </trkpt>
      <trkpt lat="48.87699" lon="1.60728">
        <ele>107.9</ele>
        <time>2022-03-17T13:07:56Z</time>
      </trkpt>
      <trkpt lat="48.87702" lon="1.60724">
        <ele>109.9</ele>
        <time>2022-03-17T13:08:01Z</time>
      </trkpt>
      <trkpt lat="48.87706" lon="1.60727">
        <ele>108.3</ele>
        <time>2022-03-17T13:08:14Z</time>
      </trkpt>
      <trkpt lat="48.87708" lon="1.6072">
        <ele>108.8</ele>
        <time>2022-03-17T13:08:25Z</time>
      </trkpt>
      <trkpt lat="48.87708" lon="1.60711">
        <ele>108.6</ele>
        <time>2022-03-17T13:08:31Z</time>
      </trkpt>
      <trkpt lat="48.8771" lon="1.60704">
        <ele>108.2</ele>
        <time>2022-03-17T13:08:36Z</time>
      </trkpt>
      <trkpt lat="48.87711" lon="1.60713">
        <ele>107.8</ele>
        <time>2022-03-17T13:09:43Z</time>
      </trkpt>
      <trkpt lat="48.87709" lon="1.60721">
        <ele>106.6</ele>
        <time>2022-03-17T13:09:47Z</time>
      </trkpt>
      <trkpt lat="48.87706" lon="1.60727">
        <ele>106.4</ele>
        <time>2022-03-17T13:09:50Z</time>
      </trkpt>
      <trkpt lat="48.87702" lon="1.60735">
        <ele>108.4</ele>
        <time>2022-03-17T13:09:55Z</time>
      </trkpt>
      <trkpt lat="48.87702" lon="1.60745">
        <ele>110.5</ele>
        <time>2022-03-17T13:09:59Z</time>
      </trkpt>
      <trkpt lat="48.87701" lon="1.60751">
        <ele>111.2</ele>
        <time>2022-03-17T13:10:01Z</time>
      </trkpt>
      <trkpt lat="48.87701" lon="1.60759">
        <ele>111.9</ele>
        <time>2022-03-17T13:10:04Z</time>
      </trkpt>
      <trkpt lat="48.877" lon="1.60767">
        <ele>111.9</ele>
        <time>2022-03-17T13:10:08Z</time>
      </trkpt>
      <trkpt lat="48.87705" lon="1.60772">
        <ele>110.8</ele>
        <time>2022-03-17T13:10:12Z</time>
      </trkpt>
      <trkpt lat="48.87709" lon="1.60778">
        <ele>110.2</ele>
        <time>2022-03-17T13:10:16Z</time>
      </trkpt>
      <trkpt lat="48.87714" lon="1.60783">
        <ele>110.3</ele>
        <time>2022-03-17T13:10:20Z</time>
      </trkpt>
      <trkpt lat="48.87717" lon="1.60787">
        <ele>110.4</ele>
        <time>2022-03-17T13:10:24Z</time>
      </trkpt>
      <trkpt lat="48.87721" lon="1.60793">
        <ele>110.1</ele>
        <time>2022-03-17T13:10:29Z</time>
      </trkpt>
      <trkpt lat="48.87724" lon="1.60801">
        <ele>110</ele>
        <time>2022-03-17T13:10:33Z</time>
      </trkpt>
      <trkpt lat="48.87729" lon="1.60808">
        <ele>109.7</ele>
        <time>2022-03-17T13:10:38Z</time>
      </trkpt>
      <trkpt lat="48.87732" lon="1.60816">
        <ele>109.5</ele>
        <time>2022-03-17T13:10:43Z</time>
      </trkpt>
      <trkpt lat="48.87735" lon="1.60822">
        <ele>109.9</ele>
        <time>2022-03-17T13:10:47Z</time>
      </trkpt>
      <trkpt lat="48.87738" lon="1.60829">
        <ele>110.5</ele>
        <time>2022-03-17T13:10:53Z</time>
      </trkpt>
      <trkpt lat="48.87742" lon="1.60836">
        <ele>110.2</ele>
        <time>2022-03-17T13:10:58Z</time>
      </trkpt>
      <trkpt lat="48.87745" lon="1.60843">
        <ele>110.3</ele>
        <time>2022-03-17T13:11:02Z</time>
      </trkpt>
      <trkpt lat="48.87747" lon="1.60851">
        <ele>111.3</ele>
        <time>2022-03-17T13:11:06Z</time>
      </trkpt>
      <trkpt lat="48.87751" lon="1.60857">
        <ele>111.9</ele>
        <time>2022-03-17T13:11:11Z</time>
      </trkpt>
      <trkpt lat="48.87754" lon="1.60863">
        <ele>112.7</ele>
        <time>2022-03-17T13:11:14Z</time>
      </trkpt>
      <trkpt lat="48.87757" lon="1.60869">
        <ele>113.9</ele>
        <time>2022-03-17T13:11:18Z</time>
      </trkpt>
      <trkpt lat="48.8776" lon="1.60876">
        <ele>114.3</ele>
        <time>2022-03-17T13:11:23Z</time>
      </trkpt>
      <trkpt lat="48.87762" lon="1.60885">
        <ele>113.6</ele>
        <time>2022-03-17T13:11:28Z</time>
      </trkpt>
      <trkpt lat="48.87763" lon="1.60892">
        <ele>113.1</ele>
        <time>2022-03-17T13:11:32Z</time>
      </trkpt>
      <trkpt lat="48.87765" lon="1.60898">
        <ele>112.4</ele>
        <time>2022-03-17T13:11:36Z</time>
      </trkpt>
      <trkpt lat="48.87766" lon="1.60906">
        <ele>112.1</ele>
        <time>2022-03-17T13:11:40Z</time>
      </trkpt>
      <trkpt lat="48.87769" lon="1.60913">
        <ele>112.8</ele>
        <time>2022-03-17T13:11:45Z</time>
      </trkpt>
      <trkpt lat="48.87772" lon="1.60919">
        <ele>114.7</ele>
        <time>2022-03-17T13:11:49Z</time>
      </trkpt>
      <trkpt lat="48.87777" lon="1.60923">
        <ele>115.3</ele>
        <time>2022-03-17T13:11:53Z</time>
      </trkpt>
      <trkpt lat="48.87782" lon="1.60927">
        <ele>115</ele>
        <time>2022-03-17T13:11:58Z</time>
      </trkpt>
      <trkpt lat="48.87786" lon="1.60934">
        <ele>114.7</ele>
        <time>2022-03-17T13:12:03Z</time>
      </trkpt>
      <trkpt lat="48.87789" lon="1.60943">
        <ele>114.6</ele>
        <time>2022-03-17T13:12:08Z</time>
      </trkpt>
      <trkpt lat="48.87791" lon="1.60951">
        <ele>114.3</ele>
        <time>2022-03-17T13:12:13Z</time>
      </trkpt>
      <trkpt lat="48.87795" lon="1.60959">
        <ele>113.6</ele>
        <time>2022-03-17T13:12:18Z</time>
      </trkpt>
      <trkpt lat="48.87799" lon="1.60966">
        <ele>113.6</ele>
        <time>2022-03-17T13:12:23Z</time>
      </trkpt>
      <trkpt lat="48.87804" lon="1.60973">
        <ele>113.6</ele>
        <time>2022-03-17T13:12:28Z</time>
      </trkpt>
      <trkpt lat="48.87808" lon="1.60979">
        <ele>113.6</ele>
        <time>2022-03-17T13:12:33Z</time>
      </trkpt>
      <trkpt lat="48.87813" lon="1.60985">
        <ele>113.6</ele>
        <time>2022-03-17T13:12:39Z</time>
      </trkpt>
      <trkpt lat="48.87817" lon="1.60992">
        <ele>113.5</ele>
        <time>2022-03-17T13:12:43Z</time>
      </trkpt>
      <trkpt lat="48.87821" lon="1.60999">
        <ele>112.9</ele>
        <time>2022-03-17T13:12:48Z</time>
      </trkpt>
      <trkpt lat="48.87825" lon="1.61005">
        <ele>112.7</ele>
        <time>2022-03-17T13:12:53Z</time>
      </trkpt>
      <trkpt lat="48.8783" lon="1.61011">
        <ele>113.1</ele>
        <time>2022-03-17T13:12:58Z</time>
      </trkpt>
      <trkpt lat="48.87835" lon="1.61017">
        <ele>113.3</ele>
        <time>2022-03-17T13:13:03Z</time>
      </trkpt>
      <trkpt lat="48.87839" lon="1.61024">
        <ele>112.8</ele>
        <time>2022-03-17T13:13:08Z</time>
      </trkpt>
      <trkpt lat="48.87842" lon="1.61032">
        <ele>112.3</ele>
        <time>2022-03-17T13:13:13Z</time>
      </trkpt>
      <trkpt lat="48.87846" lon="1.61039">
        <ele>112.1</ele>
        <time>2022-03-17T13:13:19Z</time>
      </trkpt>
      <trkpt lat="48.87852" lon="1.61044">
        <ele>111.6</ele>
        <time>2022-03-17T13:13:23Z</time>
      </trkpt>
      <trkpt lat="48.87857" lon="1.6105">
        <ele>111.3</ele>
        <time>2022-03-17T13:13:28Z</time>
      </trkpt>
      <trkpt lat="48.87861" lon="1.61056">
        <ele>111.5</ele>
        <time>2022-03-17T13:13:33Z</time>
      </trkpt>
      <trkpt lat="48.87866" lon="1.61062">
        <ele>111.7</ele>
        <time>2022-03-17T13:13:38Z</time>
      </trkpt>
      <trkpt lat="48.8787" lon="1.61069">
        <ele>111.2</ele>
        <time>2022-03-17T13:13:43Z</time>
      </trkpt>
      <trkpt lat="48.87873" lon="1.61078">
        <ele>110.8</ele>
        <time>2022-03-17T13:13:48Z</time>
      </trkpt>
      <trkpt lat="48.87878" lon="1.61085">
        <ele>110.6</ele>
        <time>2022-03-17T13:13:53Z</time>
      </trkpt>
      <trkpt lat="48.87883" lon="1.6109">
        <ele>110.7</ele>
        <time>2022-03-17T13:13:58Z</time>
      </trkpt>
      <trkpt lat="48.87887" lon="1.61096">
        <ele>110.8</ele>
        <time>2022-03-17T13:14:03Z</time>
      </trkpt>
      <trkpt lat="48.87892" lon="1.61102">
        <ele>110.6</ele>
        <time>2022-03-17T13:14:09Z</time>
      </trkpt>
      <trkpt lat="48.87897" lon="1.61109">
        <ele>110.7</ele>
        <time>2022-03-17T13:14:14Z</time>
      </trkpt>
      <trkpt lat="48.87902" lon="1.61116">
        <ele>110.8</ele>
        <time>2022-03-17T13:14:18Z</time>
      </trkpt>
      <trkpt lat="48.87905" lon="1.61121">
        <ele>111.1</ele>
        <time>2022-03-17T13:14:23Z</time>
      </trkpt>
      <trkpt lat="48.87909" lon="1.61126">
        <ele>111.5</ele>
        <time>2022-03-17T13:14:27Z</time>
      </trkpt>
      <trkpt lat="48.87913" lon="1.61131">
        <ele>111.9</ele>
        <time>2022-03-17T13:14:31Z</time>
      </trkpt>
      <trkpt lat="48.87917" lon="1.61135">
        <ele>112.2</ele>
        <time>2022-03-17T13:14:34Z</time>
      </trkpt>
      <trkpt lat="48.8792" lon="1.6114">
        <ele>112.5</ele>
        <time>2022-03-17T13:14:38Z</time>
      </trkpt>
      <trkpt lat="48.87924" lon="1.61144">
        <ele>113.1</ele>
        <time>2022-03-17T13:14:42Z</time>
      </trkpt>
      <trkpt lat="48.87928" lon="1.6115">
        <ele>113.1</ele>
        <time>2022-03-17T13:14:46Z</time>
      </trkpt>
      <trkpt lat="48.87931" lon="1.61155">
        <ele>112.9</ele>
        <time>2022-03-17T13:14:49Z</time>
      </trkpt>
      <trkpt lat="48.87936" lon="1.6116">
        <ele>112.7</ele>
        <time>2022-03-17T13:14:54Z</time>
      </trkpt>
      <trkpt lat="48.8794" lon="1.61166">
        <ele>113.1</ele>
        <time>2022-03-17T13:14:59Z</time>
      </trkpt>
      <trkpt lat="48.87943" lon="1.61172">
        <ele>113.3</ele>
        <time>2022-03-17T13:15:03Z</time>
      </trkpt>
      <trkpt lat="48.87946" lon="1.61178">
        <ele>113.1</ele>
        <time>2022-03-17T13:15:07Z</time>
      </trkpt>
      <trkpt lat="48.87949" lon="1.61184">
        <ele>112.9</ele>
        <time>2022-03-17T13:15:11Z</time>
      </trkpt>
      <trkpt lat="48.87952" lon="1.6119">
        <ele>112.6</ele>
        <time>2022-03-17T13:15:15Z</time>
      </trkpt>
      <trkpt lat="48.87957" lon="1.61195">
        <ele>112.5</ele>
        <time>2022-03-17T13:15:19Z</time>
      </trkpt>
      <trkpt lat="48.87962" lon="1.61203">
        <ele>112.2</ele>
        <time>2022-03-17T13:15:24Z</time>
      </trkpt>
      <trkpt lat="48.87966" lon="1.6121">
        <ele>111.9</ele>
        <time>2022-03-17T13:15:29Z</time>
      </trkpt>
      <trkpt lat="48.8797" lon="1.61218">
        <ele>112.4</ele>
        <time>2022-03-17T13:15:34Z</time>
      </trkpt>
      <trkpt lat="48.87973" lon="1.61224">
        <ele>113.3</ele>
        <time>2022-03-17T13:15:38Z</time>
      </trkpt>
      <trkpt lat="48.87977" lon="1.6123">
        <ele>113.6</ele>
        <time>2022-03-17T13:15:43Z</time>
      </trkpt>
      <trkpt lat="48.87981" lon="1.61235">
        <ele>113.4</ele>
        <time>2022-03-17T13:15:46Z</time>
      </trkpt>
      <trkpt lat="48.87985" lon="1.6124">
        <ele>112.8</ele>
        <time>2022-03-17T13:15:50Z</time>
      </trkpt>
      <trkpt lat="48.87988" lon="1.61246">
        <ele>112.7</ele>
        <time>2022-03-17T13:15:54Z</time>
      </trkpt>
      <trkpt lat="48.87992" lon="1.61251">
        <ele>112.8</ele>
        <time>2022-03-17T13:15:58Z</time>
      </trkpt>
      <trkpt lat="48.87996" lon="1.61257">
        <ele>113.3</ele>
        <time>2022-03-17T13:16:02Z</time>
      </trkpt>
      <trkpt lat="48.88" lon="1.61264">
        <ele>113.9</ele>
        <time>2022-03-17T13:16:06Z</time>
      </trkpt>
      <trkpt lat="48.88004" lon="1.61269">
        <ele>114.1</ele>
        <time>2022-03-17T13:16:10Z</time>
      </trkpt>
      <trkpt lat="48.88008" lon="1.61274">
        <ele>113.4</ele>
        <time>2022-03-17T13:16:14Z</time>
      </trkpt>
      <trkpt lat="48.88012" lon="1.6128">
        <ele>112.7</ele>
        <time>2022-03-17T13:16:18Z</time>
      </trkpt>
      <trkpt lat="48.88017" lon="1.61288">
        <ele>112.2</ele>
        <time>2022-03-17T13:16:22Z</time>
      </trkpt>
      <trkpt lat="48.88022" lon="1.61295">
        <ele>111.9</ele>
        <time>2022-03-17T13:16:28Z</time>
      </trkpt>
      <trkpt lat="48.88026" lon="1.61303">
        <ele>111.7</ele>
        <time>2022-03-17T13:16:33Z</time>
      </trkpt>
      <trkpt lat="48.88031" lon="1.6131">
        <ele>110.8</ele>
        <time>2022-03-17T13:16:38Z</time>
      </trkpt>
      <trkpt lat="48.88035" lon="1.61317">
        <ele>109.5</ele>
        <time>2022-03-17T13:16:42Z</time>
      </trkpt>
      <trkpt lat="48.8804" lon="1.61322">
        <ele>109</ele>
        <time>2022-03-17T13:16:48Z</time>
      </trkpt>
      <trkpt lat="48.88044" lon="1.61327">
        <ele>109.3</ele>
        <time>2022-03-17T13:16:52Z</time>
      </trkpt>
      <trkpt lat="48.88049" lon="1.61332">
        <ele>110.1</ele>
        <time>2022-03-17T13:16:56Z</time>
      </trkpt>
      <trkpt lat="48.88052" lon="1.61337">
        <ele>110.8</ele>
        <time>2022-03-17T13:16:59Z</time>
      </trkpt>
      <trkpt lat="48.88056" lon="1.61343">
        <ele>110.9</ele>
        <time>2022-03-17T13:17:03Z</time>
      </trkpt>
      <trkpt lat="48.88059" lon="1.61348">
        <ele>109.6</ele>
        <time>2022-03-17T13:17:07Z</time>
      </trkpt>
      <trkpt lat="48.88063" lon="1.61353">
        <ele>109</ele>
        <time>2022-03-17T13:17:11Z</time>
      </trkpt>
      <trkpt lat="48.88066" lon="1.61359">
        <ele>108.5</ele>
        <time>2022-03-17T13:17:16Z</time>
      </trkpt>
      <trkpt lat="48.8807" lon="1.61365">
        <ele>108.6</ele>
        <time>2022-03-17T13:17:19Z</time>
      </trkpt>
      <trkpt lat="48.88073" lon="1.6137">
        <ele>108.7</ele>
        <time>2022-03-17T13:17:22Z</time>
      </trkpt>
      <trkpt lat="48.88076" lon="1.61377">
        <ele>109.8</ele>
        <time>2022-03-17T13:17:26Z</time>
      </trkpt>
      <trkpt lat="48.88081" lon="1.61385">
        <ele>109.9</ele>
        <time>2022-03-17T13:17:32Z</time>
      </trkpt>
      <trkpt lat="48.88085" lon="1.6139">
        <ele>108.8</ele>
        <time>2022-03-17T13:17:36Z</time>
      </trkpt>
      <trkpt lat="48.88088" lon="1.61397">
        <ele>108</ele>
        <time>2022-03-17T13:17:40Z</time>
      </trkpt>
      <trkpt lat="48.88092" lon="1.61402">
        <ele>107.1</ele>
        <time>2022-03-17T13:17:44Z</time>
      </trkpt>
      <trkpt lat="48.88096" lon="1.61405">
        <ele>106.2</ele>
        <time>2022-03-17T13:17:48Z</time>
      </trkpt>
      <trkpt lat="48.88101" lon="1.61411">
        <ele>106.1</ele>
        <time>2022-03-17T13:17:52Z</time>
      </trkpt>
      <trkpt lat="48.88105" lon="1.61415">
        <ele>106.8</ele>
        <time>2022-03-17T13:17:56Z</time>
      </trkpt>
      <trkpt lat="48.8811" lon="1.61419">
        <ele>107.4</ele>
        <time>2022-03-17T13:18:00Z</time>
      </trkpt>
      <trkpt lat="48.88115" lon="1.61423">
        <ele>107.8</ele>
        <time>2022-03-17T13:18:04Z</time>
      </trkpt>
      <trkpt lat="48.88119" lon="1.61428">
        <ele>108</ele>
        <time>2022-03-17T13:18:09Z</time>
      </trkpt>
      <trkpt lat="48.88124" lon="1.61433">
        <ele>107.4</ele>
        <time>2022-03-17T13:18:13Z</time>
      </trkpt>
      <trkpt lat="48.88129" lon="1.61437">
        <ele>106.5</ele>
        <time>2022-03-17T13:18:16Z</time>
      </trkpt>
      <trkpt lat="48.88133" lon="1.61441">
        <ele>105.8</ele>
        <time>2022-03-17T13:18:20Z</time>
      </trkpt>
      <trkpt lat="48.88137" lon="1.61446">
        <ele>105.6</ele>
        <time>2022-03-17T13:18:24Z</time>
      </trkpt>
      <trkpt lat="48.88141" lon="1.6145">
        <ele>105.7</ele>
        <time>2022-03-17T13:18:27Z</time>
      </trkpt>
      <trkpt lat="48.88144" lon="1.61456">
        <ele>106</ele>
        <time>2022-03-17T13:18:31Z</time>
      </trkpt>
      <trkpt lat="48.88151" lon="1.61461">
        <ele>106.8</ele>
        <time>2022-03-17T13:18:36Z</time>
      </trkpt>
      <trkpt lat="48.88156" lon="1.61466">
        <ele>107.2</ele>
        <time>2022-03-17T13:18:40Z</time>
      </trkpt>
      <trkpt lat="48.8816" lon="1.61468">
        <ele>107</ele>
        <time>2022-03-17T13:18:44Z</time>
      </trkpt>
      <trkpt lat="48.88165" lon="1.61472">
        <ele>106.4</ele>
        <time>2022-03-17T13:18:48Z</time>
      </trkpt>
      <trkpt lat="48.8817" lon="1.61477">
        <ele>105.7</ele>
        <time>2022-03-17T13:18:52Z</time>
      </trkpt>
      <trkpt lat="48.88175" lon="1.61481">
        <ele>105.7</ele>
        <time>2022-03-17T13:18:56Z</time>
      </trkpt>
      <trkpt lat="48.88181" lon="1.61486">
        <ele>106.6</ele>
        <time>2022-03-17T13:19:01Z</time>
      </trkpt>
      <trkpt lat="48.88185" lon="1.61489">
        <ele>106.8</ele>
        <time>2022-03-17T13:19:05Z</time>
      </trkpt>
      <trkpt lat="48.88189" lon="1.61493">
        <ele>106.5</ele>
        <time>2022-03-17T13:19:08Z</time>
      </trkpt>
      <trkpt lat="48.88193" lon="1.61497">
        <ele>106</ele>
        <time>2022-03-17T13:19:11Z</time>
      </trkpt>
      <trkpt lat="48.88198" lon="1.61503">
        <ele>106</ele>
        <time>2022-03-17T13:19:16Z</time>
      </trkpt>
      <trkpt lat="48.88202" lon="1.61508">
        <ele>107</ele>
        <time>2022-03-17T13:19:22Z</time>
      </trkpt>
      <trkpt lat="48.88206" lon="1.61512">
        <ele>107.4</ele>
        <time>2022-03-17T13:19:26Z</time>
      </trkpt>
      <trkpt lat="48.88211" lon="1.61517">
        <ele>107.8</ele>
        <time>2022-03-17T13:19:30Z</time>
      </trkpt>
      <trkpt lat="48.88214" lon="1.61521">
        <ele>108.1</ele>
        <time>2022-03-17T13:19:33Z</time>
      </trkpt>
      <trkpt lat="48.88219" lon="1.61528">
        <ele>108.2</ele>
        <time>2022-03-17T13:19:37Z</time>
      </trkpt>
      <trkpt lat="48.88222" lon="1.61536">
        <ele>108.3</ele>
        <time>2022-03-17T13:19:43Z</time>
      </trkpt>
      <trkpt lat="48.88226" lon="1.61544">
        <ele>108.3</ele>
        <time>2022-03-17T13:19:47Z</time>
      </trkpt>
      <trkpt lat="48.88229" lon="1.61552">
        <ele>108.1</ele>
        <time>2022-03-17T13:19:53Z</time>
      </trkpt>
      <trkpt lat="48.88232" lon="1.61558">
        <ele>107.8</ele>
        <time>2022-03-17T13:19:57Z</time>
      </trkpt>
      <trkpt lat="48.88235" lon="1.61563">
        <ele>107.4</ele>
        <time>2022-03-17T13:20:00Z</time>
      </trkpt>
      <trkpt lat="48.88238" lon="1.6157">
        <ele>106.8</ele>
        <time>2022-03-17T13:20:04Z</time>
      </trkpt>
      <trkpt lat="48.88241" lon="1.61576">
        <ele>106.5</ele>
        <time>2022-03-17T13:20:08Z</time>
      </trkpt>
      <trkpt lat="48.88243" lon="1.61585">
        <ele>106.4</ele>
        <time>2022-03-17T13:20:13Z</time>
      </trkpt>
      <trkpt lat="48.88246" lon="1.61591">
        <ele>106.6</ele>
        <time>2022-03-17T13:20:17Z</time>
      </trkpt>
      <trkpt lat="48.8825" lon="1.61598">
        <ele>107.5</ele>
        <time>2022-03-17T13:20:22Z</time>
      </trkpt>
      <trkpt lat="48.88253" lon="1.61604">
        <ele>107.9</ele>
        <time>2022-03-17T13:20:25Z</time>
      </trkpt>
      <trkpt lat="48.88256" lon="1.61611">
        <ele>108</ele>
        <time>2022-03-17T13:20:30Z</time>
      </trkpt>
      <trkpt lat="48.88258" lon="1.61618">
        <ele>108.1</ele>
        <time>2022-03-17T13:20:34Z</time>
      </trkpt>
      <trkpt lat="48.88261" lon="1.61625">
        <ele>108.1</ele>
        <time>2022-03-17T13:20:38Z</time>
      </trkpt>
      <trkpt lat="48.88264" lon="1.61632">
        <ele>108</ele>
        <time>2022-03-17T13:20:42Z</time>
      </trkpt>
      <trkpt lat="48.88267" lon="1.61639">
        <ele>107.8</ele>
        <time>2022-03-17T13:20:46Z</time>
      </trkpt>
      <trkpt lat="48.88269" lon="1.61644">
        <ele>107.7</ele>
        <time>2022-03-17T13:20:50Z</time>
      </trkpt>
      <trkpt lat="48.88272" lon="1.61651">
        <ele>107.6</ele>
        <time>2022-03-17T13:20:54Z</time>
      </trkpt>
      <trkpt lat="48.88275" lon="1.61658">
        <ele>107.4</ele>
        <time>2022-03-17T13:20:58Z</time>
      </trkpt>
      <trkpt lat="48.88278" lon="1.61664">
        <ele>107.3</ele>
        <time>2022-03-17T13:21:02Z</time>
      </trkpt>
      <trkpt lat="48.88281" lon="1.61671">
        <ele>107.3</ele>
        <time>2022-03-17T13:21:06Z</time>
      </trkpt>
      <trkpt lat="48.88285" lon="1.6168">
        <ele>107.4</ele>
        <time>2022-03-17T13:21:11Z</time>
      </trkpt>
      <trkpt lat="48.88288" lon="1.61687">
        <ele>107.3</ele>
        <time>2022-03-17T13:21:15Z</time>
      </trkpt>
      <trkpt lat="48.88291" lon="1.61693">
        <ele>106.9</ele>
        <time>2022-03-17T13:21:19Z</time>
      </trkpt>
      <trkpt lat="48.88294" lon="1.61698">
        <ele>106.7</ele>
        <time>2022-03-17T13:21:23Z</time>
      </trkpt>
      <trkpt lat="48.88296" lon="1.61705">
        <ele>106.8</ele>
        <time>2022-03-17T13:21:27Z</time>
      </trkpt>
      <trkpt lat="48.88299" lon="1.61713">
        <ele>106.7</ele>
        <time>2022-03-17T13:21:31Z</time>
      </trkpt>
      <trkpt lat="48.88303" lon="1.61719">
        <ele>106.3</ele>
        <time>2022-03-17T13:21:36Z</time>
      </trkpt>
      <trkpt lat="48.88307" lon="1.61729">
        <ele>106</ele>
        <time>2022-03-17T13:21:41Z</time>
      </trkpt>
      <trkpt lat="48.88311" lon="1.61736">
        <ele>105.5</ele>
        <time>2022-03-17T13:21:46Z</time>
      </trkpt>
      <trkpt lat="48.88316" lon="1.61743">
        <ele>104.3</ele>
        <time>2022-03-17T13:21:51Z</time>
      </trkpt>
      <trkpt lat="48.8832" lon="1.61749">
        <ele>103.5</ele>
        <time>2022-03-17T13:21:56Z</time>
      </trkpt>
      <trkpt lat="48.88325" lon="1.61755">
        <ele>102.9</ele>
        <time>2022-03-17T13:22:01Z</time>
      </trkpt>
      <trkpt lat="48.88331" lon="1.61761">
        <ele>102.2</ele>
        <time>2022-03-17T13:22:06Z</time>
      </trkpt>
      <trkpt lat="48.88335" lon="1.61768">
        <ele>101.4</ele>
        <time>2022-03-17T13:22:11Z</time>
      </trkpt>
      <trkpt lat="48.88341" lon="1.61774">
        <ele>100.7</ele>
        <time>2022-03-17T13:22:16Z</time>
      </trkpt>
      <trkpt lat="48.88346" lon="1.6178">
        <ele>100.3</ele>
        <time>2022-03-17T13:22:21Z</time>
      </trkpt>
      <trkpt lat="48.8835" lon="1.61786">
        <ele>99.8</ele>
        <time>2022-03-17T13:22:26Z</time>
      </trkpt>
      <trkpt lat="48.88356" lon="1.61792">
        <ele>99.2</ele>
        <time>2022-03-17T13:22:31Z</time>
      </trkpt>
      <trkpt lat="48.8836" lon="1.61796">
        <ele>98.7</ele>
        <time>2022-03-17T13:22:35Z</time>
      </trkpt>
      <trkpt lat="48.88363" lon="1.61801">
        <ele>98.7</ele>
        <time>2022-03-17T13:22:39Z</time>
      </trkpt>
      <trkpt lat="48.88366" lon="1.61806">
        <ele>99</ele>
        <time>2022-03-17T13:22:42Z</time>
      </trkpt>
      <trkpt lat="48.88371" lon="1.61813">
        <ele>99.2</ele>
        <time>2022-03-17T13:22:47Z</time>
      </trkpt>
      <trkpt lat="48.88376" lon="1.61818">
        <ele>99.1</ele>
        <time>2022-03-17T13:22:51Z</time>
      </trkpt>
      <trkpt lat="48.8838" lon="1.61822">
        <ele>98.6</ele>
        <time>2022-03-17T13:22:55Z</time>
      </trkpt>
      <trkpt lat="48.88385" lon="1.61827">
        <ele>98</ele>
        <time>2022-03-17T13:23:00Z</time>
      </trkpt>
      <trkpt lat="48.88389" lon="1.61831">
        <ele>97.7</ele>
        <time>2022-03-17T13:23:03Z</time>
      </trkpt>
      <trkpt lat="48.88394" lon="1.61836">
        <ele>97.2</ele>
        <time>2022-03-17T13:23:07Z</time>
      </trkpt>
      <trkpt lat="48.88399" lon="1.61841">
        <ele>96.6</ele>
        <time>2022-03-17T13:23:11Z</time>
      </trkpt>
      <trkpt lat="48.88405" lon="1.61846">
        <ele>96.3</ele>
        <time>2022-03-17T13:23:16Z</time>
      </trkpt>
      <trkpt lat="48.8841" lon="1.61851">
        <ele>96.1</ele>
        <time>2022-03-17T13:23:21Z</time>
      </trkpt>
      <trkpt lat="48.88414" lon="1.61855">
        <ele>95.8</ele>
        <time>2022-03-17T13:23:25Z</time>
      </trkpt>
      <trkpt lat="48.88419" lon="1.61859">
        <ele>95.7</ele>
        <time>2022-03-17T13:23:29Z</time>
      </trkpt>
      <trkpt lat="48.88424" lon="1.61862">
        <ele>96</ele>
        <time>2022-03-17T13:23:33Z</time>
      </trkpt>
      <trkpt lat="48.88428" lon="1.61864">
        <ele>96.2</ele>
        <time>2022-03-17T13:23:37Z</time>
      </trkpt>
      <trkpt lat="48.88434" lon="1.61866">
        <ele>96.2</ele>
        <time>2022-03-17T13:23:41Z</time>
      </trkpt>
      <trkpt lat="48.88438" lon="1.6187">
        <ele>96.1</ele>
        <time>2022-03-17T13:23:45Z</time>
      </trkpt>
      <trkpt lat="48.88442" lon="1.61873">
        <ele>96.2</ele>
        <time>2022-03-17T13:23:48Z</time>
      </trkpt>
      <trkpt lat="48.88447" lon="1.61877">
        <ele>96.6</ele>
        <time>2022-03-17T13:23:52Z</time>
      </trkpt>
      <trkpt lat="48.88452" lon="1.61881">
        <ele>96.8</ele>
        <time>2022-03-17T13:23:56Z</time>
      </trkpt>
      <trkpt lat="48.88457" lon="1.61885">
        <ele>96.9</ele>
        <time>2022-03-17T13:24:00Z</time>
      </trkpt>
      <trkpt lat="48.88461" lon="1.61886">
        <ele>96.7</ele>
        <time>2022-03-17T13:24:04Z</time>
      </trkpt>
      <trkpt lat="48.88466" lon="1.6189">
        <ele>96.5</ele>
        <time>2022-03-17T13:24:08Z</time>
      </trkpt>
      <trkpt lat="48.8847" lon="1.61893">
        <ele>96.4</ele>
        <time>2022-03-17T13:24:11Z</time>
      </trkpt>
      <trkpt lat="48.88474" lon="1.61898">
        <ele>96.2</ele>
        <time>2022-03-17T13:24:16Z</time>
      </trkpt>
      <trkpt lat="48.88479" lon="1.61902">
        <ele>96.1</ele>
        <time>2022-03-17T13:24:20Z</time>
      </trkpt>
      <trkpt lat="48.88483" lon="1.61908">
        <ele>96.1</ele>
        <time>2022-03-17T13:24:24Z</time>
      </trkpt>
      <trkpt lat="48.88487" lon="1.61914">
        <ele>96.8</ele>
        <time>2022-03-17T13:24:28Z</time>
      </trkpt>
      <trkpt lat="48.88491" lon="1.6192">
        <ele>97.6</ele>
        <time>2022-03-17T13:24:32Z</time>
      </trkpt>
      <trkpt lat="48.88494" lon="1.61925">
        <ele>98.5</ele>
        <time>2022-03-17T13:24:36Z</time>
      </trkpt>
      <trkpt lat="48.88498" lon="1.61931">
        <ele>99</ele>
        <time>2022-03-17T13:24:40Z</time>
      </trkpt>
      <trkpt lat="48.88502" lon="1.61937">
        <ele>99.2</ele>
        <time>2022-03-17T13:24:44Z</time>
      </trkpt>
      <trkpt lat="48.88505" lon="1.61942">
        <ele>99.6</ele>
        <time>2022-03-17T13:24:47Z</time>
      </trkpt>
      <trkpt lat="48.88509" lon="1.61948">
        <ele>99.7</ele>
        <time>2022-03-17T13:24:51Z</time>
      </trkpt>
      <trkpt lat="48.88512" lon="1.61954">
        <ele>99.6</ele>
        <time>2022-03-17T13:24:55Z</time>
      </trkpt>
      <trkpt lat="48.88516" lon="1.6196">
        <ele>99.4</ele>
        <time>2022-03-17T13:24:59Z</time>
      </trkpt>
      <trkpt lat="48.88519" lon="1.61966">
        <ele>99.3</ele>
        <time>2022-03-17T13:25:03Z</time>
      </trkpt>
      <trkpt lat="48.88522" lon="1.61971">
        <ele>98.5</ele>
        <time>2022-03-17T13:25:07Z</time>
      </trkpt>
      <trkpt lat="48.88525" lon="1.61978">
        <ele>97.5</ele>
        <time>2022-03-17T13:25:11Z</time>
      </trkpt>
      <trkpt lat="48.8853" lon="1.61985">
        <ele>96.8</ele>
        <time>2022-03-17T13:25:15Z</time>
      </trkpt>
      <trkpt lat="48.88533" lon="1.6199">
        <ele>96.2</ele>
        <time>2022-03-17T13:25:19Z</time>
      </trkpt>
      <trkpt lat="48.88536" lon="1.61996">
        <ele>96.3</ele>
        <time>2022-03-17T13:25:23Z</time>
      </trkpt>
      <trkpt lat="48.88539" lon="1.62001">
        <ele>96.4</ele>
        <time>2022-03-17T13:25:27Z</time>
      </trkpt>
      <trkpt lat="48.88542" lon="1.62008">
        <ele>96.4</ele>
        <time>2022-03-17T13:25:30Z</time>
      </trkpt>
      <trkpt lat="48.88544" lon="1.62014">
        <ele>95.9</ele>
        <time>2022-03-17T13:25:34Z</time>
      </trkpt>
      <trkpt lat="48.88544" lon="1.62022">
        <ele>95.4</ele>
        <time>2022-03-17T13:25:44Z</time>
      </trkpt>
      <trkpt lat="48.88548" lon="1.62027">
        <ele>95.6</ele>
        <time>2022-03-17T13:25:57Z</time>
      </trkpt>
      <trkpt lat="48.88553" lon="1.62031">
        <ele>95.7</ele>
        <time>2022-03-17T13:26:01Z</time>
      </trkpt>
      <trkpt lat="48.88556" lon="1.62038">
        <ele>95.8</ele>
        <time>2022-03-17T13:26:06Z</time>
      </trkpt>
      <trkpt lat="48.88559" lon="1.62043">
        <ele>96.1</ele>
        <time>2022-03-17T13:26:10Z</time>
      </trkpt>
      <trkpt lat="48.88563" lon="1.62049">
        <ele>96.5</ele>
        <time>2022-03-17T13:26:14Z</time>
      </trkpt>
      <trkpt lat="48.88566" lon="1.62056">
        <ele>96.7</ele>
        <time>2022-03-17T13:26:18Z</time>
      </trkpt>
      <trkpt lat="48.8857" lon="1.62063">
        <ele>97.2</ele>
        <time>2022-03-17T13:26:23Z</time>
      </trkpt>
      <trkpt lat="48.88574" lon="1.62069">
        <ele>97.9</ele>
        <time>2022-03-17T13:26:28Z</time>
      </trkpt>
      <trkpt lat="48.88578" lon="1.62075">
        <ele>98.7</ele>
        <time>2022-03-17T13:26:33Z</time>
      </trkpt>
      <trkpt lat="48.88582" lon="1.6208">
        <ele>98.9</ele>
        <time>2022-03-17T13:26:37Z</time>
      </trkpt>
      <trkpt lat="48.88586" lon="1.62085">
        <ele>99.1</ele>
        <time>2022-03-17T13:26:41Z</time>
      </trkpt>
      <trkpt lat="48.88589" lon="1.6209">
        <ele>99.2</ele>
        <time>2022-03-17T13:26:45Z</time>
      </trkpt>
      <trkpt lat="48.88594" lon="1.62096">
        <ele>99.6</ele>
        <time>2022-03-17T13:26:50Z</time>
      </trkpt>
      <trkpt lat="48.88597" lon="1.62101">
        <ele>100</ele>
        <time>2022-03-17T13:26:54Z</time>
      </trkpt>
      <trkpt lat="48.88603" lon="1.62105">
        <ele>99.8</ele>
        <time>2022-03-17T13:26:58Z</time>
      </trkpt>
      <trkpt lat="48.88609" lon="1.62107">
        <ele>99.2</ele>
        <time>2022-03-17T13:27:04Z</time>
      </trkpt>
      <trkpt lat="48.88615" lon="1.62112">
        <ele>99.2</ele>
        <time>2022-03-17T13:27:08Z</time>
      </trkpt>
      <trkpt lat="48.88619" lon="1.6212">
        <ele>99.6</ele>
        <time>2022-03-17T13:27:13Z</time>
      </trkpt>
      <trkpt lat="48.88622" lon="1.62127">
        <ele>99.8</ele>
        <time>2022-03-17T13:27:18Z</time>
      </trkpt>
      <trkpt lat="48.88628" lon="1.62128">
        <ele>99.6</ele>
        <time>2022-03-17T13:27:24Z</time>
      </trkpt>
      <trkpt lat="48.88634" lon="1.62132">
        <ele>99</ele>
        <time>2022-03-17T13:27:28Z</time>
      </trkpt>
      <trkpt lat="48.88638" lon="1.62135">
        <ele>98.6</ele>
        <time>2022-03-17T13:27:32Z</time>
      </trkpt>
      <trkpt lat="48.88642" lon="1.62139">
        <ele>98.5</ele>
        <time>2022-03-17T13:27:36Z</time>
      </trkpt>
      <trkpt lat="48.88646" lon="1.62144">
        <ele>98.2</ele>
        <time>2022-03-17T13:27:40Z</time>
      </trkpt>
      <trkpt lat="48.8865" lon="1.62148">
        <ele>98</ele>
        <time>2022-03-17T13:27:44Z</time>
      </trkpt>
      <trkpt lat="48.88656" lon="1.62153">
        <ele>98</ele>
        <time>2022-03-17T13:27:48Z</time>
      </trkpt>
      <trkpt lat="48.88662" lon="1.6216">
        <ele>98.1</ele>
        <time>2022-03-17T13:27:54Z</time>
      </trkpt>
      <trkpt lat="48.88666" lon="1.62166">
        <ele>98.4</ele>
        <time>2022-03-17T13:27:59Z</time>
      </trkpt>
      <trkpt lat="48.88671" lon="1.62173">
        <ele>99.1</ele>
        <time>2022-03-17T13:28:04Z</time>
      </trkpt>
      <trkpt lat="48.88676" lon="1.62179">
        <ele>99.5</ele>
        <time>2022-03-17T13:28:08Z</time>
      </trkpt>
      <trkpt lat="48.88677" lon="1.62187">
        <ele>99</ele>
        <time>2022-03-17T13:28:14Z</time>
      </trkpt>
      <trkpt lat="48.88683" lon="1.62193">
        <ele>98.5</ele>
        <time>2022-03-17T13:28:18Z</time>
      </trkpt>
      <trkpt lat="48.88687" lon="1.62197">
        <ele>98.2</ele>
        <time>2022-03-17T13:28:22Z</time>
      </trkpt>
      <trkpt lat="48.88691" lon="1.62201">
        <ele>98.3</ele>
        <time>2022-03-17T13:28:26Z</time>
      </trkpt>
      <trkpt lat="48.88695" lon="1.62205">
        <ele>98.8</ele>
        <time>2022-03-17T13:28:31Z</time>
      </trkpt>
      <trkpt lat="48.88699" lon="1.6221">
        <ele>99.3</ele>
        <time>2022-03-17T13:28:35Z</time>
      </trkpt>
      <trkpt lat="48.88704" lon="1.62215">
        <ele>99.4</ele>
        <time>2022-03-17T13:28:40Z</time>
      </trkpt>
      <trkpt lat="48.88708" lon="1.6222">
        <ele>99.5</ele>
        <time>2022-03-17T13:28:43Z</time>
      </trkpt>
      <trkpt lat="48.88711" lon="1.62226">
        <ele>99.6</ele>
        <time>2022-03-17T13:28:48Z</time>
      </trkpt>
      <trkpt lat="48.88716" lon="1.62232">
        <ele>100.2</ele>
        <time>2022-03-17T13:28:53Z</time>
      </trkpt>
      <trkpt lat="48.88721" lon="1.62237">
        <ele>100.6</ele>
        <time>2022-03-17T13:28:58Z</time>
      </trkpt>
      <trkpt lat="48.88726" lon="1.62243">
        <ele>100.4</ele>
        <time>2022-03-17T13:29:03Z</time>
      </trkpt>
      <trkpt lat="48.88729" lon="1.62248">
        <ele>100.4</ele>
        <time>2022-03-17T13:29:08Z</time>
      </trkpt>
      <trkpt lat="48.88733" lon="1.62253">
        <ele>100.8</ele>
        <time>2022-03-17T13:29:11Z</time>
      </trkpt>
      <trkpt lat="48.88737" lon="1.62259">
        <ele>101.4</ele>
        <time>2022-03-17T13:29:16Z</time>
      </trkpt>
      <trkpt lat="48.88741" lon="1.62263">
        <ele>101.8</ele>
        <time>2022-03-17T13:29:19Z</time>
      </trkpt>
      <trkpt lat="48.88745" lon="1.62269">
        <ele>102.2</ele>
        <time>2022-03-17T13:29:24Z</time>
      </trkpt>
      <trkpt lat="48.8875" lon="1.62274">
        <ele>102.4</ele>
        <time>2022-03-17T13:29:29Z</time>
      </trkpt>
      <trkpt lat="48.88755" lon="1.6228">
        <ele>102.3</ele>
        <time>2022-03-17T13:29:33Z</time>
      </trkpt>
      <trkpt lat="48.88759" lon="1.62287">
        <ele>102.7</ele>
        <time>2022-03-17T13:29:39Z</time>
      </trkpt>
      <trkpt lat="48.88763" lon="1.62294">
        <ele>103.4</ele>
        <time>2022-03-17T13:29:44Z</time>
      </trkpt>
      <trkpt lat="48.88767" lon="1.623">
        <ele>104.1</ele>
        <time>2022-03-17T13:29:49Z</time>
      </trkpt>
      <trkpt lat="48.88771" lon="1.62305">
        <ele>105.2</ele>
        <time>2022-03-17T13:29:53Z</time>
      </trkpt>
      <trkpt lat="48.88775" lon="1.62311">
        <ele>105.9</ele>
        <time>2022-03-17T13:29:57Z</time>
      </trkpt>
      <trkpt lat="48.88778" lon="1.62316">
        <ele>105.9</ele>
        <time>2022-03-17T13:30:00Z</time>
      </trkpt>
      <trkpt lat="48.88782" lon="1.62324">
        <ele>105.9</ele>
        <time>2022-03-17T13:30:05Z</time>
      </trkpt>
      <trkpt lat="48.88786" lon="1.6233">
        <ele>106.2</ele>
        <time>2022-03-17T13:30:10Z</time>
      </trkpt>
      <trkpt lat="48.88791" lon="1.62335">
        <ele>106.4</ele>
        <time>2022-03-17T13:30:15Z</time>
      </trkpt>
      <trkpt lat="48.88796" lon="1.62341">
        <ele>105.8</ele>
        <time>2022-03-17T13:30:21Z</time>
      </trkpt>
      <trkpt lat="48.88799" lon="1.62349">
        <ele>105.4</ele>
        <time>2022-03-17T13:30:26Z</time>
      </trkpt>
      <trkpt lat="48.88803" lon="1.62354">
        <ele>105.3</ele>
        <time>2022-03-17T13:30:30Z</time>
      </trkpt>
      <trkpt lat="48.88807" lon="1.6236">
        <ele>105.8</ele>
        <time>2022-03-17T13:30:35Z</time>
      </trkpt>
      <trkpt lat="48.8881" lon="1.62366">
        <ele>106.4</ele>
        <time>2022-03-17T13:30:39Z</time>
      </trkpt>
      <trkpt lat="48.88813" lon="1.62371">
        <ele>106.5</ele>
        <time>2022-03-17T13:30:43Z</time>
      </trkpt>
      <trkpt lat="48.88816" lon="1.62376">
        <ele>106.1</ele>
        <time>2022-03-17T13:30:47Z</time>
      </trkpt>
      <trkpt lat="48.8882" lon="1.62381">
        <ele>106</ele>
        <time>2022-03-17T13:30:50Z</time>
      </trkpt>
      <trkpt lat="48.88824" lon="1.62387">
        <ele>106</ele>
        <time>2022-03-17T13:30:55Z</time>
      </trkpt>
      <trkpt lat="48.88827" lon="1.62393">
        <ele>105.7</ele>
        <time>2022-03-17T13:31:00Z</time>
      </trkpt>
      <trkpt lat="48.8883" lon="1.62399">
        <ele>105.2</ele>
        <time>2022-03-17T13:31:04Z</time>
      </trkpt>
      <trkpt lat="48.88833" lon="1.62404">
        <ele>105.2</ele>
        <time>2022-03-17T13:31:08Z</time>
      </trkpt>
      <trkpt lat="48.88836" lon="1.62409">
        <ele>105.3</ele>
        <time>2022-03-17T13:31:12Z</time>
      </trkpt>
      <trkpt lat="48.88841" lon="1.62414">
        <ele>105.8</ele>
        <time>2022-03-17T13:31:16Z</time>
      </trkpt>
      <trkpt lat="48.88843" lon="1.6242">
        <ele>106.4</ele>
        <time>2022-03-17T13:31:20Z</time>
      </trkpt>
      <trkpt lat="48.88846" lon="1.62428">
        <ele>106.9</ele>
        <time>2022-03-17T13:31:24Z</time>
      </trkpt>
      <trkpt lat="48.88848" lon="1.62433">
        <ele>107</ele>
        <time>2022-03-17T13:31:27Z</time>
      </trkpt>
      <trkpt lat="48.88852" lon="1.62439">
        <ele>107</ele>
        <time>2022-03-17T13:31:31Z</time>
      </trkpt>
      <trkpt lat="48.88855" lon="1.62445">
        <ele>106.8</ele>
        <time>2022-03-17T13:31:35Z</time>
      </trkpt>
      <trkpt lat="48.88858" lon="1.62452">
        <ele>106.7</ele>
        <time>2022-03-17T13:31:39Z</time>
      </trkpt>
      <trkpt lat="48.88862" lon="1.62458">
        <ele>106.3</ele>
        <time>2022-03-17T13:31:43Z</time>
      </trkpt>
      <trkpt lat="48.88865" lon="1.62463">
        <ele>106.1</ele>
        <time>2022-03-17T13:31:46Z</time>
      </trkpt>
      <trkpt lat="48.88868" lon="1.62469">
        <ele>105.6</ele>
        <time>2022-03-17T13:31:51Z</time>
      </trkpt>
      <trkpt lat="48.88871" lon="1.62476">
        <ele>105.4</ele>
        <time>2022-03-17T13:31:55Z</time>
      </trkpt>
      <trkpt lat="48.88874" lon="1.62481">
        <ele>105.2</ele>
        <time>2022-03-17T13:31:59Z</time>
      </trkpt>
      <trkpt lat="48.88878" lon="1.62488">
        <ele>105.1</ele>
        <time>2022-03-17T13:32:03Z</time>
      </trkpt>
      <trkpt lat="48.8888" lon="1.62494">
        <ele>104.8</ele>
        <time>2022-03-17T13:32:07Z</time>
      </trkpt>
      <trkpt lat="48.88883" lon="1.625">
        <ele>104.7</ele>
        <time>2022-03-17T13:32:11Z</time>
      </trkpt>
      <trkpt lat="48.88886" lon="1.62506">
        <ele>104.7</ele>
        <time>2022-03-17T13:32:14Z</time>
      </trkpt>
      <trkpt lat="48.88889" lon="1.62514">
        <ele>104.5</ele>
        <time>2022-03-17T13:32:18Z</time>
      </trkpt>
      <trkpt lat="48.88892" lon="1.62521">
        <ele>104.5</ele>
        <time>2022-03-17T13:32:22Z</time>
      </trkpt>
      <trkpt lat="48.88895" lon="1.62528">
        <ele>104.6</ele>
        <time>2022-03-17T13:32:26Z</time>
      </trkpt>
      <trkpt lat="48.88898" lon="1.62536">
        <ele>104.7</ele>
        <time>2022-03-17T13:32:30Z</time>
      </trkpt>
      <trkpt lat="48.88902" lon="1.62543">
        <ele>104.5</ele>
        <time>2022-03-17T13:32:34Z</time>
      </trkpt>
      <trkpt lat="48.88905" lon="1.6255">
        <ele>104.1</ele>
        <time>2022-03-17T13:32:39Z</time>
      </trkpt>
      <trkpt lat="48.88908" lon="1.62555">
        <ele>103.9</ele>
        <time>2022-03-17T13:32:43Z</time>
      </trkpt>
      <trkpt lat="48.88912" lon="1.62559">
        <ele>103.9</ele>
        <time>2022-03-17T13:32:46Z</time>
      </trkpt>
      <trkpt lat="48.88916" lon="1.62568">
        <ele>104.1</ele>
        <time>2022-03-17T13:32:50Z</time>
      </trkpt>
      <trkpt lat="48.88919" lon="1.62574">
        <ele>103.8</ele>
        <time>2022-03-17T13:32:55Z</time>
      </trkpt>
      <trkpt lat="48.88922" lon="1.6258">
        <ele>103.9</ele>
        <time>2022-03-17T13:32:59Z</time>
      </trkpt>
      <trkpt lat="48.88925" lon="1.62587">
        <ele>104.4</ele>
        <time>2022-03-17T13:33:04Z</time>
      </trkpt>
      <trkpt lat="48.88928" lon="1.62593">
        <ele>104.6</ele>
        <time>2022-03-17T13:33:08Z</time>
      </trkpt>
      <trkpt lat="48.88932" lon="1.62596">
        <ele>104.9</ele>
        <time>2022-03-17T13:33:16Z</time>
      </trkpt>
      <trkpt lat="48.88935" lon="1.62604">
        <ele>104.9</ele>
        <time>2022-03-17T13:33:21Z</time>
      </trkpt>
      <trkpt lat="48.88938" lon="1.62609">
        <ele>104.7</ele>
        <time>2022-03-17T13:33:27Z</time>
      </trkpt>
      <trkpt lat="48.88941" lon="1.62615">
        <ele>104.7</ele>
        <time>2022-03-17T13:33:33Z</time>
      </trkpt>
      <trkpt lat="48.88943" lon="1.62621">
        <ele>104.9</ele>
        <time>2022-03-17T13:33:40Z</time>
      </trkpt>
      <trkpt lat="48.88946" lon="1.62628">
        <ele>105.1</ele>
        <time>2022-03-17T13:33:46Z</time>
      </trkpt>
      <trkpt lat="48.88948" lon="1.62634">
        <ele>105</ele>
        <time>2022-03-17T13:33:52Z</time>
      </trkpt>
      <trkpt lat="48.88951" lon="1.6264">
        <ele>104.6</ele>
        <time>2022-03-17T13:33:56Z</time>
      </trkpt>
      <trkpt lat="48.88954" lon="1.62648">
        <ele>104</ele>
        <time>2022-03-17T13:34:01Z</time>
      </trkpt>
      <trkpt lat="48.88956" lon="1.62654">
        <ele>103.4</ele>
        <time>2022-03-17T13:34:06Z</time>
      </trkpt>
      <trkpt lat="48.8896" lon="1.6266">
        <ele>103.3</ele>
        <time>2022-03-17T13:34:11Z</time>
      </trkpt>
      <trkpt lat="48.88964" lon="1.62666">
        <ele>103.2</ele>
        <time>2022-03-17T13:34:16Z</time>
      </trkpt>
      <trkpt lat="48.88968" lon="1.62672">
        <ele>102.7</ele>
        <time>2022-03-17T13:34:21Z</time>
      </trkpt>
      <trkpt lat="48.88971" lon="1.62679">
        <ele>102.5</ele>
        <time>2022-03-17T13:34:26Z</time>
      </trkpt>
      <trkpt lat="48.88974" lon="1.62687">
        <ele>102.3</ele>
        <time>2022-03-17T13:34:32Z</time>
      </trkpt>
      <trkpt lat="48.88977" lon="1.62695">
        <ele>102.1</ele>
        <time>2022-03-17T13:34:36Z</time>
      </trkpt>
      <trkpt lat="48.88981" lon="1.62703">
        <ele>102.1</ele>
        <time>2022-03-17T13:34:41Z</time>
      </trkpt>
      <trkpt lat="48.88983" lon="1.6271">
        <ele>102.2</ele>
        <time>2022-03-17T13:34:47Z</time>
      </trkpt>
      <trkpt lat="48.88985" lon="1.62717">
        <ele>102.1</ele>
        <time>2022-03-17T13:34:51Z</time>
      </trkpt>
      <trkpt lat="48.88988" lon="1.62724">
        <ele>102.2</ele>
        <time>2022-03-17T13:34:56Z</time>
      </trkpt>
      <trkpt lat="48.88991" lon="1.62731">
        <ele>102.3</ele>
        <time>2022-03-17T13:34:59Z</time>
      </trkpt>
      <trkpt lat="48.88993" lon="1.62737">
        <ele>102.3</ele>
        <time>2022-03-17T13:35:03Z</time>
      </trkpt>
      <trkpt lat="48.88996" lon="1.62744">
        <ele>102.1</ele>
        <time>2022-03-17T13:35:08Z</time>
      </trkpt>
      <trkpt lat="48.88999" lon="1.62751">
        <ele>101.9</ele>
        <time>2022-03-17T13:35:11Z</time>
      </trkpt>
      <trkpt lat="48.89002" lon="1.62759">
        <ele>101.4</ele>
        <time>2022-03-17T13:35:17Z</time>
      </trkpt>
      <trkpt lat="48.89006" lon="1.62766">
        <ele>101.5</ele>
        <time>2022-03-17T13:35:21Z</time>
      </trkpt>
      <trkpt lat="48.8901" lon="1.62773">
        <ele>101.6</ele>
        <time>2022-03-17T13:35:26Z</time>
      </trkpt>
      <trkpt lat="48.89013" lon="1.62779">
        <ele>101.6</ele>
        <time>2022-03-17T13:35:30Z</time>
      </trkpt>
      <trkpt lat="48.89016" lon="1.62786">
        <ele>101.8</ele>
        <time>2022-03-17T13:35:34Z</time>
      </trkpt>
      <trkpt lat="48.89019" lon="1.62791">
        <ele>102</ele>
        <time>2022-03-17T13:35:38Z</time>
      </trkpt>
      <trkpt lat="48.89022" lon="1.62796">
        <ele>102.2</ele>
        <time>2022-03-17T13:35:41Z</time>
      </trkpt>
      <trkpt lat="48.89026" lon="1.62803">
        <ele>102.3</ele>
        <time>2022-03-17T13:35:46Z</time>
      </trkpt>
      <trkpt lat="48.8903" lon="1.6281">
        <ele>102.1</ele>
        <time>2022-03-17T13:35:51Z</time>
      </trkpt>
      <trkpt lat="48.89033" lon="1.62818">
        <ele>101.9</ele>
        <time>2022-03-17T13:35:56Z</time>
      </trkpt>
      <trkpt lat="48.89037" lon="1.62825">
        <ele>102.4</ele>
        <time>2022-03-17T13:36:02Z</time>
      </trkpt>
      <trkpt lat="48.89041" lon="1.62831">
        <ele>102.6</ele>
        <time>2022-03-17T13:36:06Z</time>
      </trkpt>
      <trkpt lat="48.89045" lon="1.6284">
        <ele>102</ele>
        <time>2022-03-17T13:36:12Z</time>
      </trkpt>
      <trkpt lat="48.89045" lon="1.62847">
        <ele>101.4</ele>
        <time>2022-03-17T13:36:16Z</time>
      </trkpt>
      <trkpt lat="48.89048" lon="1.62852">
        <ele>101.3</ele>
        <time>2022-03-17T13:36:22Z</time>
      </trkpt>
      <trkpt lat="48.8905" lon="1.6286">
        <ele>101.6</ele>
        <time>2022-03-17T13:36:26Z</time>
      </trkpt>
      <trkpt lat="48.89053" lon="1.62867">
        <ele>101.7</ele>
        <time>2022-03-17T13:36:31Z</time>
      </trkpt>
      <trkpt lat="48.89056" lon="1.62873">
        <ele>101.5</ele>
        <time>2022-03-17T13:36:35Z</time>
      </trkpt>
      <trkpt lat="48.89059" lon="1.62879">
        <ele>101.2</ele>
        <time>2022-03-17T13:36:40Z</time>
      </trkpt>
      <trkpt lat="48.89061" lon="1.62886">
        <ele>101</ele>
        <time>2022-03-17T13:36:44Z</time>
      </trkpt>
      <trkpt lat="48.89063" lon="1.62893">
        <ele>101</ele>
        <time>2022-03-17T13:36:47Z</time>
      </trkpt>
      <trkpt lat="48.89065" lon="1.62901">
        <ele>100.9</ele>
        <time>2022-03-17T13:36:52Z</time>
      </trkpt>
      <trkpt lat="48.89067" lon="1.62909">
        <ele>101</ele>
        <time>2022-03-17T13:36:56Z</time>
      </trkpt>
      <trkpt lat="48.8907" lon="1.62915">
        <ele>100.7</ele>
        <time>2022-03-17T13:37:00Z</time>
      </trkpt>
      <trkpt lat="48.89072" lon="1.62922">
        <ele>100.5</ele>
        <time>2022-03-17T13:37:04Z</time>
      </trkpt>
      <trkpt lat="48.89075" lon="1.62929">
        <ele>100.2</ele>
        <time>2022-03-17T13:37:08Z</time>
      </trkpt>
      <trkpt lat="48.89077" lon="1.62935">
        <ele>99.9</ele>
        <time>2022-03-17T13:37:12Z</time>
      </trkpt>
      <trkpt lat="48.89075" lon="1.62942">
        <ele>99</ele>
        <time>2022-03-17T13:37:17Z</time>
      </trkpt>
      <trkpt lat="48.8907" lon="1.62943">
        <ele>97.7</ele>
        <time>2022-03-17T13:37:21Z</time>
      </trkpt>
      <trkpt lat="48.89064" lon="1.62942">
        <ele>96.7</ele>
        <time>2022-03-17T13:37:27Z</time>
      </trkpt>
      <trkpt lat="48.89066" lon="1.62935">
        <ele>97.1</ele>
        <time>2022-03-17T13:37:31Z</time>
      </trkpt>
      <trkpt lat="48.89063" lon="1.6294">
        <ele>100.6</ele>
        <time>2022-03-17T13:39:34Z</time>
      </trkpt>
      <trkpt lat="48.89058" lon="1.62943">
        <ele>100.4</ele>
        <time>2022-03-17T13:39:35Z</time>
      </trkpt>
      <trkpt lat="48.89055" lon="1.6295">
        <ele>99.1</ele>
        <time>2022-03-17T13:39:40Z</time>
      </trkpt>
      <trkpt lat="48.89052" lon="1.62957">
        <ele>97.9</ele>
        <time>2022-03-17T13:39:44Z</time>
      </trkpt>
      <trkpt lat="48.89047" lon="1.6296">
        <ele>96.9</ele>
        <time>2022-03-17T13:39:50Z</time>
      </trkpt>
      <trkpt lat="48.89043" lon="1.62966">
        <ele>96</ele>
        <time>2022-03-17T13:39:56Z</time>
      </trkpt>
      <trkpt lat="48.8904" lon="1.62972">
        <ele>93.8</ele>
        <time>2022-03-17T13:40:01Z</time>
      </trkpt>
      <trkpt lat="48.89036" lon="1.62976">
        <ele>92.5</ele>
        <time>2022-03-17T13:40:06Z</time>
      </trkpt>
      <trkpt lat="48.89033" lon="1.62981">
        <ele>92.3</ele>
        <time>2022-03-17T13:40:11Z</time>
      </trkpt>
      <trkpt lat="48.89028" lon="1.62984">
        <ele>92.3</ele>
        <time>2022-03-17T13:40:15Z</time>
      </trkpt>
      <trkpt lat="48.89026" lon="1.6299">
        <ele>92.2</ele>
        <time>2022-03-17T13:40:21Z</time>
      </trkpt>
      <trkpt lat="48.89022" lon="1.62995">
        <ele>91.4</ele>
        <time>2022-03-17T13:40:27Z</time>
      </trkpt>
      <trkpt lat="48.89018" lon="1.62999">
        <ele>89.7</ele>
        <time>2022-03-17T13:40:33Z</time>
      </trkpt>
      <trkpt lat="48.89014" lon="1.63005">
        <ele>88.1</ele>
        <time>2022-03-17T13:40:37Z</time>
      </trkpt>
      <trkpt lat="48.89014" lon="1.63012">
        <ele>86.1</ele>
        <time>2022-03-17T13:40:42Z</time>
      </trkpt>
      <trkpt lat="48.89014" lon="1.6302">
        <ele>85.4</ele>
        <time>2022-03-17T13:40:47Z</time>
      </trkpt>
      <trkpt lat="48.89015" lon="1.63028">
        <ele>84.8</ele>
        <time>2022-03-17T13:40:52Z</time>
      </trkpt>
      <trkpt lat="48.89016" lon="1.63036">
        <ele>83.9</ele>
        <time>2022-03-17T13:40:57Z</time>
      </trkpt>
      <trkpt lat="48.89019" lon="1.63044">
        <ele>83</ele>
        <time>2022-03-17T13:41:02Z</time>
      </trkpt>
      <trkpt lat="48.89021" lon="1.63051">
        <ele>82.8</ele>
        <time>2022-03-17T13:41:07Z</time>
      </trkpt>
      <trkpt lat="48.89022" lon="1.63058">
        <ele>82.8</ele>
        <time>2022-03-17T13:41:15Z</time>
      </trkpt>
      <trkpt lat="48.89024" lon="1.63064">
        <ele>82.3</ele>
        <time>2022-03-17T13:41:20Z</time>
      </trkpt>
      <trkpt lat="48.89029" lon="1.63066">
        <ele>81.7</ele>
        <time>2022-03-17T13:41:28Z</time>
      </trkpt>
      <trkpt lat="48.89035" lon="1.63069">
        <ele>81.7</ele>
        <time>2022-03-17T13:41:33Z</time>
      </trkpt>
      <trkpt lat="48.89036" lon="1.63081">
        <ele>81.4</ele>
        <time>2022-03-17T13:41:37Z</time>
      </trkpt>
      <trkpt lat="48.89036" lon="1.63088">
        <ele>80.8</ele>
        <time>2022-03-17T13:41:41Z</time>
      </trkpt>
      <trkpt lat="48.89038" lon="1.63097">
        <ele>80.3</ele>
        <time>2022-03-17T13:41:45Z</time>
      </trkpt>
      <trkpt lat="48.8904" lon="1.63103">
        <ele>79.8</ele>
        <time>2022-03-17T13:41:49Z</time>
      </trkpt>
      <trkpt lat="48.89041" lon="1.63111">
        <ele>79.5</ele>
        <time>2022-03-17T13:41:54Z</time>
      </trkpt>
      <trkpt lat="48.89043" lon="1.63119">
        <ele>79.7</ele>
        <time>2022-03-17T13:41:57Z</time>
      </trkpt>
      <trkpt lat="48.89046" lon="1.63126">
        <ele>80</ele>
        <time>2022-03-17T13:42:03Z</time>
      </trkpt>
      <trkpt lat="48.89048" lon="1.63133">
        <ele>80</ele>
        <time>2022-03-17T13:42:07Z</time>
      </trkpt>
      <trkpt lat="48.89052" lon="1.63138">
        <ele>80</ele>
        <time>2022-03-17T13:42:12Z</time>
      </trkpt>
      <trkpt lat="48.89056" lon="1.63143">
        <ele>80.2</ele>
        <time>2022-03-17T13:42:17Z</time>
      </trkpt>
      <trkpt lat="48.89059" lon="1.63148">
        <ele>80.3</ele>
        <time>2022-03-17T13:42:21Z</time>
      </trkpt>
      <trkpt lat="48.89064" lon="1.63154">
        <ele>80.5</ele>
        <time>2022-03-17T13:42:26Z</time>
      </trkpt>
      <trkpt lat="48.89067" lon="1.63158">
        <ele>80.4</ele>
        <time>2022-03-17T13:42:30Z</time>
      </trkpt>
      <trkpt lat="48.89071" lon="1.63163">
        <ele>80.4</ele>
        <time>2022-03-17T13:42:34Z</time>
      </trkpt>
      <trkpt lat="48.89076" lon="1.63167">
        <ele>80.4</ele>
        <time>2022-03-17T13:42:37Z</time>
      </trkpt>
      <trkpt lat="48.8908" lon="1.6317">
        <ele>80.3</ele>
        <time>2022-03-17T13:42:42Z</time>
      </trkpt>
      <trkpt lat="48.89084" lon="1.63174">
        <ele>80.2</ele>
        <time>2022-03-17T13:42:46Z</time>
      </trkpt>
      <trkpt lat="48.89087" lon="1.6318">
        <ele>80.1</ele>
        <time>2022-03-17T13:42:49Z</time>
      </trkpt>
      <trkpt lat="48.89092" lon="1.63184">
        <ele>79.8</ele>
        <time>2022-03-17T13:42:55Z</time>
      </trkpt>
      <trkpt lat="48.89094" lon="1.63191">
        <ele>79.5</ele>
        <time>2022-03-17T13:42:58Z</time>
      </trkpt>
      <trkpt lat="48.89099" lon="1.63187">
        <ele>79.3</ele>
        <time>2022-03-17T13:43:02Z</time>
      </trkpt>
      <trkpt lat="48.89101" lon="1.6318">
        <ele>78.9</ele>
        <time>2022-03-17T13:43:07Z</time>
      </trkpt>
      <trkpt lat="48.89105" lon="1.63175">
        <ele>79.8</ele>
        <time>2022-03-17T13:43:16Z</time>
      </trkpt>
      <trkpt lat="48.8911" lon="1.63173">
        <ele>80.8</ele>
        <time>2022-03-17T13:43:23Z</time>
      </trkpt>
      <trkpt lat="48.89114" lon="1.63172">
        <ele>82.7</ele>
        <time>2022-03-17T13:43:31Z</time>
      </trkpt>
      <trkpt lat="48.89121" lon="1.63175">
        <ele>83.4</ele>
        <time>2022-03-17T13:43:38Z</time>
      </trkpt>
      <trkpt lat="48.89125" lon="1.63178">
        <ele>84.2</ele>
        <time>2022-03-17T13:43:44Z</time>
      </trkpt>
      <trkpt lat="48.89129" lon="1.63172">
        <ele>86.2</ele>
        <time>2022-03-17T13:43:52Z</time>
      </trkpt>
      <trkpt lat="48.89131" lon="1.63164">
        <ele>87.2</ele>
        <time>2022-03-17T13:43:58Z</time>
      </trkpt>
      <trkpt lat="48.89134" lon="1.63157">
        <ele>88.4</ele>
        <time>2022-03-17T13:44:05Z</time>
      </trkpt>
      <trkpt lat="48.89138" lon="1.63153">
        <ele>89.9</ele>
        <time>2022-03-17T13:44:12Z</time>
      </trkpt>
      <trkpt lat="48.89141" lon="1.63172">
        <ele>88.4</ele>
        <time>2022-03-17T13:44:25Z</time>
      </trkpt>
      <trkpt lat="48.89145" lon="1.63177">
        <ele>88.7</ele>
        <time>2022-03-17T13:44:29Z</time>
      </trkpt>
      <trkpt lat="48.89149" lon="1.6318">
        <ele>89.7</ele>
        <time>2022-03-17T13:44:32Z</time>
      </trkpt>
      <trkpt lat="48.89155" lon="1.63176">
        <ele>90.5</ele>
        <time>2022-03-17T13:44:36Z</time>
      </trkpt>
      <trkpt lat="48.8916" lon="1.63171">
        <ele>90.5</ele>
        <time>2022-03-17T13:44:40Z</time>
      </trkpt>
      <trkpt lat="48.89165" lon="1.63166">
        <ele>89.9</ele>
        <time>2022-03-17T13:44:45Z</time>
      </trkpt>
      <trkpt lat="48.8917" lon="1.6316">
        <ele>90.5</ele>
        <time>2022-03-17T13:44:50Z</time>
      </trkpt>
      <trkpt lat="48.89173" lon="1.63156">
        <ele>92.3</ele>
        <time>2022-03-17T13:44:54Z</time>
      </trkpt>
      <trkpt lat="48.89172" lon="1.63149">
        <ele>93.3</ele>
        <time>2022-03-17T13:44:58Z</time>
      </trkpt>
      <trkpt lat="48.89176" lon="1.63143">
        <ele>93.3</ele>
        <time>2022-03-17T13:45:03Z</time>
      </trkpt>
      <trkpt lat="48.8918" lon="1.63138">
        <ele>93.2</ele>
        <time>2022-03-17T13:45:09Z</time>
      </trkpt>
      <trkpt lat="48.89184" lon="1.63135">
        <ele>94.1</ele>
        <time>2022-03-17T13:45:13Z</time>
      </trkpt>
      <trkpt lat="48.89189" lon="1.63131">
        <ele>95.2</ele>
        <time>2022-03-17T13:45:19Z</time>
      </trkpt>
      <trkpt lat="48.89192" lon="1.63125">
        <ele>95.7</ele>
        <time>2022-03-17T13:45:24Z</time>
      </trkpt>
      <trkpt lat="48.89197" lon="1.6312">
        <ele>95.6</ele>
        <time>2022-03-17T13:45:30Z</time>
      </trkpt>
      <trkpt lat="48.89193" lon="1.63125">
        <ele>95</ele>
        <time>2022-03-17T13:46:04Z</time>
      </trkpt>
      <trkpt lat="48.89191" lon="1.63118">
        <ele>97.5</ele>
        <time>2022-03-17T13:47:08Z</time>
      </trkpt>
      <trkpt lat="48.89194" lon="1.63123">
        <ele>96.2</ele>
        <time>2022-03-17T13:47:50Z</time>
      </trkpt>
      <trkpt lat="48.89199" lon="1.6312">
        <ele>96.2</ele>
        <time>2022-03-17T13:48:02Z</time>
      </trkpt>
      <trkpt lat="48.89203" lon="1.63121">
        <ele>95.4</ele>
        <time>2022-03-17T13:48:12Z</time>
      </trkpt>
      <trkpt lat="48.8921" lon="1.63119">
        <ele>95.7</ele>
        <time>2022-03-17T13:48:17Z</time>
      </trkpt>
      <trkpt lat="48.89213" lon="1.6311">
        <ele>96.1</ele>
        <time>2022-03-17T13:48:22Z</time>
      </trkpt>
      <trkpt lat="48.89209" lon="1.63106">
        <ele>98.7</ele>
        <time>2022-03-17T13:49:21Z</time>
      </trkpt>
      <trkpt lat="48.89205" lon="1.63102">
        <ele>99.3</ele>
        <time>2022-03-17T13:49:26Z</time>
      </trkpt>
      <trkpt lat="48.89199" lon="1.63099">
        <ele>99.1</ele>
        <time>2022-03-17T13:49:32Z</time>
      </trkpt>
      <trkpt lat="48.89193" lon="1.63099">
        <ele>98.7</ele>
        <time>2022-03-17T13:49:37Z</time>
      </trkpt>
      <trkpt lat="48.89189" lon="1.63101">
        <ele>98.5</ele>
        <time>2022-03-17T13:49:41Z</time>
      </trkpt>
      <trkpt lat="48.89183" lon="1.63104">
        <ele>98.7</ele>
        <time>2022-03-17T13:49:45Z</time>
      </trkpt>
      <trkpt lat="48.89178" lon="1.63106">
        <ele>98.7</ele>
        <time>2022-03-17T13:49:51Z</time>
      </trkpt>
      <trkpt lat="48.89173" lon="1.63102">
        <ele>97.6</ele>
        <time>2022-03-17T13:49:56Z</time>
      </trkpt>
      <trkpt lat="48.89168" lon="1.63095">
        <ele>96.1</ele>
        <time>2022-03-17T13:50:01Z</time>
      </trkpt>
      <trkpt lat="48.89163" lon="1.63093">
        <ele>96.3</ele>
        <time>2022-03-17T13:50:53Z</time>
      </trkpt>
      <trkpt lat="48.89168" lon="1.63093">
        <ele>97</ele>
        <time>2022-03-17T13:51:54Z</time>
      </trkpt>
      <trkpt lat="48.89163" lon="1.63093">
        <ele>95.4</ele>
        <time>2022-03-17T13:52:19Z</time>
      </trkpt>
      <trkpt lat="48.89158" lon="1.6309">
        <ele>95.7</ele>
        <time>2022-03-17T13:52:24Z</time>
      </trkpt>
      <trkpt lat="48.89154" lon="1.63087">
        <ele>96</ele>
        <time>2022-03-17T13:52:29Z</time>
      </trkpt>
      <trkpt lat="48.8915" lon="1.63081">
        <ele>96.8</ele>
        <time>2022-03-17T13:52:36Z</time>
      </trkpt>
      <trkpt lat="48.89146" lon="1.63077">
        <ele>97.9</ele>
        <time>2022-03-17T13:52:44Z</time>
      </trkpt>
      <trkpt lat="48.89148" lon="1.63071">
        <ele>98</ele>
        <time>2022-03-17T13:52:49Z</time>
      </trkpt>
      <trkpt lat="48.89152" lon="1.63067">
        <ele>97.9</ele>
        <time>2022-03-17T13:52:53Z</time>
      </trkpt>
      <trkpt lat="48.89158" lon="1.63066">
        <ele>97.8</ele>
        <time>2022-03-17T13:52:58Z</time>
      </trkpt>
      <trkpt lat="48.89163" lon="1.63064">
        <ele>97.8</ele>
        <time>2022-03-17T13:53:03Z</time>
      </trkpt>
      <trkpt lat="48.89167" lon="1.63061">
        <ele>97.9</ele>
        <time>2022-03-17T13:53:10Z</time>
      </trkpt>
      <trkpt lat="48.89173" lon="1.6306">
        <ele>97.6</ele>
        <time>2022-03-17T13:53:15Z</time>
      </trkpt>
      <trkpt lat="48.89178" lon="1.63056">
        <ele>97.5</ele>
        <time>2022-03-17T13:53:20Z</time>
      </trkpt>
      <trkpt lat="48.89183" lon="1.63051">
        <ele>98.4</ele>
        <time>2022-03-17T13:53:25Z</time>
      </trkpt>
      <trkpt lat="48.89187" lon="1.63048">
        <ele>99</ele>
        <time>2022-03-17T13:53:30Z</time>
      </trkpt>
      <trkpt lat="48.89191" lon="1.63046">
        <ele>99.6</ele>
        <time>2022-03-17T13:53:34Z</time>
      </trkpt>
      <trkpt lat="48.89196" lon="1.63043">
        <ele>100.2</ele>
        <time>2022-03-17T13:53:38Z</time>
      </trkpt>
      <trkpt lat="48.89201" lon="1.63041">
        <ele>100.5</ele>
        <time>2022-03-17T13:53:44Z</time>
      </trkpt>
      <trkpt lat="48.89207" lon="1.6304">
        <ele>99.9</ele>
        <time>2022-03-17T13:53:49Z</time>
      </trkpt>
      <trkpt lat="48.8921" lon="1.63036">
        <ele>99.4</ele>
        <time>2022-03-17T13:54:03Z</time>
      </trkpt>
      <trkpt lat="48.89215" lon="1.63038">
        <ele>100.2</ele>
        <time>2022-03-17T13:54:07Z</time>
      </trkpt>
      <trkpt lat="48.8922" lon="1.63039">
        <ele>100.7</ele>
        <time>2022-03-17T13:54:12Z</time>
      </trkpt>
      <trkpt lat="48.89223" lon="1.63034">
        <ele>100.3</ele>
        <time>2022-03-17T13:54:17Z</time>
      </trkpt>
      <trkpt lat="48.89223" lon="1.63025">
        <ele>99.8</ele>
        <time>2022-03-17T13:54:21Z</time>
      </trkpt>
      <trkpt lat="48.89225" lon="1.63016">
        <ele>98.9</ele>
        <time>2022-03-17T13:54:26Z</time>
      </trkpt>
      <trkpt lat="48.89225" lon="1.63005">
        <ele>98.5</ele>
        <time>2022-03-17T13:54:31Z</time>
      </trkpt>
      <trkpt lat="48.89223" lon="1.62997">
        <ele>98.5</ele>
        <time>2022-03-17T13:54:37Z</time>
      </trkpt>
      <trkpt lat="48.89224" lon="1.6299">
        <ele>97.7</ele>
        <time>2022-03-17T13:54:43Z</time>
      </trkpt>
      <trkpt lat="48.89226" lon="1.62983">
        <ele>97</ele>
        <time>2022-03-17T13:54:47Z</time>
      </trkpt>
      <trkpt lat="48.89226" lon="1.62976">
        <ele>95.9</ele>
        <time>2022-03-17T13:54:52Z</time>
      </trkpt>
      <trkpt lat="48.89226" lon="1.62968">
        <ele>96.4</ele>
        <time>2022-03-17T13:54:56Z</time>
      </trkpt>
      <trkpt lat="48.89226" lon="1.62961">
        <ele>99.2</ele>
        <time>2022-03-17T13:55:02Z</time>
      </trkpt>
      <trkpt lat="48.89226" lon="1.62953">
        <ele>101.9</ele>
        <time>2022-03-17T13:55:06Z</time>
      </trkpt>
      <trkpt lat="48.89225" lon="1.62947">
        <ele>104</ele>
        <time>2022-03-17T13:55:12Z</time>
      </trkpt>
      <trkpt lat="48.89221" lon="1.62944">
        <ele>102.2</ele>
        <time>2022-03-17T13:56:03Z</time>
      </trkpt>
      <trkpt lat="48.89219" lon="1.62937">
        <ele>101.7</ele>
        <time>2022-03-17T13:56:09Z</time>
      </trkpt>
      <trkpt lat="48.89218" lon="1.62928">
        <ele>102.1</ele>
        <time>2022-03-17T13:56:15Z</time>
      </trkpt>
      <trkpt lat="48.89215" lon="1.62934">
        <ele>104</ele>
        <time>2022-03-17T13:56:23Z</time>
      </trkpt>
      <trkpt lat="48.89216" lon="1.62941">
        <ele>109.3</ele>
        <time>2022-03-17T13:56:28Z</time>
      </trkpt>
      <trkpt lat="48.89216" lon="1.62933">
        <ele>112.1</ele>
        <time>2022-03-17T13:56:44Z</time>
      </trkpt>
      <trkpt lat="48.89215" lon="1.62926">
        <ele>111.1</ele>
        <time>2022-03-17T13:56:47Z</time>
      </trkpt>
      <trkpt lat="48.89214" lon="1.62918">
        <ele>109.4</ele>
        <time>2022-03-17T13:56:53Z</time>
      </trkpt>
      <trkpt lat="48.89216" lon="1.62926">
        <ele>104.3</ele>
        <time>2022-03-17T13:57:17Z</time>
      </trkpt>
      <trkpt lat="48.89217" lon="1.62934">
        <ele>103.1</ele>
        <time>2022-03-17T13:57:23Z</time>
      </trkpt>
      <trkpt lat="48.89219" lon="1.6294">
        <ele>103.3</ele>
        <time>2022-03-17T13:57:30Z</time>
      </trkpt>
      <trkpt lat="48.89223" lon="1.62944">
        <ele>103.5</ele>
        <time>2022-03-17T13:58:10Z</time>
      </trkpt>
      <trkpt lat="48.89229" lon="1.62941">
        <ele>102.1</ele>
        <time>2022-03-17T13:58:17Z</time>
      </trkpt>
      <trkpt lat="48.89233" lon="1.62936">
        <ele>101.2</ele>
        <time>2022-03-17T13:58:22Z</time>
      </trkpt>
      <trkpt lat="48.89231" lon="1.62942">
        <ele>100.4</ele>
        <time>2022-03-17T14:00:17Z</time>
      </trkpt>
      <trkpt lat="48.89229" lon="1.62951">
        <ele>100.6</ele>
        <time>2022-03-17T14:00:26Z</time>
      </trkpt>
      <trkpt lat="48.89227" lon="1.62958">
        <ele>100.2</ele>
        <time>2022-03-17T14:00:29Z</time>
      </trkpt>
      <trkpt lat="48.89225" lon="1.62966">
        <ele>100.1</ele>
        <time>2022-03-17T14:00:34Z</time>
      </trkpt>
      <trkpt lat="48.89224" lon="1.62973">
        <ele>99.9</ele>
        <time>2022-03-17T14:00:38Z</time>
      </trkpt>
      <trkpt lat="48.89223" lon="1.62981">
        <ele>100.4</ele>
        <time>2022-03-17T14:00:42Z</time>
      </trkpt>
      <trkpt lat="48.89223" lon="1.62989">
        <ele>100.5</ele>
        <time>2022-03-17T14:00:46Z</time>
      </trkpt>
      <trkpt lat="48.89225" lon="1.62996">
        <ele>100.2</ele>
        <time>2022-03-17T14:00:53Z</time>
      </trkpt>
      <trkpt lat="48.89224" lon="1.63003">
        <ele>100.1</ele>
        <time>2022-03-17T14:00:55Z</time>
      </trkpt>
      <trkpt lat="48.89224" lon="1.63012">
        <ele>100</ele>
        <time>2022-03-17T14:00:59Z</time>
      </trkpt>
      <trkpt lat="48.89224" lon="1.63019">
        <ele>99.2</ele>
        <time>2022-03-17T14:01:04Z</time>
      </trkpt>
      <trkpt lat="48.89222" lon="1.63026">
        <ele>98.9</ele>
        <time>2022-03-17T14:01:08Z</time>
      </trkpt>
      <trkpt lat="48.89221" lon="1.63034">
        <ele>98.4</ele>
        <time>2022-03-17T14:01:12Z</time>
      </trkpt>
      <trkpt lat="48.8922" lon="1.63041">
        <ele>98.1</ele>
        <time>2022-03-17T14:01:17Z</time>
      </trkpt>
      <trkpt lat="48.89219" lon="1.63049">
        <ele>97.9</ele>
        <time>2022-03-17T14:01:20Z</time>
      </trkpt>
      <trkpt lat="48.89219" lon="1.63057">
        <ele>97.8</ele>
        <time>2022-03-17T14:01:25Z</time>
      </trkpt>
      <trkpt lat="48.89218" lon="1.63067">
        <ele>97</ele>
        <time>2022-03-17T14:01:29Z</time>
      </trkpt>
      <trkpt lat="48.89217" lon="1.63075">
        <ele>96.4</ele>
        <time>2022-03-17T14:01:35Z</time>
      </trkpt>
      <trkpt lat="48.89216" lon="1.63083">
        <ele>96</ele>
        <time>2022-03-17T14:01:39Z</time>
      </trkpt>
      <trkpt lat="48.89214" lon="1.63092">
        <ele>95.9</ele>
        <time>2022-03-17T14:01:44Z</time>
      </trkpt>
      <trkpt lat="48.89211" lon="1.631">
        <ele>95.9</ele>
        <time>2022-03-17T14:01:49Z</time>
      </trkpt>
      <trkpt lat="48.89211" lon="1.63109">
        <ele>95.9</ele>
        <time>2022-03-17T14:01:54Z</time>
      </trkpt>
      <trkpt lat="48.89215" lon="1.63114">
        <ele>95.6</ele>
        <time>2022-03-17T14:01:59Z</time>
      </trkpt>
      <trkpt lat="48.8922" lon="1.63113">
        <ele>95.3</ele>
        <time>2022-03-17T14:02:02Z</time>
      </trkpt>
      <trkpt lat="48.89225" lon="1.63108">
        <ele>94.8</ele>
        <time>2022-03-17T14:02:06Z</time>
      </trkpt>
      <trkpt lat="48.8923" lon="1.63106">
        <ele>94.3</ele>
        <time>2022-03-17T14:02:09Z</time>
      </trkpt>
      <trkpt lat="48.89236" lon="1.6311">
        <ele>93.8</ele>
        <time>2022-03-17T14:02:14Z</time>
      </trkpt>
      <trkpt lat="48.8924" lon="1.63113">
        <ele>94</ele>
        <time>2022-03-17T14:02:18Z</time>
      </trkpt>
      <trkpt lat="48.89245" lon="1.63114">
        <ele>94.8</ele>
        <time>2022-03-17T14:02:22Z</time>
      </trkpt>
      <trkpt lat="48.89251" lon="1.63116">
        <ele>94.8</ele>
        <time>2022-03-17T14:02:26Z</time>
      </trkpt>
      <trkpt lat="48.89255" lon="1.63121">
        <ele>94.2</ele>
        <time>2022-03-17T14:02:31Z</time>
      </trkpt>
      <trkpt lat="48.89258" lon="1.63126">
        <ele>93.7</ele>
        <time>2022-03-17T14:02:35Z</time>
      </trkpt>
      <trkpt lat="48.89258" lon="1.63135">
        <ele>93.3</ele>
        <time>2022-03-17T14:02:39Z</time>
      </trkpt>
      <trkpt lat="48.89254" lon="1.63142">
        <ele>93.2</ele>
        <time>2022-03-17T14:02:43Z</time>
      </trkpt>
      <trkpt lat="48.89251" lon="1.6315">
        <ele>93</ele>
        <time>2022-03-17T14:02:48Z</time>
      </trkpt>
      <trkpt lat="48.8925" lon="1.63158">
        <ele>92.8</ele>
        <time>2022-03-17T14:02:53Z</time>
      </trkpt>
      <trkpt lat="48.89249" lon="1.63165">
        <ele>93</ele>
        <time>2022-03-17T14:02:57Z</time>
      </trkpt>
      <trkpt lat="48.89248" lon="1.63174">
        <ele>93.4</ele>
        <time>2022-03-17T14:03:01Z</time>
      </trkpt>
      <trkpt lat="48.89247" lon="1.63183">
        <ele>93.5</ele>
        <time>2022-03-17T14:03:06Z</time>
      </trkpt>
      <trkpt lat="48.89246" lon="1.6319">
        <ele>92.7</ele>
        <time>2022-03-17T14:03:10Z</time>
      </trkpt>
      <trkpt lat="48.89243" lon="1.63198">
        <ele>92.3</ele>
        <time>2022-03-17T14:03:15Z</time>
      </trkpt>
      <trkpt lat="48.89241" lon="1.63205">
        <ele>91.8</ele>
        <time>2022-03-17T14:03:20Z</time>
      </trkpt>
      <trkpt lat="48.89239" lon="1.63212">
        <ele>91.2</ele>
        <time>2022-03-17T14:03:24Z</time>
      </trkpt>
      <trkpt lat="48.89237" lon="1.63219">
        <ele>90.8</ele>
        <time>2022-03-17T14:03:28Z</time>
      </trkpt>
      <trkpt lat="48.89234" lon="1.63226">
        <ele>90</ele>
        <time>2022-03-17T14:03:33Z</time>
      </trkpt>
      <trkpt lat="48.89233" lon="1.63233">
        <ele>88.6</ele>
        <time>2022-03-17T14:03:38Z</time>
      </trkpt>
      <trkpt lat="48.89232" lon="1.63241">
        <ele>88.1</ele>
        <time>2022-03-17T14:03:43Z</time>
      </trkpt>
      <trkpt lat="48.8923" lon="1.63248">
        <ele>87.8</ele>
        <time>2022-03-17T14:03:47Z</time>
      </trkpt>
      <trkpt lat="48.89229" lon="1.63255">
        <ele>87.3</ele>
        <time>2022-03-17T14:03:52Z</time>
      </trkpt>
      <trkpt lat="48.89229" lon="1.63262">
        <ele>86.4</ele>
        <time>2022-03-17T14:03:57Z</time>
      </trkpt>
      <trkpt lat="48.89226" lon="1.63269">
        <ele>86</ele>
        <time>2022-03-17T14:04:01Z</time>
      </trkpt>
      <trkpt lat="48.89222" lon="1.63274">
        <ele>85.2</ele>
        <time>2022-03-17T14:04:05Z</time>
      </trkpt>
      <trkpt lat="48.89217" lon="1.6328">
        <ele>84.2</ele>
        <time>2022-03-17T14:04:10Z</time>
      </trkpt>
      <trkpt lat="48.89214" lon="1.63287">
        <ele>83.8</ele>
        <time>2022-03-17T14:04:15Z</time>
      </trkpt>
      <trkpt lat="48.89209" lon="1.63288">
        <ele>83.9</ele>
        <time>2022-03-17T14:04:41Z</time>
      </trkpt>
      <trkpt lat="48.89208" lon="1.63297">
        <ele>83.8</ele>
        <time>2022-03-17T14:04:45Z</time>
      </trkpt>
      <trkpt lat="48.89209" lon="1.63307">
        <ele>83.9</ele>
        <time>2022-03-17T14:04:50Z</time>
      </trkpt>
      <trkpt lat="48.8921" lon="1.63316">
        <ele>83.5</ele>
        <time>2022-03-17T14:04:55Z</time>
      </trkpt>
      <trkpt lat="48.8921" lon="1.63323">
        <ele>82.1</ele>
        <time>2022-03-17T14:05:00Z</time>
      </trkpt>
      <trkpt lat="48.89209" lon="1.6333">
        <ele>79.1</ele>
        <time>2022-03-17T14:05:05Z</time>
      </trkpt>
      <trkpt lat="48.89207" lon="1.63337">
        <ele>76.3</ele>
        <time>2022-03-17T14:05:11Z</time>
      </trkpt>
      <trkpt lat="48.89204" lon="1.63342">
        <ele>75.1</ele>
        <time>2022-03-17T14:05:18Z</time>
      </trkpt>
      <trkpt lat="48.89203" lon="1.6335">
        <ele>75.4</ele>
        <time>2022-03-17T14:05:28Z</time>
      </trkpt>
      <trkpt lat="48.89205" lon="1.63356">
        <ele>74.8</ele>
        <time>2022-03-17T14:05:35Z</time>
      </trkpt>
      <trkpt lat="48.89207" lon="1.63363">
        <ele>74.1</ele>
        <time>2022-03-17T14:05:40Z</time>
      </trkpt>
      <trkpt lat="48.89209" lon="1.6337">
        <ele>73.5</ele>
        <time>2022-03-17T14:05:45Z</time>
      </trkpt>
      <trkpt lat="48.89211" lon="1.63378">
        <ele>72.4</ele>
        <time>2022-03-17T14:05:51Z</time>
      </trkpt>
      <trkpt lat="48.89212" lon="1.63385">
        <ele>71.5</ele>
        <time>2022-03-17T14:05:56Z</time>
      </trkpt>
      <trkpt lat="48.89214" lon="1.63392">
        <ele>70.3</ele>
        <time>2022-03-17T14:06:01Z</time>
      </trkpt>
      <trkpt lat="48.89216" lon="1.63398">
        <ele>68.8</ele>
        <time>2022-03-17T14:06:06Z</time>
      </trkpt>
      <trkpt lat="48.89218" lon="1.63405">
        <ele>68.1</ele>
        <time>2022-03-17T14:06:10Z</time>
      </trkpt>
      <trkpt lat="48.89219" lon="1.63414">
        <ele>68.6</ele>
        <time>2022-03-17T14:06:50Z</time>
      </trkpt>
      <trkpt lat="48.8922" lon="1.63421">
        <ele>68.9</ele>
        <time>2022-03-17T14:06:56Z</time>
      </trkpt>
      <trkpt lat="48.89221" lon="1.6343">
        <ele>69.7</ele>
        <time>2022-03-17T14:07:00Z</time>
      </trkpt>
      <trkpt lat="48.89222" lon="1.63438">
        <ele>70.4</ele>
        <time>2022-03-17T14:07:03Z</time>
      </trkpt>
      <trkpt lat="48.89222" lon="1.63447">
        <ele>71.2</ele>
        <time>2022-03-17T14:07:07Z</time>
      </trkpt>
      <trkpt lat="48.89221" lon="1.63454">
        <ele>71.5</ele>
        <time>2022-03-17T14:07:11Z</time>
      </trkpt>
      <trkpt lat="48.89221" lon="1.63461">
        <ele>71.7</ele>
        <time>2022-03-17T14:07:14Z</time>
      </trkpt>
      <trkpt lat="48.89222" lon="1.63468">
        <ele>71.4</ele>
        <time>2022-03-17T14:07:18Z</time>
      </trkpt>
      <trkpt lat="48.89222" lon="1.63476">
        <ele>70.2</ele>
        <time>2022-03-17T14:07:23Z</time>
      </trkpt>
      <trkpt lat="48.89222" lon="1.63483">
        <ele>69.8</ele>
        <time>2022-03-17T14:07:26Z</time>
      </trkpt>
      <trkpt lat="48.89221" lon="1.6349">
        <ele>69.3</ele>
        <time>2022-03-17T14:07:30Z</time>
      </trkpt>
      <trkpt lat="48.89217" lon="1.63496">
        <ele>68.6</ele>
        <time>2022-03-17T14:07:35Z</time>
      </trkpt>
      <trkpt lat="48.89213" lon="1.635">
        <ele>67.4</ele>
        <time>2022-03-17T14:07:39Z</time>
      </trkpt>
      <trkpt lat="48.8921" lon="1.63506">
        <ele>66.6</ele>
        <time>2022-03-17T14:07:43Z</time>
      </trkpt>
      <trkpt lat="48.89206" lon="1.63512">
        <ele>65.4</ele>
        <time>2022-03-17T14:07:48Z</time>
      </trkpt>
      <trkpt lat="48.89203" lon="1.63519">
        <ele>64.6</ele>
        <time>2022-03-17T14:07:52Z</time>
      </trkpt>
      <trkpt lat="48.892" lon="1.63525">
        <ele>64.5</ele>
        <time>2022-03-17T14:07:55Z</time>
      </trkpt>
      <trkpt lat="48.89198" lon="1.63531">
        <ele>64.3</ele>
        <time>2022-03-17T14:08:00Z</time>
      </trkpt>
      <trkpt lat="48.89195" lon="1.63537">
        <ele>64.3</ele>
        <time>2022-03-17T14:08:04Z</time>
      </trkpt>
      <trkpt lat="48.89192" lon="1.63544">
        <ele>65.2</ele>
        <time>2022-03-17T14:08:08Z</time>
      </trkpt>
      <trkpt lat="48.89189" lon="1.6355">
        <ele>66.2</ele>
        <time>2022-03-17T14:08:12Z</time>
      </trkpt>
      <trkpt lat="48.89186" lon="1.63556">
        <ele>66.3</ele>
        <time>2022-03-17T14:08:16Z</time>
      </trkpt>
      <trkpt lat="48.89183" lon="1.63564">
        <ele>66.2</ele>
        <time>2022-03-17T14:08:21Z</time>
      </trkpt>
      <trkpt lat="48.89181" lon="1.6357">
        <ele>66.3</ele>
        <time>2022-03-17T14:08:25Z</time>
      </trkpt>
      <trkpt lat="48.89177" lon="1.63577">
        <ele>66.3</ele>
        <time>2022-03-17T14:08:30Z</time>
      </trkpt>
      <trkpt lat="48.89174" lon="1.63584">
        <ele>66.3</ele>
        <time>2022-03-17T14:08:34Z</time>
      </trkpt>
      <trkpt lat="48.89171" lon="1.63591">
        <ele>66.3</ele>
        <time>2022-03-17T14:08:38Z</time>
      </trkpt>
      <trkpt lat="48.89167" lon="1.63597">
        <ele>65.9</ele>
        <time>2022-03-17T14:08:42Z</time>
      </trkpt>
      <trkpt lat="48.89165" lon="1.63604">
        <ele>65.6</ele>
        <time>2022-03-17T14:08:46Z</time>
      </trkpt>
      <trkpt lat="48.89162" lon="1.6361">
        <ele>65.6</ele>
        <time>2022-03-17T14:08:50Z</time>
      </trkpt>
      <trkpt lat="48.89158" lon="1.63618">
        <ele>65.9</ele>
        <time>2022-03-17T14:08:54Z</time>
      </trkpt>
      <trkpt lat="48.89157" lon="1.63626">
        <ele>66.1</ele>
        <time>2022-03-17T14:08:58Z</time>
      </trkpt>
      <trkpt lat="48.89155" lon="1.63634">
        <ele>66.7</ele>
        <time>2022-03-17T14:09:01Z</time>
      </trkpt>
      <trkpt lat="48.89151" lon="1.63638">
        <ele>67.3</ele>
        <time>2022-03-17T14:09:05Z</time>
      </trkpt>
      <trkpt lat="48.89148" lon="1.63645">
        <ele>68.3</ele>
        <time>2022-03-17T14:09:10Z</time>
      </trkpt>
      <trkpt lat="48.89144" lon="1.63652">
        <ele>68.4</ele>
        <time>2022-03-17T14:09:15Z</time>
      </trkpt>
      <trkpt lat="48.89141" lon="1.63658">
        <ele>67.8</ele>
        <time>2022-03-17T14:09:19Z</time>
      </trkpt>
      <trkpt lat="48.89138" lon="1.63663">
        <ele>67.4</ele>
        <time>2022-03-17T14:09:23Z</time>
      </trkpt>
      <trkpt lat="48.89134" lon="1.63669">
        <ele>67.4</ele>
        <time>2022-03-17T14:09:27Z</time>
      </trkpt>
      <trkpt lat="48.8913" lon="1.63677">
        <ele>67.8</ele>
        <time>2022-03-17T14:09:32Z</time>
      </trkpt>
      <trkpt lat="48.89126" lon="1.63684">
        <ele>67.7</ele>
        <time>2022-03-17T14:09:37Z</time>
      </trkpt>
      <trkpt lat="48.89122" lon="1.6369">
        <ele>67.6</ele>
        <time>2022-03-17T14:09:42Z</time>
      </trkpt>
      <trkpt lat="48.89117" lon="1.63696">
        <ele>67.8</ele>
        <time>2022-03-17T14:09:47Z</time>
      </trkpt>
      <trkpt lat="48.89113" lon="1.63703">
        <ele>67.9</ele>
        <time>2022-03-17T14:09:53Z</time>
      </trkpt>
      <trkpt lat="48.89111" lon="1.63709">
        <ele>68.9</ele>
        <time>2022-03-17T14:10:00Z</time>
      </trkpt>
      <trkpt lat="48.89106" lon="1.63716">
        <ele>68.9</ele>
        <time>2022-03-17T14:10:03Z</time>
      </trkpt>
      <trkpt lat="48.89104" lon="1.63723">
        <ele>69.4</ele>
        <time>2022-03-17T14:10:08Z</time>
      </trkpt>
      <trkpt lat="48.89102" lon="1.63731">
        <ele>70.8</ele>
        <time>2022-03-17T14:10:13Z</time>
      </trkpt>
      <trkpt lat="48.891" lon="1.63739">
        <ele>71.5</ele>
        <time>2022-03-17T14:10:17Z</time>
      </trkpt>
      <trkpt lat="48.89101" lon="1.63746">
        <ele>72.1</ele>
        <time>2022-03-17T14:10:23Z</time>
      </trkpt>
      <trkpt lat="48.89098" lon="1.63752">
        <ele>72.7</ele>
        <time>2022-03-17T14:10:27Z</time>
      </trkpt>
      <trkpt lat="48.89095" lon="1.63759">
        <ele>73</ele>
        <time>2022-03-17T14:10:32Z</time>
      </trkpt>
      <trkpt lat="48.89093" lon="1.63768">
        <ele>73.2</ele>
        <time>2022-03-17T14:10:38Z</time>
      </trkpt>
      <trkpt lat="48.8909" lon="1.63774">
        <ele>73.1</ele>
        <time>2022-03-17T14:10:42Z</time>
      </trkpt>
      <trkpt lat="48.89086" lon="1.6378">
        <ele>73.1</ele>
        <time>2022-03-17T14:10:46Z</time>
      </trkpt>
      <trkpt lat="48.89084" lon="1.63788">
        <ele>74.2</ele>
        <time>2022-03-17T14:10:51Z</time>
      </trkpt>
      <trkpt lat="48.89082" lon="1.63795">
        <ele>74.5</ele>
        <time>2022-03-17T14:10:55Z</time>
      </trkpt>
      <trkpt lat="48.89079" lon="1.63801">
        <ele>74</ele>
        <time>2022-03-17T14:10:59Z</time>
      </trkpt>
      <trkpt lat="48.89075" lon="1.63808">
        <ele>73.3</ele>
        <time>2022-03-17T14:11:04Z</time>
      </trkpt>
      <trkpt lat="48.89072" lon="1.63815">
        <ele>72.5</ele>
        <time>2022-03-17T14:11:09Z</time>
      </trkpt>
      <trkpt lat="48.89069" lon="1.63824">
        <ele>71.5</ele>
        <time>2022-03-17T14:11:14Z</time>
      </trkpt>
      <trkpt lat="48.89067" lon="1.6383">
        <ele>71.5</ele>
        <time>2022-03-17T14:11:18Z</time>
      </trkpt>
      <trkpt lat="48.89065" lon="1.63838">
        <ele>71.4</ele>
        <time>2022-03-17T14:11:22Z</time>
      </trkpt>
      <trkpt lat="48.89063" lon="1.63845">
        <ele>71.1</ele>
        <time>2022-03-17T14:11:26Z</time>
      </trkpt>
      <trkpt lat="48.8906" lon="1.63851">
        <ele>70.6</ele>
        <time>2022-03-17T14:11:30Z</time>
      </trkpt>
      <trkpt lat="48.89059" lon="1.63858">
        <ele>70</ele>
        <time>2022-03-17T14:11:33Z</time>
      </trkpt>
      <trkpt lat="48.89057" lon="1.63865">
        <ele>68.6</ele>
        <time>2022-03-17T14:11:37Z</time>
      </trkpt>
      <trkpt lat="48.89055" lon="1.63872">
        <ele>67.8</ele>
        <time>2022-03-17T14:11:41Z</time>
      </trkpt>
      <trkpt lat="48.89054" lon="1.63881">
        <ele>67.7</ele>
        <time>2022-03-17T14:11:45Z</time>
      </trkpt>
      <trkpt lat="48.89053" lon="1.63889">
        <ele>68.9</ele>
        <time>2022-03-17T14:11:50Z</time>
      </trkpt>
      <trkpt lat="48.89051" lon="1.63898">
        <ele>69.5</ele>
        <time>2022-03-17T14:11:55Z</time>
      </trkpt>
      <trkpt lat="48.8905" lon="1.63905">
        <ele>70</ele>
        <time>2022-03-17T14:11:59Z</time>
      </trkpt>
      <trkpt lat="48.8905" lon="1.63912">
        <ele>70.1</ele>
        <time>2022-03-17T14:12:03Z</time>
      </trkpt>
      <trkpt lat="48.89048" lon="1.6392">
        <ele>70.2</ele>
        <time>2022-03-17T14:12:07Z</time>
      </trkpt>
      <trkpt lat="48.89048" lon="1.63926">
        <ele>71.1</ele>
        <time>2022-03-17T14:12:11Z</time>
      </trkpt>
      <trkpt lat="48.89047" lon="1.63937">
        <ele>71.9</ele>
        <time>2022-03-17T14:12:15Z</time>
      </trkpt>
      <trkpt lat="48.89045" lon="1.63946">
        <ele>72.1</ele>
        <time>2022-03-17T14:12:20Z</time>
      </trkpt>
      <trkpt lat="48.89044" lon="1.63953">
        <ele>71.5</ele>
        <time>2022-03-17T14:12:24Z</time>
      </trkpt>
      <trkpt lat="48.89044" lon="1.63961">
        <ele>71.8</ele>
        <time>2022-03-17T14:12:28Z</time>
      </trkpt>
      <trkpt lat="48.89043" lon="1.63971">
        <ele>72.9</ele>
        <time>2022-03-17T14:12:33Z</time>
      </trkpt>
      <trkpt lat="48.89042" lon="1.63978">
        <ele>73.6</ele>
        <time>2022-03-17T14:12:36Z</time>
      </trkpt>
      <trkpt lat="48.8904" lon="1.63985">
        <ele>74.1</ele>
        <time>2022-03-17T14:12:40Z</time>
      </trkpt>
      <trkpt lat="48.8904" lon="1.63993">
        <ele>74.2</ele>
        <time>2022-03-17T14:12:44Z</time>
      </trkpt>
      <trkpt lat="48.89039" lon="1.64">
        <ele>74.3</ele>
        <time>2022-03-17T14:12:48Z</time>
      </trkpt>
      <trkpt lat="48.89039" lon="1.64009">
        <ele>74.4</ele>
        <time>2022-03-17T14:12:53Z</time>
      </trkpt>
      <trkpt lat="48.89038" lon="1.64019">
        <ele>74.2</ele>
        <time>2022-03-17T14:12:58Z</time>
      </trkpt>
      <trkpt lat="48.89037" lon="1.64027">
        <ele>73.7</ele>
        <time>2022-03-17T14:13:02Z</time>
      </trkpt>
      <trkpt lat="48.89038" lon="1.64037">
        <ele>73.7</ele>
        <time>2022-03-17T14:13:07Z</time>
      </trkpt>
      <trkpt lat="48.89037" lon="1.64045">
        <ele>74.4</ele>
        <time>2022-03-17T14:13:12Z</time>
      </trkpt>
      <trkpt lat="48.89037" lon="1.64053">
        <ele>74.9</ele>
        <time>2022-03-17T14:13:16Z</time>
      </trkpt>
      <trkpt lat="48.89037" lon="1.64062">
        <ele>74.6</ele>
        <time>2022-03-17T14:13:20Z</time>
      </trkpt>
      <trkpt lat="48.89038" lon="1.64069">
        <ele>74.5</ele>
        <time>2022-03-17T14:13:23Z</time>
      </trkpt>
      <trkpt lat="48.89038" lon="1.64078">
        <ele>74.6</ele>
        <time>2022-03-17T14:13:28Z</time>
      </trkpt>
      <trkpt lat="48.89037" lon="1.64085">
        <ele>74.9</ele>
        <time>2022-03-17T14:13:32Z</time>
      </trkpt>
      <trkpt lat="48.89037" lon="1.64093">
        <ele>74.6</ele>
        <time>2022-03-17T14:13:36Z</time>
      </trkpt>
      <trkpt lat="48.89037" lon="1.641">
        <ele>74.7</ele>
        <time>2022-03-17T14:13:40Z</time>
      </trkpt>
      <trkpt lat="48.89036" lon="1.64108">
        <ele>74.1</ele>
        <time>2022-03-17T14:13:44Z</time>
      </trkpt>
      <trkpt lat="48.89036" lon="1.64116">
        <ele>74.2</ele>
        <time>2022-03-17T14:13:48Z</time>
      </trkpt>
      <trkpt lat="48.89037" lon="1.64124">
        <ele>74.8</ele>
        <time>2022-03-17T14:13:53Z</time>
      </trkpt>
      <trkpt lat="48.89038" lon="1.64133">
        <ele>75.4</ele>
        <time>2022-03-17T14:13:58Z</time>
      </trkpt>
      <trkpt lat="48.89037" lon="1.64141">
        <ele>74.6</ele>
        <time>2022-03-17T14:14:03Z</time>
      </trkpt>
      <trkpt lat="48.89035" lon="1.6415">
        <ele>73.1</ele>
        <time>2022-03-17T14:14:08Z</time>
      </trkpt>
      <trkpt lat="48.89034" lon="1.64159">
        <ele>72.1</ele>
        <time>2022-03-17T14:14:13Z</time>
      </trkpt>
      <trkpt lat="48.89034" lon="1.64168">
        <ele>72.5</ele>
        <time>2022-03-17T14:14:18Z</time>
      </trkpt>
      <trkpt lat="48.89033" lon="1.64176">
        <ele>73.3</ele>
        <time>2022-03-17T14:14:23Z</time>
      </trkpt>
      <trkpt lat="48.89034" lon="1.64184">
        <ele>74.8</ele>
        <time>2022-03-17T14:14:27Z</time>
      </trkpt>
      <trkpt lat="48.89034" lon="1.64192">
        <ele>76.2</ele>
        <time>2022-03-17T14:14:31Z</time>
      </trkpt>
      <trkpt lat="48.89035" lon="1.64199">
        <ele>75.9</ele>
        <time>2022-03-17T14:14:35Z</time>
      </trkpt>
      <trkpt lat="48.89037" lon="1.64206">
        <ele>74.1</ele>
        <time>2022-03-17T14:14:40Z</time>
      </trkpt>
      <trkpt lat="48.89038" lon="1.64214">
        <ele>73.2</ele>
        <time>2022-03-17T14:14:43Z</time>
      </trkpt>
      <trkpt lat="48.89039" lon="1.64224">
        <ele>73.9</ele>
        <time>2022-03-17T14:14:48Z</time>
      </trkpt>
      <trkpt lat="48.89041" lon="1.64232">
        <ele>74.6</ele>
        <time>2022-03-17T14:14:53Z</time>
      </trkpt>
      <trkpt lat="48.89044" lon="1.64241">
        <ele>74.8</ele>
        <time>2022-03-17T14:14:58Z</time>
      </trkpt>
      <trkpt lat="48.89046" lon="1.64251">
        <ele>75.3</ele>
        <time>2022-03-17T14:15:03Z</time>
      </trkpt>
      <trkpt lat="48.89048" lon="1.64261">
        <ele>75.9</ele>
        <time>2022-03-17T14:15:08Z</time>
      </trkpt>
      <trkpt lat="48.8905" lon="1.64268">
        <ele>75.8</ele>
        <time>2022-03-17T14:15:12Z</time>
      </trkpt>
      <trkpt lat="48.89054" lon="1.64275">
        <ele>74.8</ele>
        <time>2022-03-17T14:15:17Z</time>
      </trkpt>
      <trkpt lat="48.89056" lon="1.64282">
        <ele>74.8</ele>
        <time>2022-03-17T14:15:21Z</time>
      </trkpt>
      <trkpt lat="48.89059" lon="1.64289">
        <ele>75.1</ele>
        <time>2022-03-17T14:15:24Z</time>
      </trkpt>
      <trkpt lat="48.89062" lon="1.64296">
        <ele>75.7</ele>
        <time>2022-03-17T14:15:28Z</time>
      </trkpt>
      <trkpt lat="48.89064" lon="1.64302">
        <ele>74.9</ele>
        <time>2022-03-17T14:15:32Z</time>
      </trkpt>
      <trkpt lat="48.89067" lon="1.64309">
        <ele>74.1</ele>
        <time>2022-03-17T14:15:37Z</time>
      </trkpt>
      <trkpt lat="48.8907" lon="1.64315">
        <ele>74</ele>
        <time>2022-03-17T14:15:40Z</time>
      </trkpt>
      <trkpt lat="48.89073" lon="1.64321">
        <ele>74.3</ele>
        <time>2022-03-17T14:15:43Z</time>
      </trkpt>
      <trkpt lat="48.89076" lon="1.6433">
        <ele>74.4</ele>
        <time>2022-03-17T14:15:48Z</time>
      </trkpt>
      <trkpt lat="48.8908" lon="1.64338">
        <ele>73.7</ele>
        <time>2022-03-17T14:15:53Z</time>
      </trkpt>
      <trkpt lat="48.89084" lon="1.64346">
        <ele>72.5</ele>
        <time>2022-03-17T14:15:58Z</time>
      </trkpt>
      <trkpt lat="48.89085" lon="1.64355">
        <ele>71.5</ele>
        <time>2022-03-17T14:16:03Z</time>
      </trkpt>
      <trkpt lat="48.89086" lon="1.64363">
        <ele>70.7</ele>
        <time>2022-03-17T14:16:08Z</time>
      </trkpt>
      <trkpt lat="48.89088" lon="1.64372">
        <ele>70.6</ele>
        <time>2022-03-17T14:16:13Z</time>
      </trkpt>
      <trkpt lat="48.89089" lon="1.64382">
        <ele>70.3</ele>
        <time>2022-03-17T14:16:18Z</time>
      </trkpt>
      <trkpt lat="48.89092" lon="1.64392">
        <ele>70</ele>
        <time>2022-03-17T14:16:23Z</time>
      </trkpt>
      <trkpt lat="48.89094" lon="1.64402">
        <ele>69.8</ele>
        <time>2022-03-17T14:16:28Z</time>
      </trkpt>
      <trkpt lat="48.89096" lon="1.64411">
        <ele>69.5</ele>
        <time>2022-03-17T14:16:33Z</time>
      </trkpt>
      <trkpt lat="48.89099" lon="1.6442">
        <ele>68.9</ele>
        <time>2022-03-17T14:16:38Z</time>
      </trkpt>
      <trkpt lat="48.891" lon="1.6443">
        <ele>68.4</ele>
        <time>2022-03-17T14:16:44Z</time>
      </trkpt>
      <trkpt lat="48.89102" lon="1.64437">
        <ele>67.6</ele>
        <time>2022-03-17T14:16:48Z</time>
      </trkpt>
      <trkpt lat="48.89103" lon="1.64445">
        <ele>67.4</ele>
        <time>2022-03-17T14:16:53Z</time>
      </trkpt>
      <trkpt lat="48.89105" lon="1.64453">
        <ele>68.4</ele>
        <time>2022-03-17T14:16:57Z</time>
      </trkpt>
      <trkpt lat="48.89106" lon="1.64461">
        <ele>69.2</ele>
        <time>2022-03-17T14:17:01Z</time>
      </trkpt>
      <trkpt lat="48.89107" lon="1.64467">
        <ele>69.3</ele>
        <time>2022-03-17T14:17:04Z</time>
      </trkpt>
      <trkpt lat="48.89109" lon="1.64474">
        <ele>68.8</ele>
        <time>2022-03-17T14:17:07Z</time>
      </trkpt>
      <trkpt lat="48.89111" lon="1.64483">
        <ele>67.6</ele>
        <time>2022-03-17T14:17:12Z</time>
      </trkpt>
      <trkpt lat="48.89113" lon="1.64491">
        <ele>67.2</ele>
        <time>2022-03-17T14:17:17Z</time>
      </trkpt>
      <trkpt lat="48.89114" lon="1.64498">
        <ele>67.8</ele>
        <time>2022-03-17T14:17:21Z</time>
      </trkpt>
      <trkpt lat="48.89115" lon="1.64505">
        <ele>68.2</ele>
        <time>2022-03-17T14:17:25Z</time>
      </trkpt>
      <trkpt lat="48.89117" lon="1.64512">
        <ele>68.6</ele>
        <time>2022-03-17T14:17:29Z</time>
      </trkpt>
      <trkpt lat="48.89118" lon="1.6452">
        <ele>68.7</ele>
        <time>2022-03-17T14:17:34Z</time>
      </trkpt>
      <trkpt lat="48.89118" lon="1.64527">
        <ele>68.7</ele>
        <time>2022-03-17T14:17:38Z</time>
      </trkpt>
      <trkpt lat="48.89119" lon="1.64535">
        <ele>69.8</ele>
        <time>2022-03-17T14:17:42Z</time>
      </trkpt>
      <trkpt lat="48.89119" lon="1.64543">
        <ele>70.2</ele>
        <time>2022-03-17T14:17:47Z</time>
      </trkpt>
      <trkpt lat="48.89118" lon="1.64552">
        <ele>69.6</ele>
        <time>2022-03-17T14:17:52Z</time>
      </trkpt>
      <trkpt lat="48.89116" lon="1.64561">
        <ele>69.7</ele>
        <time>2022-03-17T14:17:57Z</time>
      </trkpt>
      <trkpt lat="48.89113" lon="1.64568">
        <ele>69.8</ele>
        <time>2022-03-17T14:18:02Z</time>
      </trkpt>
      <trkpt lat="48.89112" lon="1.64576">
        <ele>68.9</ele>
        <time>2022-03-17T14:18:07Z</time>
      </trkpt>
      <trkpt lat="48.8911" lon="1.64583">
        <ele>69.3</ele>
        <time>2022-03-17T14:18:12Z</time>
      </trkpt>
      <trkpt lat="48.89107" lon="1.64592">
        <ele>70.4</ele>
        <time>2022-03-17T14:18:17Z</time>
      </trkpt>
      <trkpt lat="48.89105" lon="1.64601">
        <ele>69.8</ele>
        <time>2022-03-17T14:18:22Z</time>
      </trkpt>
      <trkpt lat="48.89103" lon="1.64607">
        <ele>67.8</ele>
        <time>2022-03-17T14:18:27Z</time>
      </trkpt>
      <trkpt lat="48.89102" lon="1.64614">
        <ele>67.3</ele>
        <time>2022-03-17T14:18:32Z</time>
      </trkpt>
      <trkpt lat="48.891" lon="1.64621">
        <ele>67.4</ele>
        <time>2022-03-17T14:18:36Z</time>
      </trkpt>
      <trkpt lat="48.89099" lon="1.64629">
        <ele>67.6</ele>
        <time>2022-03-17T14:18:40Z</time>
      </trkpt>
      <trkpt lat="48.89097" lon="1.64637">
        <ele>67.8</ele>
        <time>2022-03-17T14:18:44Z</time>
      </trkpt>
      <trkpt lat="48.89095" lon="1.64644">
        <ele>68.1</ele>
        <time>2022-03-17T14:18:47Z</time>
      </trkpt>
      <trkpt lat="48.89092" lon="1.6465">
        <ele>68.9</ele>
        <time>2022-03-17T14:18:51Z</time>
      </trkpt>
      <trkpt lat="48.8909" lon="1.64657">
        <ele>69.9</ele>
        <time>2022-03-17T14:18:55Z</time>
      </trkpt>
      <trkpt lat="48.89088" lon="1.64664">
        <ele>71.1</ele>
        <time>2022-03-17T14:19:00Z</time>
      </trkpt>
      <trkpt lat="48.89085" lon="1.64672">
        <ele>72</ele>
        <time>2022-03-17T14:19:06Z</time>
      </trkpt>
      <trkpt lat="48.89082" lon="1.64678">
        <ele>72.1</ele>
        <time>2022-03-17T14:19:10Z</time>
      </trkpt>
      <trkpt lat="48.8908" lon="1.64685">
        <ele>69.9</ele>
        <time>2022-03-17T14:19:16Z</time>
      </trkpt>
      <trkpt lat="48.8908" lon="1.64693">
        <ele>68.1</ele>
        <time>2022-03-17T14:19:20Z</time>
      </trkpt>
      <trkpt lat="48.89079" lon="1.647">
        <ele>67.5</ele>
        <time>2022-03-17T14:19:25Z</time>
      </trkpt>
      <trkpt lat="48.89076" lon="1.64707">
        <ele>67.7</ele>
        <time>2022-03-17T14:19:30Z</time>
      </trkpt>
      <trkpt lat="48.89074" lon="1.64713">
        <ele>68.3</ele>
        <time>2022-03-17T14:19:34Z</time>
      </trkpt>
      <trkpt lat="48.89071" lon="1.6472">
        <ele>68.7</ele>
        <time>2022-03-17T14:19:39Z</time>
      </trkpt>
      <trkpt lat="48.89069" lon="1.64726">
        <ele>69.3</ele>
        <time>2022-03-17T14:19:42Z</time>
      </trkpt>
      <trkpt lat="48.89068" lon="1.64734">
        <ele>70.2</ele>
        <time>2022-03-17T14:19:47Z</time>
      </trkpt>
      <trkpt lat="48.89066" lon="1.64744">
        <ele>70.8</ele>
        <time>2022-03-17T14:19:52Z</time>
      </trkpt>
      <trkpt lat="48.89064" lon="1.64754">
        <ele>70.7</ele>
        <time>2022-03-17T14:19:57Z</time>
      </trkpt>
      <trkpt lat="48.89063" lon="1.64763">
        <ele>71</ele>
        <time>2022-03-17T14:20:02Z</time>
      </trkpt>
      <trkpt lat="48.89061" lon="1.64769">
        <ele>71.9</ele>
        <time>2022-03-17T14:20:09Z</time>
      </trkpt>
      <trkpt lat="48.89059" lon="1.64776">
        <ele>71.6</ele>
        <time>2022-03-17T14:20:13Z</time>
      </trkpt>
      <trkpt lat="48.89056" lon="1.64785">
        <ele>71.1</ele>
        <time>2022-03-17T14:20:18Z</time>
      </trkpt>
      <trkpt lat="48.89054" lon="1.64792">
        <ele>70.7</ele>
        <time>2022-03-17T14:20:22Z</time>
      </trkpt>
      <trkpt lat="48.89053" lon="1.64799">
        <ele>71.1</ele>
        <time>2022-03-17T14:20:25Z</time>
      </trkpt>
      <trkpt lat="48.89052" lon="1.64807">
        <ele>71.6</ele>
        <time>2022-03-17T14:20:29Z</time>
      </trkpt>
      <trkpt lat="48.8905" lon="1.64816">
        <ele>70.3</ele>
        <time>2022-03-17T14:20:34Z</time>
      </trkpt>
      <trkpt lat="48.8905" lon="1.64825">
        <ele>66.6</ele>
        <time>2022-03-17T14:20:39Z</time>
      </trkpt>
      <trkpt lat="48.89049" lon="1.64834">
        <ele>65.1</ele>
        <time>2022-03-17T14:20:44Z</time>
      </trkpt>
      <trkpt lat="48.89049" lon="1.64843">
        <ele>65.4</ele>
        <time>2022-03-17T14:20:49Z</time>
      </trkpt>
      <trkpt lat="48.89048" lon="1.64853">
        <ele>65.9</ele>
        <time>2022-03-17T14:20:54Z</time>
      </trkpt>
      <trkpt lat="48.89048" lon="1.64863">
        <ele>66</ele>
        <time>2022-03-17T14:20:59Z</time>
      </trkpt>
      <trkpt lat="48.89049" lon="1.64873">
        <ele>65.7</ele>
        <time>2022-03-17T14:21:04Z</time>
      </trkpt>
      <trkpt lat="48.89052" lon="1.64883">
        <ele>65.1</ele>
        <time>2022-03-17T14:21:09Z</time>
      </trkpt>
      <trkpt lat="48.89053" lon="1.64889">
        <ele>64.5</ele>
        <time>2022-03-17T14:21:13Z</time>
      </trkpt>
      <trkpt lat="48.89054" lon="1.64897">
        <ele>64.8</ele>
        <time>2022-03-17T14:21:17Z</time>
      </trkpt>
      <trkpt lat="48.89054" lon="1.64904">
        <ele>65.2</ele>
        <time>2022-03-17T14:21:20Z</time>
      </trkpt>
      <trkpt lat="48.89055" lon="1.64913">
        <ele>65.5</ele>
        <time>2022-03-17T14:21:25Z</time>
      </trkpt>
      <trkpt lat="48.89055" lon="1.64923">
        <ele>65.6</ele>
        <time>2022-03-17T14:21:29Z</time>
      </trkpt>
      <trkpt lat="48.89055" lon="1.6493">
        <ele>66</ele>
        <time>2022-03-17T14:21:34Z</time>
      </trkpt>
      <trkpt lat="48.89054" lon="1.64939">
        <ele>66.2</ele>
        <time>2022-03-17T14:21:38Z</time>
      </trkpt>
      <trkpt lat="48.89054" lon="1.64946">
        <ele>66.1</ele>
        <time>2022-03-17T14:21:42Z</time>
      </trkpt>
      <trkpt lat="48.89053" lon="1.64954">
        <ele>66.3</ele>
        <time>2022-03-17T14:21:47Z</time>
      </trkpt>
      <trkpt lat="48.89053" lon="1.64961">
        <ele>66.6</ele>
        <time>2022-03-17T14:21:51Z</time>
      </trkpt>
      <trkpt lat="48.89053" lon="1.64968">
        <ele>66.9</ele>
        <time>2022-03-17T14:21:55Z</time>
      </trkpt>
      <trkpt lat="48.89053" lon="1.64976">
        <ele>66.5</ele>
        <time>2022-03-17T14:21:59Z</time>
      </trkpt>
      <trkpt lat="48.89054" lon="1.64982">
        <ele>65.2</ele>
        <time>2022-03-17T14:22:03Z</time>
      </trkpt>
      <trkpt lat="48.89054" lon="1.6499">
        <ele>65.3</ele>
        <time>2022-03-17T14:22:07Z</time>
      </trkpt>
      <trkpt lat="48.89051" lon="1.64997">
        <ele>68.8</ele>
        <time>2022-03-17T14:22:12Z</time>
      </trkpt>
      <trkpt lat="48.89049" lon="1.65004">
        <ele>71.5</ele>
        <time>2022-03-17T14:22:15Z</time>
      </trkpt>
      <trkpt lat="48.89048" lon="1.65012">
        <ele>72.8</ele>
        <time>2022-03-17T14:22:21Z</time>
      </trkpt>
      <trkpt lat="48.89048" lon="1.6502">
        <ele>73</ele>
        <time>2022-03-17T14:22:25Z</time>
      </trkpt>
      <trkpt lat="48.8905" lon="1.65027">
        <ele>73</ele>
        <time>2022-03-17T14:22:30Z</time>
      </trkpt>
      <trkpt lat="48.89051" lon="1.65035">
        <ele>72.9</ele>
        <time>2022-03-17T14:22:35Z</time>
      </trkpt>
      <trkpt lat="48.89052" lon="1.65044">
        <ele>73</ele>
        <time>2022-03-17T14:22:40Z</time>
      </trkpt>
      <trkpt lat="48.89053" lon="1.65052">
        <ele>71.5</ele>
        <time>2022-03-17T14:22:45Z</time>
      </trkpt>
      <trkpt lat="48.89053" lon="1.65061">
        <ele>70.7</ele>
        <time>2022-03-17T14:22:51Z</time>
      </trkpt>
      <trkpt lat="48.89055" lon="1.65071">
        <ele>71</ele>
        <time>2022-03-17T14:22:55Z</time>
      </trkpt>
      <trkpt lat="48.89057" lon="1.65076">
        <ele>69.9</ele>
        <time>2022-03-17T14:23:00Z</time>
      </trkpt>
      <trkpt lat="48.8906" lon="1.65084">
        <ele>68.7</ele>
        <time>2022-03-17T14:23:04Z</time>
      </trkpt>
      <trkpt lat="48.89062" lon="1.65092">
        <ele>68</ele>
        <time>2022-03-17T14:23:08Z</time>
      </trkpt>
      <trkpt lat="48.89062" lon="1.65099">
        <ele>67.8</ele>
        <time>2022-03-17T14:23:12Z</time>
      </trkpt>
      <trkpt lat="48.89062" lon="1.65107">
        <ele>68.1</ele>
        <time>2022-03-17T14:23:18Z</time>
      </trkpt>
      <trkpt lat="48.89063" lon="1.65114">
        <ele>69.2</ele>
        <time>2022-03-17T14:23:24Z</time>
      </trkpt>
      <trkpt lat="48.89066" lon="1.65121">
        <ele>69.7</ele>
        <time>2022-03-17T14:23:30Z</time>
      </trkpt>
      <trkpt lat="48.89068" lon="1.65127">
        <ele>68.5</ele>
        <time>2022-03-17T14:23:34Z</time>
      </trkpt>
      <trkpt lat="48.8907" lon="1.65134">
        <ele>67.5</ele>
        <time>2022-03-17T14:23:38Z</time>
      </trkpt>
      <trkpt lat="48.89069" lon="1.65142">
        <ele>67.9</ele>
        <time>2022-03-17T14:23:43Z</time>
      </trkpt>
      <trkpt lat="48.89072" lon="1.65147">
        <ele>67.9</ele>
        <time>2022-03-17T14:23:48Z</time>
      </trkpt>
      <trkpt lat="48.89076" lon="1.65153">
        <ele>66.2</ele>
        <time>2022-03-17T14:23:58Z</time>
      </trkpt>
      <trkpt lat="48.89077" lon="1.6516">
        <ele>66.1</ele>
        <time>2022-03-17T14:24:02Z</time>
      </trkpt>
      <trkpt lat="48.89074" lon="1.65167">
        <ele>65.8</ele>
        <time>2022-03-17T14:24:06Z</time>
      </trkpt>
      <trkpt lat="48.89076" lon="1.65173">
        <ele>65.9</ele>
        <time>2022-03-17T14:24:11Z</time>
      </trkpt>
      <trkpt lat="48.89077" lon="1.65181">
        <ele>65.8</ele>
        <time>2022-03-17T14:24:17Z</time>
      </trkpt>
      <trkpt lat="48.8908" lon="1.65188">
        <ele>65.2</ele>
        <time>2022-03-17T14:24:22Z</time>
      </trkpt>
      <trkpt lat="48.89083" lon="1.65194">
        <ele>64.1</ele>
        <time>2022-03-17T14:24:26Z</time>
      </trkpt>
      <trkpt lat="48.89087" lon="1.65199">
        <ele>62.9</ele>
        <time>2022-03-17T14:24:30Z</time>
      </trkpt>
      <trkpt lat="48.89088" lon="1.65208">
        <ele>61.2</ele>
        <time>2022-03-17T14:24:36Z</time>
      </trkpt>
      <trkpt lat="48.89088" lon="1.65217">
        <ele>60.4</ele>
        <time>2022-03-17T14:24:41Z</time>
      </trkpt>
      <trkpt lat="48.8909" lon="1.65225">
        <ele>60.5</ele>
        <time>2022-03-17T14:24:46Z</time>
      </trkpt>
      <trkpt lat="48.89091" lon="1.65232">
        <ele>60.9</ele>
        <time>2022-03-17T14:24:50Z</time>
      </trkpt>
      <trkpt lat="48.89093" lon="1.65239">
        <ele>61.6</ele>
        <time>2022-03-17T14:24:55Z</time>
      </trkpt>
      <trkpt lat="48.89094" lon="1.65246">
        <ele>62.3</ele>
        <time>2022-03-17T14:24:59Z</time>
      </trkpt>
      <trkpt lat="48.89095" lon="1.65253">
        <ele>62.8</ele>
        <time>2022-03-17T14:25:03Z</time>
      </trkpt>
      <trkpt lat="48.89097" lon="1.65261">
        <ele>63.3</ele>
        <time>2022-03-17T14:25:07Z</time>
      </trkpt>
      <trkpt lat="48.89098" lon="1.6527">
        <ele>63.5</ele>
        <time>2022-03-17T14:25:11Z</time>
      </trkpt>
      <trkpt lat="48.89098" lon="1.65277">
        <ele>62.8</ele>
        <time>2022-03-17T14:25:16Z</time>
      </trkpt>
      <trkpt lat="48.89099" lon="1.65288">
        <ele>62.4</ele>
        <time>2022-03-17T14:25:22Z</time>
      </trkpt>
      <trkpt lat="48.89099" lon="1.65296">
        <ele>61.2</ele>
        <time>2022-03-17T14:25:26Z</time>
      </trkpt>
      <trkpt lat="48.89099" lon="1.65303">
        <ele>60.6</ele>
        <time>2022-03-17T14:25:31Z</time>
      </trkpt>
      <trkpt lat="48.89099" lon="1.65312">
        <ele>60.8</ele>
        <time>2022-03-17T14:25:35Z</time>
      </trkpt>
      <trkpt lat="48.891" lon="1.65319">
        <ele>61.1</ele>
        <time>2022-03-17T14:25:39Z</time>
      </trkpt>
      <trkpt lat="48.891" lon="1.65327">
        <ele>61.8</ele>
        <time>2022-03-17T14:25:43Z</time>
      </trkpt>
      <trkpt lat="48.891" lon="1.65336">
        <ele>62.3</ele>
        <time>2022-03-17T14:25:48Z</time>
      </trkpt>
      <trkpt lat="48.89101" lon="1.65344">
        <ele>62.3</ele>
        <time>2022-03-17T14:25:53Z</time>
      </trkpt>
      <trkpt lat="48.89101" lon="1.65353">
        <ele>63.5</ele>
        <time>2022-03-17T14:25:58Z</time>
      </trkpt>
      <trkpt lat="48.89101" lon="1.65363">
        <ele>65.4</ele>
        <time>2022-03-17T14:26:03Z</time>
      </trkpt>
      <trkpt lat="48.89101" lon="1.65371">
        <ele>66.4</ele>
        <time>2022-03-17T14:26:08Z</time>
      </trkpt>
      <trkpt lat="48.89102" lon="1.65379">
        <ele>66.5</ele>
        <time>2022-03-17T14:26:12Z</time>
      </trkpt>
      <trkpt lat="48.89105" lon="1.65387">
        <ele>66.8</ele>
        <time>2022-03-17T14:26:17Z</time>
      </trkpt>
      <trkpt lat="48.89107" lon="1.65394">
        <ele>66.8</ele>
        <time>2022-03-17T14:26:21Z</time>
      </trkpt>
      <trkpt lat="48.89109" lon="1.65402">
        <ele>65.8</ele>
        <time>2022-03-17T14:26:26Z</time>
      </trkpt>
      <trkpt lat="48.89113" lon="1.654">
        <ele>62.9</ele>
        <time>2022-03-17T14:26:52Z</time>
      </trkpt>
      <trkpt lat="48.89118" lon="1.65404">
        <ele>62.5</ele>
        <time>2022-03-17T14:26:55Z</time>
      </trkpt>
      <trkpt lat="48.8912" lon="1.6541">
        <ele>61.8</ele>
        <time>2022-03-17T14:26:59Z</time>
      </trkpt>
      <trkpt lat="48.89122" lon="1.65419">
        <ele>60.9</ele>
        <time>2022-03-17T14:27:02Z</time>
      </trkpt>
      <trkpt lat="48.89124" lon="1.65427">
        <ele>60.4</ele>
        <time>2022-03-17T14:27:07Z</time>
      </trkpt>
      <trkpt lat="48.89126" lon="1.65434">
        <ele>61.6</ele>
        <time>2022-03-17T14:27:12Z</time>
      </trkpt>
      <trkpt lat="48.89129" lon="1.65439">
        <ele>63.9</ele>
        <time>2022-03-17T14:27:19Z</time>
      </trkpt>
      <trkpt lat="48.89133" lon="1.65444">
        <ele>63.9</ele>
        <time>2022-03-17T14:27:26Z</time>
      </trkpt>
      <trkpt lat="48.89134" lon="1.65453">
        <ele>64</ele>
        <time>2022-03-17T14:27:32Z</time>
      </trkpt>
      <trkpt lat="48.89137" lon="1.65458">
        <ele>64.4</ele>
        <time>2022-03-17T14:27:37Z</time>
      </trkpt>
      <trkpt lat="48.89139" lon="1.65465">
        <ele>64.7</ele>
        <time>2022-03-17T14:27:43Z</time>
      </trkpt>
      <trkpt lat="48.89137" lon="1.65458">
        <ele>66.3</ele>
        <time>2022-03-17T14:31:26Z</time>
      </trkpt>
      <trkpt lat="48.89135" lon="1.65466">
        <ele>66.8</ele>
        <time>2022-03-17T14:33:31Z</time>
      </trkpt>
      <trkpt lat="48.89134" lon="1.65473">
        <ele>68.9</ele>
        <time>2022-03-17T14:33:39Z</time>
      </trkpt>
      <trkpt lat="48.89131" lon="1.65484">
        <ele>70.6</ele>
        <time>2022-03-17T14:33:47Z</time>
      </trkpt>
      <trkpt lat="48.89126" lon="1.65489">
        <ele>72.4</ele>
        <time>2022-03-17T14:33:52Z</time>
      </trkpt>
      <trkpt lat="48.89123" lon="1.65494">
        <ele>76.1</ele>
        <time>2022-03-17T14:34:05Z</time>
      </trkpt>
      <trkpt lat="48.89119" lon="1.65497">
        <ele>72.9</ele>
        <time>2022-03-17T14:34:14Z</time>
      </trkpt>
      <trkpt lat="48.89115" lon="1.65501">
        <ele>72.7</ele>
        <time>2022-03-17T14:34:22Z</time>
      </trkpt>
      <trkpt lat="48.8911" lon="1.65505">
        <ele>73</ele>
        <time>2022-03-17T14:34:30Z</time>
      </trkpt>
      <trkpt lat="48.89104" lon="1.65508">
        <ele>72.4</ele>
        <time>2022-03-17T14:34:37Z</time>
      </trkpt>
      <trkpt lat="48.891" lon="1.65512">
        <ele>73</ele>
        <time>2022-03-17T14:34:44Z</time>
      </trkpt>
      <trkpt lat="48.89096" lon="1.65517">
        <ele>72.7</ele>
        <time>2022-03-17T14:34:51Z</time>
      </trkpt>
      <trkpt lat="48.89093" lon="1.65524">
        <ele>72.1</ele>
        <time>2022-03-17T14:34:57Z</time>
      </trkpt>
      <trkpt lat="48.89091" lon="1.65531">
        <ele>72.3</ele>
        <time>2022-03-17T14:35:03Z</time>
      </trkpt>
      <trkpt lat="48.89088" lon="1.65537">
        <ele>74</ele>
        <time>2022-03-17T14:35:10Z</time>
      </trkpt>
      <trkpt lat="48.89084" lon="1.65545">
        <ele>74.3</ele>
        <time>2022-03-17T14:35:17Z</time>
      </trkpt>
      <trkpt lat="48.89081" lon="1.6555">
        <ele>77.9</ele>
        <time>2022-03-17T14:35:25Z</time>
      </trkpt>
      <trkpt lat="48.8908" lon="1.65558">
        <ele>82.2</ele>
        <time>2022-03-17T14:35:31Z</time>
      </trkpt>
      <trkpt lat="48.89077" lon="1.65565">
        <ele>83.7</ele>
        <time>2022-03-17T14:35:37Z</time>
      </trkpt>
      <trkpt lat="48.89073" lon="1.65569">
        <ele>83.1</ele>
        <time>2022-03-17T14:35:43Z</time>
      </trkpt>
      <trkpt lat="48.89069" lon="1.65572">
        <ele>82.7</ele>
        <time>2022-03-17T14:35:49Z</time>
      </trkpt>
      <trkpt lat="48.89065" lon="1.65576">
        <ele>83.3</ele>
        <time>2022-03-17T14:35:55Z</time>
      </trkpt>
      <trkpt lat="48.89061" lon="1.65583">
        <ele>84.2</ele>
        <time>2022-03-17T14:36:02Z</time>
      </trkpt>
      <trkpt lat="48.89058" lon="1.65589">
        <ele>85.8</ele>
        <time>2022-03-17T14:36:09Z</time>
      </trkpt>
      <trkpt lat="48.89056" lon="1.65596">
        <ele>86.6</ele>
        <time>2022-03-17T14:36:15Z</time>
      </trkpt>
      <trkpt lat="48.89054" lon="1.65604">
        <ele>87.1</ele>
        <time>2022-03-17T14:36:21Z</time>
      </trkpt>
      <trkpt lat="48.89054" lon="1.65613">
        <ele>89.5</ele>
        <time>2022-03-17T14:36:28Z</time>
      </trkpt>
      <trkpt lat="48.89052" lon="1.6562">
        <ele>91.4</ele>
        <time>2022-03-17T14:36:32Z</time>
      </trkpt>
      <trkpt lat="48.8905" lon="1.65626">
        <ele>93.2</ele>
        <time>2022-03-17T14:36:38Z</time>
      </trkpt>
      <trkpt lat="48.89051" lon="1.65634">
        <ele>93.3</ele>
        <time>2022-03-17T14:36:44Z</time>
      </trkpt>
      <trkpt lat="48.89055" lon="1.65638">
        <ele>91.7</ele>
        <time>2022-03-17T14:36:48Z</time>
      </trkpt>
      <trkpt lat="48.8906" lon="1.65641">
        <ele>90.1</ele>
        <time>2022-03-17T14:36:52Z</time>
      </trkpt>
      <trkpt lat="48.89065" lon="1.65643">
        <ele>89</ele>
        <time>2022-03-17T14:36:57Z</time>
      </trkpt>
      <trkpt lat="48.89071" lon="1.65647">
        <ele>88.2</ele>
        <time>2022-03-17T14:37:02Z</time>
      </trkpt>
      <trkpt lat="48.89077" lon="1.6565">
        <ele>87</ele>
        <time>2022-03-17T14:37:08Z</time>
      </trkpt>
      <trkpt lat="48.89082" lon="1.65653">
        <ele>85.8</ele>
        <time>2022-03-17T14:37:12Z</time>
      </trkpt>
      <trkpt lat="48.89088" lon="1.65655">
        <ele>85.4</ele>
        <time>2022-03-17T14:37:17Z</time>
      </trkpt>
      <trkpt lat="48.89092" lon="1.65657">
        <ele>84.6</ele>
        <time>2022-03-17T14:37:23Z</time>
      </trkpt>
      <trkpt lat="48.89098" lon="1.65658">
        <ele>83.8</ele>
        <time>2022-03-17T14:37:27Z</time>
      </trkpt>
      <trkpt lat="48.89103" lon="1.65664">
        <ele>85.3</ele>
        <time>2022-03-17T14:37:32Z</time>
      </trkpt>
      <trkpt lat="48.89107" lon="1.65668">
        <ele>87.7</ele>
        <time>2022-03-17T14:37:36Z</time>
      </trkpt>
      <trkpt lat="48.89111" lon="1.65671">
        <ele>88.7</ele>
        <time>2022-03-17T14:37:40Z</time>
      </trkpt>
      <trkpt lat="48.89116" lon="1.65675">
        <ele>88.8</ele>
        <time>2022-03-17T14:37:44Z</time>
      </trkpt>
      <trkpt lat="48.89121" lon="1.65679">
        <ele>88.5</ele>
        <time>2022-03-17T14:37:49Z</time>
      </trkpt>
      <trkpt lat="48.89125" lon="1.65682">
        <ele>88.2</ele>
        <time>2022-03-17T14:37:52Z</time>
      </trkpt>
      <trkpt lat="48.89128" lon="1.65689">
        <ele>90.6</ele>
        <time>2022-03-17T14:38:04Z</time>
      </trkpt>
      <trkpt lat="48.89131" lon="1.65694">
        <ele>90.9</ele>
        <time>2022-03-17T14:38:07Z</time>
      </trkpt>
      <trkpt lat="48.89137" lon="1.65698">
        <ele>91.4</ele>
        <time>2022-03-17T14:38:11Z</time>
      </trkpt>
      <trkpt lat="48.89141" lon="1.65703">
        <ele>92.4</ele>
        <time>2022-03-17T14:38:15Z</time>
      </trkpt>
      <trkpt lat="48.89145" lon="1.65708">
        <ele>92.3</ele>
        <time>2022-03-17T14:38:19Z</time>
      </trkpt>
      <trkpt lat="48.89148" lon="1.65713">
        <ele>91.3</ele>
        <time>2022-03-17T14:38:23Z</time>
      </trkpt>
      <trkpt lat="48.89152" lon="1.65718">
        <ele>89.5</ele>
        <time>2022-03-17T14:38:27Z</time>
      </trkpt>
      <trkpt lat="48.89156" lon="1.65723">
        <ele>88.4</ele>
        <time>2022-03-17T14:38:31Z</time>
      </trkpt>
      <trkpt lat="48.89159" lon="1.65729">
        <ele>88.1</ele>
        <time>2022-03-17T14:38:35Z</time>
      </trkpt>
      <trkpt lat="48.89161" lon="1.65735">
        <ele>88.7</ele>
        <time>2022-03-17T14:38:39Z</time>
      </trkpt>
      <trkpt lat="48.89164" lon="1.6574">
        <ele>88.8</ele>
        <time>2022-03-17T14:38:43Z</time>
      </trkpt>
      <trkpt lat="48.89168" lon="1.65747">
        <ele>88.4</ele>
        <time>2022-03-17T14:38:48Z</time>
      </trkpt>
      <trkpt lat="48.89172" lon="1.65753">
        <ele>89.4</ele>
        <time>2022-03-17T14:38:53Z</time>
      </trkpt>
      <trkpt lat="48.89175" lon="1.6576">
        <ele>89.2</ele>
        <time>2022-03-17T14:38:58Z</time>
      </trkpt>
      <trkpt lat="48.89179" lon="1.65767">
        <ele>87</ele>
        <time>2022-03-17T14:39:03Z</time>
      </trkpt>
      <trkpt lat="48.89183" lon="1.65775">
        <ele>86.1</ele>
        <time>2022-03-17T14:39:08Z</time>
      </trkpt>
      <trkpt lat="48.89186" lon="1.65783">
        <ele>87.5</ele>
        <time>2022-03-17T14:39:13Z</time>
      </trkpt>
      <trkpt lat="48.89187" lon="1.65792">
        <ele>89</ele>
        <time>2022-03-17T14:39:19Z</time>
      </trkpt>
      <trkpt lat="48.8919" lon="1.658">
        <ele>88.7</ele>
        <time>2022-03-17T14:39:23Z</time>
      </trkpt>
      <trkpt lat="48.89191" lon="1.65806">
        <ele>87.9</ele>
        <time>2022-03-17T14:39:27Z</time>
      </trkpt>
      <trkpt lat="48.89193" lon="1.65813">
        <ele>87.1</ele>
        <time>2022-03-17T14:39:31Z</time>
      </trkpt>
      <trkpt lat="48.89196" lon="1.65819">
        <ele>85.8</ele>
        <time>2022-03-17T14:39:35Z</time>
      </trkpt>
      <trkpt lat="48.89198" lon="1.65827">
        <ele>84.4</ele>
        <time>2022-03-17T14:39:40Z</time>
      </trkpt>
      <trkpt lat="48.89199" lon="1.65834">
        <ele>83.6</ele>
        <time>2022-03-17T14:39:44Z</time>
      </trkpt>
      <trkpt lat="48.89199" lon="1.65841">
        <ele>83.2</ele>
        <time>2022-03-17T14:39:49Z</time>
      </trkpt>
      <trkpt lat="48.89201" lon="1.6585">
        <ele>82.9</ele>
        <time>2022-03-17T14:39:53Z</time>
      </trkpt>
      <trkpt lat="48.89202" lon="1.65859">
        <ele>82.6</ele>
        <time>2022-03-17T14:39:58Z</time>
      </trkpt>
      <trkpt lat="48.89205" lon="1.65866">
        <ele>81.8</ele>
        <time>2022-03-17T14:40:03Z</time>
      </trkpt>
      <trkpt lat="48.89208" lon="1.65874">
        <ele>80.7</ele>
        <time>2022-03-17T14:40:08Z</time>
      </trkpt>
      <trkpt lat="48.89211" lon="1.65883">
        <ele>80.3</ele>
        <time>2022-03-17T14:40:13Z</time>
      </trkpt>
      <trkpt lat="48.89212" lon="1.65891">
        <ele>79.5</ele>
        <time>2022-03-17T14:40:18Z</time>
      </trkpt>
      <trkpt lat="48.89213" lon="1.65899">
        <ele>78.3</ele>
        <time>2022-03-17T14:40:23Z</time>
      </trkpt>
      <trkpt lat="48.89214" lon="1.65908">
        <ele>78.1</ele>
        <time>2022-03-17T14:40:28Z</time>
      </trkpt>
      <trkpt lat="48.89216" lon="1.65917">
        <ele>77.6</ele>
        <time>2022-03-17T14:40:33Z</time>
      </trkpt>
      <trkpt lat="48.89218" lon="1.65924">
        <ele>75.7</ele>
        <time>2022-03-17T14:40:38Z</time>
      </trkpt>
      <trkpt lat="48.89221" lon="1.65932">
        <ele>74.2</ele>
        <time>2022-03-17T14:40:43Z</time>
      </trkpt>
      <trkpt lat="48.89223" lon="1.6594">
        <ele>72.6</ele>
        <time>2022-03-17T14:40:47Z</time>
      </trkpt>
      <trkpt lat="48.89225" lon="1.65947">
        <ele>71.8</ele>
        <time>2022-03-17T14:40:51Z</time>
      </trkpt>
      <trkpt lat="48.89227" lon="1.65953">
        <ele>71.2</ele>
        <time>2022-03-17T14:40:57Z</time>
      </trkpt>
      <trkpt lat="48.89229" lon="1.65959">
        <ele>70</ele>
        <time>2022-03-17T14:41:02Z</time>
      </trkpt>
      <trkpt lat="48.89232" lon="1.65966">
        <ele>69</ele>
        <time>2022-03-17T14:41:07Z</time>
      </trkpt>
      <trkpt lat="48.89236" lon="1.65973">
        <ele>68.7</ele>
        <time>2022-03-17T14:41:11Z</time>
      </trkpt>
      <trkpt lat="48.89239" lon="1.65977">
        <ele>68.4</ele>
        <time>2022-03-17T14:41:14Z</time>
      </trkpt>
      <trkpt lat="48.89244" lon="1.65982">
        <ele>67.5</ele>
        <time>2022-03-17T14:41:18Z</time>
      </trkpt>
      <trkpt lat="48.8925" lon="1.65984">
        <ele>66.2</ele>
        <time>2022-03-17T14:41:23Z</time>
      </trkpt>
      <trkpt lat="48.89256" lon="1.65985">
        <ele>65.2</ele>
        <time>2022-03-17T14:41:28Z</time>
      </trkpt>
      <trkpt lat="48.8926" lon="1.65981">
        <ele>63.8</ele>
        <time>2022-03-17T14:41:35Z</time>
      </trkpt>
      <trkpt lat="48.89264" lon="1.6598">
        <ele>63.7</ele>
        <time>2022-03-17T14:41:39Z</time>
      </trkpt>
      <trkpt lat="48.89266" lon="1.65973">
        <ele>64.2</ele>
        <time>2022-03-17T14:41:43Z</time>
      </trkpt>
      <trkpt lat="48.89271" lon="1.65967">
        <ele>62.5</ele>
        <time>2022-03-17T14:41:58Z</time>
      </trkpt>
      <trkpt lat="48.89274" lon="1.65972">
        <ele>61.8</ele>
        <time>2022-03-17T14:42:02Z</time>
      </trkpt>
      <trkpt lat="48.89278" lon="1.65978">
        <ele>60.7</ele>
        <time>2022-03-17T14:42:05Z</time>
      </trkpt>
      <trkpt lat="48.89282" lon="1.65982">
        <ele>59.2</ele>
        <time>2022-03-17T14:42:08Z</time>
      </trkpt>
      <trkpt lat="48.89287" lon="1.65983">
        <ele>57.7</ele>
        <time>2022-03-17T14:42:16Z</time>
      </trkpt>
      <trkpt lat="48.89291" lon="1.65985">
        <ele>57.8</ele>
        <time>2022-03-17T14:42:19Z</time>
      </trkpt>
      <trkpt lat="48.89296" lon="1.65983">
        <ele>58.4</ele>
        <time>2022-03-17T14:42:23Z</time>
      </trkpt>
      <trkpt lat="48.893" lon="1.6598">
        <ele>59</ele>
        <time>2022-03-17T14:42:26Z</time>
      </trkpt>
      <trkpt lat="48.89305" lon="1.65979">
        <ele>58.8</ele>
        <time>2022-03-17T14:42:31Z</time>
      </trkpt>
      <trkpt lat="48.89311" lon="1.65979">
        <ele>57.7</ele>
        <time>2022-03-17T14:42:37Z</time>
      </trkpt>
      <trkpt lat="48.89316" lon="1.6598">
        <ele>57.7</ele>
        <time>2022-03-17T14:42:42Z</time>
      </trkpt>
      <trkpt lat="48.89322" lon="1.65981">
        <ele>57.3</ele>
        <time>2022-03-17T14:42:46Z</time>
      </trkpt>
      <trkpt lat="48.89327" lon="1.65979">
        <ele>56.5</ele>
        <time>2022-03-17T14:42:51Z</time>
      </trkpt>
      <trkpt lat="48.89332" lon="1.65979">
        <ele>56</ele>
        <time>2022-03-17T14:42:55Z</time>
      </trkpt>
      <trkpt lat="48.89337" lon="1.65978">
        <ele>55.5</ele>
        <time>2022-03-17T14:43:00Z</time>
      </trkpt>
      <trkpt lat="48.89342" lon="1.65975">
        <ele>55.5</ele>
        <time>2022-03-17T14:43:03Z</time>
      </trkpt>
      <trkpt lat="48.89348" lon="1.65973">
        <ele>56.3</ele>
        <time>2022-03-17T14:43:07Z</time>
      </trkpt>
      <trkpt lat="48.89343" lon="1.65973">
        <ele>55.8</ele>
        <time>2022-03-17T14:43:30Z</time>
      </trkpt>
      <trkpt lat="48.89348" lon="1.65968">
        <ele>55.1</ele>
        <time>2022-03-17T14:44:17Z</time>
      </trkpt>
      <trkpt lat="48.89352" lon="1.65965">
        <ele>55.7</ele>
        <time>2022-03-17T14:44:20Z</time>
      </trkpt>
      <trkpt lat="48.89358" lon="1.65963">
        <ele>56.6</ele>
        <time>2022-03-17T14:44:40Z</time>
      </trkpt>
      <trkpt lat="48.89363" lon="1.65963">
        <ele>56.7</ele>
        <time>2022-03-17T14:44:44Z</time>
      </trkpt>
      <trkpt lat="48.89368" lon="1.6596">
        <ele>56.8</ele>
        <time>2022-03-17T14:44:49Z</time>
      </trkpt>
      <trkpt lat="48.89374" lon="1.65956">
        <ele>56.7</ele>
        <time>2022-03-17T14:44:53Z</time>
      </trkpt>
      <trkpt lat="48.89379" lon="1.65953">
        <ele>56.4</ele>
        <time>2022-03-17T14:44:58Z</time>
      </trkpt>
      <trkpt lat="48.89384" lon="1.65947">
        <ele>56.3</ele>
        <time>2022-03-17T14:45:04Z</time>
      </trkpt>
      <trkpt lat="48.89388" lon="1.65941">
        <ele>56.2</ele>
        <time>2022-03-17T14:45:08Z</time>
      </trkpt>
      <trkpt lat="48.89388" lon="1.65932">
        <ele>56.1</ele>
        <time>2022-03-17T14:45:14Z</time>
      </trkpt>
      <trkpt lat="48.89387" lon="1.65923">
        <ele>55.8</ele>
        <time>2022-03-17T14:45:18Z</time>
      </trkpt>
      <trkpt lat="48.89385" lon="1.65915">
        <ele>55.5</ele>
        <time>2022-03-17T14:45:23Z</time>
      </trkpt>
      <trkpt lat="48.89385" lon="1.65907">
        <ele>55</ele>
        <time>2022-03-17T14:45:28Z</time>
      </trkpt>
      <trkpt lat="48.8938" lon="1.65909">
        <ele>56.5</ele>
        <time>2022-03-17T14:46:50Z</time>
      </trkpt>
      <trkpt lat="48.89375" lon="1.65909">
        <ele>56.5</ele>
        <time>2022-03-17T14:46:59Z</time>
      </trkpt>
      <trkpt lat="48.89371" lon="1.65904">
        <ele>55.6</ele>
        <time>2022-03-17T14:47:03Z</time>
      </trkpt>
      <trkpt lat="48.89366" lon="1.65901">
        <ele>53.8</ele>
        <time>2022-03-17T14:47:10Z</time>
      </trkpt>
      <trkpt lat="48.89364" lon="1.65907">
        <ele>53</ele>
        <time>2022-03-17T14:47:44Z</time>
      </trkpt>
      <trkpt lat="48.89368" lon="1.6591">
        <ele>53.1</ele>
        <time>2022-03-17T14:48:11Z</time>
      </trkpt>
      <trkpt lat="48.89372" lon="1.65915">
        <ele>53.3</ele>
        <time>2022-03-17T14:48:18Z</time>
      </trkpt>
      <trkpt lat="48.89377" lon="1.65915">
        <ele>52.6</ele>
        <time>2022-03-17T14:48:24Z</time>
      </trkpt>
      <trkpt lat="48.89381" lon="1.65912">
        <ele>51.9</ele>
        <time>2022-03-17T14:48:31Z</time>
      </trkpt>
      <trkpt lat="48.89386" lon="1.65908">
        <ele>53.1</ele>
        <time>2022-03-17T14:48:39Z</time>
      </trkpt>
      <trkpt lat="48.89388" lon="1.65901">
        <ele>53.9</ele>
        <time>2022-03-17T14:48:46Z</time>
      </trkpt>
      <trkpt lat="48.89388" lon="1.65894">
        <ele>54.3</ele>
        <time>2022-03-17T14:48:51Z</time>
      </trkpt>
      <trkpt lat="48.89389" lon="1.65885">
        <ele>54.8</ele>
        <time>2022-03-17T14:48:56Z</time>
      </trkpt>
      <trkpt lat="48.89389" lon="1.65877">
        <ele>55</ele>
        <time>2022-03-17T14:49:01Z</time>
      </trkpt>
      <trkpt lat="48.89388" lon="1.6587">
        <ele>54.9</ele>
        <time>2022-03-17T14:49:05Z</time>
      </trkpt>
      <trkpt lat="48.89388" lon="1.65862">
        <ele>54.9</ele>
        <time>2022-03-17T14:49:09Z</time>
      </trkpt>
      <trkpt lat="48.89387" lon="1.65853">
        <ele>55.4</ele>
        <time>2022-03-17T14:49:16Z</time>
      </trkpt>
      <trkpt lat="48.89386" lon="1.65843">
        <ele>55.4</ele>
        <time>2022-03-17T14:49:21Z</time>
      </trkpt>
      <trkpt lat="48.89387" lon="1.65833">
        <ele>55.2</ele>
        <time>2022-03-17T14:49:26Z</time>
      </trkpt>
      <trkpt lat="48.89389" lon="1.65827">
        <ele>54.5</ele>
        <time>2022-03-17T14:49:32Z</time>
      </trkpt>
      <trkpt lat="48.89389" lon="1.65819">
        <ele>54</ele>
        <time>2022-03-17T14:49:37Z</time>
      </trkpt>
      <trkpt lat="48.89383" lon="1.6582">
        <ele>54.4</ele>
        <time>2022-03-17T14:49:42Z</time>
      </trkpt>
      <trkpt lat="48.89379" lon="1.65823">
        <ele>54.4</ele>
        <time>2022-03-17T14:49:46Z</time>
      </trkpt>
      <trkpt lat="48.89383" lon="1.65818">
        <ele>50.7</ele>
        <time>2022-03-17T14:50:35Z</time>
      </trkpt>
      <trkpt lat="48.89388" lon="1.65819">
        <ele>51</ele>
        <time>2022-03-17T14:51:02Z</time>
      </trkpt>
      <trkpt lat="48.89382" lon="1.65818">
        <ele>51.8</ele>
        <time>2022-03-17T14:51:12Z</time>
      </trkpt>
      <trkpt lat="48.89376" lon="1.65813">
        <ele>52.2</ele>
        <time>2022-03-17T14:51:14Z</time>
      </trkpt>
      <trkpt lat="48.89382" lon="1.65809">
        <ele>53.4</ele>
        <time>2022-03-17T14:51:18Z</time>
      </trkpt>
      <trkpt lat="48.89387" lon="1.6581">
        <ele>53.5</ele>
        <time>2022-03-17T14:51:24Z</time>
      </trkpt>
      <trkpt lat="48.89389" lon="1.65803">
        <ele>53.8</ele>
        <time>2022-03-17T14:51:29Z</time>
      </trkpt>
      <trkpt lat="48.89393" lon="1.658">
        <ele>54.1</ele>
        <time>2022-03-17T14:51:43Z</time>
      </trkpt>
      <trkpt lat="48.89399" lon="1.65798">
        <ele>54.3</ele>
        <time>2022-03-17T14:51:59Z</time>
      </trkpt>
      <trkpt lat="48.89403" lon="1.65799">
        <ele>55.7</ele>
        <time>2022-03-17T14:52:05Z</time>
      </trkpt>
      <trkpt lat="48.89408" lon="1.65801">
        <ele>58.8</ele>
        <time>2022-03-17T14:52:13Z</time>
      </trkpt>
      <trkpt lat="48.89413" lon="1.65799">
        <ele>60.3</ele>
        <time>2022-03-17T14:52:19Z</time>
      </trkpt>
      <trkpt lat="48.8942" lon="1.65801">
        <ele>58.9</ele>
        <time>2022-03-17T14:52:26Z</time>
      </trkpt>
      <trkpt lat="48.89424" lon="1.65805">
        <ele>58</ele>
        <time>2022-03-17T14:52:31Z</time>
      </trkpt>
      <trkpt lat="48.89426" lon="1.65811">
        <ele>57.6</ele>
        <time>2022-03-17T14:52:36Z</time>
      </trkpt>
      <trkpt lat="48.89427" lon="1.6582">
        <ele>56.9</ele>
        <time>2022-03-17T14:52:42Z</time>
      </trkpt>
      <trkpt lat="48.89424" lon="1.65827">
        <ele>59.2</ele>
        <time>2022-03-17T14:52:51Z</time>
      </trkpt>
      <trkpt lat="48.8942" lon="1.65826">
        <ele>61.5</ele>
        <time>2022-03-17T14:52:55Z</time>
      </trkpt>
      <trkpt lat="48.89419" lon="1.65819">
        <ele>62.7</ele>
        <time>2022-03-17T14:53:01Z</time>
      </trkpt>
      <trkpt lat="48.89428" lon="1.65836">
        <ele>64.9</ele>
        <time>2022-03-17T14:53:05Z</time>
      </trkpt>
      <trkpt lat="48.89432" lon="1.65843">
        <ele>65.9</ele>
        <time>2022-03-17T14:53:08Z</time>
      </trkpt>
      <trkpt lat="48.89434" lon="1.6585">
        <ele>65.8</ele>
        <time>2022-03-17T14:53:11Z</time>
      </trkpt>
      <trkpt lat="48.89435" lon="1.65859">
        <ele>65.7</ele>
        <time>2022-03-17T14:53:14Z</time>
      </trkpt>
      <trkpt lat="48.89435" lon="1.65867">
        <ele>65.8</ele>
        <time>2022-03-17T14:53:17Z</time>
      </trkpt>
      <trkpt lat="48.89435" lon="1.65875">
        <ele>66.6</ele>
        <time>2022-03-17T14:53:21Z</time>
      </trkpt>
      <trkpt lat="48.8944" lon="1.65882">
        <ele>66.1</ele>
        <time>2022-03-17T14:53:35Z</time>
      </trkpt>
      <trkpt lat="48.89441" lon="1.65891">
        <ele>66.2</ele>
        <time>2022-03-17T14:53:39Z</time>
      </trkpt>
      <trkpt lat="48.89442" lon="1.65899">
        <ele>66.4</ele>
        <time>2022-03-17T14:53:43Z</time>
      </trkpt>
      <trkpt lat="48.89444" lon="1.65906">
        <ele>66.7</ele>
        <time>2022-03-17T14:53:47Z</time>
      </trkpt>
      <trkpt lat="48.89445" lon="1.65912">
        <ele>67.7</ele>
        <time>2022-03-17T14:53:52Z</time>
      </trkpt>
      <trkpt lat="48.89446" lon="1.6592">
        <ele>68.2</ele>
        <time>2022-03-17T14:53:56Z</time>
      </trkpt>
      <trkpt lat="48.89447" lon="1.65928">
        <ele>69.4</ele>
        <time>2022-03-17T14:54:01Z</time>
      </trkpt>
      <trkpt lat="48.89449" lon="1.65935">
        <ele>70.6</ele>
        <time>2022-03-17T14:54:05Z</time>
      </trkpt>
      <trkpt lat="48.89446" lon="1.65941">
        <ele>70.8</ele>
        <time>2022-03-17T14:54:10Z</time>
      </trkpt>
      <trkpt lat="48.89449" lon="1.65947">
        <ele>70.9</ele>
        <time>2022-03-17T14:54:14Z</time>
      </trkpt>
      <trkpt lat="48.89448" lon="1.65954">
        <ele>71.1</ele>
        <time>2022-03-17T14:54:20Z</time>
      </trkpt>
      <trkpt lat="48.89452" lon="1.6596">
        <ele>70.6</ele>
        <time>2022-03-17T14:54:26Z</time>
      </trkpt>
      <trkpt lat="48.89456" lon="1.65967">
        <ele>70.4</ele>
        <time>2022-03-17T14:54:31Z</time>
      </trkpt>
      <trkpt lat="48.89458" lon="1.65974">
        <ele>70.8</ele>
        <time>2022-03-17T14:54:36Z</time>
      </trkpt>
      <trkpt lat="48.89458" lon="1.65981">
        <ele>70.9</ele>
        <time>2022-03-17T14:54:41Z</time>
      </trkpt>
      <trkpt lat="48.89458" lon="1.65989">
        <ele>71</ele>
        <time>2022-03-17T14:54:47Z</time>
      </trkpt>
      <trkpt lat="48.8946" lon="1.65996">
        <ele>71.1</ele>
        <time>2022-03-17T14:54:54Z</time>
      </trkpt>
      <trkpt lat="48.89462" lon="1.66007">
        <ele>71.5</ele>
        <time>2022-03-17T14:55:00Z</time>
      </trkpt>
      <trkpt lat="48.89463" lon="1.66015">
        <ele>71.3</ele>
        <time>2022-03-17T14:55:06Z</time>
      </trkpt>
      <trkpt lat="48.89465" lon="1.66023">
        <ele>70.2</ele>
        <time>2022-03-17T14:55:11Z</time>
      </trkpt>
      <trkpt lat="48.89466" lon="1.66031">
        <ele>69.9</ele>
        <time>2022-03-17T14:55:16Z</time>
      </trkpt>
      <trkpt lat="48.89467" lon="1.66041">
        <ele>70.2</ele>
        <time>2022-03-17T14:55:21Z</time>
      </trkpt>
      <trkpt lat="48.8947" lon="1.66049">
        <ele>69.7</ele>
        <time>2022-03-17T14:55:26Z</time>
      </trkpt>
      <trkpt lat="48.89472" lon="1.66057">
        <ele>69.6</ele>
        <time>2022-03-17T14:55:31Z</time>
      </trkpt>
      <trkpt lat="48.89475" lon="1.66063">
        <ele>70.3</ele>
        <time>2022-03-17T14:55:36Z</time>
      </trkpt>
      <trkpt lat="48.89476" lon="1.6607">
        <ele>70.7</ele>
        <time>2022-03-17T14:55:40Z</time>
      </trkpt>
      <trkpt lat="48.89479" lon="1.66078">
        <ele>70.7</ele>
        <time>2022-03-17T14:55:45Z</time>
      </trkpt>
      <trkpt lat="48.89482" lon="1.66085">
        <ele>70.6</ele>
        <time>2022-03-17T14:55:49Z</time>
      </trkpt>
      <trkpt lat="48.89484" lon="1.66092">
        <ele>70.8</ele>
        <time>2022-03-17T14:55:53Z</time>
      </trkpt>
      <trkpt lat="48.89485" lon="1.66099">
        <ele>70.7</ele>
        <time>2022-03-17T14:55:57Z</time>
      </trkpt>
      <trkpt lat="48.89487" lon="1.66106">
        <ele>70.3</ele>
        <time>2022-03-17T14:56:01Z</time>
      </trkpt>
      <trkpt lat="48.89491" lon="1.66114">
        <ele>69.2</ele>
        <time>2022-03-17T14:56:06Z</time>
      </trkpt>
      <trkpt lat="48.89494" lon="1.66121">
        <ele>68.5</ele>
        <time>2022-03-17T14:56:11Z</time>
      </trkpt>
      <trkpt lat="48.89496" lon="1.66128">
        <ele>68</ele>
        <time>2022-03-17T14:56:15Z</time>
      </trkpt>
      <trkpt lat="48.89499" lon="1.66134">
        <ele>67.2</ele>
        <time>2022-03-17T14:56:20Z</time>
      </trkpt>
      <trkpt lat="48.89502" lon="1.66141">
        <ele>66.1</ele>
        <time>2022-03-17T14:56:24Z</time>
      </trkpt>
      <trkpt lat="48.89505" lon="1.66148">
        <ele>65.3</ele>
        <time>2022-03-17T14:56:29Z</time>
      </trkpt>
      <trkpt lat="48.89508" lon="1.66154">
        <ele>65</ele>
        <time>2022-03-17T14:56:32Z</time>
      </trkpt>
      <trkpt lat="48.89511" lon="1.66161">
        <ele>64.7</ele>
        <time>2022-03-17T14:56:36Z</time>
      </trkpt>
      <trkpt lat="48.89515" lon="1.66169">
        <ele>64.8</ele>
        <time>2022-03-17T14:56:41Z</time>
      </trkpt>
      <trkpt lat="48.89518" lon="1.66176">
        <ele>65.4</ele>
        <time>2022-03-17T14:56:46Z</time>
      </trkpt>
      <trkpt lat="48.89522" lon="1.66182">
        <ele>65.9</ele>
        <time>2022-03-17T14:56:50Z</time>
      </trkpt>
      <trkpt lat="48.89525" lon="1.66188">
        <ele>66</ele>
        <time>2022-03-17T14:56:54Z</time>
      </trkpt>
      <trkpt lat="48.89528" lon="1.66194">
        <ele>65.8</ele>
        <time>2022-03-17T14:56:57Z</time>
      </trkpt>
      <trkpt lat="48.89531" lon="1.66202">
        <ele>65.7</ele>
        <time>2022-03-17T14:57:01Z</time>
      </trkpt>
      <trkpt lat="48.89536" lon="1.6621">
        <ele>65.2</ele>
        <time>2022-03-17T14:57:06Z</time>
      </trkpt>
      <trkpt lat="48.89542" lon="1.66216">
        <ele>64.9</ele>
        <time>2022-03-17T14:57:11Z</time>
      </trkpt>
      <trkpt lat="48.89546" lon="1.66223">
        <ele>65.3</ele>
        <time>2022-03-17T14:57:16Z</time>
      </trkpt>
      <trkpt lat="48.8955" lon="1.66231">
        <ele>65.2</ele>
        <time>2022-03-17T14:57:21Z</time>
      </trkpt>
      <trkpt lat="48.89555" lon="1.66239">
        <ele>65.7</ele>
        <time>2022-03-17T14:57:26Z</time>
      </trkpt>
      <trkpt lat="48.89559" lon="1.66247">
        <ele>66.6</ele>
        <time>2022-03-17T14:57:31Z</time>
      </trkpt>
      <trkpt lat="48.89563" lon="1.66256">
        <ele>67.6</ele>
        <time>2022-03-17T14:57:36Z</time>
      </trkpt>
      <trkpt lat="48.89566" lon="1.66263">
        <ele>68.3</ele>
        <time>2022-03-17T14:57:41Z</time>
      </trkpt>
      <trkpt lat="48.89568" lon="1.66269">
        <ele>68.5</ele>
        <time>2022-03-17T14:57:44Z</time>
      </trkpt>
      <trkpt lat="48.89571" lon="1.66274">
        <ele>68.5</ele>
        <time>2022-03-17T14:57:47Z</time>
      </trkpt>
      <trkpt lat="48.89574" lon="1.66283">
        <ele>68.3</ele>
        <time>2022-03-17T14:57:51Z</time>
      </trkpt>
      <trkpt lat="48.89577" lon="1.6629">
        <ele>68</ele>
        <time>2022-03-17T14:58:56Z</time>
      </trkpt>
      <trkpt lat="48.8958" lon="1.66297">
        <ele>67.9</ele>
        <time>2022-03-17T14:58:59Z</time>
      </trkpt>
      <trkpt lat="48.89582" lon="1.66304">
        <ele>67.7</ele>
        <time>2022-03-17T14:59:03Z</time>
      </trkpt>
      <trkpt lat="48.89584" lon="1.66312">
        <ele>67.7</ele>
        <time>2022-03-17T14:59:07Z</time>
      </trkpt>
      <trkpt lat="48.89587" lon="1.66319">
        <ele>67.7</ele>
        <time>2022-03-17T14:59:12Z</time>
      </trkpt>
      <trkpt lat="48.89591" lon="1.66322">
        <ele>67.9</ele>
        <time>2022-03-17T14:59:16Z</time>
      </trkpt>
      <trkpt lat="48.89594" lon="1.6633">
        <ele>68.2</ele>
        <time>2022-03-17T14:59:20Z</time>
      </trkpt>
      <trkpt lat="48.89596" lon="1.66338">
        <ele>68.7</ele>
        <time>2022-03-17T14:59:23Z</time>
      </trkpt>
      <trkpt lat="48.89598" lon="1.66344">
        <ele>70</ele>
        <time>2022-03-17T14:59:27Z</time>
      </trkpt>
      <trkpt lat="48.896" lon="1.66352">
        <ele>72.3</ele>
        <time>2022-03-17T14:59:31Z</time>
      </trkpt>
      <trkpt lat="48.89603" lon="1.66359">
        <ele>74</ele>
        <time>2022-03-17T14:59:35Z</time>
      </trkpt>
      <trkpt lat="48.89606" lon="1.66365">
        <ele>74.4</ele>
        <time>2022-03-17T14:59:38Z</time>
      </trkpt>
      <trkpt lat="48.8961" lon="1.66369">
        <ele>73.9</ele>
        <time>2022-03-17T14:59:43Z</time>
      </trkpt>
      <trkpt lat="48.89614" lon="1.66377">
        <ele>71.3</ele>
        <time>2022-03-17T15:00:04Z</time>
      </trkpt>
      <trkpt lat="48.89618" lon="1.66373">
        <ele>66.7</ele>
        <time>2022-03-17T15:00:17Z</time>
      </trkpt>
      <trkpt lat="48.89623" lon="1.66374">
        <ele>65.4</ele>
        <time>2022-03-17T15:00:32Z</time>
      </trkpt>
      <trkpt lat="48.89628" lon="1.66378">
        <ele>65.5</ele>
        <time>2022-03-17T15:00:38Z</time>
      </trkpt>
      <trkpt lat="48.89631" lon="1.66384">
        <ele>65.7</ele>
        <time>2022-03-17T15:00:41Z</time>
      </trkpt>
      <trkpt lat="48.89633" lon="1.66391">
        <ele>66.3</ele>
        <time>2022-03-17T15:00:44Z</time>
      </trkpt>
      <trkpt lat="48.89635" lon="1.66398">
        <ele>66.8</ele>
        <time>2022-03-17T15:00:48Z</time>
      </trkpt>
      <trkpt lat="48.89638" lon="1.66405">
        <ele>67</ele>
        <time>2022-03-17T15:00:53Z</time>
      </trkpt>
      <trkpt lat="48.89643" lon="1.66407">
        <ele>67.1</ele>
        <time>2022-03-17T15:00:58Z</time>
      </trkpt>
      <trkpt lat="48.89645" lon="1.66414">
        <ele>67.4</ele>
        <time>2022-03-17T15:01:04Z</time>
      </trkpt>
      <trkpt lat="48.89647" lon="1.66422">
        <ele>67.1</ele>
        <time>2022-03-17T15:01:09Z</time>
      </trkpt>
      <trkpt lat="48.89651" lon="1.66428">
        <ele>67.1</ele>
        <time>2022-03-17T15:01:24Z</time>
      </trkpt>
      <trkpt lat="48.89653" lon="1.66435">
        <ele>66.3</ele>
        <time>2022-03-17T15:01:28Z</time>
      </trkpt>
      <trkpt lat="48.89655" lon="1.66442">
        <ele>65.4</ele>
        <time>2022-03-17T15:01:32Z</time>
      </trkpt>
      <trkpt lat="48.89658" lon="1.66449">
        <ele>64.5</ele>
        <time>2022-03-17T15:01:37Z</time>
      </trkpt>
      <trkpt lat="48.89663" lon="1.66451">
        <ele>63.9</ele>
        <time>2022-03-17T15:01:41Z</time>
      </trkpt>
      <trkpt lat="48.89666" lon="1.66458">
        <ele>63.7</ele>
        <time>2022-03-17T15:01:45Z</time>
      </trkpt>
      <trkpt lat="48.89668" lon="1.66465">
        <ele>63.8</ele>
        <time>2022-03-17T15:01:49Z</time>
      </trkpt>
      <trkpt lat="48.89672" lon="1.6647">
        <ele>63.2</ele>
        <time>2022-03-17T15:01:55Z</time>
      </trkpt>
      <trkpt lat="48.89677" lon="1.66474">
        <ele>62.3</ele>
        <time>2022-03-17T15:02:00Z</time>
      </trkpt>
      <trkpt lat="48.89681" lon="1.66481">
        <ele>62.1</ele>
        <time>2022-03-17T15:02:05Z</time>
      </trkpt>
      <trkpt lat="48.89685" lon="1.66487">
        <ele>62.1</ele>
        <time>2022-03-17T15:02:09Z</time>
      </trkpt>
      <trkpt lat="48.89689" lon="1.66491">
        <ele>62.3</ele>
        <time>2022-03-17T15:02:13Z</time>
      </trkpt>
      <trkpt lat="48.89693" lon="1.66496">
        <ele>63.7</ele>
        <time>2022-03-17T15:02:17Z</time>
      </trkpt>
      <trkpt lat="48.89697" lon="1.66501">
        <ele>65.3</ele>
        <time>2022-03-17T15:02:20Z</time>
      </trkpt>
      <trkpt lat="48.89701" lon="1.66506">
        <ele>66</ele>
        <time>2022-03-17T15:02:24Z</time>
      </trkpt>
      <trkpt lat="48.89705" lon="1.66511">
        <ele>66.1</ele>
        <time>2022-03-17T15:02:28Z</time>
      </trkpt>
      <trkpt lat="48.8971" lon="1.66514">
        <ele>65.4</ele>
        <time>2022-03-17T15:02:32Z</time>
      </trkpt>
      <trkpt lat="48.89714" lon="1.66515">
        <ele>65.2</ele>
        <time>2022-03-17T15:02:35Z</time>
      </trkpt>
      <trkpt lat="48.89719" lon="1.6652">
        <ele>65.2</ele>
        <time>2022-03-17T15:02:40Z</time>
      </trkpt>
      <trkpt lat="48.89724" lon="1.66523">
        <ele>65.6</ele>
        <time>2022-03-17T15:02:45Z</time>
      </trkpt>
      <trkpt lat="48.89729" lon="1.66531">
        <ele>66</ele>
        <time>2022-03-17T15:02:50Z</time>
      </trkpt>
      <trkpt lat="48.89735" lon="1.66537">
        <ele>66.3</ele>
        <time>2022-03-17T15:02:55Z</time>
      </trkpt>
      <trkpt lat="48.8974" lon="1.6654">
        <ele>66.4</ele>
        <time>2022-03-17T15:03:00Z</time>
      </trkpt>
      <trkpt lat="48.89745" lon="1.66544">
        <ele>66.4</ele>
        <time>2022-03-17T15:03:04Z</time>
      </trkpt>
      <trkpt lat="48.89749" lon="1.66548">
        <ele>66.3</ele>
        <time>2022-03-17T15:03:08Z</time>
      </trkpt>
      <trkpt lat="48.89754" lon="1.66552">
        <ele>66.9</ele>
        <time>2022-03-17T15:03:12Z</time>
      </trkpt>
      <trkpt lat="48.89758" lon="1.66557">
        <ele>67.9</ele>
        <time>2022-03-17T15:03:15Z</time>
      </trkpt>
      <trkpt lat="48.89763" lon="1.66564">
        <ele>69.1</ele>
        <time>2022-03-17T15:03:20Z</time>
      </trkpt>
      <trkpt lat="48.89767" lon="1.66571">
        <ele>69.8</ele>
        <time>2022-03-17T15:03:25Z</time>
      </trkpt>
      <trkpt lat="48.8977" lon="1.66577">
        <ele>70.2</ele>
        <time>2022-03-17T15:03:29Z</time>
      </trkpt>
      <trkpt lat="48.89774" lon="1.66582">
        <ele>70.1</ele>
        <time>2022-03-17T15:03:34Z</time>
      </trkpt>
      <trkpt lat="48.89776" lon="1.6659">
        <ele>69.7</ele>
        <time>2022-03-17T15:03:38Z</time>
      </trkpt>
      <trkpt lat="48.89778" lon="1.66597">
        <ele>68.9</ele>
        <time>2022-03-17T15:03:42Z</time>
      </trkpt>
      <trkpt lat="48.8978" lon="1.66604">
        <ele>67.9</ele>
        <time>2022-03-17T15:03:45Z</time>
      </trkpt>
      <trkpt lat="48.89782" lon="1.6661">
        <ele>66.7</ele>
        <time>2022-03-17T15:03:49Z</time>
      </trkpt>
      <trkpt lat="48.89786" lon="1.66617">
        <ele>66.2</ele>
        <time>2022-03-17T15:03:54Z</time>
      </trkpt>
      <trkpt lat="48.89789" lon="1.66622">
        <ele>66.3</ele>
        <time>2022-03-17T15:03:58Z</time>
      </trkpt>
      <trkpt lat="48.89793" lon="1.66628">
        <ele>66.2</ele>
        <time>2022-03-17T15:04:01Z</time>
      </trkpt>
      <trkpt lat="48.89796" lon="1.66634">
        <ele>66.2</ele>
        <time>2022-03-17T15:04:05Z</time>
      </trkpt>
      <trkpt lat="48.898" lon="1.66638">
        <ele>66</ele>
        <time>2022-03-17T15:04:09Z</time>
      </trkpt>
      <trkpt lat="48.89805" lon="1.66643">
        <ele>65.6</ele>
        <time>2022-03-17T15:04:13Z</time>
      </trkpt>
      <trkpt lat="48.89808" lon="1.66649">
        <ele>64.8</ele>
        <time>2022-03-17T15:04:19Z</time>
      </trkpt>
      <trkpt lat="48.8981" lon="1.66656">
        <ele>64.5</ele>
        <time>2022-03-17T15:04:23Z</time>
      </trkpt>
      <trkpt lat="48.89813" lon="1.66662">
        <ele>63.8</ele>
        <time>2022-03-17T15:04:26Z</time>
      </trkpt>
      <trkpt lat="48.89816" lon="1.66668">
        <ele>63.1</ele>
        <time>2022-03-17T15:04:30Z</time>
      </trkpt>
      <trkpt lat="48.8982" lon="1.66674">
        <ele>62.9</ele>
        <time>2022-03-17T15:04:33Z</time>
      </trkpt>
      <trkpt lat="48.89824" lon="1.66679">
        <ele>63.2</ele>
        <time>2022-03-17T15:04:37Z</time>
      </trkpt>
      <trkpt lat="48.89828" lon="1.66684">
        <ele>63.6</ele>
        <time>2022-03-17T15:04:40Z</time>
      </trkpt>
      <trkpt lat="48.89831" lon="1.6669">
        <ele>64</ele>
        <time>2022-03-17T15:04:46Z</time>
      </trkpt>
      <trkpt lat="48.89832" lon="1.667">
        <ele>64.1</ele>
        <time>2022-03-17T15:04:50Z</time>
      </trkpt>
      <trkpt lat="48.89832" lon="1.66709">
        <ele>64.6</ele>
        <time>2022-03-17T15:04:55Z</time>
      </trkpt>
      <trkpt lat="48.89833" lon="1.66717">
        <ele>65.5</ele>
        <time>2022-03-17T15:04:59Z</time>
      </trkpt>
      <trkpt lat="48.89835" lon="1.66726">
        <ele>65.9</ele>
        <time>2022-03-17T15:05:04Z</time>
      </trkpt>
      <trkpt lat="48.89836" lon="1.66735">
        <ele>65.8</ele>
        <time>2022-03-17T15:05:08Z</time>
      </trkpt>
      <trkpt lat="48.89837" lon="1.66742">
        <ele>65.4</ele>
        <time>2022-03-17T15:05:11Z</time>
      </trkpt>
      <trkpt lat="48.89838" lon="1.66749">
        <ele>64.3</ele>
        <time>2022-03-17T15:05:15Z</time>
      </trkpt>
      <trkpt lat="48.89838" lon="1.66757">
        <ele>63.2</ele>
        <time>2022-03-17T15:05:18Z</time>
      </trkpt>
      <trkpt lat="48.89844" lon="1.66761">
        <ele>60.7</ele>
        <time>2022-03-17T15:05:25Z</time>
      </trkpt>
      <trkpt lat="48.89848" lon="1.66767">
        <ele>59.9</ele>
        <time>2022-03-17T15:05:29Z</time>
      </trkpt>
      <trkpt lat="48.8985" lon="1.66775">
        <ele>58.9</ele>
        <time>2022-03-17T15:05:32Z</time>
      </trkpt>
      <trkpt lat="48.89852" lon="1.66788">
        <ele>57.5</ele>
        <time>2022-03-17T15:05:38Z</time>
      </trkpt>
      <trkpt lat="48.89851" lon="1.66795">
        <ele>57</ele>
        <time>2022-03-17T15:05:41Z</time>
      </trkpt>
      <trkpt lat="48.89847" lon="1.668">
        <ele>56.5</ele>
        <time>2022-03-17T15:05:44Z</time>
      </trkpt>
      <trkpt lat="48.89843" lon="1.66802">
        <ele>56.1</ele>
        <time>2022-03-17T15:05:46Z</time>
      </trkpt>
      <trkpt lat="48.89838" lon="1.66804">
        <ele>55.6</ele>
        <time>2022-03-17T15:05:49Z</time>
      </trkpt>
      <trkpt lat="48.89833" lon="1.66808">
        <ele>55.1</ele>
        <time>2022-03-17T15:05:53Z</time>
      </trkpt>
      <trkpt lat="48.89828" lon="1.66814">
        <ele>54.6</ele>
        <time>2022-03-17T15:05:58Z</time>
      </trkpt>
      <trkpt lat="48.89824" lon="1.66819">
        <ele>54.4</ele>
        <time>2022-03-17T15:06:01Z</time>
      </trkpt>
      <trkpt lat="48.8982" lon="1.66825">
        <ele>53.7</ele>
        <time>2022-03-17T15:06:05Z</time>
      </trkpt>
      <trkpt lat="48.89817" lon="1.6683">
        <ele>53</ele>
        <time>2022-03-17T15:06:09Z</time>
      </trkpt>
      <trkpt lat="48.89812" lon="1.66834">
        <ele>52.1</ele>
        <time>2022-03-17T15:06:13Z</time>
      </trkpt>
      <trkpt lat="48.89808" lon="1.66838">
        <ele>51.6</ele>
        <time>2022-03-17T15:06:17Z</time>
      </trkpt>
      <trkpt lat="48.89803" lon="1.66831">
        <ele>51.2</ele>
        <time>2022-03-17T15:06:21Z</time>
      </trkpt>
      <trkpt lat="48.898" lon="1.66825">
        <ele>50.9</ele>
        <time>2022-03-17T15:06:25Z</time>
      </trkpt>
      <trkpt lat="48.89797" lon="1.66819">
        <ele>50.6</ele>
        <time>2022-03-17T15:06:27Z</time>
      </trkpt>
      <trkpt lat="48.89792" lon="1.66812">
        <ele>50.5</ele>
        <time>2022-03-17T15:06:31Z</time>
      </trkpt>
      <trkpt lat="48.89789" lon="1.66807">
        <ele>50.1</ele>
        <time>2022-03-17T15:06:35Z</time>
      </trkpt>
      <trkpt lat="48.89784" lon="1.66803">
        <ele>50.4</ele>
        <time>2022-03-17T15:06:39Z</time>
      </trkpt>
      <trkpt lat="48.8978" lon="1.66801">
        <ele>50.5</ele>
        <time>2022-03-17T15:06:43Z</time>
      </trkpt>
      <trkpt lat="48.89776" lon="1.66798">
        <ele>51</ele>
        <time>2022-03-17T15:06:47Z</time>
      </trkpt>
      <trkpt lat="48.89771" lon="1.66795">
        <ele>51.3</ele>
        <time>2022-03-17T15:06:51Z</time>
      </trkpt>
      <trkpt lat="48.89766" lon="1.66791">
        <ele>51.6</ele>
        <time>2022-03-17T15:06:55Z</time>
      </trkpt>
      <trkpt lat="48.89762" lon="1.66786">
        <ele>51.7</ele>
        <time>2022-03-17T15:07:00Z</time>
      </trkpt>
      <trkpt lat="48.89758" lon="1.66783">
        <ele>51.9</ele>
        <time>2022-03-17T15:07:03Z</time>
      </trkpt>
      <trkpt lat="48.89754" lon="1.6678">
        <ele>50.8</ele>
        <time>2022-03-17T15:07:09Z</time>
      </trkpt>
      <trkpt lat="48.89749" lon="1.66777">
        <ele>49.6</ele>
        <time>2022-03-17T15:07:13Z</time>
      </trkpt>
      <trkpt lat="48.89744" lon="1.66775">
        <ele>49.4</ele>
        <time>2022-03-17T15:07:18Z</time>
      </trkpt>
      <trkpt lat="48.89739" lon="1.66774">
        <ele>49.9</ele>
        <time>2022-03-17T15:07:22Z</time>
      </trkpt>
      <trkpt lat="48.89733" lon="1.66774">
        <ele>51.1</ele>
        <time>2022-03-17T15:07:27Z</time>
      </trkpt>
      <trkpt lat="48.89728" lon="1.66776">
        <ele>52</ele>
        <time>2022-03-17T15:07:31Z</time>
      </trkpt>
      <trkpt lat="48.89723" lon="1.66778">
        <ele>52.2</ele>
        <time>2022-03-17T15:07:36Z</time>
      </trkpt>
      <trkpt lat="48.89719" lon="1.66781">
        <ele>51.4</ele>
        <time>2022-03-17T15:07:40Z</time>
      </trkpt>
      <trkpt lat="48.89714" lon="1.66786">
        <ele>49.1</ele>
        <time>2022-03-17T15:07:45Z</time>
      </trkpt>
      <trkpt lat="48.89711" lon="1.66791">
        <ele>47.4</ele>
        <time>2022-03-17T15:07:48Z</time>
      </trkpt>
      <trkpt lat="48.89706" lon="1.66798">
        <ele>47</ele>
        <time>2022-03-17T15:07:53Z</time>
      </trkpt>
      <trkpt lat="48.89701" lon="1.66803">
        <ele>47</ele>
        <time>2022-03-17T15:07:58Z</time>
      </trkpt>
      <trkpt lat="48.89696" lon="1.66809">
        <ele>46</ele>
        <time>2022-03-17T15:08:03Z</time>
      </trkpt>
      <trkpt lat="48.89693" lon="1.66816">
        <ele>44.9</ele>
        <time>2022-03-17T15:08:08Z</time>
      </trkpt>
      <trkpt lat="48.89688" lon="1.66823">
        <ele>44.4</ele>
        <time>2022-03-17T15:08:13Z</time>
      </trkpt>
      <trkpt lat="48.89684" lon="1.66828">
        <ele>45</ele>
        <time>2022-03-17T15:08:18Z</time>
      </trkpt>
      <trkpt lat="48.89679" lon="1.66833">
        <ele>47</ele>
        <time>2022-03-17T15:08:23Z</time>
      </trkpt>
      <trkpt lat="48.89673" lon="1.66838">
        <ele>47.8</ele>
        <time>2022-03-17T15:08:28Z</time>
      </trkpt>
      <trkpt lat="48.8967" lon="1.66846">
        <ele>48.4</ele>
        <time>2022-03-17T15:08:33Z</time>
      </trkpt>
      <trkpt lat="48.89665" lon="1.66852">
        <ele>49.7</ele>
        <time>2022-03-17T15:08:38Z</time>
      </trkpt>
      <trkpt lat="48.8966" lon="1.66856">
        <ele>52.4</ele>
        <time>2022-03-17T15:08:42Z</time>
      </trkpt>
      <trkpt lat="48.89656" lon="1.6686">
        <ele>54.5</ele>
        <time>2022-03-17T15:08:46Z</time>
      </trkpt>
      <trkpt lat="48.89653" lon="1.66864">
        <ele>55.1</ele>
        <time>2022-03-17T15:08:49Z</time>
      </trkpt>
      <trkpt lat="48.89648" lon="1.66869">
        <ele>54.7</ele>
        <time>2022-03-17T15:08:53Z</time>
      </trkpt>
      <trkpt lat="48.89643" lon="1.66875">
        <ele>53.3</ele>
        <time>2022-03-17T15:08:58Z</time>
      </trkpt>
      <trkpt lat="48.89639" lon="1.6688">
        <ele>52.9</ele>
        <time>2022-03-17T15:09:03Z</time>
      </trkpt>
      <trkpt lat="48.89635" lon="1.66886">
        <ele>53.7</ele>
        <time>2022-03-17T15:09:07Z</time>
      </trkpt>
      <trkpt lat="48.89632" lon="1.66891">
        <ele>55.4</ele>
        <time>2022-03-17T15:09:10Z</time>
      </trkpt>
      <trkpt lat="48.89628" lon="1.66897">
        <ele>57.3</ele>
        <time>2022-03-17T15:09:14Z</time>
      </trkpt>
      <trkpt lat="48.89624" lon="1.66901">
        <ele>58.4</ele>
        <time>2022-03-17T15:09:18Z</time>
      </trkpt>
      <trkpt lat="48.89619" lon="1.66906">
        <ele>59</ele>
        <time>2022-03-17T15:09:23Z</time>
      </trkpt>
      <trkpt lat="48.89615" lon="1.66912">
        <ele>59.5</ele>
        <time>2022-03-17T15:09:28Z</time>
      </trkpt>
      <trkpt lat="48.8961" lon="1.66919">
        <ele>60.9</ele>
        <time>2022-03-17T15:09:34Z</time>
      </trkpt>
      <trkpt lat="48.89609" lon="1.66927">
        <ele>61.5</ele>
        <time>2022-03-17T15:09:39Z</time>
      </trkpt>
      <trkpt lat="48.89613" lon="1.66935">
        <ele>61.4</ele>
        <time>2022-03-17T15:09:43Z</time>
      </trkpt>
      <trkpt lat="48.89617" lon="1.66939">
        <ele>60.8</ele>
        <time>2022-03-17T15:09:47Z</time>
      </trkpt>
      <trkpt lat="48.89621" lon="1.66945">
        <ele>60.4</ele>
        <time>2022-03-17T15:09:51Z</time>
      </trkpt>
      <trkpt lat="48.89624" lon="1.66951">
        <ele>60.4</ele>
        <time>2022-03-17T15:09:55Z</time>
      </trkpt>
      <trkpt lat="48.89627" lon="1.66957">
        <ele>60.6</ele>
        <time>2022-03-17T15:09:58Z</time>
      </trkpt>
      <trkpt lat="48.8963" lon="1.66966">
        <ele>61</ele>
        <time>2022-03-17T15:10:04Z</time>
      </trkpt>
      <trkpt lat="48.89633" lon="1.66976">
        <ele>61.1</ele>
        <time>2022-03-17T15:10:08Z</time>
      </trkpt>
      <trkpt lat="48.89633" lon="1.66983">
        <ele>61.2</ele>
        <time>2022-03-17T15:10:13Z</time>
      </trkpt>
      <trkpt lat="48.89635" lon="1.66993">
        <ele>60.6</ele>
        <time>2022-03-17T15:10:19Z</time>
      </trkpt>
      <trkpt lat="48.89637" lon="1.67001">
        <ele>60.8</ele>
        <time>2022-03-17T15:10:23Z</time>
      </trkpt>
      <trkpt lat="48.8964" lon="1.67008">
        <ele>61.9</ele>
        <time>2022-03-17T15:10:28Z</time>
      </trkpt>
      <trkpt lat="48.89642" lon="1.67018">
        <ele>63.1</ele>
        <time>2022-03-17T15:10:33Z</time>
      </trkpt>
      <trkpt lat="48.89644" lon="1.67027">
        <ele>64.6</ele>
        <time>2022-03-17T15:10:38Z</time>
      </trkpt>
      <trkpt lat="48.89645" lon="1.67034">
        <ele>65.6</ele>
        <time>2022-03-17T15:10:42Z</time>
      </trkpt>
      <trkpt lat="48.89646" lon="1.67041">
        <ele>65.9</ele>
        <time>2022-03-17T15:10:46Z</time>
      </trkpt>
      <trkpt lat="48.89642" lon="1.67035">
        <ele>64.8</ele>
        <time>2022-03-17T15:10:50Z</time>
      </trkpt>
      <trkpt lat="48.8964" lon="1.67029">
        <ele>57</ele>
        <time>2022-03-17T15:11:07Z</time>
      </trkpt>
      <trkpt lat="48.89642" lon="1.67019">
        <ele>57.2</ele>
        <time>2022-03-17T15:11:53Z</time>
      </trkpt>
      <trkpt lat="48.89645" lon="1.67024">
        <ele>58</ele>
        <time>2022-03-17T15:13:15Z</time>
      </trkpt>
      <trkpt lat="48.89645" lon="1.67032">
        <ele>57.5</ele>
        <time>2022-03-17T15:13:20Z</time>
      </trkpt>
      <trkpt lat="48.89644" lon="1.6704">
        <ele>57.5</ele>
        <time>2022-03-17T15:13:23Z</time>
      </trkpt>
      <trkpt lat="48.89644" lon="1.6705">
        <ele>58.2</ele>
        <time>2022-03-17T15:13:26Z</time>
      </trkpt>
      <trkpt lat="48.89645" lon="1.67058">
        <ele>59.1</ele>
        <time>2022-03-17T15:13:29Z</time>
      </trkpt>
      <trkpt lat="48.89648" lon="1.67065">
        <ele>59.9</ele>
        <time>2022-03-17T15:13:34Z</time>
      </trkpt>
      <trkpt lat="48.89648" lon="1.67074">
        <ele>58.5</ele>
        <time>2022-03-17T15:13:44Z</time>
      </trkpt>
      <trkpt lat="48.89645" lon="1.6708">
        <ele>59.1</ele>
        <time>2022-03-17T15:13:48Z</time>
      </trkpt>
      <trkpt lat="48.89642" lon="1.67086">
        <ele>59.9</ele>
        <time>2022-03-17T15:13:51Z</time>
      </trkpt>
      <trkpt lat="48.8964" lon="1.67093">
        <ele>59.6</ele>
        <time>2022-03-17T15:13:54Z</time>
      </trkpt>
      <trkpt lat="48.89637" lon="1.67101">
        <ele>58.4</ele>
        <time>2022-03-17T15:13:59Z</time>
      </trkpt>
      <trkpt lat="48.89635" lon="1.67108">
        <ele>57.9</ele>
        <time>2022-03-17T15:14:02Z</time>
      </trkpt>
      <trkpt lat="48.89633" lon="1.67115">
        <ele>58.3</ele>
        <time>2022-03-17T15:14:05Z</time>
      </trkpt>
      <trkpt lat="48.89632" lon="1.67122">
        <ele>58.5</ele>
        <time>2022-03-17T15:14:08Z</time>
      </trkpt>
      <trkpt lat="48.89628" lon="1.6713">
        <ele>58.5</ele>
        <time>2022-03-17T15:14:12Z</time>
      </trkpt>
      <trkpt lat="48.89627" lon="1.67137">
        <ele>57.9</ele>
        <time>2022-03-17T15:14:15Z</time>
      </trkpt>
      <trkpt lat="48.89622" lon="1.67144">
        <ele>57.8</ele>
        <time>2022-03-17T15:14:20Z</time>
      </trkpt>
      <trkpt lat="48.89618" lon="1.67152">
        <ele>58.6</ele>
        <time>2022-03-17T15:14:25Z</time>
      </trkpt>
      <trkpt lat="48.89613" lon="1.67159">
        <ele>60.7</ele>
        <time>2022-03-17T15:14:30Z</time>
      </trkpt>
      <trkpt lat="48.89608" lon="1.67164">
        <ele>62</ele>
        <time>2022-03-17T15:14:35Z</time>
      </trkpt>
      <trkpt lat="48.89604" lon="1.67167">
        <ele>62.8</ele>
        <time>2022-03-17T15:14:39Z</time>
      </trkpt>
      <trkpt lat="48.896" lon="1.67171">
        <ele>62.4</ele>
        <time>2022-03-17T15:14:43Z</time>
      </trkpt>
      <trkpt lat="48.89595" lon="1.67175">
        <ele>60.9</ele>
        <time>2022-03-17T15:14:47Z</time>
      </trkpt>
      <trkpt lat="48.89591" lon="1.67179">
        <ele>60.6</ele>
        <time>2022-03-17T15:14:51Z</time>
      </trkpt>
      <trkpt lat="48.89585" lon="1.67182">
        <ele>60.7</ele>
        <time>2022-03-17T15:14:55Z</time>
      </trkpt>
      <trkpt lat="48.89581" lon="1.67185">
        <ele>60.5</ele>
        <time>2022-03-17T15:15:00Z</time>
      </trkpt>
      <trkpt lat="48.89576" lon="1.67189">
        <ele>60.6</ele>
        <time>2022-03-17T15:15:04Z</time>
      </trkpt>
      <trkpt lat="48.89571" lon="1.6719">
        <ele>62.5</ele>
        <time>2022-03-17T15:15:08Z</time>
      </trkpt>
      <trkpt lat="48.89566" lon="1.67193">
        <ele>64.9</ele>
        <time>2022-03-17T15:15:12Z</time>
      </trkpt>
      <trkpt lat="48.89561" lon="1.67196">
        <ele>66.4</ele>
        <time>2022-03-17T15:15:15Z</time>
      </trkpt>
      <trkpt lat="48.89557" lon="1.67204">
        <ele>68.4</ele>
        <time>2022-03-17T15:15:20Z</time>
      </trkpt>
      <trkpt lat="48.89553" lon="1.67213">
        <ele>68.5</ele>
        <time>2022-03-17T15:15:25Z</time>
      </trkpt>
      <trkpt lat="48.89551" lon="1.67222">
        <ele>68</ele>
        <time>2022-03-17T15:15:30Z</time>
      </trkpt>
      <trkpt lat="48.89549" lon="1.67231">
        <ele>67.7</ele>
        <time>2022-03-17T15:15:35Z</time>
      </trkpt>
      <trkpt lat="48.89547" lon="1.67239">
        <ele>67.9</ele>
        <time>2022-03-17T15:15:40Z</time>
      </trkpt>
      <trkpt lat="48.89544" lon="1.67247">
        <ele>67.5</ele>
        <time>2022-03-17T15:15:45Z</time>
      </trkpt>
      <trkpt lat="48.89542" lon="1.67255">
        <ele>66.8</ele>
        <time>2022-03-17T15:15:51Z</time>
      </trkpt>
      <trkpt lat="48.89539" lon="1.67262">
        <ele>65.8</ele>
        <time>2022-03-17T15:15:55Z</time>
      </trkpt>
      <trkpt lat="48.89539" lon="1.67271">
        <ele>63.6</ele>
        <time>2022-03-17T15:16:00Z</time>
      </trkpt>
      <trkpt lat="48.8954" lon="1.67279">
        <ele>62.3</ele>
        <time>2022-03-17T15:16:04Z</time>
      </trkpt>
      <trkpt lat="48.89538" lon="1.67287">
        <ele>61.9</ele>
        <time>2022-03-17T15:16:08Z</time>
      </trkpt>
      <trkpt lat="48.89534" lon="1.67292">
        <ele>62.1</ele>
        <time>2022-03-17T15:16:11Z</time>
      </trkpt>
      <trkpt lat="48.89529" lon="1.67297">
        <ele>61.8</ele>
        <time>2022-03-17T15:16:15Z</time>
      </trkpt>
      <trkpt lat="48.89525" lon="1.673">
        <ele>61.2</ele>
        <time>2022-03-17T15:16:19Z</time>
      </trkpt>
      <trkpt lat="48.8952" lon="1.67304">
        <ele>60.4</ele>
        <time>2022-03-17T15:16:24Z</time>
      </trkpt>
      <trkpt lat="48.89515" lon="1.67306">
        <ele>60.3</ele>
        <time>2022-03-17T15:16:28Z</time>
      </trkpt>
      <trkpt lat="48.89509" lon="1.67307">
        <ele>62.1</ele>
        <time>2022-03-17T15:16:32Z</time>
      </trkpt>
      <trkpt lat="48.89504" lon="1.67309">
        <ele>63.4</ele>
        <time>2022-03-17T15:16:35Z</time>
      </trkpt>
      <trkpt lat="48.89498" lon="1.67313">
        <ele>65</ele>
        <time>2022-03-17T15:16:40Z</time>
      </trkpt>
      <trkpt lat="48.89493" lon="1.67317">
        <ele>64.2</ele>
        <time>2022-03-17T15:16:46Z</time>
      </trkpt>
      <trkpt lat="48.89486" lon="1.67319">
        <ele>63.6</ele>
        <time>2022-03-17T15:16:50Z</time>
      </trkpt>
      <trkpt lat="48.8948" lon="1.67321">
        <ele>64.6</ele>
        <time>2022-03-17T15:16:55Z</time>
      </trkpt>
      <trkpt lat="48.89475" lon="1.67323">
        <ele>65.7</ele>
        <time>2022-03-17T15:17:00Z</time>
      </trkpt>
      <trkpt lat="48.8947" lon="1.67326">
        <ele>65.7</ele>
        <time>2022-03-17T15:17:04Z</time>
      </trkpt>
      <trkpt lat="48.89466" lon="1.6733">
        <ele>66.4</ele>
        <time>2022-03-17T15:17:08Z</time>
      </trkpt>
      <trkpt lat="48.89461" lon="1.67334">
        <ele>67.5</ele>
        <time>2022-03-17T15:17:12Z</time>
      </trkpt>
      <trkpt lat="48.89457" lon="1.67339">
        <ele>68</ele>
        <time>2022-03-17T15:17:16Z</time>
      </trkpt>
      <trkpt lat="48.89451" lon="1.67343">
        <ele>68.8</ele>
        <time>2022-03-17T15:17:21Z</time>
      </trkpt>
      <trkpt lat="48.89447" lon="1.67348">
        <ele>69.2</ele>
        <time>2022-03-17T15:17:26Z</time>
      </trkpt>
      <trkpt lat="48.89441" lon="1.67352">
        <ele>68.9</ele>
        <time>2022-03-17T15:17:30Z</time>
      </trkpt>
      <trkpt lat="48.89436" lon="1.67354">
        <ele>69.1</ele>
        <time>2022-03-17T15:17:35Z</time>
      </trkpt>
      <trkpt lat="48.89431" lon="1.67356">
        <ele>70.8</ele>
        <time>2022-03-17T15:17:39Z</time>
      </trkpt>
      <trkpt lat="48.89426" lon="1.6736">
        <ele>72.7</ele>
        <time>2022-03-17T15:17:44Z</time>
      </trkpt>
      <trkpt lat="48.89421" lon="1.67364">
        <ele>73</ele>
        <time>2022-03-17T15:17:48Z</time>
      </trkpt>
      <trkpt lat="48.89418" lon="1.67368">
        <ele>72.6</ele>
        <time>2022-03-17T15:17:52Z</time>
      </trkpt>
      <trkpt lat="48.89414" lon="1.67373">
        <ele>71.8</ele>
        <time>2022-03-17T15:17:56Z</time>
      </trkpt>
      <trkpt lat="48.8941" lon="1.67379">
        <ele>71.6</ele>
        <time>2022-03-17T15:18:00Z</time>
      </trkpt>
      <trkpt lat="48.89406" lon="1.67387">
        <ele>70.8</ele>
        <time>2022-03-17T15:18:05Z</time>
      </trkpt>
      <trkpt lat="48.89402" lon="1.67394">
        <ele>69.2</ele>
        <time>2022-03-17T15:18:11Z</time>
      </trkpt>
      <trkpt lat="48.89397" lon="1.67401">
        <ele>68.6</ele>
        <time>2022-03-17T15:18:16Z</time>
      </trkpt>
      <trkpt lat="48.89392" lon="1.67408">
        <ele>68.9</ele>
        <time>2022-03-17T15:18:20Z</time>
      </trkpt>
      <trkpt lat="48.89388" lon="1.67414">
        <ele>69.9</ele>
        <time>2022-03-17T15:18:25Z</time>
      </trkpt>
      <trkpt lat="48.89384" lon="1.67419">
        <ele>71.4</ele>
        <time>2022-03-17T15:18:30Z</time>
      </trkpt>
      <trkpt lat="48.8938" lon="1.67425">
        <ele>71.9</ele>
        <time>2022-03-17T15:18:35Z</time>
      </trkpt>
      <trkpt lat="48.89377" lon="1.67429">
        <ele>71.2</ele>
        <time>2022-03-17T15:18:38Z</time>
      </trkpt>
      <trkpt lat="48.89372" lon="1.67434">
        <ele>69.9</ele>
        <time>2022-03-17T15:18:42Z</time>
      </trkpt>
      <trkpt lat="48.89368" lon="1.67438">
        <ele>69.2</ele>
        <time>2022-03-17T15:18:46Z</time>
      </trkpt>
      <trkpt lat="48.89364" lon="1.67446">
        <ele>68.8</ele>
        <time>2022-03-17T15:18:51Z</time>
      </trkpt>
      <trkpt lat="48.89359" lon="1.6745">
        <ele>69.3</ele>
        <time>2022-03-17T15:18:56Z</time>
      </trkpt>
      <trkpt lat="48.89355" lon="1.67454">
        <ele>70.7</ele>
        <time>2022-03-17T15:19:00Z</time>
      </trkpt>
      <trkpt lat="48.89351" lon="1.67458">
        <ele>72</ele>
        <time>2022-03-17T15:19:04Z</time>
      </trkpt>
      <trkpt lat="48.89346" lon="1.67462">
        <ele>72.2</ele>
        <time>2022-03-17T15:19:08Z</time>
      </trkpt>
      <trkpt lat="48.89342" lon="1.67466">
        <ele>71.7</ele>
        <time>2022-03-17T15:19:13Z</time>
      </trkpt>
      <trkpt lat="48.89338" lon="1.67471">
        <ele>71.3</ele>
        <time>2022-03-17T15:19:16Z</time>
      </trkpt>
      <trkpt lat="48.89335" lon="1.67476">
        <ele>71.3</ele>
        <time>2022-03-17T15:19:20Z</time>
      </trkpt>
      <trkpt lat="48.89331" lon="1.67481">
        <ele>71.6</ele>
        <time>2022-03-17T15:19:24Z</time>
      </trkpt>
      <trkpt lat="48.89327" lon="1.67486">
        <ele>73.4</ele>
        <time>2022-03-17T15:19:28Z</time>
      </trkpt>
      <trkpt lat="48.89324" lon="1.67492">
        <ele>75.3</ele>
        <time>2022-03-17T15:19:33Z</time>
      </trkpt>
      <trkpt lat="48.8932" lon="1.67497">
        <ele>75.4</ele>
        <time>2022-03-17T15:19:36Z</time>
      </trkpt>
      <trkpt lat="48.89316" lon="1.67499">
        <ele>74.9</ele>
        <time>2022-03-17T15:19:40Z</time>
      </trkpt>
      <trkpt lat="48.89311" lon="1.67502">
        <ele>74.2</ele>
        <time>2022-03-17T15:19:44Z</time>
      </trkpt>
      <trkpt lat="48.89307" lon="1.67509">
        <ele>73.7</ele>
        <time>2022-03-17T15:19:49Z</time>
      </trkpt>
      <trkpt lat="48.89308" lon="1.67516">
        <ele>73.6</ele>
        <time>2022-03-17T15:19:53Z</time>
      </trkpt>
      <trkpt lat="48.89305" lon="1.67523">
        <ele>74.3</ele>
        <time>2022-03-17T15:19:57Z</time>
      </trkpt>
      <trkpt lat="48.89299" lon="1.67527">
        <ele>74.7</ele>
        <time>2022-03-17T15:20:02Z</time>
      </trkpt>
      <trkpt lat="48.89296" lon="1.67533">
        <ele>74.6</ele>
        <time>2022-03-17T15:20:06Z</time>
      </trkpt>
      <trkpt lat="48.89294" lon="1.67542">
        <ele>74.1</ele>
        <time>2022-03-17T15:20:11Z</time>
      </trkpt>
      <trkpt lat="48.89294" lon="1.6755">
        <ele>73.7</ele>
        <time>2022-03-17T15:20:15Z</time>
      </trkpt>
      <trkpt lat="48.89294" lon="1.67558">
        <ele>73</ele>
        <time>2022-03-17T15:20:20Z</time>
      </trkpt>
      <trkpt lat="48.89295" lon="1.67565">
        <ele>72.4</ele>
        <time>2022-03-17T15:20:24Z</time>
      </trkpt>
      <trkpt lat="48.89298" lon="1.67572">
        <ele>71.7</ele>
        <time>2022-03-17T15:20:28Z</time>
      </trkpt>
      <trkpt lat="48.89302" lon="1.67577">
        <ele>71.4</ele>
        <time>2022-03-17T15:20:31Z</time>
      </trkpt>
      <trkpt lat="48.89306" lon="1.67581">
        <ele>70.7</ele>
        <time>2022-03-17T15:20:35Z</time>
      </trkpt>
      <trkpt lat="48.89309" lon="1.67586">
        <ele>69.9</ele>
        <time>2022-03-17T15:20:39Z</time>
      </trkpt>
      <trkpt lat="48.89313" lon="1.67592">
        <ele>69.1</ele>
        <time>2022-03-17T15:20:43Z</time>
      </trkpt>
      <trkpt lat="48.89316" lon="1.67597">
        <ele>67.8</ele>
        <time>2022-03-17T15:20:47Z</time>
      </trkpt>
      <trkpt lat="48.8932" lon="1.67603">
        <ele>65.7</ele>
        <time>2022-03-17T15:20:51Z</time>
      </trkpt>
      <trkpt lat="48.89322" lon="1.67611">
        <ele>62.6</ele>
        <time>2022-03-17T15:20:56Z</time>
      </trkpt>
      <trkpt lat="48.89326" lon="1.6762">
        <ele>60.1</ele>
        <time>2022-03-17T15:21:01Z</time>
      </trkpt>
      <trkpt lat="48.8933" lon="1.67628">
        <ele>59.8</ele>
        <time>2022-03-17T15:21:06Z</time>
      </trkpt>
      <trkpt lat="48.89333" lon="1.67635">
        <ele>60</ele>
        <time>2022-03-17T15:21:10Z</time>
      </trkpt>
      <trkpt lat="48.89335" lon="1.67641">
        <ele>59.3</ele>
        <time>2022-03-17T15:21:14Z</time>
      </trkpt>
      <trkpt lat="48.89336" lon="1.67649">
        <ele>58.6</ele>
        <time>2022-03-17T15:21:17Z</time>
      </trkpt>
      <trkpt lat="48.89335" lon="1.67657">
        <ele>58.2</ele>
        <time>2022-03-17T15:21:21Z</time>
      </trkpt>
      <trkpt lat="48.89331" lon="1.67662">
        <ele>57.9</ele>
        <time>2022-03-17T15:21:24Z</time>
      </trkpt>
      <trkpt lat="48.89326" lon="1.67665">
        <ele>57.6</ele>
        <time>2022-03-17T15:21:27Z</time>
      </trkpt>
      <trkpt lat="48.8932" lon="1.67669">
        <ele>57</ele>
        <time>2022-03-17T15:21:31Z</time>
      </trkpt>
      <trkpt lat="48.89316" lon="1.67673">
        <ele>56.5</ele>
        <time>2022-03-17T15:21:35Z</time>
      </trkpt>
      <trkpt lat="48.89313" lon="1.67677">
        <ele>56.6</ele>
        <time>2022-03-17T15:21:39Z</time>
      </trkpt>
      <trkpt lat="48.89308" lon="1.67682">
        <ele>56.9</ele>
        <time>2022-03-17T15:21:44Z</time>
      </trkpt>
      <trkpt lat="48.89303" lon="1.67687">
        <ele>56.8</ele>
        <time>2022-03-17T15:21:48Z</time>
      </trkpt>
      <trkpt lat="48.89299" lon="1.67693">
        <ele>56.8</ele>
        <time>2022-03-17T15:21:52Z</time>
      </trkpt>
      <trkpt lat="48.89295" lon="1.67699">
        <ele>57.5</ele>
        <time>2022-03-17T15:21:56Z</time>
      </trkpt>
      <trkpt lat="48.89291" lon="1.67706">
        <ele>58.9</ele>
        <time>2022-03-17T15:22:01Z</time>
      </trkpt>
      <trkpt lat="48.89287" lon="1.67712">
        <ele>60</ele>
        <time>2022-03-17T15:22:05Z</time>
      </trkpt>
      <trkpt lat="48.89284" lon="1.67716">
        <ele>60.8</ele>
        <time>2022-03-17T15:22:08Z</time>
      </trkpt>
      <trkpt lat="48.8928" lon="1.67723">
        <ele>61</ele>
        <time>2022-03-17T15:22:12Z</time>
      </trkpt>
      <trkpt lat="48.89276" lon="1.6773">
        <ele>61</ele>
        <time>2022-03-17T15:22:16Z</time>
      </trkpt>
      <trkpt lat="48.89277" lon="1.6774">
        <ele>60.2</ele>
        <time>2022-03-17T15:22:22Z</time>
      </trkpt>
      <trkpt lat="48.89282" lon="1.67748">
        <ele>59.2</ele>
        <time>2022-03-17T15:22:27Z</time>
      </trkpt>
      <trkpt lat="48.89286" lon="1.67753">
        <ele>58.9</ele>
        <time>2022-03-17T15:22:31Z</time>
      </trkpt>
      <trkpt lat="48.8929" lon="1.6776">
        <ele>59.1</ele>
        <time>2022-03-17T15:22:35Z</time>
      </trkpt>
      <trkpt lat="48.89292" lon="1.67767">
        <ele>59</ele>
        <time>2022-03-17T15:22:40Z</time>
      </trkpt>
      <trkpt lat="48.89295" lon="1.67772">
        <ele>58.6</ele>
        <time>2022-03-17T15:22:45Z</time>
      </trkpt>
      <trkpt lat="48.89298" lon="1.67779">
        <ele>57.7</ele>
        <time>2022-03-17T15:22:51Z</time>
      </trkpt>
      <trkpt lat="48.893" lon="1.67786">
        <ele>57.4</ele>
        <time>2022-03-17T15:22:55Z</time>
      </trkpt>
      <trkpt lat="48.89303" lon="1.67792">
        <ele>57.5</ele>
        <time>2022-03-17T15:22:58Z</time>
      </trkpt>
      <trkpt lat="48.89306" lon="1.67799">
        <ele>57.9</ele>
        <time>2022-03-17T15:23:10Z</time>
      </trkpt>
      <trkpt lat="48.89304" lon="1.67806">
        <ele>57</ele>
        <time>2022-03-17T15:23:14Z</time>
      </trkpt>
      <trkpt lat="48.893" lon="1.67811">
        <ele>55</ele>
        <time>2022-03-17T15:23:18Z</time>
      </trkpt>
      <trkpt lat="48.89297" lon="1.67817">
        <ele>53.6</ele>
        <time>2022-03-17T15:23:22Z</time>
      </trkpt>
      <trkpt lat="48.89291" lon="1.67817">
        <ele>53.1</ele>
        <time>2022-03-17T15:23:25Z</time>
      </trkpt>
      <trkpt lat="48.89286" lon="1.67815">
        <ele>52.7</ele>
        <time>2022-03-17T15:23:29Z</time>
      </trkpt>
      <trkpt lat="48.89281" lon="1.67814">
        <ele>52.4</ele>
        <time>2022-03-17T15:23:32Z</time>
      </trkpt>
      <trkpt lat="48.89275" lon="1.67817">
        <ele>52.2</ele>
        <time>2022-03-17T15:23:37Z</time>
      </trkpt>
      <trkpt lat="48.89268" lon="1.67818">
        <ele>52.1</ele>
        <time>2022-03-17T15:23:42Z</time>
      </trkpt>
      <trkpt lat="48.89264" lon="1.67821">
        <ele>51.9</ele>
        <time>2022-03-17T15:23:47Z</time>
      </trkpt>
      <trkpt lat="48.8926" lon="1.67822">
        <ele>51.6</ele>
        <time>2022-03-17T15:23:51Z</time>
      </trkpt>
      <trkpt lat="48.89255" lon="1.67824">
        <ele>51.4</ele>
        <time>2022-03-17T15:23:54Z</time>
      </trkpt>
      <trkpt lat="48.89249" lon="1.67825">
        <ele>50.9</ele>
        <time>2022-03-17T15:23:57Z</time>
      </trkpt>
      <trkpt lat="48.89242" lon="1.67828">
        <ele>50.3</ele>
        <time>2022-03-17T15:24:02Z</time>
      </trkpt>
      <trkpt lat="48.89235" lon="1.67828">
        <ele>51</ele>
        <time>2022-03-17T15:24:10Z</time>
      </trkpt>
      <trkpt lat="48.89231" lon="1.67827">
        <ele>51.7</ele>
        <time>2022-03-17T15:24:13Z</time>
      </trkpt>
      <trkpt lat="48.89224" lon="1.67827">
        <ele>52.3</ele>
        <time>2022-03-17T15:24:17Z</time>
      </trkpt>
      <trkpt lat="48.89217" lon="1.67828">
        <ele>53.8</ele>
        <time>2022-03-17T15:24:22Z</time>
      </trkpt>
      <trkpt lat="48.89213" lon="1.67836">
        <ele>55.2</ele>
        <time>2022-03-17T15:24:27Z</time>
      </trkpt>
      <trkpt lat="48.89212" lon="1.67844">
        <ele>55.3</ele>
        <time>2022-03-17T15:24:31Z</time>
      </trkpt>
      <trkpt lat="48.89212" lon="1.67852">
        <ele>55.2</ele>
        <time>2022-03-17T15:24:34Z</time>
      </trkpt>
      <trkpt lat="48.89214" lon="1.6786">
        <ele>55</ele>
        <time>2022-03-17T15:24:37Z</time>
      </trkpt>
      <trkpt lat="48.89218" lon="1.67867">
        <ele>55.8</ele>
        <time>2022-03-17T15:24:41Z</time>
      </trkpt>
      <trkpt lat="48.8922" lon="1.67873">
        <ele>56.2</ele>
        <time>2022-03-17T15:24:44Z</time>
      </trkpt>
      <trkpt lat="48.89221" lon="1.6788">
        <ele>56.5</ele>
        <time>2022-03-17T15:24:49Z</time>
      </trkpt>
      <trkpt lat="48.89224" lon="1.67887">
        <ele>56.4</ele>
        <time>2022-03-17T15:24:52Z</time>
      </trkpt>
      <trkpt lat="48.89219" lon="1.67891">
        <ele>56.8</ele>
        <time>2022-03-17T15:24:57Z</time>
      </trkpt>
      <trkpt lat="48.89214" lon="1.67893">
        <ele>57.1</ele>
        <time>2022-03-17T15:25:00Z</time>
      </trkpt>
      <trkpt lat="48.8921" lon="1.67893">
        <ele>57.4</ele>
        <time>2022-03-17T15:25:03Z</time>
      </trkpt>
      <trkpt lat="48.89204" lon="1.67897">
        <ele>56.6</ele>
        <time>2022-03-17T15:25:08Z</time>
      </trkpt>
      <trkpt lat="48.892" lon="1.67896">
        <ele>55.6</ele>
        <time>2022-03-17T15:25:11Z</time>
      </trkpt>
      <trkpt lat="48.89195" lon="1.67896">
        <ele>54.1</ele>
        <time>2022-03-17T15:25:16Z</time>
      </trkpt>
      <trkpt lat="48.8919" lon="1.679">
        <ele>53.4</ele>
        <time>2022-03-17T15:25:21Z</time>
      </trkpt>
      <trkpt lat="48.89186" lon="1.67905">
        <ele>53.2</ele>
        <time>2022-03-17T15:25:24Z</time>
      </trkpt>
      <trkpt lat="48.89183" lon="1.6791">
        <ele>53.4</ele>
        <time>2022-03-17T15:25:28Z</time>
      </trkpt>
      <trkpt lat="48.89178" lon="1.67907">
        <ele>53.5</ele>
        <time>2022-03-17T15:25:33Z</time>
      </trkpt>
      <trkpt lat="48.89173" lon="1.67905">
        <ele>53.7</ele>
        <time>2022-03-17T15:25:38Z</time>
      </trkpt>
      <trkpt lat="48.89168" lon="1.67908">
        <ele>54</ele>
        <time>2022-03-17T15:25:42Z</time>
      </trkpt>
      <trkpt lat="48.89166" lon="1.67916">
        <ele>54.1</ele>
        <time>2022-03-17T15:25:48Z</time>
      </trkpt>
      <trkpt lat="48.89162" lon="1.67922">
        <ele>53.8</ele>
        <time>2022-03-17T15:25:53Z</time>
      </trkpt>
      <trkpt lat="48.89158" lon="1.67925">
        <ele>53.4</ele>
        <time>2022-03-17T15:26:00Z</time>
      </trkpt>
      <trkpt lat="48.89153" lon="1.67927">
        <ele>53.6</ele>
        <time>2022-03-17T15:26:05Z</time>
      </trkpt>
      <trkpt lat="48.89148" lon="1.67931">
        <ele>53.9</ele>
        <time>2022-03-17T15:26:15Z</time>
      </trkpt>
      <trkpt lat="48.89143" lon="1.67931">
        <ele>53.7</ele>
        <time>2022-03-17T15:26:20Z</time>
      </trkpt>
      <trkpt lat="48.89138" lon="1.67936">
        <ele>53.7</ele>
        <time>2022-03-17T15:26:25Z</time>
      </trkpt>
      <trkpt lat="48.89135" lon="1.67944">
        <ele>54.1</ele>
        <time>2022-03-17T15:26:31Z</time>
      </trkpt>
      <trkpt lat="48.89131" lon="1.67949">
        <ele>54.2</ele>
        <time>2022-03-17T15:26:38Z</time>
      </trkpt>
      <trkpt lat="48.89129" lon="1.67955">
        <ele>53.7</ele>
        <time>2022-03-17T15:26:43Z</time>
      </trkpt>
      <trkpt lat="48.89124" lon="1.67956">
        <ele>53.3</ele>
        <time>2022-03-17T15:26:49Z</time>
      </trkpt>
      <trkpt lat="48.89118" lon="1.67956">
        <ele>53.3</ele>
        <time>2022-03-17T15:26:53Z</time>
      </trkpt>
      <trkpt lat="48.89113" lon="1.67956">
        <ele>53.3</ele>
        <time>2022-03-17T15:26:57Z</time>
      </trkpt>
      <trkpt lat="48.89108" lon="1.67956">
        <ele>53.3</ele>
        <time>2022-03-17T15:27:01Z</time>
      </trkpt>
      <trkpt lat="48.89103" lon="1.67954">
        <ele>53.6</ele>
        <time>2022-03-17T15:27:05Z</time>
      </trkpt>
      <trkpt lat="48.89097" lon="1.67953">
        <ele>54.1</ele>
        <time>2022-03-17T15:27:11Z</time>
      </trkpt>
      <trkpt lat="48.89092" lon="1.67955">
        <ele>54.2</ele>
        <time>2022-03-17T15:27:15Z</time>
      </trkpt>
    </trkseg>
  </trk>
</gpx>